# Wetter Temperatur Luftdruck Luftfeuchtigkeit Sichtweite Windgeschwindigkeit Windrichtung Zeit
1 Clouds 29 1012 78 10000 1 50 20:38 17.10.2019
2 Clouds 29 1012 78 10000 1 50 20:18 17.10.2019
3 Clouds 30 1012 78 10000 1.5 40 19:42 17.10.2019
4 Clouds 30 1012 78 10000 1.5 40 19:42 17.10.2019
5 Clouds 29 1012 78 10000 2.91 11.58 19:21 17.10.2019
6 Clouds 29 1012 83 10000 1 50 18:59 17.10.2019
7 Clouds 29 1013 74 10000 1.5 70 18:39 17.10.2019
8 Clouds 29 1013 74 10000 1.5 70 18:21 17.10.2019
9 Clouds 30 1012 74 10000 2.58 16.578 17:55 17.10.2019
10 Clouds 30 1012 74 10000 2.58 16.578 17:55 17.10.2019
11 Clouds 29 1012 83 10000 1 60 17:36 17.10.2019
12 Clouds 29 1012 83 10000 1 60 17:18 17.10.2019
13 Clouds 30 1012 79 10000 1 50 16:41 17.10.2019
14 Clouds 30 1012 79 10000 1.5 20 16:19 17.10.2019
15 Clouds 30 1012 79 10000 1.5 20 16:19 17.10.2019
16 Clouds 30 1011 74 10000 2.1 30 15:59 17.10.2019
17 Clouds 30 1011 74 10000 4.1 30 15:40 17.10.2019
18 Clouds 30 1011 74 10000 4.1 30 15:20 17.10.2019
19 Clouds 30 1011 74 10000 4.1 30 15:20 17.10.2019
20 Thunderstorm 30 1010 74 10000 2.1 30 14:57 17.10.2019
21 Thunderstorm 30 1010 70 10000 2.6 10 14:38 17.10.2019
22 Thunderstorm 31 1010 70 10000 2.6 10 14:20 17.10.2019
23 Clouds 32 1009 59 10000 3.1 90 13:41 17.10.2019
24 Clouds 32 1009 59 10000 3.1 90 13:21 17.10.2019
25 Clouds 32 1009 59 10000 3.1 90 12:58 17.10.2019
26 Clouds 32 1009 59 10000 3.1 90 12:39 17.10.2019
27 Clouds 33 1009 59 10000 3.1 90 12:19 17.10.2019
28 Clouds 33 1009 55 10000 4.1 60 11:56 17.10.2019
29 Clouds 33 1009 55 10000 4.6 90 11:37 17.10.2019
30 Clouds 33 1009 55 10000 4.6 90 11:18 17.10.2019
31 Clouds 34 1009 59 10000 5.1 90 10:42 17.10.2019
32 Clouds 34 1009 59 10000 5.1 90 10:42 17.10.2019
33 Clouds 35 1009 59 10000 5.1 90 10:20 17.10.2019
34 Clouds 34 1009 62 10000 5.7 80 09:57 17.10.2019
35 Clouds 34 1010 59 10000 6.2 80 09:38 17.10.2019
36 Clouds 34 1010 59 10000 6.2 80 09:19 17.10.2019
37 Clouds 33 1010 62 10000 5.7 70 08:56 17.10.2019
38 Clouds 33 1011 62 10000 5.1 80 08:37 17.10.2019
39 Clouds 33 1011 62 10000 5.1 80 08:18 17.10.2019
40 Clouds 34 1012 62 10000 4.6 90 07:41 17.10.2019
41 Clouds 34 1012 62 10000 4.6 90 07:21 17.10.2019
42 Clouds 33 1012 66 10000 2.6 70 06:55 17.10.2019
43 Clouds 33 1013 66 10000 2.6 50 06:37 17.10.2019
44 Clouds 32 1013 66 10000 2.6 50 06:18 17.10.2019
45 Clouds 32 1013 66 10000 2.1 0 05:40 17.10.2019
46 Clouds 32 1013 66 10000 2.1 0 05:19 17.10.2019
47 Clouds 32 1013 70 10000 2.1 80 04:48 17.10.2019
48 Clouds 31 1013 74 10000 2.6 30 03:46 17.10.2019
49 Clouds 28 1012 83 10000 2.6 20 01:57 17.10.2019
50 Clouds 28 1012 83 10000 2.6 20 01:57 17.10.2019
51 Clouds 28 1011 88 10000 2.6 40 00:42 17.10.2019
52 Clouds 28 1010 83 10000 2.1 360 00:21 17.10.2019
53 Clouds 28 1011 83 10000 4.1 20 23:59 16.10.2019
54 Clouds 28 1011 83 10000 4.1 20 23:40 16.10.2019
55 Clouds 28 1011 83 10000 4.1 20 23:18 16.10.2019
56 Clouds 28 1011 78 10000 4.1 10 22:54 16.10.2019
57 Clouds 28 1011 78 10000 3.1 10 22:36 16.10.2019
58 Clouds 28 1011 78 10000 3.1 10 22:36 16.10.2019
59 Clouds 28 1011 78 10000 3.1 10 22:18 16.10.2019
60 Clouds 28 1011 78 10000 3.1 340 21:54 16.10.2019
61 Clouds 28 1011 78 10000 3.1 340 21:54 16.10.2019
62 Clouds 28 1011 78 10000 3.1 340 21:54 16.10.2019
63 Clouds 29 1011 78 10000 3.1 10 21:36 16.10.2019
64 Clouds 29 1011 78 10000 3.1 10 21:18 16.10.2019
65 Clouds 29 1011 74 10000 2.1 0 20:56 16.10.2019
66 -273 0 0 0 0 0 20:56 16.10.2019
67 Clouds 29 1012 83 10000 2.6 20 20:37 16.10.2019
68 Clouds 29 1012 83 10000 2.6 20 20:37 16.10.2019
69 Clouds 29 1012 83 10000 2.6 20 20:19 16.10.2019
70 Clouds 29 1012 79 10000 0.5 30 19:40 16.10.2019
71 Clouds 29 1012 79 10000 0.5 30 19:21 16.10.2019
72 Clouds 30 1012 70 10000 2.6 10 18:58 16.10.2019
73 -273 0 0 0 0 0 18:58 16.10.2019
74 Clouds 30 1012 70 10000 2.1 10 18:38 16.10.2019
75 Clouds 30 1012 70 10000 2.1 10 18:18 16.10.2019
76 Clouds 30 1012 70 10000 2.1 10 18:18 16.10.2019
77 -273 0 0 0 0 0 17:55 16.10.2019
78 Clouds 30 1012 74 10000 4.107 63 17:37 16.10.2019
79 Clouds 30 1012 74 10000 4.107 63 17:18 16.10.2019
80 Clouds 30 1012 74 10000 1 70 16:55 16.10.2019
81 Clouds 30 1012 74 10000 1.5 90 16:37 16.10.2019
82 Clouds 30 1012 74 10000 1.5 90 16:18 16.10.2019
83 Clouds 31 1010 66 10000 1.5 100 15:40 16.10.2019
84 Clouds 31 1010 66 10000 1.5 100 15:19 16.10.2019
85 Clouds 31 1010 66 10000 1.5 100 14:59 16.10.2019
86 Clouds 31 1010 66 10000 1.5 100 14:40 16.10.2019
87 Clouds 31 1010 66 10000 2.1 80 14:21 16.10.2019
88 Clouds 31 1009 66 10000 2.1 90 13:58 16.10.2019
89 Clouds 31 1009 66 10000 2.1 90 13:40 16.10.2019
90 Clouds 31 1009 66 10000 2.6 100 13:21 16.10.2019
91 Clouds 32 1009 62 10000 3.1 80 12:44 16.10.2019
92 Clouds 32 1009 59 10000 4.1 60 12:20 16.10.2019
93 Clouds 32 1009 62 10000 4.6 70 11:55 16.10.2019
94 Clouds 32 1009 62 10000 4.6 70 11:37 16.10.2019
95 Clouds 33 1009 59 10000 4.6 70 11:18 16.10.2019
96 Clouds 33 1009 59 10000 5.1 70 10:36 16.10.2019
97 Clouds 35 1009 59 10000 5.7 80 10:18 16.10.2019
98 -273 0 0 0 0 0 09:41 16.10.2019
99 Clouds 34 1009 59 10000 5.1 70 09:40 16.10.2019
100 Clouds 33 1010 62 10000 5.1 80 09:22 16.10.2019
101 Clouds 33 1010 59 10000 4.6 100 08:57 16.10.2019
102 Clouds 33 1010 59 10000 4.6 100 08:38 16.10.2019
103 Clouds 33 1011 59 10000 5.1 120 08:19 16.10.2019
104 Clouds 33 1012 66 10000 4.6 70 07:42 16.10.2019
105 Clouds 33 1012 66 10000 3.6 80 07:23 16.10.2019
106 Clouds 33 1012 66 10000 4.1 60 06:48 16.10.2019
107 Clouds 33 1013 62 10000 2.6 80 06:29 16.10.2019
108 Clouds 31 1013 79 10000 2.1 50 04:31 16.10.2019
109 Rain 29 1013 83 10000 2.6 50 02:51 16.10.2019
110 Rain 27 1012 88 10000 1.5 340 01:20 16.10.2019
111 Clouds 27 1011 83 10000 2.1 350 00:59 16.10.2019
112 Clouds 27 1011 83 10000 2.1 350 00:40 16.10.2019
113 Clouds 27 1011 94 10000 4.565 24 23:58 15.10.2019
114 Clouds 27 1011 94 10000 4.565 24 23:38 15.10.2019
115 Clouds 27 1011 88 10000 2.1 20 23:19 15.10.2019
116 Clouds 27 1011 88 10000 0.5 30 22:55 15.10.2019
117 Clouds 27 1011 88 10000 0.5 30 22:55 15.10.2019
118 Clouds 27 1011 88 10000 0.5 30 22:37 15.10.2019
119 Clouds 27 1011 88 10000 1.5 80 22:18 15.10.2019
120 Clouds 27 1011 88 10000 0.5 40 21:54 15.10.2019
121 Clouds 27 1011 88 10000 0.5 40 21:54 15.10.2019
122 Clouds 27 1011 88 10000 0.5 40 21:36 15.10.2019
123 Clouds 28 1012 88 10000 2.1 30 21:18 15.10.2019
124 Clouds 28 1012 88 10000 2.6 30 20:54 15.10.2019
125 Clouds 28 1012 88 10000 2.6 30 20:36 15.10.2019
126 Clouds 28 1012 88 10000 2.1 50 20:18 15.10.2019
127 Clouds 28 1012 83 10000 4.046 46 19:41 15.10.2019
128 Clouds 28 1012 83 10000 4.046 46 19:41 15.10.2019
129 Clouds 28 1012 78 10000 2.1 20 19:20 15.10.2019
130 Clouds 28 1012 78 10000 2.1 20 19:20 15.10.2019
131 Clouds 28 1012 88 10000 1 30 18:57 15.10.2019
132 Clouds 28 1012 88 10000 1 30 18:39 15.10.2019
133 Clouds 28 1013 88 10000 1 60 18:20 15.10.2019
134 Clouds 28 1013 88 10000 2.834 46 17:43 15.10.2019
135 Clouds 28 1013 88 10000 2.834 46 17:21 15.10.2019
136 Clouds 28 1012 83 10000 2.1 140 16:59 15.10.2019
137 Clouds 28 1012 83 10000 2.1 140 16:41 15.10.2019
138 Clouds 28 1012 88 10000 2.6 170 16:21 15.10.2019
139 Rain 28 1012 83 9000 2.1 90 15:55 15.10.2019
140 Rain 28 1012 83 9000 2.1 90 15:37 15.10.2019
141 Rain 28 1011 88 8000 5.1 90 15:19 15.10.2019
142 Clouds 30 1011 62 10000 2.1 100 14:54 15.10.2019
143 Clouds 30 1011 62 10000 2.1 100 14:36 15.10.2019
144 Clouds 31 1010 70 10000 2.1 50 14:18 15.10.2019
145 Clouds 31 1010 62 10000 2.1 80 13:43 15.10.2019
146 Clouds 32 1009 59 10000 2.6 80 13:20 15.10.2019
147 Clouds 32 1009 59 10000 3.1 60 12:46 15.10.2019
148 Clouds 32 1009 55 10000 1.5 60 12:23 15.10.2019
149 Clouds 33 1009 55 10000 3.1 50 11:59 15.10.2019
150 Clouds 33 1009 55 10000 3.1 50 11:40 15.10.2019
151 Clouds 34 1009 52 10000 1.5 30 11:20 15.10.2019
152 Clouds 34 1009 59 10000 3.6 70 10:46 15.10.2019
153 Clouds 34 1010 59 10000 2.6 100 10:24 15.10.2019
154 Clouds 33 1010 59 10000 3.1 70 09:59 15.10.2019
155 Clouds 34 1011 55 10000 3.6 100 09:40 15.10.2019
156 Clouds 34 1011 55 10000 3.6 100 09:21 15.10.2019
157 Clouds 34 1011 55 10000 3.6 100 09:21 15.10.2019
158 Clouds 33 1011 55 10000 3.6 80 08:57 15.10.2019
159 Clouds 33 1011 59 10000 4.1 90 08:39 15.10.2019
160 Clouds 33 1011 59 10000 4.1 90 08:18 15.10.2019
161 Clouds 34 1012 59 10000 3.6 70 07:43 15.10.2019
162 Clouds 33 1012 62 10000 2.6 110 07:22 15.10.2019
163 Clouds 33 1013 66 10000 1 0 06:55 15.10.2019
164 Clouds 33 1013 66 10000 1 0 06:37 15.10.2019
165 Clouds 32 1013 66 10000 1.5 80 05:56 15.10.2019
166 Clouds 31 1013 66 10000 1.5 80 05:36 15.10.2019
167 Clouds 30 1013 70 10000 2.6 50 04:40 15.10.2019
168 Clear 29 1013 78 10000 2.6 20 03:59 15.10.2019
169 Clouds 29 1012 78 8000 2.1 20 03:30 15.10.2019
170 Clouds 27 1012 94 8000 1.5 290 01:51 15.10.2019
171 Clouds 26 1011 94 8000 2.1 310 01:24 15.10.2019
172 Clouds 27 1011 94 10000 2.1 310 00:58 15.10.2019
173 -273 0 0 0 0 0 00:24 15.10.2019
174 Clouds 27 1011 94 10000 2.1 300 23:55 14.10.2019
175 Clouds 27 1011 94 10000 2.1 300 23:36 14.10.2019
176 Clouds 27 1011 88 10000 2.1 320 23:18 14.10.2019
177 Clouds 27 1011 88 10000 2.6 310 22:39 14.10.2019
178 Clouds 27 1012 88 10000 2.6 320 22:19 14.10.2019
179 Clouds 27 1012 88 10000 2.1 290 21:56 14.10.2019
180 Clouds 27 1012 88 10000 2.1 290 21:38 14.10.2019
181 Clouds 27 1012 88 10000 2.6 310 21:20 14.10.2019
182 Clouds 27 1012 88 10000 2.6 310 21:20 14.10.2019
183 Clouds 28 1012 88 10000 2.1 320 20:56 14.10.2019
184 Clouds 28 1012 88 10000 2.1 320 20:37 14.10.2019
185 Clouds 28 1013 88 10000 2.1 350 20:18 14.10.2019
186 Clouds 28 1013 88 10000 3.1 310 19:42 14.10.2019
187 Clouds 28 1013 88 10000 2.1 300 19:23 14.10.2019
188 Clouds 28 1013 83 10000 2.1 340 18:59 14.10.2019
189 Clouds 28 1013 83 10000 2.1 340 18:39 14.10.2019
190 Clouds 28 1013 83 10000 2.1 340 18:19 14.10.2019
191 Clouds 28 1013 83 10000 2.1 340 18:19 14.10.2019
192 Clouds 28 1013 83 10000 2.1 330 17:57 14.10.2019
193 Clouds 28 1013 78 10000 2.1 340 17:39 14.10.2019
194 Clouds 29 1013 78 10000 2.1 340 17:20 14.10.2019
195 Clouds 29 1012 83 10000 2.1 40 16:44 14.10.2019
196 Clouds 29 1012 83 10000 2.1 40 16:44 14.10.2019
197 Clouds 29 1012 83 10000 2.1 40 16:21 14.10.2019
198 Clouds 29 1012 83 10000 1.5 30 15:54 14.10.2019
199 Clouds 29 1011 83 10000 2.1 30 15:36 14.10.2019
200 Clouds 29 1011 83 10000 2.1 30 15:18 14.10.2019
201 Clouds 30 1011 83 10000 1 20 14:43 14.10.2019
202 Rain 29 1011 83 6000 5.7 10 14:23 14.10.2019
203 Rain 30 1010 66 10000 3.1 170 13:45 14.10.2019
204 Clouds 31 1009 59 10000 2.6 130 13:22 14.10.2019
205 Clouds 32 1009 55 10000 3.6 130 12:59 14.10.2019
206 Clouds 32 1009 55 10000 4.1 110 12:40 14.10.2019
207 Clouds 32 1009 55 10000 4.1 110 12:19 14.10.2019
208 Clouds 33 1009 55 10000 3.6 110 11:46 14.10.2019
209 Clouds 33 1009 55 10000 3.6 110 11:26 14.10.2019
210 Clouds 33 1009 55 10000 3.6 110 11:26 14.10.2019
211 Clouds 34 1009 52 10000 3.6 140 10:58 14.10.2019
212 Clouds 33 1009 59 10000 3.1 120 10:38 14.10.2019
213 Clouds 34 1009 59 10000 3.1 120 10:20 14.10.2019
214 Clouds 33 1010 55 10000 4.1 120 09:54 14.10.2019
215 Clouds 33 1010 59 10000 3.6 110 09:36 14.10.2019
216 Clouds 33 1010 59 10000 3.6 110 09:18 14.10.2019
217 Clouds 33 1011 59 10000 2.1 0 08:42 14.10.2019
218 Clouds 32 1011 62 10000 3.6 100 08:20 14.10.2019
219 Clouds 33 1013 59 10000 4.6 110 07:41 14.10.2019
220 Clouds 33 1013 59 10000 4.6 110 07:41 14.10.2019
221 Clouds 33 1013 59 10000 4.6 110 07:18 14.10.2019
222 Clouds 32 1014 74 10000 3.1 110 06:37 14.10.2019
223 Clouds 31 1014 74 10000 3.1 110 06:18 14.10.2019
224 Clouds 30 1014 83 10000 2.1 110 05:42 14.10.2019
225 Clouds 30 1014 88 10000 4.18 69.436 04:42 14.10.2019
226 Thunderstorm 27 1013 100 800 4.1 50 03:27 14.10.2019
227 Thunderstorm 27 1012 88 9000 2.6 340 02:36 14.10.2019
228 Clouds 27 1011 88 10000 1.4 18.5 01:22 14.10.2019
229 Clouds 27 1011 88 10000 1 150 00:53 14.10.2019
230 Clouds 27 1011 88 10000 1 150 00:53 14.10.2019
231 Clouds 27 1011 88 10000 0.82 280.585 00:19 14.10.2019
232 Clouds 27 1011 88 10000 1 0 23:44 13.10.2019
233 Clouds 27 1011 88 10000 1.5 120 23:20 13.10.2019
234 Clouds 27 1011 88 10000 1 120 22:58 13.10.2019
235 Clouds 28 1011 83 10000 1.5 140 22:40 13.10.2019
236 Clouds 28 1011 83 10000 1.5 140 22:21 13.10.2019
237 Clouds 28 1011 83 10000 1.5 140 21:58 13.10.2019
238 Clouds 27 1011 83 10000 0.82 280.585 21:37 13.10.2019
239 Clouds 27 1011 83 10000 0.82 280.585 21:37 13.10.2019
240 Clouds 27 1011 83 10000 2.19 233.815 21:18 13.10.2019
241 Clouds 27 1011 83 10000 2.19 233.815 21:18 13.10.2019
242 Clouds 27 1011 83 10000 2.1 130 20:57 13.10.2019
243 Clouds 27 1011 83 10000 2.1 130 20:57 13.10.2019
244 Clouds 27 1011 83 10000 1.5 130 20:38 13.10.2019
245 Clouds 27 1011 83 10000 1.5 130 20:19 13.10.2019
246 Clouds 27 1011 83 10000 2.6 140 19:57 13.10.2019
247 Clouds 27 1011 83 10000 2.1 100 19:39 13.10.2019
248 Clouds 27 1011 83 10000 2.1 100 19:20 13.10.2019
249 -273 0 0 0 0 0 18:56 13.10.2019
250 Clouds 27 1011 83 10000 1.13 231.735 18:55 13.10.2019
251 -273 0 0 0 0 0 18:36 13.10.2019
252 Clouds 27 1011 83 10000 2.6 180 18:18 13.10.2019
253 Clouds 27 1012 83 10000 3.1 180 17:43 13.10.2019
254 Rain 28 1012 78 10000 4.1 170 17:25 13.10.2019
255 -273 0 0 0 0 0 16:56 13.10.2019
256 Rain 28 1010 70 10000 2.6 110 16:36 13.10.2019
257 Rain 29 1010 70 10000 2.6 110 16:18 13.10.2019
258 Thunderstorm 30 1010 74 10000 1 140 15:55 13.10.2019
259 Thunderstorm 30 1010 74 10000 1 140 15:55 13.10.2019
260 Clouds 29 1009 66 10000 3.1 130 15:36 13.10.2019
261 Clouds 30 1009 66 10000 3.1 130 15:18 13.10.2019
262 Thunderstorm 30 1008 66 10000 3.1 70 14:40 13.10.2019
263 Thunderstorm 30 1008 66 10000 3.1 70 14:22 13.10.2019
264 Thunderstorm 31 1008 74 10000 3.6 60 13:59 13.10.2019
265 Clouds 32 1007 59 10000 3.1 80 13:39 13.10.2019
266 Clouds 32 1007 59 10000 3.1 80 13:21 13.10.2019
267 Clouds 32 1007 55 10000 3.1 70 12:57 13.10.2019
268 Rain 32 1007 55 10000 3.6 80 12:38 13.10.2019
269 Rain 33 1007 55 10000 3.6 80 12:19 13.10.2019
270 Rain 33 1007 52 10000 3.1 90 11:58 13.10.2019
271 Clouds 34 1006 52 10000 3.6 70 11:38 13.10.2019
272 Clouds 34 1006 52 10000 3.6 70 11:38 13.10.2019
273 Clouds 34 1006 52 10000 3.6 70 11:19 13.10.2019
274 Clouds 33 1007 55 10000 3.1 60 10:42 13.10.2019
275 Clouds 34 1007 56 10000 2.6 60 10:23 13.10.2019
276 Clouds 34 1007 56 10000 2.6 60 10:23 13.10.2019
277 Clouds 34 1008 52 10000 2.6 70 09:57 13.10.2019
278 Clouds 34 1008 56 10000 1.5 0 09:38 13.10.2019
279 Clouds 34 1008 56 10000 1.5 0 09:19 13.10.2019
280 Clouds 34 1009 56 10000 1.5 0 08:43 13.10.2019
281 Clouds 34 1009 63 10000 2.6 50 08:22 13.10.2019
282 Clouds 34 1010 59 10000 2.1 20 07:47 13.10.2019
283 Clouds 34 1010 63 10000 2.1 10 07:28 13.10.2019
284 Clouds 34 1011 59 10000 1 0 06:46 13.10.2019
285 Clouds 32 1012 70 10000 1.5 0 05:50 13.10.2019
286 Clouds 31 1012 70 10000 1.5 0 04:52 13.10.2019
287 Clouds 32 1012 74 10000 2.1 100 04:33 13.10.2019
288 Clouds 28 1011 94 6000 2.6 90 02:47 13.10.2019
289 Mist 28 1010 100 4900 1.5 80 02:18 13.10.2019
290 Clear 26 1010 94 8000 2.1 110 01:31 13.10.2019
291 Clear 26 1010 94 8000 2.1 110 01:31 13.10.2019
292 Clouds 27 1010 94 9000 1 100 00:50 13.10.2019
293 Clouds 26 1009 94 9000 2.1 110 00:22 13.10.2019
294 Clouds 26 1009 94 9000 3.1 110 23:57 12.10.2019
295 Clouds 27 1009 94 9000 2.1 100 23:39 12.10.2019
296 Clouds 27 1009 94 9000 2.1 100 23:20 12.10.2019
297 Clouds 27 1009 94 9000 2.1 120 22:57 12.10.2019
298 Clouds 27 1009 88 9000 1.5 110 22:38 12.10.2019
299 Clouds 27 1009 88 9000 1.5 110 22:20 12.10.2019
300 Clouds 27 1009 88 10000 1 90 21:55 12.10.2019
301 Clouds 27 1009 88 10000 1 90 21:55 12.10.2019
302 Clouds 27 1009 94 10000 1.5 100 21:37 12.10.2019
303 Clouds 27 1009 94 10000 1.5 100 21:18 12.10.2019
304 Clouds 27 1010 88 10000 0.5 100 20:40 12.10.2019
305 Clouds 27 1010 88 10000 0.5 100 20:22 12.10.2019
306 Clouds 27 1011 83 10000 2.1 140 19:39 12.10.2019
307 Clouds 28 1011 83 10000 2.1 140 19:20 12.10.2019
308 Clouds 28 1011 83 10000 1.5 120 18:57 12.10.2019
309 Clouds 28 1011 78 10000 2.6 100 18:39 12.10.2019
310 Clouds 29 1011 78 10000 2.6 100 18:21 12.10.2019
311 Clouds 28 1010 78 10000 1.5 130 17:43 12.10.2019
312 Clouds 28 1010 78 10000 1 0 17:19 12.10.2019
313 Clouds 29 1010 78 10000 2.37 186.372 16:54 12.10.2019
314 Clouds 29 1010 78 10000 2.37 186.372 16:54 12.10.2019
315 Clouds 29 1010 78 10000 0.5 0 16:36 12.10.2019
316 Clouds 29 1010 78 10000 0.5 0 16:36 12.10.2019
317 Clouds 28 1010 78 10000 0.5 0 16:18 12.10.2019
318 Clouds 29 1009 83 10000 3.6 100 15:40 12.10.2019
319 Clouds 28 1009 83 10000 3.6 100 15:22 12.10.2019
320 Rain 30 1009 79 10000 4.1 120 14:43 12.10.2019
321 Thunderstorm 30 1009 70 10000 3.1 120 14:22 12.10.2019
322 Thunderstorm 31 1008 70 10000 1.5 160 13:57 12.10.2019
323 -273 0 0 0 0 0 13:38 12.10.2019
324 Thunderstorm 30 1007 70 10000 1.54 147.341 13:20 12.10.2019
325 Clouds 31 1006 70 10000 3.6 310 12:39 12.10.2019
326 Clouds 31 1006 70 10000 3.6 310 12:21 12.10.2019
327 Clouds 31 1007 66 10000 2.6 280 11:58 12.10.2019
328 Clouds 31 1007 70 10000 3.1 270 11:38 12.10.2019
329 Clouds 31 1007 70 10000 3.1 270 11:19 12.10.2019
330 Clouds 32 1007 62 10000 3.6 210 10:41 12.10.2019
331 Clouds 31 1007 66 10000 4.6 250 10:23 12.10.2019
332 Clouds 32 1008 74 10000 7.2 230 09:58 12.10.2019
333 Clouds 32 1008 74 10000 7.2 230 09:58 12.10.2019
334 Thunderstorm 31 1008 83 10000 7.7 250 09:39 12.10.2019
335 Thunderstorm 32 1008 83 10000 7.7 250 09:20 12.10.2019
336 Thunderstorm 31 1008 74 10000 7.7 300 08:56 12.10.2019
337 Thunderstorm 31 1008 74 10000 7.7 300 08:55 12.10.2019
338 Thunderstorm 32 1009 59 9000 7.7 300 08:36 12.10.2019
339 Thunderstorm 32 1009 59 9000 7.7 300 08:18 12.10.2019
340 Clouds 34 1010 63 9000 3.1 210 07:33 12.10.2019
341 Clouds 34 1011 63 9000 1.5 190 06:44 12.10.2019
342 Clouds 33 1011 66 9000 2.6 190 05:46 12.10.2019
343 Clouds 32 1011 70 9000 2.6 160 04:52 12.10.2019
344 Clouds 31 1011 74 9000 2.1 120 03:57 12.10.2019
345 Clouds 29 1011 83 8000 0.5 0 02:57 12.10.2019
346 Rain 27 1009 83 10000 0.81 290.207 01:36 12.10.2019
347 Clouds 27 1009 88 10000 0.81 290.207 00:58 12.10.2019
348 Rain 27 1009 88 10000 0.81 290.207 00:39 12.10.2019
349 Clouds 27 1009 88 10000 1.5 60 23:57 11.10.2019
350 Clouds 27 1009 88 10000 2.1 20 23:38 11.10.2019
351 Clouds 27 1009 88 10000 2.1 20 23:19 11.10.2019
352 Thunderstorm 28 1009 83 10000 3.6 250 22:39 11.10.2019
353 Thunderstorm 28 1009 83 10000 3.6 250 22:21 11.10.2019
354 Thunderstorm 29 1009 74 10000 3.6 260 21:55 11.10.2019
355 Clouds 29 1009 74 10000 1.5 230 21:36 11.10.2019
356 Clouds 29 1009 74 10000 1.5 230 21:18 11.10.2019
357 Clouds 29 1009 74 10000 1.29 215.579 20:43 11.10.2019
358 Clouds 29 1010 79 10000 1.5 200 20:25 11.10.2019
359 Clouds 29 1010 79 10000 2.1 240 19:56 11.10.2019
360 Clouds 29 1010 79 10000 2.1 210 19:38 11.10.2019
361 Clouds 29 1010 79 10000 2.1 210 19:38 11.10.2019
362 Clouds 29 1010 79 10000 2.1 210 19:18 11.10.2019
363 Clouds 29 1010 79 10000 1.5 150 18:57 11.10.2019
364 Clouds 29 1010 79 10000 1.5 160 18:37 11.10.2019
365 Clouds 29 1010 79 10000 1.5 160 18:18 11.10.2019
366 Clouds 30 1010 74 10000 1.5 160 17:57 11.10.2019
367 Clouds 30 1010 74 10000 2.1 200 17:37 11.10.2019
368 Clouds 30 1010 74 10000 2.1 200 17:18 11.10.2019
369 Clouds 30 1010 66 10000 3.1 250 16:42 11.10.2019
370 Clouds 30 1010 66 10000 3.1 260 16:21 11.10.2019
371 Clouds 30 1009 66 10000 3.1 260 15:59 11.10.2019
372 Clouds 30 1009 66 10000 2.6 260 15:39 11.10.2019
373 Clouds 30 1009 66 10000 2.6 260 15:19 11.10.2019
374 Clouds 30 1009 66 10000 2.6 250 14:48 11.10.2019
375 Clouds 30 1008 74 10000 2.6 190 14:29 11.10.2019
376 Clouds 31 1008 79 10000 2.1 220 13:57 11.10.2019
377 Rain 31 1007 70 9000 4.1 210 13:39 11.10.2019
378 Rain 30 1007 70 9000 4.1 210 13:21 11.10.2019
379 Rain 30 1007 70 9000 4.1 210 13:21 11.10.2019
380 Clouds 32 1007 62 9000 4.6 240 12:56 11.10.2019
381 Clouds 33 1007 55 9000 3.1 70 12:38 11.10.2019
382 Clouds 33 1007 55 9000 3.1 70 12:19 11.10.2019
383 Clouds 34 1006 59 9000 2.6 30 11:41 11.10.2019
384 Clouds 34 1006 59 9000 2.6 30 11:22 11.10.2019
385 Clouds 33 1007 56 9000 1.5 340 10:58 11.10.2019
386 Clouds 33 1007 56 9000 1.5 340 10:58 11.10.2019
387 Clouds 33 1007 56 9000 1.5 340 10:58 11.10.2019
388 Clouds 34 1007 56 9000 2.6 10 10:40 11.10.2019
389 Clouds 34 1007 56 9000 2.6 10 10:22 11.10.2019
390 Clouds 34 1007 59 9000 3.6 70 09:56 11.10.2019
391 Clouds 33 1008 59 9000 2.6 10 09:37 11.10.2019
392 Clouds 34 1008 59 9000 2.6 10 09:19 11.10.2019
393 Clouds 34 1008 59 9000 1.5 0 08:55 11.10.2019
394 Clouds 34 1009 63 9000 2.1 360 08:36 11.10.2019
395 Clouds 34 1009 63 9000 2.1 360 08:18 11.10.2019
396 Clouds 34 1010 63 9000 1.5 0 07:41 11.10.2019
397 Clouds 33 1010 63 9000 1.5 0 07:22 11.10.2019
398 Clouds 32 1011 62 9000 1 0 06:47 11.10.2019
399 Clouds 32 1011 62 10000 1.5 330 06:22 11.10.2019
400 Clouds 32 1012 59 10000 1 0 05:39 11.10.2019
401 Clouds 31 1012 66 10000 1.5 130 04:59 11.10.2019
402 Clouds 30 1012 66 10000 1.5 0 04:24 11.10.2019
403 Clouds 27 1011 83 8000 2.1 350 02:32 11.10.2019
404 Thunderstorm 26 1011 83 8000 5.7 220 00:47 11.10.2019
405 Thunderstorm 26 1011 83 8000 2.1 250 00:27 11.10.2019
406 Mist 27 1010 88 8000 2.1 360 23:44 10.10.2019
407 Thunderstorm 27 1010 83 8000 3.6 360 23:22 10.10.2019
408 Thunderstorm 27 1011 88 8000 3.6 350 22:57 10.10.2019
409 Thunderstorm 27 1011 88 8000 3.6 350 22:57 10.10.2019
410 Clouds 27 1011 88 8000 1.79 256.532 22:39 10.10.2019
411 Clouds 27 1011 88 8000 1.79 256.532 22:20 10.10.2019
412 Clouds 27 1011 88 8000 0.5 100 21:57 10.10.2019
413 Clouds 28 1011 88 8000 1.5 110 21:38 10.10.2019
414 Clouds 28 1011 88 8000 1.5 110 21:20 10.10.2019
415 Clouds 28 1011 88 8000 1.5 110 20:42 10.10.2019
416 Clouds 28 1011 88 8000 2.1 110 20:21 10.10.2019
417 Clouds 28 1012 78 8000 1.5 110 19:58 10.10.2019
418 Clouds 28 1012 78 8000 2.1 120 19:40 10.10.2019
419 Clouds 28 1012 78 8000 2.1 120 19:40 10.10.2019
420 Clouds 28 1012 78 8000 2.1 120 19:20 10.10.2019
421 Clouds 28 1012 78 8000 2.1 120 19:20 10.10.2019
422 Clouds 28 1012 78 8000 2.6 120 18:57 10.10.2019
423 Clouds 28 1012 78 8000 2.1 110 18:38 10.10.2019
424 Clouds 28 1012 78 8000 2.1 110 18:19 10.10.2019
425 Clouds 29 1012 74 8000 2.1 130 17:41 10.10.2019
426 Clouds 29 1012 74 8000 2.1 140 17:20 10.10.2019
427 Clouds 29 1012 78 8000 1.5 170 16:59 10.10.2019
428 Clouds 29 1011 78 8000 2.1 180 16:41 10.10.2019
429 Clouds 29 1011 78 8000 2.1 180 16:22 10.10.2019
430 Clouds 29 1011 78 8000 1.5 200 15:44 10.10.2019
431 Rain 29 1010 69 8000 3.6 170 15:25 10.10.2019
432 Rain 28 1010 74 8000 3.1 130 14:59 10.10.2019
433 Rain 29 1009 74 8000 4.1 140 14:38 10.10.2019
434 Rain 29 1009 74 8000 4.1 140 14:38 10.10.2019
435 Rain 29 1009 74 8000 4.1 140 14:38 10.10.2019
436 Rain 29 1009 74 8000 4.1 140 14:19 10.10.2019
437 Thunderstorm 29 1009 70 8000 2.6 180 13:59 10.10.2019
438 Thunderstorm 30 1008 66 10000 2.1 110 13:40 10.10.2019
439 Thunderstorm 31 1008 66 10000 2.1 110 13:19 10.10.2019
440 Thunderstorm 31 1008 66 10000 2.1 110 13:19 10.10.2019
441 Thunderstorm 30 1008 79 10000 2.1 220 12:55 10.10.2019
442 Thunderstorm 31 1008 70 10000 2.6 220 12:37 10.10.2019
443 Thunderstorm 32 1008 70 10000 2.6 220 12:18 10.10.2019
444 Clouds 33 1008 66 10000 2.6 240 11:42 10.10.2019
445 Clouds 33 1008 66 10000 2.6 240 11:21 10.10.2019
446 Clouds 33 1008 66 10000 4.6 250 10:59 10.10.2019
447 Clouds 34 1008 59 10000 2.1 20 10:41 10.10.2019
448 Clouds 34 1008 59 10000 2.1 20 10:22 10.10.2019
449 Clouds 33 1008 59 10000 1.5 360 09:54 10.10.2019
450 Clouds 34 1009 63 10000 2.6 30 09:36 10.10.2019
451 Clouds 34 1009 63 10000 2.6 30 09:18 10.10.2019
452 Clouds 34 1010 59 10000 1.5 0 08:41 10.10.2019
453 Clouds 34 1010 59 10000 1.5 0 08:22 10.10.2019
454 Clouds 34 1011 59 10000 2.6 60 07:58 10.10.2019
455 Clouds 33 1011 59 10000 0.5 0 07:37 10.10.2019
456 Clouds 34 1011 59 10000 0.5 0 07:19 10.10.2019
457 Clouds 32 1013 66 10000 1 0 06:40 10.10.2019
458 Clouds 31 1013 70 9000 2.6 360 05:57 10.10.2019
459 Rain 31 1013 70 9000 2.6 330 05:22 10.10.2019
460 Rain 30 1013 79 9000 2.6 20 04:37 10.10.2019
461 Rain 27 1012 88 9000 2.1 360 02:49 10.10.2019
462 Clouds 26 1011 94 10000 1.5 350 01:41 10.10.2019
463 Clouds 26 1011 94 10000 1.5 350 01:41 10.10.2019
464 Clouds 26 1011 94 10000 1.5 350 01:22 10.10.2019
465 Clouds 27 1010 94 10000 2.6 320 00:41 10.10.2019
466 Clouds 27 1010 94 10000 2.6 320 00:19 10.10.2019
467 Clouds 27 1010 94 10000 2.1 330 23:38 09.10.2019
468 Clouds 27 1010 94 10000 2.1 330 23:19 09.10.2019
469 Clouds 27 1010 94 10000 2.1 330 23:19 09.10.2019
470 Clouds 27 1010 94 10000 2.1 310 22:42 09.10.2019
471 Clouds 27 1010 88 10000 2.1 300 22:24 09.10.2019
472 Clouds 27 1010 88 10000 1 320 21:59 09.10.2019
473 Clouds 27 1011 88 10000 1.98 290.532 21:39 09.10.2019
474 Clouds 27 1011 88 10000 2.07 26.106 21:19 09.10.2019
475 Clouds 27 1011 88 10000 1 10 20:55 09.10.2019
476 Clouds 27 1011 88 10000 1.5 20 20:37 09.10.2019
477 Clouds 27 1011 88 10000 1.5 20 20:18 09.10.2019
478 Clouds 27 1012 94 10000 3.1 350 19:45 09.10.2019
479 Clouds 27 1012 94 10000 3.1 350 19:23 09.10.2019
480 Clouds 28 1012 83 10000 2.1 360 18:57 09.10.2019
481 Clouds 28 1012 78 10000 2.1 350 18:37 09.10.2019
482 Clouds 28 1012 78 10000 2.1 350 18:18 09.10.2019
483 Clouds 28 1012 78 10000 1.5 300 17:54 09.10.2019
484 Clouds 28 1012 78 10000 1.53 37.662 17:36 09.10.2019
485 Clouds 28 1012 78 10000 1.53 37.662 17:18 09.10.2019
486 Clouds 28 1011 78 10000 1.53 37.662 16:40 09.10.2019
487 Clouds 28 1011 78 10000 1.53 37.662 16:22 09.10.2019
488 Clouds 28 1011 78 10000 1.5 170 15:58 09.10.2019
489 Clouds 28 1010 78 10000 1.53 37.662 15:39 09.10.2019
490 Clouds 28 1010 78 10000 2.17 45.187 15:20 09.10.2019
491 Clouds 28 1010 78 10000 2.17 45.187 14:56 09.10.2019
492 Clouds 28 1010 78 10000 2.1 60 14:37 09.10.2019
493 Clouds 28 1010 78 10000 2.1 60 14:18 09.10.2019
494 Clouds 28 1009 74 10000 2.6 50 13:39 09.10.2019
495 Clouds 28 1009 74 10000 2.6 50 13:21 09.10.2019
496 Clouds 29 1009 70 10000 1.5 20 12:58 09.10.2019
497 Clouds 29 1008 74 10000 1.5 300 12:40 09.10.2019
498 Clouds 29 1008 74 10000 1.5 300 12:21 09.10.2019
499 Thunderstorm 28 1008 70 10000 2.24 40.355 11:55 09.10.2019
500 Thunderstorm 28 1008 70 10000 2.24 40.355 11:55 09.10.2019
501 Thunderstorm 28 1008 74 10000 2.1 340 11:36 09.10.2019
502 Thunderstorm 28 1008 74 10000 2.1 340 11:18 09.10.2019
503 Rain 28 1008 70 10000 8.2 70 10:42 09.10.2019
504 Rain 31 1008 59 10000 2.6 0 10:20 09.10.2019
505 Clouds 32 1009 59 10000 3.1 90 09:57 09.10.2019
506 Clouds 33 1009 63 10000 2.6 360 09:38 09.10.2019
507 Clouds 33 1009 63 10000 2.6 360 09:38 09.10.2019
508 Clouds 34 1009 63 10000 2.6 360 09:18 09.10.2019
509 Clouds 34 1010 63 10000 2.6 20 08:39 09.10.2019
510 Clouds 34 1010 63 10000 2.6 20 08:21 09.10.2019
511 Clouds 33 1010 63 10000 2.6 20 08:21 09.10.2019
512 Clouds 33 1011 66 10000 2.1 350 07:47 09.10.2019
513 Clouds 33 1011 66 10000 2.1 350 07:47 09.10.2019
514 Clouds 32 1012 62 10000 3.1 50 07:25 09.10.2019
515 Clouds 32 1012 62 10000 3.1 50 07:25 09.10.2019
516 Clouds 33 1012 66 10000 2.1 10 06:59 09.10.2019
517 Clouds 32 1013 70 10000 3.1 10 06:41 09.10.2019
518 Clouds 31 1013 74 10000 3.1 320 05:53 09.10.2019
519 Clouds 30 1013 74 10000 3.1 330 05:18 09.10.2019
520 Clouds 29 1013 83 10000 2.6 10 03:49 09.10.2019
521 Clouds 27 1012 94 10000 3.1 20 02:35 09.10.2019
522 Clouds 26 1011 94 10000 2.1 360 01:39 09.10.2019
523 Clouds 26 1011 94 10000 2.1 360 01:19 09.10.2019
524 Clouds 26 1011 94 10000 2.1 340 00:55 09.10.2019
525 Clouds 26 1011 94 10000 2.1 340 00:55 09.10.2019
526 Clouds 26 1011 94 10000 2.6 330 00:36 09.10.2019
527 Clouds 26 1011 94 10000 2.6 330 00:18 09.10.2019
528 Clouds 27 1011 94 10000 2.6 310 23:38 08.10.2019
529 Clouds 27 1011 94 10000 2.6 310 23:18 08.10.2019
530 Clouds 27 1011 94 10000 2.6 310 22:55 08.10.2019
531 Clouds 27 1011 88 10000 3.1 300 22:37 08.10.2019
532 Clouds 27 1011 88 10000 3.1 300 22:18 08.10.2019
533 Clouds 26 1011 83 10000 1.5 310 21:56 08.10.2019
534 Clouds 27 1011 83 10000 2.1 310 21:36 08.10.2019
535 Clouds 27 1011 83 10000 2.1 310 21:18 08.10.2019
536 Clouds 27 1012 83 10000 2.26 19.756 20:55 08.10.2019
537 Clouds 27 1012 83 10000 1.36 17.128 20:37 08.10.2019
538 Clouds 27 1012 83 10000 1.36 17.128 20:18 08.10.2019
539 Clouds 27 1012 88 10000 1.36 17.128 19:54 08.10.2019
540 Clouds 27 1013 88 10000 1.5 180 19:36 08.10.2019
541 Clouds 27 1013 88 10000 1.5 180 19:18 08.10.2019
542 Rain 27 1013 83 10000 2.6 160 18:41 08.10.2019
543 Rain 27 1013 83 10000 2.6 160 18:23 08.10.2019
544 Rain 27 1013 83 10000 2.6 150 17:57 08.10.2019
545 Rain 28 1013 78 10000 3.1 150 17:39 08.10.2019
546 Rain 28 1013 78 10000 3.1 150 17:18 08.10.2019
547 Rain 28 1013 83 10000 2.1 120 16:55 08.10.2019
548 Rain 28 1013 78 10000 2.1 140 16:37 08.10.2019
549 Rain 28 1013 78 10000 2.1 140 16:18 08.10.2019
550 Thunderstorm 28 1011 78 10000 2.1 50 15:38 08.10.2019
551 Thunderstorm 28 1011 78 10000 2.1 50 15:20 08.10.2019
552 Thunderstorm 29 1011 78 10000 3.6 50 14:55 08.10.2019
553 Thunderstorm 29 1010 79 10000 4.6 70 14:37 08.10.2019
554 Thunderstorm 29 1010 79 10000 4.6 70 14:19 08.10.2019
555 Clouds 30 1010 74 10000 3.6 50 13:54 08.10.2019
556 Clouds 30 1010 74 10000 3.6 50 13:54 08.10.2019
557 Clouds 30 1010 74 10000 3.1 10 13:36 08.10.2019
558 Clouds 30 1010 74 10000 3.1 10 13:18 08.10.2019
559 Clouds 30 1008 70 10000 3.6 70 12:40 08.10.2019
560 Clouds 30 1008 70 10000 3.6 70 12:20 08.10.2019
561 Clouds 31 1008 70 10000 5.7 60 11:57 08.10.2019
562 Clouds 32 1008 59 10000 2.6 20 11:38 08.10.2019
563 Clouds 32 1008 59 10000 2.6 20 11:20 08.10.2019
564 Clouds 33 1008 59 10000 3.1 50 10:42 08.10.2019
565 Clouds 33 1008 59 10000 2.1 340 10:22 08.10.2019
566 Clouds 33 1008 59 10000 2.1 340 10:22 08.10.2019
567 Clouds 33 1009 59 10000 3.6 60 09:58 08.10.2019
568 Clouds 33 1009 59 10000 2.6 10 09:40 08.10.2019
569 Clouds 34 1009 59 10000 2.6 10 09:20 08.10.2019
570 Clouds 33 1010 62 10000 3.1 340 08:44 08.10.2019
571 Clouds 33 1010 66 10000 3.6 340 08:25 08.10.2019
572 Clouds 33 1011 66 10000 2.1 350 07:47 08.10.2019
573 Clouds 32 1011 62 10000 2.1 40 07:23 08.10.2019
574 Clouds 32 1012 66 10000 2.1 20 06:57 08.10.2019
575 Clouds 31 1012 70 10000 2.1 330 06:35 08.10.2019
576 Clouds 31 1013 70 10000 2.1 340 05:57 08.10.2019
577 Clouds 31 1013 70 10000 2.1 340 05:57 08.10.2019
578 Clouds 30 1013 74 10000 2.1 20 05:38 08.10.2019
579 Clouds 30 1013 74 10000 2.1 20 05:38 08.10.2019
580 Clouds 29 1013 74 10000 2.1 30 04:42 08.10.2019
581 Clouds 28 1013 88 10000 2.6 20 03:30 08.10.2019
582 Clouds 26 1012 94 10000 1.5 30 02:40 08.10.2019
583 Clouds 25 1011 94 10000 1.5 30 01:49 08.10.2019
584 Clouds 25 1011 94 10000 2.6 10 01:31 08.10.2019
585 Clouds 25 1011 94 10000 1.5 350 00:51 08.10.2019
586 Clouds 25 1011 94 10000 2.6 330 00:22 08.10.2019
587 Clouds 25 1010 94 10000 1 340 23:42 07.10.2019
588 Clouds 25 1010 94 10000 2.46 295.324 23:21 07.10.2019
589 Clouds 25 1010 94 10000 2.46 295.324 23:21 07.10.2019
590 Clouds 24 1010 100 10000 2.46 295.324 22:58 07.10.2019
591 Clouds 24 1010 94 10000 2.46 295.324 22:40 07.10.2019
592 Clouds 24 1010 94 10000 2.46 295.324 22:40 07.10.2019
593 Clouds 24 1010 94 10000 2.46 295.324 22:21 07.10.2019
594 Clouds 25 1010 94 10000 2.46 295.324 21:58 07.10.2019
595 Clouds 25 1010 94 10000 2.46 295.324 21:39 07.10.2019
596 Clouds 25 1010 94 10000 0.98 143.574 21:20 07.10.2019
597 Clouds 25 1011 94 10000 1.71 199.26 20:58 07.10.2019
598 Clouds 25 1012 94 10000 1.71 199.26 20:39 07.10.2019
599 Clouds 25 1012 94 10000 1.71 199.26 20:20 07.10.2019
600 Clouds 25 1012 94 10000 1.71 199.26 19:58 07.10.2019
601 Clouds 26 1012 88 9000 1 0 19:40 07.10.2019
602 Clouds 26 1012 88 9000 1 0 19:19 07.10.2019
603 Clouds 26 1013 94 10000 1.5 150 18:57 07.10.2019
604 Clouds 26 1012 88 9000 2.1 70 18:38 07.10.2019
605 Clouds 26 1012 88 9000 2.1 70 18:18 07.10.2019
606 Clouds 26 1012 88 9000 2.1 70 18:18 07.10.2019
607 Clouds 26 1013 94 10000 1.5 50 17:43 07.10.2019
608 Rain 26 1013 94 10000 3.6 100 17:20 07.10.2019
609 Clouds 26 1013 88 10000 3.1 80 16:57 07.10.2019
610 Rain 27 1013 88 10000 3.1 100 16:38 07.10.2019
611 Rain 27 1013 88 10000 3.1 100 16:20 07.10.2019
612 Rain 27 1012 88 10000 5.7 100 15:45 07.10.2019
613 Rain 26 1012 94 10000 2.6 160 15:25 07.10.2019
614 Rain 27 1011 88 7000 3.6 120 14:55 07.10.2019
615 Rain 27 1010 83 10000 4.6 120 14:37 07.10.2019
616 Rain 27 1010 83 10000 4.6 120 14:18 07.10.2019
617 Thunderstorm 28 1009 74 10000 2.65 30.982 13:41 07.10.2019
618 Thunderstorm 29 1009 74 10000 1.51 254.326 13:19 07.10.2019
619 Thunderstorm 29 1009 74 10000 1.51 254.326 12:55 07.10.2019
620 Thunderstorm 30 1009 79 10000 2.6 210 12:37 07.10.2019
621 Thunderstorm 30 1009 79 10000 2.6 210 12:18 07.10.2019
622 Thunderstorm 30 1009 74 10000 3.1 250 11:56 07.10.2019
623 Thunderstorm 30 1008 74 10000 4.1 280 11:37 07.10.2019
624 Thunderstorm 30 1008 74 10000 4.1 280 11:18 07.10.2019
625 Clouds 31 1008 59 10000 3.1 120 10:41 07.10.2019
626 Clouds 31 1008 59 10000 3.1 120 10:41 07.10.2019
627 Clouds 32 1008 59 10000 3.1 120 10:20 07.10.2019
628 Clouds 32 1009 59 10000 3.6 100 09:42 07.10.2019
629 Clouds 32 1009 62 10000 3.6 70 09:23 07.10.2019
630 Rain 33 1009 55 10000 2.6 0 08:57 07.10.2019
631 Rain 33 1010 62 10000 4.6 90 08:38 07.10.2019
632 Rain 33 1010 62 10000 4.6 90 08:19 07.10.2019
633 Clouds 32 1011 66 10000 1.5 0 07:41 07.10.2019
634 Clouds 32 1011 66 10000 1.5 0 07:22 07.10.2019
635 Clouds 32 1011 66 10000 2.6 0 06:49 07.10.2019
636 Clouds 31 1012 66 10000 2.1 80 06:27 07.10.2019
637 Clouds 30 1012 70 10000 2.1 50 05:47 07.10.2019
638 Clouds 30 1013 74 10000 2.1 70 05:21 07.10.2019
639 Clouds 29 1013 78 10000 1.5 50 04:24 07.10.2019
640 Clouds 29 1012 78 10000 1.5 60 03:44 07.10.2019
641 Clouds 29 1012 78 10000 1.5 60 03:44 07.10.2019
642 Clouds 29 1012 78 10000 1.5 60 03:44 07.10.2019
643 Clouds 28 1012 88 10000 2.1 20 03:20 07.10.2019
644 Clouds 28 1012 88 10000 2.1 20 03:20 07.10.2019
645 Clouds 27 1012 94 10000 1.5 350 02:21 07.10.2019
646 Clouds 26 1011 100 10000 1.5 350 01:50 07.10.2019
647 Clouds 25 1011 100 10000 2.07 25.39 01:21 07.10.2019
648 Clear 25 1010 94 10000 2.07 25.39 00:39 07.10.2019
649 Clear 25 1010 94 10000 2.75 9.839 00:20 07.10.2019
650 Clouds 25 1010 94 10000 2.75 9.839 23:42 06.10.2019
651 Clouds 25 1010 94 10000 1 50 23:42 06.10.2019
652 Clouds 25 1010 94 10000 2.75 9.839 23:42 06.10.2019
653 Clouds 25 1010 94 10000 2.75 9.839 23:21 06.10.2019
654 Clouds 25 1010 94 10000 1.5 40 22:59 06.10.2019
655 Clouds 26 1010 94 9000 2.75 9.839 22:41 06.10.2019
656 Clouds 26 1010 94 9000 2.75 9.839 22:22 06.10.2019
657 Clouds 26 1010 94 9000 1 50 21:57 06.10.2019
658 Clouds 26 1011 94 9000 1.5 40 21:38 06.10.2019
659 Clouds 26 1011 94 9000 1.5 40 21:19 06.10.2019
660 Clouds 26 1011 100 9000 1 70 20:57 06.10.2019
661 Clouds 26 1011 88 9000 1.5 80 20:39 06.10.2019
662 Clouds 26 1011 88 9000 1.5 80 20:39 06.10.2019
663 Clouds 26 1011 88 9000 1.5 80 20:20 06.10.2019
664 Clouds 26 1011 88 9000 1 60 19:57 06.10.2019
665 Clouds 26 1011 88 9000 1 60 19:57 06.10.2019
666 Clouds 27 1012 88 9000 1 0 19:37 06.10.2019
667 Clouds 27 1012 88 9000 1 0 19:37 06.10.2019
668 Clouds 27 1012 88 9000 1 0 19:19 06.10.2019
669 Clouds 27 1012 83 9000 2.1 10 18:56 06.10.2019
670 Clouds 27 1012 88 9000 1 0 18:38 06.10.2019
671 Clouds 27 1012 88 9000 1 0 18:38 06.10.2019
672 Clouds 27 1012 88 9000 1 0 18:19 06.10.2019
673 Clouds 27 1012 83 10000 0.5 0 17:44 06.10.2019
674 Clouds 27 1012 83 10000 0.5 0 17:21 06.10.2019
675 Clouds 27 1012 88 10000 0.5 150 16:59 06.10.2019
676 Clouds 27 1011 88 10000 1 170 16:41 06.10.2019
677 Clouds 27 1011 88 10000 1 170 16:23 06.10.2019
678 Clouds 27 1011 88 10000 1.5 140 15:45 06.10.2019
679 Clouds 27 1011 88 10000 1.5 140 15:45 06.10.2019
680 Clouds 27 1011 88 10000 1.5 140 15:23 06.10.2019
681 Clouds 27 1010 88 10000 2.1 150 14:58 06.10.2019
682 Clouds 27 1010 83 10000 2.6 140 14:40 06.10.2019
683 Clouds 27 1010 83 10000 2.6 140 14:22 06.10.2019
684 Rain 27 1010 83 10000 3.1 130 13:55 06.10.2019
685 Rain 27 1009 78 10000 2.1 90 13:37 06.10.2019
686 Rain 27 1009 78 10000 2.1 90 13:18 06.10.2019
687 Thunderstorm 27 1009 83 10000 1.5 130 12:55 06.10.2019
688 Thunderstorm 28 1008 78 10000 0.5 0 12:37 06.10.2019
689 Thunderstorm 28 1008 78 10000 0.5 0 12:19 06.10.2019
690 Thunderstorm 28 1009 78 10000 1.5 220 11:43 06.10.2019
691 Clouds 29 1008 78 10000 4.1 280 11:24 06.10.2019
692 Clouds 28 1008 88 10000 4.6 240 10:58 06.10.2019
693 Thunderstorm 29 1008 88 9000 5.7 280 10:39 06.10.2019
694 Thunderstorm 29 1008 88 9000 5.7 280 10:21 06.10.2019
695 Thunderstorm 30 1008 83 7000 4.1 320 09:41 06.10.2019
696 Clouds 30 1009 62 10000 2.6 350 09:20 06.10.2019
697 Clouds 31 1009 66 10000 3.1 30 08:50 06.10.2019
698 Clouds 31 1010 62 10000 2.1 310 08:30 06.10.2019
699 Clouds 31 1010 59 10000 1 30 07:59 06.10.2019
700 Clouds 31 1011 62 10000 2.6 20 07:40 06.10.2019
701 Clouds 31 1011 66 10000 1 360 06:59 06.10.2019
702 Clouds 29 1013 74 9000 1 350 05:41 06.10.2019
703 Clouds 29 1013 74 9000 1 350 05:41 06.10.2019
704 Clouds 29 1013 74 9000 1 90 04:44 06.10.2019
705 Clouds 29 1013 74 9000 1 90 04:44 06.10.2019
706 Mist 27 1012 94 5000 1 140 02:56 06.10.2019
707 Mist 26 1012 94 5000 1.11 244.314 02:34 06.10.2019
708 Mist 26 1012 94 5000 1.5 110 01:50 06.10.2019
709 Clouds 26 1012 100 8000 1.17 207.658 01:30 06.10.2019
710 Clouds 26 1011 94 8000 1.17 207.658 00:59 06.10.2019
711 Clouds 26 1011 94 8000 1.17 207.658 00:38 06.10.2019
712 Clouds 26 1011 94 8000 1.37 302.632 00:19 06.10.2019
713 Clouds 26 1010 100 7000 2.1 340 23:41 05.10.2019
714 Clouds 26 1010 94 6000 2.1 340 23:20 05.10.2019
715 Clouds 26 1010 94 6000 2.1 310 22:55 05.10.2019
716 Clouds 26 1010 94 6000 1 310 22:36 05.10.2019
717 Clouds 26 1010 94 6000 1 310 22:18 05.10.2019
718 Clouds 26 1011 94 6000 1.5 310 21:41 05.10.2019
719 Clouds 26 1011 94 6000 1.5 310 21:41 05.10.2019
720 Clouds 26 1011 94 6000 2.1 260 21:22 05.10.2019
721 Clouds 26 1011 94 6000 2.6 250 20:57 05.10.2019
722 Clouds 26 1011 94 7000 2.1 290 20:39 05.10.2019
723 Clouds 26 1011 94 7000 2.1 290 20:19 05.10.2019
724 Clouds 26 1011 94 7000 1.5 350 19:55 05.10.2019
725 Clouds 26 1012 94 8000 2.1 280 19:36 05.10.2019
726 Clouds 26 1012 94 8000 2.1 280 19:18 05.10.2019
727 Clouds 26 1012 94 9000 2.1 310 18:54 05.10.2019
728 Clouds 26 1012 94 9000 2.1 310 18:54 05.10.2019
729 Clouds 26 1012 94 9000 3.1 330 18:36 05.10.2019
730 Clouds 26 1012 94 9000 3.1 330 18:18 05.10.2019
731 Clouds 26 1012 88 10000 1.5 350 17:40 05.10.2019
732 Clouds 26 1012 88 10000 1.5 350 17:21 05.10.2019
733 Clouds 26 1012 88 10000 1.4 136.963 16:43 05.10.2019
734 Clouds 26 1012 88 10000 1.4 136.963 16:23 05.10.2019
735 Clouds 26 1011 88 10000 1.4 136.963 15:59 05.10.2019
736 Clouds 26 1011 88 10000 1.4 136.963 15:40 05.10.2019
737 Clouds 26 1011 88 10000 1.94 78.082 15:21 05.10.2019
738 Clouds 26 1010 88 10000 1 350 14:59 05.10.2019
739 Clouds 26 1010 88 10000 1 350 14:41 05.10.2019
740 Clouds 26 1010 88 10000 1 350 14:41 05.10.2019
741 Clouds 26 1009 88 10000 1.94 78.082 14:20 05.10.2019
742 Rain 26 1009 88 10000 1.94 78.082 13:42 05.10.2019
743 Rain 26 1008 94 8000 2.55 56.453 13:23 05.10.2019
744 Rain 26 1009 94 8000 2.55 56.453 12:47 05.10.2019
745 Rain 26 1008 94 8000 2.74 56.177 12:21 05.10.2019
746 Thunderstorm 26 1009 94 8000 3.6 30 11:59 05.10.2019
747 Thunderstorm 27 1008 88 8000 5.7 10 11:39 05.10.2019
748 Thunderstorm 27 1008 88 8000 5.7 10 11:19 05.10.2019
749 Rain 30 1008 83 10000 6.2 350 10:45 05.10.2019
750 Thunderstorm 29 1008 78 10000 4.6 330 10:26 05.10.2019
751 Thunderstorm 29 1008 78 10000 4.6 330 10:26 05.10.2019
752 Thunderstorm 30 1008 66 10000 2.6 260 09:59 05.10.2019
753 Clouds 30 1008 74 10000 4.1 210 09:39 05.10.2019
754 Clouds 30 1008 74 10000 4.1 210 09:39 05.10.2019
755 Clouds 30 1008 74 10000 4.1 210 09:20 05.10.2019
756 Rain 28 1010 74 10000 5.7 180 08:40 05.10.2019
757 Rain 29 1010 74 10000 5.7 180 08:20 05.10.2019
758 Thunderstorm 30 1010 62 10000 3.1 40 07:57 05.10.2019
759 Clouds 31 1010 70 10000 3.1 0 07:35 05.10.2019
760 Clouds 31 1011 66 10000 1.5 0 06:59 05.10.2019
761 Clouds 30 1012 74 9000 2.1 50 06:28 05.10.2019
762 Clouds 30 1012 79 9000 1.5 60 05:51 05.10.2019
763 Clouds 28 1012 83 9000 1.5 60 04:21 05.10.2019
764 Clouds 28 1011 88 8000 2.6 110 03:28 05.10.2019
765 Clouds 26 1010 100 7000 1 110 01:42 05.10.2019
766 Clouds 26 1010 100 8000 1.5 70 01:20 05.10.2019
767 Clouds 26 1010 100 9000 0.43 316.43 00:43 05.10.2019
768 Clouds 26 1010 100 9000 1 50 00:25 05.10.2019
769 Clouds 26 1010 100 9000 0.82 205.565 23:44 04.10.2019
770 Clouds 26 1010 100 9000 0.82 205.565 23:26 04.10.2019
771 Clouds 26 1010 94 9000 1.5 60 22:59 04.10.2019
772 Clouds 26 1009 94 9000 0.82 205.565 22:39 04.10.2019
773 Clouds 26 1009 94 9000 0.82 205.565 22:20 04.10.2019
774 Clouds 26 1009 94 9000 0.82 205.565 21:57 04.10.2019
775 Clouds 26 1010 94 9000 2.1 110 21:38 04.10.2019
776 Clouds 26 1010 94 9000 2.1 110 21:19 04.10.2019
777 Clouds 26 1010 94 9000 1.74 200.467 20:55 04.10.2019
778 Clouds 26 1010 94 9000 1.74 200.467 20:36 04.10.2019
779 Clouds 26 1010 94 9000 1.74 200.467 20:18 04.10.2019
780 Clouds 27 1010 94 9000 1.74 200.467 19:45 04.10.2019
781 Clouds 27 1011 94 9000 1.74 200.467 19:27 04.10.2019
782 Clouds 27 1011 88 9000 2.1 110 18:58 04.10.2019
783 Clouds 27 1012 94 9000 1 120 18:38 04.10.2019
784 Clouds 27 1012 94 9000 1 120 18:19 04.10.2019
785 Clouds 27 1012 94 9000 1 120 18:19 04.10.2019
786 Clouds 27 1011 94 8000 1.5 100 17:54 04.10.2019
787 Clouds 27 1011 88 8000 1 110 17:36 04.10.2019
788 Clouds 27 1011 88 8000 1 110 17:18 04.10.2019
789 Clouds 27 1011 88 8000 1 0 16:41 04.10.2019
790 Clouds 27 1011 88 9000 2.1 110 16:19 04.10.2019
791 Clouds 27 1011 88 9000 2.1 110 16:19 04.10.2019
792 Rain 27 1011 88 9000 2.1 110 15:58 04.10.2019
793 Rain 27 1010 83 9000 3.1 100 15:40 04.10.2019
794 Rain 27 1010 83 9000 3.1 100 15:21 04.10.2019
795 Rain 28 1009 83 9000 3.1 130 14:58 04.10.2019
796 Rain 28 1009 83 9000 3.1 130 14:58 04.10.2019
797 Rain 28 1009 83 9000 2.1 140 14:39 04.10.2019
798 Rain 28 1009 83 9000 2.1 140 14:21 04.10.2019
799 Rain 28 1009 83 9000 3.1 180 13:46 04.10.2019
800 Thunderstorm 29 1008 83 9000 5.7 200 13:24 04.10.2019
801 Rain 29 1008 78 9000 5.7 90 12:59 04.10.2019
802 Thunderstorm 30 1008 66 10000 2.1 180 12:40 04.10.2019
803 Thunderstorm 30 1008 66 10000 2.1 180 12:22 04.10.2019
804 Thunderstorm 30 1008 66 10000 1.5 210 11:43 04.10.2019
805 Thunderstorm 30 1007 74 10000 2.18 126.151 11:22 04.10.2019
806 Rain 29 1007 83 10000 1 0 10:56 04.10.2019
807 Clouds 29 1007 83 10000 2.6 330 10:37 04.10.2019
808 Clouds 29 1007 83 10000 2.6 330 10:19 04.10.2019
809 Rain 30 1008 83 8000 2.1 220 09:43 04.10.2019
810 Thunderstorm 29 1009 88 8000 5.1 260 09:25 04.10.2019
811 Thunderstorm 28 1010 100 3000 3.6 250 08:46 04.10.2019
812 Thunderstorm 29 1010 88 3000 5.1 210 08:27 04.10.2019
813 Rain 32 1009 66 9000 2.6 150 07:48 04.10.2019
814 Clouds 32 1010 63 10000 1 0 07:26 04.10.2019
815 Clouds 32 1011 66 10000 1.5 0 06:59 04.10.2019
816 Clouds 32 1011 66 10000 1.5 0 06:59 04.10.2019
817 Clouds 32 1012 66 10000 2.1 0 06:39 04.10.2019
818 Clouds 31 1012 66 10000 2.1 0 06:21 04.10.2019
819 Clouds 31 1012 66 10000 2.1 0 06:21 04.10.2019
820 Clouds 30 1012 74 9000 1.5 150 05:21 04.10.2019
821 Clouds 30 1012 74 9000 1.5 130 04:38 04.10.2019
822 Clouds 28 1012 83 9000 1.5 150 03:18 04.10.2019
823 Clouds 27 1011 88 9000 1 190 02:43 04.10.2019
824 Clouds 26 1011 88 9000 0.73 234.854 01:53 04.10.2019
825 Clouds 26 1010 88 9000 1.5 120 01:26 04.10.2019
826 Clouds 26 1010 88 9000 1.5 80 00:33 04.10.2019
827 Clouds 26 1010 83 9000 1.5 110 23:40 03.10.2019
828 Clouds 27 1010 83 9000 1.5 110 23:21 03.10.2019
829 Clouds 27 1010 83 9000 1 110 22:57 03.10.2019
830 Clouds 26 1010 83 9000 1.14 251.2 22:39 03.10.2019
831 Clouds 26 1010 83 9000 1.14 251.2 22:39 03.10.2019
832 Clouds 26 1010 83 9000 1.14 251.2 22:39 03.10.2019
833 Clouds 26 1010 83 9000 1.14 251.2 22:21 03.10.2019
834 Clouds 26 1010 83 9000 1.14 251.2 21:57 03.10.2019
835 Clouds 27 1011 78 9000 1.14 251.2 21:39 03.10.2019
836 Clouds 27 1011 78 9000 1.67 206.32 21:19 03.10.2019
837 Clouds 27 1011 78 9000 1.67 206.32 21:19 03.10.2019
838 Clouds 27 1011 74 9000 1.67 206.32 20:57 03.10.2019
839 Clouds 27 1012 78 9000 2.1 330 20:38 03.10.2019
840 Clouds 27 1012 78 9000 2.1 330 20:38 03.10.2019
841 Clouds 27 1012 78 9000 2.1 330 20:20 03.10.2019
842 Thunderstorm 27 1012 78 9000 1.5 360 19:55 03.10.2019
843 Thunderstorm 27 1012 78 9000 1.5 360 19:55 03.10.2019
844 Clouds 27 1012 74 9000 2.1 310 19:37 03.10.2019
845 Clouds 27 1012 74 9000 2.1 310 19:19 03.10.2019
846 Clouds 28 1012 74 9000 1.7 197.548 18:54 03.10.2019
847 Thunderstorm 28 1012 74 9000 1.5 190 18:36 03.10.2019
848 Thunderstorm 28 1012 74 9000 1.5 190 18:18 03.10.2019
849 Thunderstorm 28 1012 74 9000 2.74 192.536 17:42 03.10.2019
850 Clouds 29 1012 69 9000 2.6 210 17:21 03.10.2019
851 Clouds 29 1012 69 9000 5.1 250 16:55 03.10.2019
852 Clouds 29 1012 69 9000 5.1 250 16:54 03.10.2019
853 Clouds 29 1012 69 9000 5.1 250 16:54 03.10.2019
854 Clouds 29 1012 83 9000 4.1 220 16:36 03.10.2019
855 Clouds 29 1012 83 9000 4.1 220 16:18 03.10.2019
856 Clouds 30 1010 74 9000 3.1 190 15:42 03.10.2019
857 Clouds 30 1010 74 9000 3.1 190 15:23 03.10.2019
858 Clouds 30 1010 79 9000 3.1 180 14:56 03.10.2019
859 Clouds 30 1010 79 9000 3.1 180 14:56 03.10.2019
860 Clouds 30 1010 74 8000 3.1 180 14:36 03.10.2019
861 Clouds 30 1010 74 8000 3.1 180 14:36 03.10.2019
862 Clouds 30 1010 74 8000 3.1 180 14:18 03.10.2019
863 Clouds 31 1009 66 8000 2.6 170 13:43 03.10.2019
864 Clouds 31 1008 66 8000 3.1 140 13:22 03.10.2019
865 Clouds 31 1008 66 8000 3.1 140 13:22 03.10.2019
866 Clouds 31 1008 66 8000 2.1 330 12:58 03.10.2019
867 Clouds 32 1008 66 8000 2.1 340 12:39 03.10.2019
868 Clouds 32 1008 66 8000 2.1 340 12:39 03.10.2019
869 Clouds 32 1008 66 8000 2.1 340 12:19 03.10.2019
870 Clouds 32 1007 63 8000 2.6 300 11:57 03.10.2019
871 Clouds 32 1007 63 8000 2.6 300 11:56 03.10.2019
872 Clouds 32 1007 63 8000 2.6 300 11:56 03.10.2019
873 Clouds 32 1007 66 8000 2.6 330 11:37 03.10.2019
874 Clouds 33 1007 66 8000 2.6 330 11:19 03.10.2019
875 Clouds 32 1008 66 8000 2.6 20 10:42 03.10.2019
876 Clouds 33 1008 66 8000 2.6 20 10:19 03.10.2019
877 Clouds 33 1008 70 8000 2.1 30 09:59 03.10.2019
878 Clouds 32 1009 79 10000 2.1 350 09:40 03.10.2019
879 Clouds 32 1009 79 10000 2.1 350 09:40 03.10.2019
880 Clouds 32 1009 79 10000 2.1 350 09:22 03.10.2019
881 Clouds 32 1009 83 10000 2.6 360 09:00 03.10.2019
882 Clouds 31 1010 88 10000 3.1 360 08:40 03.10.2019
883 Clouds 31 1010 88 10000 3.1 360 08:22 03.10.2019
884 Thunderstorm 31 1011 94 3000 1.5 0 07:41 03.10.2019
885 Thunderstorm 31 1011 94 3000 1.5 0 07:41 03.10.2019
886 Thunderstorm 30 1011 94 3000 1.5 0 07:20 03.10.2019
887 Thunderstorm 30 1011 94 3000 1.5 0 07:20 03.10.2019
888 Rain 31 1011 62 10000 3.1 160 06:51 03.10.2019
889 Clouds 31 1012 59 10000 2.6 170 06:25 03.10.2019
890 Clouds 31 1012 66 10000 2.6 160 05:47 03.10.2019
891 Rain 30 1012 74 9000 3.1 150 05:25 03.10.2019
892 Clouds 30 1012 84 7000 3.6 120 04:39 03.10.2019
893 Mist 29 1011 89 5000 3.1 130 03:26 03.10.2019
894 Mist 28 1011 94 5000 3.6 110 02:45 03.10.2019
895 Mist 28 1011 94 5000 3.1 110 02:19 03.10.2019
896 Clouds 28 1010 94 8000 2.1 100 01:37 03.10.2019
897 Clouds 28 1010 94 8000 1.5 110 00:51 03.10.2019
898 Clouds 28 1009 100 8000 2.6 110 00:28 03.10.2019
899 Clouds 28 1009 94 8000 2.6 100 23:44 02.10.2019
900 Clouds 28 1010 94 8000 1 120 23:24 02.10.2019
901 Clouds 28 1009 94 8000 1.5 100 22:47 02.10.2019
902 Clouds 28 1009 88 8000 2.1 140 22:24 02.10.2019
903 Clouds 28 1010 88 8000 1 160 21:58 02.10.2019
904 Clouds 29 1010 88 8000 2.1 160 21:39 02.10.2019
905 Clouds 29 1010 88 8000 2.1 160 21:20 02.10.2019
906 Clouds 29 1010 83 8000 2.1 150 20:58 02.10.2019
907 Clouds 29 1011 83 8000 2.1 160 20:39 02.10.2019
908 Clouds 29 1011 83 8000 2.1 160 20:21 02.10.2019
909 Clouds 29 1011 83 8000 2.6 150 19:57 02.10.2019
910 Clouds 29 1011 83 8000 1.5 150 19:39 02.10.2019
911 Clouds 29 1011 83 8000 1.5 150 19:21 02.10.2019
912 Clouds 29 1012 83 8000 2.1 160 18:57 02.10.2019
913 Clouds 29 1012 83 8000 2.1 180 18:38 02.10.2019
914 Clouds 29 1012 83 8000 2.1 180 18:20 02.10.2019
915 Clouds 29 1012 83 8000 3.1 190 17:56 02.10.2019
916 Clouds 29 1011 83 8000 3.1 180 17:37 02.10.2019
917 Clouds 29 1011 83 8000 3.1 180 17:19 02.10.2019
918 Clouds 29 1011 83 8000 3.1 180 17:19 02.10.2019
919 Clouds 29 1011 83 8000 2.6 180 16:42 02.10.2019
920 Clouds 29 1010 83 8000 3.1 170 16:22 02.10.2019
921 Clouds 30 1010 83 8000 3.1 170 15:57 02.10.2019
922 Clouds 30 1010 79 8000 2.6 170 15:38 02.10.2019
923 Clouds 30 1010 79 8000 2.6 170 15:19 02.10.2019
924 Clouds 30 1009 74 8000 3.1 180 14:57 02.10.2019
925 Clouds 30 1009 74 8000 2.6 180 14:39 02.10.2019
926 Clouds 30 1009 74 8000 2.6 180 14:20 02.10.2019
927 Clouds 30 1008 70 8000 3.1 160 13:43 02.10.2019
928 Clouds 31 1008 70 8000 3.1 160 13:23 02.10.2019
929 Clouds 30 1008 70 8000 2.1 170 12:57 02.10.2019
930 Clouds 30 1008 70 8000 2.6 200 12:37 02.10.2019
931 Clouds 30 1008 66 8000 2.6 240 12:18 02.10.2019
932 Clouds 30 1008 70 8000 1.5 250 11:43 02.10.2019
933 Clouds 30 1008 70 8000 1.5 250 11:23 02.10.2019
934 Thunderstorm 31 1009 74 8000 5.7 280 10:42 02.10.2019
935 Thunderstorm 31 1009 74 8000 5.7 280 10:20 02.10.2019
936 Thunderstorm 31 1009 70 8000 5.1 220 09:57 02.10.2019
937 Thunderstorm 32 1008 63 8000 2.1 130 09:36 02.10.2019
938 Thunderstorm 33 1008 63 8000 2.1 130 09:18 02.10.2019
939 Clouds 33 1010 59 8000 4.1 110 08:43 02.10.2019
940 Clouds 33 1010 59 8000 4.1 110 08:22 02.10.2019
941 Clouds 34 1010 59 8000 3.1 150 07:56 02.10.2019
942 Clouds 34 1010 59 8000 3.1 150 07:56 02.10.2019
943 Clouds 33 1011 63 8000 2.32 205.053 07:37 02.10.2019
944 Clouds 32 1011 66 8000 2.32 205.053 07:19 02.10.2019
945 Clouds 33 1011 66 8000 2.32 205.053 06:31 02.10.2019
946 Clouds 32 1012 66 8000 2.6 150 05:52 02.10.2019
947 Clouds 31 1012 66 8000 1.5 270 05:23 02.10.2019
948 Clouds 30 1012 70 8000 2.1 140 04:43 02.10.2019
949 Clouds 30 1012 74 8000 2.1 170 03:51 02.10.2019
950 Clouds 28 1011 94 8000 1.5 110 02:39 02.10.2019
951 Clouds 28 1011 94 8000 1.5 110 02:21 02.10.2019
952 Clouds 27 1011 94 9000 2.1 110 01:19 02.10.2019
953 Clouds 27 1010 94 9000 2.1 110 00:42 02.10.2019
954 Clouds 27 1010 94 9000 2.1 110 00:23 02.10.2019
955 Clouds 27 1010 94 9000 1.44 251.993 23:42 01.10.2019
956 Clouds 27 1010 94 9000 1.44 251.993 23:24 01.10.2019
957 Clouds 27 1010 83 9000 1.5 360 22:58 01.10.2019
958 Clouds 27 1010 83 8000 3.1 300 22:38 01.10.2019
959 Clouds 28 1010 83 8000 3.1 300 22:18 01.10.2019
960 Clouds 28 1010 88 8000 3.1 120 21:44 01.10.2019
961 Clouds 28 1010 88 8000 3.1 120 21:25 01.10.2019
962 Clouds 29 1011 88 8000 2.6 120 20:59 01.10.2019
963 Clouds 29 1011 88 8000 2.72 195.033 20:39 01.10.2019
964 Clouds 29 1011 88 8000 2.72 195.033 20:21 01.10.2019
965 Clouds 29 1011 83 8000 3.1 180 19:59 01.10.2019
966 Clouds 29 1012 83 8000 2.6 180 19:41 01.10.2019
967 Clouds 29 1012 83 8000 2.6 180 19:23 01.10.2019
968 Clouds 28 1012 88 8000 3.6 200 18:58 01.10.2019
969 Clouds 29 1011 83 8000 2.6 190 18:38 01.10.2019
970 Clouds 29 1011 83 8000 2.6 190 18:19 01.10.2019
971 Clouds 29 1011 83 8000 2.6 190 17:54 01.10.2019
972 Clouds 29 1011 83 8000 3.1 180 17:36 01.10.2019
973 Clouds 29 1011 83 8000 2.6 180 17:18 01.10.2019
974 Clouds 29 1010 83 8000 3.1 180 16:41 01.10.2019
975 Clouds 29 1010 83 8000 3.1 180 16:41 01.10.2019
976 Clouds 29 1010 83 8000 3.1 180 16:22 01.10.2019
977 Clouds 29 1010 83 8000 2.6 190 15:55 01.10.2019
978 Clouds 29 1009 83 8000 3.1 180 15:37 01.10.2019
979 Clouds 29 1009 83 8000 3.1 180 15:18 01.10.2019
980 Clouds 29 1009 83 8000 3.1 180 15:18 01.10.2019
981 Clouds 29 1009 83 8000 3.6 180 14:40 01.10.2019
982 Clouds 29 1009 83 8000 3.6 180 14:20 01.10.2019
983 Clouds 28 1008 88 8000 4.14 150.044 13:56 01.10.2019
984 Clouds 28 1008 83 8000 1 150 13:37 01.10.2019
985 Clouds 28 1008 83 8000 1 150 13:18 01.10.2019
986 Clouds 28 1008 83 8000 1 150 13:18 01.10.2019
987 Clouds 29 1008 83 8000 2.1 210 12:55 01.10.2019
988 -273 0 0 0 0 0 12:55 01.10.2019
989 Clouds 29 1008 78 8000 3.1 190 12:37 01.10.2019
990 Clouds 29 1008 78 8000 5.7 260 12:18 01.10.2019
991 Clouds 29 1008 78 8000 5.7 260 11:55 01.10.2019
992 Rain 30 1008 83 8000 2.1 260 11:36 01.10.2019
993 Thunderstorm 30 1008 94 5000 3.6 240 11:18 01.10.2019
994 Thunderstorm 29 1009 94 1500 6.2 350 10:45 01.10.2019
995 Thunderstorm 29 1009 94 1500 6.2 350 10:27 01.10.2019
996 Thunderstorm 30 1008 100 1500 8.2 360 09:45 01.10.2019
997 Thunderstorm 32 1009 63 8000 6.2 20 09:26 01.10.2019
998 Clouds 32 1010 63 8000 3.6 200 08:44 01.10.2019
999 Clouds 32 1010 63 8000 3.6 200 08:25 01.10.2019
1000 Clouds 33 1010 59 8000 3.1 210 07:53 01.10.2019
1001 Clouds 32 1011 66 8000 3.1 200 07:26 01.10.2019
1002 Clouds 33 1011 70 8000 2.6 220 06:52 01.10.2019
1003 Clouds 32 1012 74 8000 3.1 220 06:25 01.10.2019
1004 Clouds 32 1012 79 8000 2.6 220 05:59 01.10.2019
1005 Clouds 32 1012 70 8000 3.1 200 05:40 01.10.2019
1006 Clouds 31 1012 79 8000 3.1 190 04:42 01.10.2019
1007 Clouds 30 1011 79 8000 3.1 150 03:37 01.10.2019
1008 Clouds 28 1011 83 8000 2.6 130 02:20 01.10.2019
1009 Clouds 28 1011 83 8000 3.6 130 01:55 01.10.2019
1010 Thunderstorm 28 1010 94 10000 1 120 00:44 01.10.2019
1011 Thunderstorm 28 1010 94 10000 1 120 00:44 01.10.2019
1012 Thunderstorm 28 1010 94 10000 1 120 00:25 01.10.2019
1013 Clouds 29 1010 88 10000 1 160 23:42 30.09.2019
1014 Clouds 29 1010 88 10000 1 160 23:22 30.09.2019
1015 Clouds 29 1010 94 10000 1 140 22:56 30.09.2019
1016 Clouds 28 1010 88 10000 0.5 0 22:37 30.09.2019
1017 Clouds 28 1010 88 10000 0.5 0 22:19 30.09.2019
1018 -273 0 0 0 0 0 21:55 30.09.2019
1019 Rain 29 1010 88 10000 3.1 210 21:36 30.09.2019
1020 Rain 29 1010 88 10000 3.1 210 21:18 30.09.2019
1021 Clouds 29 1010 88 10000 2.6 190 20:54 30.09.2019
1022 Clouds 29 1011 83 10000 3.6 210 20:36 30.09.2019
1023 Clouds 29 1011 83 10000 3.6 210 20:18 30.09.2019
1024 Clouds 29 1011 83 10000 3.6 210 20:18 30.09.2019
1025 Clouds 29 1011 89 9000 3.1 190 19:42 30.09.2019
1026 Clouds 29 1011 89 9000 3.1 190 19:22 30.09.2019
1027 Clouds 29 1011 89 9000 3.6 200 18:59 30.09.2019
1028 Clouds 29 1011 83 9000 4.1 200 18:41 30.09.2019
1029 Clouds 29 1011 83 9000 4.1 200 18:20 30.09.2019
1030 Clouds 29 1011 79 8000 2.1 190 17:56 30.09.2019
1031 Clouds 29 1011 79 8000 2.6 180 17:38 30.09.2019
1032 Clouds 29 1011 79 8000 2.6 180 17:19 30.09.2019
1033 Clouds 29 1010 88 7000 2.1 190 16:42 30.09.2019
1034 Clouds 29 1010 88 7000 2.1 190 16:20 30.09.2019
1035 Clouds 29 1010 88 7000 2.1 190 16:20 30.09.2019
1036 Clouds 29 1010 88 8000 2.1 160 15:59 30.09.2019
1037 Rain 27 1010 74 9000 1.5 140 15:39 30.09.2019
1038 Rain 27 1010 74 9000 1.5 140 15:39 30.09.2019
1039 Rain 30 1010 74 9000 1.5 140 15:19 30.09.2019
1040 Thunderstorm 30 1009 83 7000 2.1 150 14:58 30.09.2019
1041 Thunderstorm 30 1009 83 7000 8.7 30 14:38 30.09.2019
1042 Thunderstorm 30 1009 83 7000 8.7 30 14:19 30.09.2019
1043 Rain 30 1008 83 7000 2.6 200 13:59 30.09.2019
1044 Rain 30 1008 83 6000 1.5 240 13:40 30.09.2019
1045 Rain 30 1008 83 6000 1.5 240 13:21 30.09.2019
1046 Rain 31 1007 66 5000 3.1 180 12:44 30.09.2019
1047 Rain 31 1007 66 5000 3.1 180 12:44 30.09.2019
1048 Rain 31 1007 66 5000 3.1 180 12:25 30.09.2019
1049 Haze 33 1007 63 5000 3.6 180 11:59 30.09.2019
1050 Haze 33 1007 59 6000 2.6 150 11:40 30.09.2019
1051 Haze 33 1007 59 6000 2.6 150 11:21 30.09.2019
1052 Haze 34 1007 56 7000 2.6 350 10:56 30.09.2019
1053 Haze 34 1007 56 8000 2.6 340 10:37 30.09.2019
1054 Haze 34 1007 56 8000 2.6 340 10:18 30.09.2019
1055 Haze 34 1009 52 8000 2.1 20 09:40 30.09.2019
1056 Haze 33 1009 52 8000 2.1 20 09:22 30.09.2019
1057 Haze 33 1009 52 8000 1.5 230 08:52 30.09.2019
1058 Haze 33 1010 56 8000 2.6 0 08:34 30.09.2019
1059 Haze 33 1010 52 8000 2.1 50 07:59 30.09.2019
1060 Haze 32 1011 56 7000 2.1 10 07:40 30.09.2019
1061 Clouds 34 1011 59 6000 1.5 360 07:18 30.09.2019
1062 Haze 33 1011 66 5000 0.5 0 06:42 30.09.2019
1063 Haze 32 1011 66 5000 0.5 0 06:23 30.09.2019
1064 Mist 33 1012 75 4500 1 0 05:38 30.09.2019
1065 Mist 29 1011 74 4000 1.5 270 02:51 30.09.2019
1066 Mist 29 1011 78 4000 2.6 280 02:20 30.09.2019
1067 -273 0 0 0 0 0 01:24 30.09.2019
1068 Mist 28 1011 78 5000 1.2 304.258 01:24 30.09.2019
1069 Mist 28 1010 78 7000 2.1 300 00:37 30.09.2019
1070 Mist 28 1010 78 7000 2.1 300 00:19 30.09.2019
1071 Mist 28 1010 78 7000 2.1 300 00:19 30.09.2019
1072 Mist 28 1010 78 8000 2.1 290 23:42 29.09.2019
1073 Mist 28 1010 78 8000 2.1 290 23:21 29.09.2019
1074 Clouds 29 1010 74 8000 2.1 320 22:45 29.09.2019
1075 Clouds 29 1010 74 8000 2.1 320 22:25 29.09.2019
1076 Clouds 29 1011 74 9000 1.53 298.446 21:59 29.09.2019
1077 Clouds 29 1011 74 9000 1.53 298.446 21:39 29.09.2019
1078 Clouds 29 1011 74 9000 1.37 312.077 21:20 29.09.2019
1079 Clouds 29 1011 74 9000 1.37 312.077 20:59 29.09.2019
1080 Clouds 29 1012 70 10000 2.1 120 20:41 29.09.2019
1081 Clouds 29 1012 70 10000 2.1 120 20:19 29.09.2019
1082 Clouds 29 1012 70 10000 2.1 120 20:19 29.09.2019
1083 Clouds 29 1012 74 10000 1.47 303.376 19:57 29.09.2019
1084 Clouds 30 1012 66 10000 1.47 303.376 19:37 29.09.2019
1085 Clouds 30 1012 66 10000 1.47 303.376 19:37 29.09.2019
1086 Clouds 30 1012 62 10000 1.47 303.376 19:18 29.09.2019
1087 Clouds 30 1012 62 10000 1.47 303.376 18:55 29.09.2019
1088 Clouds 30 1012 66 10000 1.47 303.376 18:36 29.09.2019
1089 Clouds 30 1012 66 10000 1.49 17.865 18:18 29.09.2019
1090 Clouds 30 1013 66 10000 1.49 17.865 17:55 29.09.2019
1091 Clouds 30 1013 62 10000 1.5 90 17:36 29.09.2019
1092 Clouds 30 1013 62 10000 1.5 90 17:18 29.09.2019
1093 Clouds 30 1012 62 10000 1.5 100 16:54 29.09.2019
1094 Clouds 31 1012 66 10000 1.49 17.865 16:36 29.09.2019
1095 Clouds 31 1012 66 10000 1.49 17.865 16:18 29.09.2019
1096 Clouds 31 1011 62 10000 2.6 10 15:39 29.09.2019
1097 Clouds 31 1011 62 10000 2.6 10 15:19 29.09.2019
1098 Clouds 31 1011 59 10000 3.6 350 14:59 29.09.2019
1099 Clouds 31 1010 59 10000 3.6 350 14:38 29.09.2019
1100 Clouds 32 1010 59 10000 4.1 330 14:19 29.09.2019
1101 Clouds 32 1010 59 10000 4.1 330 13:57 29.09.2019
1102 Clouds 32 1010 55 10000 3.6 360 13:38 29.09.2019
1103 Clouds 32 1010 55 10000 3.6 360 13:18 29.09.2019
1104 Clouds 32 1010 52 10000 3.6 350 12:56 29.09.2019
1105 Clouds 32 1009 46 10000 3.6 360 12:38 29.09.2019
1106 Clouds 33 1009 46 10000 3.6 360 12:20 29.09.2019
1107 Clouds 34 1009 46 10000 3.1 20 11:41 29.09.2019
1108 Clouds 34 1009 46 10000 3.1 20 11:20 29.09.2019
1109 Clouds 34 1010 50 10000 2.6 30 10:59 29.09.2019
1110 Clouds 34 1010 46 9000 3.1 50 10:40 29.09.2019
1111 Clouds 34 1010 46 9000 3.1 50 10:21 29.09.2019
1112 Clouds 34 1010 41 9000 1.5 0 09:59 29.09.2019
1113 Clouds 34 1010 41 9000 3.6 10 09:41 29.09.2019
1114 Clouds 34 1010 41 9000 3.6 10 09:20 29.09.2019
1115 Clouds 34 1011 46 9000 3.6 40 08:43 29.09.2019
1116 Clouds 34 1011 46 9000 3.6 40 08:22 29.09.2019
1117 Clouds 35 1012 49 9000 3.6 20 07:45 29.09.2019
1118 Clouds 34 1013 49 9000 2.6 300 07:27 29.09.2019
1119 Clouds 35 1013 52 9000 2.6 20 06:55 29.09.2019
1120 Clouds 34 1014 59 9000 1.5 0 06:32 29.09.2019
1121 Clouds 33 1014 58 9000 2.6 30 04:52 29.09.2019
1122 Clouds 32 1014 58 9000 2.6 350 04:24 29.09.2019
1123 Clouds 30 1014 69 9000 2.6 360 03:42 29.09.2019
1124 Clouds 28 1014 74 9000 3.1 330 02:25 29.09.2019
1125 Clouds 28 1014 78 9000 1.5 350 01:45 29.09.2019
1126 Clouds 28 1013 83 9000 2.6 340 01:20 29.09.2019
1127 Clouds 28 1013 83 9000 2.1 30 00:41 29.09.2019
1128 Clouds 28 1013 83 9000 2.1 30 00:19 29.09.2019
1129 Clouds 28 1013 83 9000 1.5 50 23:39 28.09.2019
1130 Clouds 28 1013 83 9000 1.5 50 23:21 28.09.2019
1131 Clouds 29 1012 78 9000 1.5 60 22:41 28.09.2019
1132 Clouds 29 1012 78 9000 1.5 60 22:23 28.09.2019
1133 Clouds 29 1013 83 9000 2.6 20 21:59 28.09.2019
1134 Clouds 29 1013 83 9000 2.1 40 21:40 28.09.2019
1135 Clouds 29 1013 83 9000 2.1 40 21:40 28.09.2019
1136 Clouds 29 1013 83 9000 2.1 40 21:21 28.09.2019
1137 Clouds 30 1013 70 9000 1 50 20:59 28.09.2019
1138 Clouds 30 1013 70 9000 1.94 352.413 20:40 28.09.2019
1139 Clouds 30 1013 70 9000 1.94 352.413 20:20 28.09.2019
1140 Clouds 30 1013 74 9000 1.94 352.413 19:57 28.09.2019
1141 Clouds 30 1014 66 9000 1.5 40 19:39 28.09.2019
1142 Clouds 30 1014 66 9000 1.5 40 19:21 28.09.2019
1143 Clouds 30 1014 66 9000 0.5 0 18:57 28.09.2019
1144 Clouds 30 1014 58 9000 0.5 0 18:39 28.09.2019
1145 Clouds 30 1014 58 9000 0.5 0 18:20 28.09.2019
1146 Clouds 30 1014 58 9000 1.5 300 17:56 28.09.2019
1147 Clouds 30 1013 55 9000 2.1 320 17:38 28.09.2019
1148 Clouds 31 1013 55 9000 2.1 320 17:19 28.09.2019
1149 Clouds 31 1013 55 9000 2.1 320 17:19 28.09.2019
1150 Clouds 31 1013 52 9000 3.1 10 16:43 28.09.2019
1151 Clouds 31 1013 52 9000 3.1 10 16:25 28.09.2019
1152 Clouds 31 1012 52 9000 3.1 20 15:42 28.09.2019
1153 Clouds 31 1012 52 9000 3.1 20 15:42 28.09.2019
1154 Clouds 31 1012 52 9000 3.1 20 15:23 28.09.2019
1155 Clouds 31 1012 52 9000 3.1 20 15:23 28.09.2019
1156 Clouds 31 1012 52 9000 3.6 20 14:58 28.09.2019
1157 Clouds 31 1011 55 9000 1.5 0 14:39 28.09.2019
1158 Clouds 31 1011 55 9000 1.5 0 14:21 28.09.2019
1159 Clouds 31 1011 52 9000 2.1 80 13:57 28.09.2019
1160 Clouds 32 1010 49 9000 2.1 80 13:38 28.09.2019
1161 Clouds 32 1010 49 9000 2.1 80 13:20 28.09.2019
1162 Clouds 32 1010 52 9000 1.5 0 12:45 28.09.2019
1163 Clouds 33 1010 52 9000 1.5 0 12:20 28.09.2019
1164 Clouds 35 1010 46 9000 2.6 50 11:56 28.09.2019
1165 Clouds 35 1010 49 9000 4.1 80 11:37 28.09.2019
1166 Clouds 35 1010 49 9000 4.1 80 11:18 28.09.2019
1167 Clouds 35 1010 49 9000 4.1 80 11:18 28.09.2019
1168 Clouds 35 1011 46 9000 3.1 80 10:42 28.09.2019
1169 Clouds 35 1011 46 9000 3.1 80 10:20 28.09.2019
1170 Clouds 35 1011 49 9000 2.6 60 09:56 28.09.2019
1171 Clouds 35 1011 52 9000 1.5 0 09:37 28.09.2019
1172 Clouds 35 1011 52 9000 1.5 0 09:18 28.09.2019
1173 Clouds 35 1012 52 10000 3.6 20 08:44 28.09.2019
1174 Clouds 35 1012 52 10000 3.6 20 08:26 28.09.2019
1175 Clouds 34 1013 52 10000 1.5 360 07:45 28.09.2019
1176 Clouds 34 1013 55 10000 2.6 90 07:21 28.09.2019
1177 Clouds 33 1014 59 10000 2.1 20 06:55 28.09.2019
1178 Clouds 33 1014 62 10000 3.6 30 06:31 28.09.2019
1179 Clouds 31 1015 62 10000 3.6 30 05:55 28.09.2019
1180 Clouds 31 1015 62 10000 3.6 360 05:20 28.09.2019
1181 Clouds 31 1015 70 9000 4.1 20 04:39 28.09.2019
1182 Clouds 29 1015 74 9000 3.1 350 03:56 28.09.2019
1183 Clouds 28 1015 78 8000 3.1 340 03:22 28.09.2019
1184 Clouds 28 1014 83 7000 2.1 340 02:48 28.09.2019
1185 Clouds 27 1014 88 7000 3.1 360 02:30 28.09.2019
1186 Clouds 27 1014 88 7000 3.1 340 01:48 28.09.2019
1187 Clouds 27 1013 88 7000 3.6 330 01:26 28.09.2019
1188 Clouds 27 1013 88 8000 3.1 310 00:55 28.09.2019
1189 Clouds 27 1013 88 8000 2.6 340 00:36 28.09.2019
1190 Clouds 28 1012 88 8000 2.1 350 23:58 27.09.2019
1191 Clouds 28 1012 94 8000 1.5 360 23:37 27.09.2019
1192 Clouds 28 1012 94 8000 1.5 360 23:19 27.09.2019
1193 Clouds 28 1012 83 9000 2.79 356.872 22:45 27.09.2019
1194 Clouds 28 1012 83 9000 2.79 356.872 22:45 27.09.2019
1195 Clouds 28 1012 83 9000 2.79 356.872 22:45 27.09.2019
1196 Clouds 28 1012 88 9000 1 40 22:19 27.09.2019
1197 Clouds 28 1012 94 9000 2.79 356.872 21:57 27.09.2019
1198 Clouds 28 1012 88 9000 2.79 356.872 21:37 27.09.2019
1199 Clouds 28 1012 88 9000 2.23 7.746 21:19 27.09.2019
1200 Clouds 28 1013 88 8000 1 140 20:56 27.09.2019
1201 Clouds 28 1013 88 8000 1 140 20:56 27.09.2019
1202 Clouds 28 1013 88 8000 1.5 130 20:38 27.09.2019
1203 Clouds 28 1013 88 8000 1.5 130 20:19 27.09.2019
1204 Clouds 28 1013 88 9000 1 0 19:44 27.09.2019
1205 Clouds 28 1013 88 9000 1 0 19:24 27.09.2019
1206 Clouds 29 1013 83 9000 2.53 6.4 18:59 27.09.2019
1207 Clouds 29 1013 79 9000 2.1 100 18:40 27.09.2019
1208 Clouds 29 1013 79 9000 2.1 100 18:21 27.09.2019
1209 Clouds 29 1014 79 10000 1.5 100 17:55 27.09.2019
1210 Clouds 29 1014 83 10000 2.6 50 17:37 27.09.2019
1211 Clouds 29 1014 83 10000 2.6 50 17:18 27.09.2019
1212 Clouds 29 1014 70 10000 2.92 358.546 16:55 27.09.2019
1213 Clouds 29 1013 74 10000 2.92 358.546 16:36 27.09.2019
1214 Clouds 29 1013 74 10000 2.92 358.546 16:18 27.09.2019
1215 Clouds 29 1013 74 10000 2.92 358.546 15:43 27.09.2019
1216 Clouds 29 1013 74 10000 2.8 13.191 15:20 27.09.2019
1217 Clouds 29 1012 74 10000 1.5 200 14:56 27.09.2019
1218 Clouds 29 1012 70 10000 3.1 170 14:38 27.09.2019
1219 Clouds 29 1012 70 10000 3.1 170 14:38 27.09.2019
1220 Clouds 29 1012 70 10000 3.1 170 14:18 27.09.2019
1221 Clouds 29 1011 74 10000 2.1 170 13:56 27.09.2019
1222 Clouds 29 1011 74 10000 1 180 13:38 27.09.2019
1223 Clouds 29 1011 74 10000 1 180 13:19 27.09.2019
1224 Rain 29 1011 74 10000 3.1 310 12:43 27.09.2019
1225 Rain 29 1011 74 10000 3.1 310 12:22 27.09.2019
1226 Clouds 30 1011 70 10000 5.7 250 11:40 27.09.2019
1227 Clouds 31 1011 70 10000 5.7 250 11:22 27.09.2019
1228 Clouds 33 1011 49 10000 2.1 140 10:59 27.09.2019
1229 Clouds 33 1011 52 10000 1.5 10 10:40 27.09.2019
1230 Clouds 34 1011 52 10000 1.5 10 10:21 27.09.2019
1231 Clouds 34 1011 52 10000 1.5 0 09:44 27.09.2019
1232 Clouds 34 1011 52 10000 1.5 0 09:44 27.09.2019
1233 Clouds 34 1011 52 10000 1.5 0 09:23 27.09.2019
1234 Clouds 34 1011 52 10000 1.5 0 09:23 27.09.2019
1235 Clouds 35 1012 49 10000 1.5 130 08:58 27.09.2019
1236 Clouds 35 1013 52 10000 1.5 60 08:40 27.09.2019
1237 Clouds 35 1013 52 10000 1.5 60 08:20 27.09.2019
1238 Clouds 34 1013 56 10000 1 0 07:49 27.09.2019
1239 Clouds 33 1014 59 10000 2.1 10 07:24 27.09.2019
1240 Clouds 33 1015 59 10000 1 0 06:43 27.09.2019
1241 Clouds 32 1015 59 10000 1 0 06:25 27.09.2019
1242 Clouds 32 1015 62 10000 1.5 0 05:52 27.09.2019
1243 Clouds 31 1015 62 10000 1.5 280 05:33 27.09.2019
1244 Rain 30 1015 79 8000 2.6 310 03:57 27.09.2019
1245 Clouds 29 1015 79 8000 2.6 340 03:36 27.09.2019
1246 Clouds 27 1014 88 8000 3.1 310 01:52 27.09.2019
1247 Clouds 28 1014 88 10000 2.6 340 01:28 27.09.2019
1248 Clouds 28 1013 88 10000 1.5 340 00:30 27.09.2019
1249 Clouds 28 1013 83 10000 2.55 349.816 23:56 26.09.2019
1250 Clouds 28 1013 88 10000 1 40 23:38 26.09.2019
1251 Clouds 28 1013 88 10000 1 40 23:18 26.09.2019
1252 Clouds 28 1013 88 10000 1 40 23:18 26.09.2019
1253 Clouds 28 1013 83 10000 2.1 100 22:57 26.09.2019
1254 Clouds 28 1013 83 10000 2.6 100 22:39 26.09.2019
1255 Clouds 28 1013 83 10000 2.6 100 22:18 26.09.2019
1256 Clouds 29 1013 79 10000 2.6 100 21:56 26.09.2019
1257 Clouds 29 1013 79 10000 2.6 90 21:37 26.09.2019
1258 Clouds 29 1013 79 10000 2.6 90 21:18 26.09.2019
1259 Clouds 29 1013 79 10000 2.1 90 20:57 26.09.2019
1260 Clouds 29 1014 79 10000 2.1 100 20:39 26.09.2019
1261 Clouds 29 1014 79 10000 2.1 100 20:20 26.09.2019
1262 Clouds 30 1014 74 10000 1.5 110 19:40 26.09.2019
1263 Clouds 30 1014 79 10000 2.1 140 19:19 26.09.2019
1264 Clouds 30 1014 79 10000 2.1 140 18:59 26.09.2019
1265 Clouds 30 1014 83 10000 1.5 50 18:40 26.09.2019
1266 Clouds 30 1014 79 10000 2.6 50 18:22 26.09.2019
1267 Clouds 30 1014 79 10000 2.6 50 17:57 26.09.2019
1268 Clouds 31 1014 70 10000 2.1 350 17:37 26.09.2019
1269 Clouds 31 1014 70 10000 2.1 350 17:18 26.09.2019
1270 Clouds 31 1013 66 10000 2.73 9.883 16:40 26.09.2019
1271 Clouds 31 1013 66 10000 2.73 9.883 16:21 26.09.2019
1272 Clouds 31 1013 66 10000 1.5 80 16:00 26.09.2019
1273 Clouds 32 1012 66 10000 2.6 80 15:39 26.09.2019
1274 Clouds 30 1012 66 10000 2.6 80 15:20 26.09.2019
1275 Clouds 30 1012 62 10000 2.1 80 14:57 26.09.2019
1276 Clouds 30 1011 66 10000 3.1 60 14:38 26.09.2019
1277 Clouds 30 1011 66 10000 3.1 60 14:20 26.09.2019
1278 Clouds 31 1011 55 10000 2.6 110 13:55 26.09.2019
1279 Clouds 31 1011 55 10000 3.1 110 13:36 26.09.2019
1280 Clouds 31 1010 49 10000 3.1 110 13:18 26.09.2019
1281 Clouds 31 1010 52 10000 3.1 90 12:41 26.09.2019
1282 Clouds 34 1010 52 10000 3.1 90 12:21 26.09.2019
1283 Clouds 35 1010 50 10000 2.6 60 11:55 26.09.2019
1284 Clouds 35 1010 50 10000 2.6 60 11:55 26.09.2019
1285 Clouds 35 1011 52 10000 3.6 40 11:36 26.09.2019
1286 Clouds 35 1011 52 10000 3.6 40 11:18 26.09.2019
1287 Clouds 35 1011 52 10000 3.1 360 10:41 26.09.2019
1288 Clouds 35 1011 52 10000 3.1 360 10:23 26.09.2019
1289 Clouds 35 1011 52 10000 3.6 60 09:45 26.09.2019
1290 Clouds 34 1012 55 10000 2.6 350 09:27 26.09.2019
1291 Clouds 35 1012 52 10000 1.5 20 08:59 26.09.2019
1292 Clouds 34 1012 55 10000 3.1 20 08:41 26.09.2019
1293 Clouds 34 1012 55 10000 3.1 20 08:23 26.09.2019
1294 Clouds 34 1013 55 10000 2.1 40 07:44 26.09.2019
1295 Clouds 34 1013 55 10000 2.1 40 07:22 26.09.2019
1296 Clouds 34 1014 55 9000 3.1 60 06:50 26.09.2019
1297 Clouds 34 1014 59 9000 2.1 50 06:27 26.09.2019
1298 Clouds 32 1015 62 9000 1.5 0 05:51 26.09.2019
1299 Clouds 32 1015 62 9000 1.5 150 05:25 26.09.2019
1300 Clouds 28 1015 74 9000 3.1 30 03:18 26.09.2019
1301 Clouds 27 1014 83 8000 2.1 350 01:55 26.09.2019
1302 Clouds 27 1014 83 8000 1.5 330 01:32 26.09.2019
1303 Clouds 26 1013 83 8000 1.5 320 00:58 26.09.2019
1304 Clouds 27 1013 78 9000 1.5 320 00:38 26.09.2019
1305 Clouds 27 1013 78 9000 1.5 320 00:20 26.09.2019
1306 Clouds 27 1013 78 10000 2.1 10 23:42 25.09.2019
1307 Clouds 27 1013 78 10000 2.1 10 23:19 25.09.2019
1308 Clouds 27 1013 78 10000 2.6 20 22:43 25.09.2019
1309 Clouds 27 1013 78 10000 2.6 20 22:21 25.09.2019
1310 Clouds 27 1013 78 10000 2.6 20 22:21 25.09.2019
1311 Clouds 27 1013 78 10000 3.1 10 21:58 25.09.2019
1312 Clouds 28 1013 83 10000 2.1 10 21:40 25.09.2019
1313 Clouds 28 1013 83 10000 2.1 10 21:19 25.09.2019
1314 Clouds 28 1014 78 10000 2.1 30 20:58 25.09.2019
1315 Clouds 28 1014 83 10000 2.6 30 20:40 25.09.2019
1316 Clouds 28 1014 83 10000 2.6 30 20:22 25.09.2019
1317 Clouds 29 1014 74 10000 2.6 30 19:55 25.09.2019
1318 Clouds 29 1015 74 10000 2.1 30 19:36 25.09.2019
1319 Clouds 29 1015 74 10000 2.6 40 19:18 25.09.2019
1320 Clouds 29 1015 74 10000 2.6 40 18:55 25.09.2019
1321 Clouds 29 1015 78 10000 2.6 40 18:37 25.09.2019
1322 Clouds 29 1015 78 10000 2.6 40 18:37 25.09.2019
1323 Clouds 29 1015 74 10000 2.6 30 18:18 25.09.2019
1324 Clouds 30 1015 74 10000 3.1 20 17:39 25.09.2019
1325 Clouds 30 1015 74 10000 3.1 20 17:20 25.09.2019
1326 Clouds 30 1015 70 10000 2.1 20 16:56 25.09.2019
1327 Clouds 30 1014 79 10000 2.6 30 16:36 25.09.2019
1328 Clouds 30 1014 79 10000 2.6 30 16:18 25.09.2019
1329 Clouds 30 1013 70 10000 1.5 80 15:42 25.09.2019
1330 Clouds 31 1013 70 10000 1.5 80 15:23 25.09.2019
1331 Clouds 31 1013 70 10000 2.6 70 14:57 25.09.2019
1332 Clouds 31 1013 70 10000 2.6 70 14:57 25.09.2019
1333 Clouds 31 1013 66 10000 3.1 20 14:39 25.09.2019
1334 Clouds 31 1013 66 10000 3.1 20 14:21 25.09.2019
1335 Clouds 31 1012 62 10000 2.6 110 13:56 25.09.2019
1336 Clouds 31 1012 62 10000 2.6 110 13:56 25.09.2019
1337 Clouds 32 1012 62 10000 3.1 90 13:37 25.09.2019
1338 Clouds 32 1012 62 10000 3.1 90 13:19 25.09.2019
1339 Clouds 32 1012 55 10000 2.6 120 12:41 25.09.2019
1340 Clouds 32 1012 55 10000 2.6 120 12:23 25.09.2019
1341 Clouds 32 1012 55 10000 3.1 110 11:58 25.09.2019
1342 Clouds 32 1011 55 10000 2.6 70 11:40 25.09.2019
1343 Clouds 33 1011 55 10000 2.6 70 11:19 25.09.2019
1344 Clouds 33 1011 55 10000 2.1 50 10:45 25.09.2019
1345 Clouds 33 1011 55 10000 2.1 50 10:25 25.09.2019
1346 Clouds 33 1011 55 10000 2.1 50 10:25 25.09.2019
1347 Clouds 33 1012 55 10000 2.6 50 09:57 25.09.2019
1348 Clouds 33 1012 55 10000 2.6 0 09:37 25.09.2019
1349 Clouds 33 1012 55 10000 2.6 0 09:19 25.09.2019
1350 Clouds 32 1013 52 10000 2.1 20 08:44 25.09.2019
1351 Clouds 33 1013 52 10000 2.1 20 08:21 25.09.2019
1352 Clouds 33 1014 55 10000 2.1 80 07:57 25.09.2019
1353 Clouds 33 1014 55 10000 2.1 80 07:38 25.09.2019
1354 Clouds 32 1015 58 10000 1.5 10 07:20 25.09.2019
1355 Clouds 32 1015 58 10000 1.5 10 06:43 25.09.2019
1356 Clouds 31 1015 58 10000 1.5 10 06:22 25.09.2019
1357 Clouds 30 1015 70 10000 3.1 10 05:28 25.09.2019
1358 -273 0 0 0 0 0 04:54 25.09.2019
1359 Clouds 27 1014 78 8000 3.1 10 02:19 25.09.2019
1360 Clouds 27 1013 83 6000 1.5 350 00:45 25.09.2019
1361 Clouds 27 1013 83 6000 1.5 350 00:25 25.09.2019
1362 Clouds 27 1013 83 6000 2.1 350 23:57 24.09.2019
1363 Clouds 27 1013 83 6000 2.1 360 23:38 24.09.2019
1364 Clouds 27 1013 83 6000 2.1 360 23:19 24.09.2019
1365 Clouds 27 1013 78 9000 2.1 20 22:39 24.09.2019
1366 Clouds 28 1013 78 9000 2.1 20 22:20 24.09.2019
1367 Clouds 28 1013 88 9000 2.1 30 21:58 24.09.2019
1368 Clouds 28 1013 88 9000 1.5 20 21:37 24.09.2019
1369 Clouds 28 1013 88 9000 1.5 20 21:19 24.09.2019
1370 Clouds 28 1013 88 10000 1.45 15.224 20:57 24.09.2019
1371 Clouds 28 1014 83 10000 1.45 15.224 20:39 24.09.2019
1372 Clouds 28 1014 83 10000 1.45 15.224 20:20 24.09.2019
1373 Clouds 28 1014 83 10000 2.1 20 19:44 24.09.2019
1374 Clouds 29 1014 83 10000 2.1 20 19:24 24.09.2019
1375 Clouds 29 1014 83 10000 1.5 60 18:59 24.09.2019
1376 Clouds 29 1014 78 10000 1.5 90 18:41 24.09.2019
1377 Clouds 29 1014 78 10000 1.5 90 18:41 24.09.2019
1378 Clouds 29 1014 78 10000 1.5 90 18:22 24.09.2019
1379 Clouds 29 1014 74 10000 1.5 60 17:58 24.09.2019
1380 Clouds 29 1014 74 10000 1.5 120 17:39 24.09.2019
1381 Clouds 29 1014 74 10000 1.5 120 17:39 24.09.2019
1382 Clouds 29 1014 74 10000 1.5 120 17:20 24.09.2019
1383 Clouds 29 1014 83 10000 2.89 52.959 16:58 24.09.2019
1384 Clouds 29 1013 79 10000 1 140 16:40 24.09.2019
1385 Clouds 29 1013 79 10000 1 140 16:19 24.09.2019
1386 Clouds 29 1013 70 10000 2.1 130 15:42 24.09.2019
1387 Clouds 29 1013 70 10000 2.1 130 15:23 24.09.2019
1388 Clouds 30 1012 70 10000 2.1 120 14:45 24.09.2019
1389 Clouds 30 1012 66 10000 2.1 110 14:20 24.09.2019
1390 Clouds 30 1012 66 10000 2.1 120 13:57 24.09.2019
1391 Clouds 30 1011 66 10000 2.6 100 13:38 24.09.2019
1392 Clouds 30 1011 66 10000 2.6 100 13:20 24.09.2019
1393 Clouds 31 1011 59 10000 4.6 90 12:40 24.09.2019
1394 Clouds 31 1011 59 10000 4.6 90 12:21 24.09.2019
1395 -273 0 0 0 0 0 11:56 24.09.2019
1396 Clouds 31 1011 59 10000 4.6 70 11:56 24.09.2019
1397 Clouds 32 1011 55 10000 4.1 100 11:37 24.09.2019
1398 Clouds 31 1011 55 10000 4.1 100 11:18 24.09.2019
1399 Clouds 32 1011 59 10000 4.1 70 10:39 24.09.2019
1400 Clouds 32 1011 59 10000 4.1 70 10:21 24.09.2019
1401 Clouds 32 1011 59 10000 4.1 70 09:55 24.09.2019
1402 Clouds 32 1011 59 10000 4.6 70 09:37 24.09.2019
1403 Clouds 32 1012 59 10000 4.1 50 09:18 24.09.2019
1404 Clouds 32 1012 59 10000 4.6 60 08:41 24.09.2019
1405 Clouds 32 1012 59 10000 4.6 60 08:23 24.09.2019
1406 Clouds 32 1012 58 10000 4.1 80 07:58 24.09.2019
1407 Clouds 32 1013 66 10000 4.6 50 07:39 24.09.2019
1408 Clouds 32 1013 62 10000 2.1 120 07:21 24.09.2019
1409 Clouds 31 1014 66 10000 3.1 100 06:38 24.09.2019
1410 Clouds 30 1014 70 10000 3.1 80 06:19 24.09.2019
1411 Clouds 29 1015 70 10000 2.6 40 05:22 24.09.2019
1412 Clouds 28 1015 83 6000 1.5 330 03:46 24.09.2019
1413 Clouds 27 1015 88 6000 2.12 344.596 03:25 24.09.2019
1414 Mist 25 1014 100 4000 2.6 340 02:44 24.09.2019
1415 Clouds 25 1013 100 9000 1.5 340 01:41 24.09.2019
1416 Clouds 25 1013 100 9000 2.1 320 00:41 24.09.2019
1417 Clouds 25 1013 100 9000 2.1 320 00:22 24.09.2019
1418 Clouds 24 1013 100 9000 2.1 330 23:42 23.09.2019
1419 Clouds 24 1013 100 9000 2.1 330 23:23 23.09.2019
1420 Clouds 25 1013 100 9000 2.32 339.594 22:41 23.09.2019
1421 Clouds 25 1013 100 9000 2.32 339.594 22:22 23.09.2019
1422 Clouds 25 1013 100 9000 2.32 339.594 21:59 23.09.2019
1423 Clouds 25 1013 100 9000 2.32 339.594 21:41 23.09.2019
1424 Clouds 25 1013 100 9000 2.32 339.594 21:41 23.09.2019
1425 Clouds 25 1013 100 9000 2.32 339.594 21:41 23.09.2019
1426 Clouds 25 1013 100 9000 2.32 339.594 21:41 23.09.2019
1427 Clouds 25 1013 100 9000 1.66 28.82 21:20 23.09.2019
1428 Clouds 25 1013 100 9000 1.66 28.82 20:59 23.09.2019
1429 Clouds 25 1013 100 9000 0.43 274.987 20:39 23.09.2019
1430 Clouds 25 1013 100 9000 0.43 274.987 20:19 23.09.2019
1431 Clouds 26 1014 100 9000 0.43 274.987 19:40 23.09.2019
1432 Clouds 26 1014 100 9000 0.43 274.987 19:22 23.09.2019
1433 Clouds 26 1014 100 9000 0.43 274.987 19:22 23.09.2019
1434 Clouds 26 1014 100 9000 0.43 274.987 19:22 23.09.2019
1435 Clouds 26 1014 100 9000 0.43 274.987 18:59 23.09.2019
1436 Clouds 26 1014 100 9000 1 80 18:41 23.09.2019
1437 Clouds 26 1014 100 9000 2.1 40 18:19 23.09.2019
1438 Clouds 26 1014 100 9000 2.1 40 17:56 23.09.2019
1439 Clouds 26 1014 100 9000 2.1 40 17:56 23.09.2019
1440 Clouds 25 1014 94 9000 2.1 60 17:38 23.09.2019
1441 Clouds 25 1014 94 9000 2.1 60 17:20 23.09.2019
1442 Clouds 25 1014 94 9000 3.6 50 16:55 23.09.2019
1443 Clouds 25 1014 94 8000 0.97 94.631 16:36 23.09.2019
1444 Clouds 25 1014 94 8000 0.97 94.631 16:36 23.09.2019
1445 Rain 25 1014 94 7000 1.5 350 16:18 23.09.2019
1446 Rain 25 1014 94 7000 1.5 350 16:18 23.09.2019
1447 Rain 25 1014 94 7000 1.5 350 15:55 23.09.2019
1448 Rain 25 1013 94 6000 2.6 30 15:37 23.09.2019
1449 Rain 26 1013 94 6000 2.6 30 15:18 23.09.2019
1450 Rain 26 1013 100 8000 2.6 10 14:40 23.09.2019
1451 Rain 26 1013 100 8000 2.6 10 14:20 23.09.2019
1452 Rain 26 1012 100 8000 3.6 350 13:58 23.09.2019
1453 Rain 26 1011 94 8000 3.1 350 13:38 23.09.2019
1454 Rain 26 1011 94 6000 2.1 350 13:18 23.09.2019
1455 Rain 27 1011 94 8000 3.1 300 12:43 23.09.2019
1456 Rain 27 1011 94 8000 3.1 300 12:23 23.09.2019
1457 Rain 26 1011 94 4000 4.1 250 11:58 23.09.2019
1458 Rain 26 1011 100 4000 5.1 190 11:39 23.09.2019
1459 Rain 26 1011 100 4000 5.1 190 11:20 23.09.2019
1460 Rain 28 1011 83 10000 2.1 80 10:49 23.09.2019
1461 Rain 28 1011 88 10000 2.6 80 10:22 23.09.2019
1462 Rain 28 1011 83 7000 7.7 140 09:56 23.09.2019
1463 Rain 29 1011 74 10000 4.6 110 09:37 23.09.2019
1464 Rain 29 1011 74 10000 4.6 110 09:37 23.09.2019
1465 Rain 29 1011 74 10000 4.6 110 09:19 23.09.2019
1466 Rain 29 1011 74 10000 4.6 110 09:19 23.09.2019
1467 Rain 28 1012 79 10000 3.6 90 08:44 23.09.2019
1468 Rain 29 1012 79 10000 3.6 90 08:25 23.09.2019
1469 Rain 28 1012 79 10000 4.6 100 07:47 23.09.2019
1470 Clouds 28 1013 83 10000 4.1 110 07:27 23.09.2019
1471 Clouds 28 1014 78 10000 4.1 100 06:24 23.09.2019
1472 Clouds 27 1014 88 10000 4.1 110 05:47 23.09.2019
1473 Clouds 27 1014 88 10000 4.1 110 05:19 23.09.2019
1474 Clouds 26 1014 88 10000 3.6 90 04:54 23.09.2019
1475 Rain 25 1013 94 7000 3.6 90 02:36 23.09.2019
1476 Rain 25 1013 94 7000 3.6 90 02:36 23.09.2019
1477 Clouds 24 1012 100 8000 3.1 90 00:43 23.09.2019
1478 Clouds 24 1012 100 8000 3.1 90 00:22 23.09.2019
1479 Rain 24 1011 100 6000 3.6 100 23:50 22.09.2019
1480 Rain 24 1011 100 6000 3.6 100 23:32 22.09.2019
1481 Rain 24 1011 100 6000 3.6 120 22:57 22.09.2019
1482 Rain 24 1011 100 4500 3.6 150 22:38 22.09.2019
1483 Rain 24 1011 100 4500 3.6 150 22:20 22.09.2019
1484 Rain 24 1011 100 5000 0.38 58.513 21:43 22.09.2019
1485 Rain 24 1011 100 5000 0.76 139.887 21:22 22.09.2019
1486 Rain 24 1011 100 3000 1 0 20:55 22.09.2019
1487 Rain 24 1012 100 4000 1.36 34.216 20:36 22.09.2019
1488 Rain 24 1012 100 4000 1.36 34.216 20:18 22.09.2019
1489 Rain 25 1012 100 8000 1.36 34.216 19:41 22.09.2019
1490 Rain 25 1012 100 8000 1.36 34.216 19:22 22.09.2019
1491 Rain 25 1013 100 7000 1.36 34.216 18:59 22.09.2019
1492 Rain 25 1013 100 7000 1.36 34.216 18:39 22.09.2019
1493 Rain 25 1013 100 7000 1.36 34.216 18:39 22.09.2019
1494 Rain 25 1013 100 7000 1.67 89.179 18:19 22.09.2019
1495 Rain 25 1013 100 7000 1.67 89.179 17:57 22.09.2019
1496 Rain 25 1013 100 4500 1 90 17:39 22.09.2019
1497 Rain 25 1013 100 4500 1 90 17:18 22.09.2019
1498 Rain 25 1012 94 8000 2.6 190 16:44 22.09.2019
1499 Rain 25 1012 94 8000 2.6 190 16:25 22.09.2019
1500 Rain 25 1012 94 8000 1.5 100 15:47 22.09.2019
1501 Rain 25 1012 94 8000 1.5 100 15:29 22.09.2019
1502 Rain 26 1011 83 9000 2.1 110 14:59 22.09.2019
1503 Rain 26 1011 83 9000 2.1 110 14:59 22.09.2019
1504 Rain 26 1010 78 9000 2.1 150 14:40 22.09.2019
1505 Rain 26 1010 78 9000 2.1 150 14:22 22.09.2019
1506 Rain 27 1010 78 9000 2.6 130 13:55 22.09.2019
1507 Clouds 27 1010 78 9000 3.1 120 13:36 22.09.2019
1508 Clouds 27 1009 78 9000 2.6 130 13:18 22.09.2019
1509 Clouds 27 1009 74 9000 3.6 110 12:42 22.09.2019
1510 Clouds 27 1009 74 9000 3.6 110 12:22 22.09.2019
1511 Clouds 27 1009 74 9000 3.1 120 11:56 22.09.2019
1512 Clouds 27 1009 70 9000 3.1 120 11:38 22.09.2019
1513 Clouds 28 1009 70 9000 3.1 120 11:19 22.09.2019
1514 Clouds 28 1009 74 10000 0.5 0 10:43 22.09.2019
1515 Clouds 28 1009 74 10000 0.5 0 10:20 22.09.2019
1516 Clouds 28 1009 70 10000 1.5 60 09:57 22.09.2019
1517 Clouds 28 1010 70 10000 3.39 59.437 09:37 22.09.2019
1518 Clouds 28 1010 70 10000 4.84 57.87 09:19 22.09.2019
1519 Clouds 28 1011 74 10000 4.72 48.808 08:43 22.09.2019
1520 Clouds 28 1011 74 10000 4.72 48.808 08:23 22.09.2019
1521 Clouds 28 1011 74 10000 4.72 48.808 08:23 22.09.2019
1522 Clouds 27 1011 78 10000 1 0 07:52 22.09.2019
1523 Clouds 27 1011 78 10000 1 0 07:52 22.09.2019
1524 Clouds 27 1012 78 10000 2.1 120 07:33 22.09.2019
1525 Clouds 28 1012 88 10000 2.1 80 06:59 22.09.2019
1526 Clouds 27 1012 88 10000 2.6 90 06:38 22.09.2019
1527 Rain 27 1012 88 10000 1.5 90 05:20 22.09.2019
1528 Mist 26 1011 94 4000 2.48 302.634 02:45 22.09.2019
1529 Mist 26 1011 94 4000 2.48 302.634 02:25 22.09.2019
1530 Mist 26 1011 94 4000 1 0 01:53 22.09.2019
1531 Clouds 25 1010 94 7000 3.32 6.92 00:55 22.09.2019
1532 Clouds 25 1010 94 7000 1 0 00:32 22.09.2019
1533 Clouds 25 1010 94 7000 1 0 23:56 21.09.2019
1534 Clouds 25 1009 94 7000 1.5 340 23:38 21.09.2019
1535 Clouds 25 1009 94 7000 1 330 22:57 21.09.2019
1536 Clouds 25 1009 94 7000 2.1 330 22:36 21.09.2019
1537 Clouds 25 1009 94 7000 2.1 330 22:18 21.09.2019
1538 Clouds 25 1010 100 7000 1.5 320 21:41 21.09.2019
1539 Clouds 25 1010 100 7000 1.5 320 21:19 21.09.2019
1540 Clouds 25 1010 100 7000 2.03 333.915 20:56 21.09.2019
1541 Clouds 25 1010 100 8000 1 320 20:37 21.09.2019
1542 Clouds 25 1010 100 8000 1 320 20:18 21.09.2019
1543 Clouds 26 1011 94 8000 1.61 283.016 19:46 21.09.2019
1544 Clouds 26 1011 94 8000 1.61 283.016 19:22 21.09.2019
1545 Rain 25 1011 94 8000 1.5 300 18:42 21.09.2019
1546 Rain 25 1011 94 8000 1.5 300 18:22 21.09.2019
1547 Rain 25 1011 94 8000 1.17 341.689 17:44 21.09.2019
1548 Rain 25 1011 94 8000 1.17 341.689 17:24 21.09.2019
1549 Rain 25 1011 94 8000 1.17 341.689 16:58 21.09.2019
1550 Rain 25 1010 94 8000 1.17 341.689 16:40 21.09.2019
1551 Rain 25 1010 94 8000 1.17 341.689 16:20 21.09.2019
1552 Rain 25 1009 100 8000 1.17 341.689 15:45 21.09.2019
1553 Rain 25 1009 100 8000 2.02 330.642 15:23 21.09.2019
1554 Rain 25 1009 94 8000 2.02 330.642 14:50 21.09.2019
1555 Rain 25 1008 94 8000 2.02 330.642 14:31 21.09.2019
1556 Rain 25 1008 94 8000 2.02 330.642 13:55 21.09.2019
1557 Rain 25 1008 94 8000 2.02 330.642 13:37 21.09.2019
1558 Rain 26 1007 94 8000 1.81 322.352 13:18 21.09.2019
1559 Rain 25 1007 94 8000 1.81 322.352 12:55 21.09.2019
1560 Rain 26 1007 94 8000 1.5 290 12:36 21.09.2019
1561 Rain 27 1007 94 8000 1.5 20 12:18 21.09.2019
1562 Rain 26 1007 100 8000 2.1 360 11:42 21.09.2019
1563 Rain 26 1007 100 8000 2.1 360 11:23 21.09.2019
1564 Rain 26 1007 100 8000 2.6 300 10:45 21.09.2019
1565 Rain 26 1007 100 8000 2.6 300 10:25 21.09.2019
1566 Thunderstorm 26 1007 100 7000 1.5 280 09:58 21.09.2019
1567 Thunderstorm 26 1008 100 5000 2.6 240 09:39 21.09.2019
1568 Thunderstorm 26 1008 100 5000 2.6 240 09:20 21.09.2019
1569 Thunderstorm 26 1008 100 5000 2.6 240 09:20 21.09.2019
1570 Rain 26 1008 100 8000 2.6 220 08:52 21.09.2019
1571 Rain 26 1009 94 7000 2.1 180 08:28 21.09.2019
1572 Thunderstorm 24 1009 94 8000 8.7 90 07:42 21.09.2019
1573 Rain 29 1009 79 10000 3.1 60 07:23 21.09.2019
1574 Rain 29 1009 79 10000 3.1 60 06:57 21.09.2019
1575 Rain 30 1010 74 10000 0.5 0 06:32 21.09.2019
1576 Clouds 29 1010 83 10000 1.96 19.591 05:32 21.09.2019
1577 Clouds 28 1010 88 9000 1.5 30 04:36 21.09.2019
1578 Rain 26 1009 94 8000 1.57 3.955 02:38 21.09.2019
1579 Clouds 26 1009 94 10000 1.57 3.955 02:20 21.09.2019
1580 Clouds 26 1008 100 10000 1 40 01:45 21.09.2019
1581 Clouds 25 1008 100 10000 1.5 60 00:43 21.09.2019
1582 Rain 25 1008 100 10000 0.77 333.77 00:20 21.09.2019
1583 Rain 25 1008 100 10000 0.77 333.77 23:42 20.09.2019
1584 Rain 25 1008 100 10000 0.77 333.77 23:24 20.09.2019
1585 Rain 26 1008 100 8000 0.5 0 22:41 20.09.2019
1586 Rain 25 1008 100 8000 0.5 0 22:23 20.09.2019
1587 Rain 25 1008 100 8000 1 70 21:57 20.09.2019
1588 Rain 25 1008 100 8000 1 70 21:57 20.09.2019
1589 Rain 26 1008 100 8000 1.5 90 21:37 20.09.2019
1590 Rain 26 1008 100 8000 1.5 90 21:19 20.09.2019
1591 Rain 26 1009 100 8000 1 0 20:55 20.09.2019
1592 Thunderstorm 25 1009 100 5000 1.5 30 20:37 20.09.2019
1593 Thunderstorm 25 1009 100 5000 1.5 30 20:18 20.09.2019
1594 Thunderstorm 26 1010 100 5000 2.6 300 19:43 20.09.2019
1595 Thunderstorm 27 1010 100 5000 3.1 290 19:21 20.09.2019
1596 Thunderstorm 27 1010 100 5000 3.1 290 18:57 20.09.2019
1597 Rain 27 1010 94 5000 1.5 210 18:37 20.09.2019
1598 Rain 27 1010 88 8000 1.5 140 18:18 20.09.2019
1599 Clouds 28 1010 83 9000 2.1 140 17:44 20.09.2019
1600 Clouds 28 1010 83 9000 2.1 140 17:25 20.09.2019
1601 Clouds 27 1009 83 9000 2.6 160 16:43 20.09.2019
1602 Clouds 27 1009 83 9000 2.6 160 16:21 20.09.2019
1603 Clouds 27 1008 83 9000 2.6 170 15:58 20.09.2019
1604 Clouds 27 1008 83 9000 2.6 170 15:58 20.09.2019
1605 Clouds 28 1008 79 8000 3.6 150 15:40 20.09.2019
1606 Clouds 29 1008 79 8000 3.6 150 15:22 20.09.2019
1607 Clouds 29 1007 79 8000 4.6 160 14:43 20.09.2019
1608 Clouds 29 1006 65 0 1.42 139.477 14:19 20.09.2019
1609 Clouds 29 1006 65 0 1.42 139.477 14:19 20.09.2019
1610 Clouds 29 1006 74 8000 2.6 170 13:48 20.09.2019
1611 Clouds 30 1006 74 8000 2.6 170 13:29 20.09.2019
1612 Clouds 30 1006 74 8000 2.6 170 12:58 20.09.2019
1613 Rain 30 1006 74 8000 3.1 160 12:37 20.09.2019
1614 Rain 30 1006 74 8000 3.1 160 12:37 20.09.2019
1615 Clouds 30 1006 74 8000 3.6 160 12:19 20.09.2019
1616 Clouds 30 1006 74 8000 3.6 160 12:19 20.09.2019
1617 Clouds 30 1006 74 8000 3.6 160 12:19 20.09.2019
1618 Clouds 30 1006 74 8000 3.6 160 12:19 20.09.2019
1619 Clouds 31 1006 74 8000 3.6 180 11:50 20.09.2019
1620 Clouds 31 1006 74 8000 3.6 180 11:22 20.09.2019
1621 Clouds 31 1006 70 8000 3.6 180 10:57 20.09.2019
1622 Clouds 31 1006 70 8000 3.6 180 10:57 20.09.2019
1623 Clouds 31 1006 74 8000 1.5 190 10:39 20.09.2019
1624 Clouds 31 1006 74 8000 1.5 190 10:19 20.09.2019
1625 Clouds 30 1007 74 8000 2.1 330 09:38 20.09.2019
1626 Clouds 30 1007 74 8000 2.1 330 09:18 20.09.2019
1627 Clouds 30 1008 79 8000 2.1 50 08:43 20.09.2019
1628 Clouds 30 1008 79 8000 2.1 50 08:43 20.09.2019
1629 Clouds 30 1008 79 8000 2.1 50 08:25 20.09.2019
1630 Clouds 30 1009 74 7000 3.1 10 07:48 20.09.2019
1631 Clouds 29 1009 79 7000 3.1 30 07:28 20.09.2019
1632 Clouds 29 1010 79 7000 0.5 0 06:45 20.09.2019
1633 Clouds 29 1010 79 7000 0.5 0 06:45 20.09.2019
1634 Clouds 29 1010 79 7000 0.5 0 06:27 20.09.2019
1635 Clouds 29 1011 79 6000 0.5 0 05:57 20.09.2019
1636 Mist 27 1011 88 5000 0.94 359.573 03:51 20.09.2019
1637 Mist 27 1010 94 4000 1 0 03:25 20.09.2019
1638 Mist 25 1009 100 3000 1 100 01:45 20.09.2019
1639 Mist 25 1009 100 3000 1 100 01:24 20.09.2019
1640 Mist 25 1009 100 3000 1 100 01:24 20.09.2019
1641 Mist 25 1009 100 4000 2.19 339.692 00:32 20.09.2019
1642 Mist 25 1008 100 5000 2.24 318.598 23:46 19.09.2019
1643 Mist 25 1008 100 5000 2.24 318.598 23:24 19.09.2019
1644 Clouds 25 1009 100 7000 2.24 318.598 22:57 19.09.2019
1645 Clouds 25 1009 100 7000 2.24 318.598 22:38 19.09.2019
1646 Clouds 25 1009 100 7000 2.24 318.598 22:19 19.09.2019
1647 Clouds 25 1009 94 7000 2.24 318.598 21:56 19.09.2019
1648 Clouds 25 1009 94 8000 2.24 318.598 21:37 19.09.2019
1649 Clouds 25 1009 94 8000 3.82 356.414 21:18 19.09.2019
1650 Clouds 25 1010 94 9000 3.1 200 20:43 19.09.2019
1651 Clouds 25 1010 94 9000 3.1 200 20:22 19.09.2019
1652 Clouds 25 1010 100 9000 2.6 210 19:56 19.09.2019
1653 Rain 25 1011 100 9000 2.1 190 19:38 19.09.2019
1654 Rain 25 1011 94 8000 1 0 19:19 19.09.2019
1655 Rain 25 1011 94 8000 1 0 19:19 19.09.2019
1656 Rain 25 1011 94 8000 1 0 19:19 19.09.2019
1657 Rain 25 1011 94 8000 1 0 19:19 19.09.2019
1658 Rain 25 1011 94 10000 2.1 160 18:43 19.09.2019
1659 Rain 25 1011 94 9000 2.1 180 18:24 19.09.2019
1660 Rain 25 1011 94 9000 2.1 180 17:57 19.09.2019
1661 Rain 25 1011 100 9000 4.1 190 17:39 19.09.2019
1662 Rain 25 1011 100 9000 4.1 190 17:21 19.09.2019
1663 Rain 24 1011 83 9000 4.1 180 16:57 19.09.2019
1664 Thunderstorm 26 1010 83 10000 4.1 180 16:38 19.09.2019
1665 Thunderstorm 26 1010 83 10000 4.1 180 16:18 19.09.2019
1666 Thunderstorm 27 1009 88 10000 1.5 50 15:38 19.09.2019
1667 Thunderstorm 28 1009 88 10000 1.5 50 15:18 19.09.2019
1668 Rain 29 1008 79 10000 2.63 352.48 14:42 19.09.2019
1669 Rain 29 1008 79 10000 2.63 352.48 14:23 19.09.2019
1670 Rain 29 1008 79 10000 2.1 70 13:59 19.09.2019
1671 Clouds 30 1007 79 10000 2.6 40 13:39 19.09.2019
1672 Clouds 30 1007 79 10000 2.6 40 13:39 19.09.2019
1673 Clouds 30 1007 79 10000 2.6 30 13:19 19.09.2019
1674 Clouds 30 1007 74 10000 4.1 20 12:39 19.09.2019
1675 Clouds 30 1007 74 10000 4.1 50 12:19 19.09.2019
1676 Clouds 31 1007 74 10000 4.1 50 11:56 19.09.2019
1677 Clouds 31 1007 70 10000 4.1 20 11:38 19.09.2019
1678 Clouds 31 1007 70 10000 4.1 20 11:19 19.09.2019
1679 Clouds 31 1007 70 10000 3.6 40 10:41 19.09.2019
1680 Clouds 31 1007 70 10000 3.6 40 10:22 19.09.2019
1681 Clouds 31 1007 70 10000 3.6 40 09:58 19.09.2019
1682 Clouds 30 1008 74 10000 3.1 330 09:40 19.09.2019
1683 Clouds 30 1008 74 10000 3.1 330 09:20 19.09.2019
1684 Clouds 30 1008 74 10000 2.6 330 08:52 19.09.2019
1685 Clouds 30 1009 79 10000 4.1 350 08:27 19.09.2019
1686 Clouds 29 1010 83 9000 3.6 10 07:55 19.09.2019
1687 Clouds 29 1010 83 9000 3.6 10 07:55 19.09.2019
1688 Rain 28 1010 88 9000 4.1 360 07:36 19.09.2019
1689 Rain 28 1011 88 8000 5.1 350 07:18 19.09.2019
1690 Clouds 28 1011 88 7000 5.1 350 06:42 19.09.2019
1691 Clouds 28 1011 88 7000 5.1 350 06:24 19.09.2019
1692 Clouds 28 1012 94 6000 3.1 340 05:50 19.09.2019
1693 Rain 27 1012 94 4000 1.5 270 04:23 19.09.2019
1694 Mist 26 1011 88 5000 1.5 320 03:20 19.09.2019
1695 Rain 26 1009 94 6000 2.1 300 01:40 19.09.2019
1696 Rain 26 1009 94 6000 2.1 300 01:19 19.09.2019
1697 Rain 25 1009 100 7000 2.3 311.331 00:43 19.09.2019
1698 Rain 25 1009 100 7000 2.3 311.331 00:43 19.09.2019
1699 Rain 25 1009 100 7000 2.65 318.942 00:20 19.09.2019
1700 Rain 25 1009 100 6000 2.1 130 23:38 18.09.2019
1701 Rain 25 1009 100 6000 2.1 130 23:19 18.09.2019
1702 Rain 25 1009 100 9000 2.65 318.942 22:41 18.09.2019
1703 Rain 26 1009 100 9000 2.65 318.942 22:19 18.09.2019
1704 Rain 26 1009 100 9000 2.65 318.942 21:57 18.09.2019
1705 Rain 26 1009 100 9000 2.65 318.942 21:39 18.09.2019
1706 Rain 26 1009 100 9000 1.42 246.054 21:18 18.09.2019
1707 Rain 26 1009 100 9000 1.42 246.054 21:18 18.09.2019
1708 Clouds 26 1009 100 10000 3.1 80 20:57 18.09.2019
1709 Clouds 25 1009 100 10000 1.5 120 20:39 18.09.2019
1710 Clouds 25 1010 88 10000 3.1 250 20:21 18.09.2019
1711 Clouds 26 1010 88 10000 3.1 250 19:57 18.09.2019
1712 Rain 26 1010 100 10000 4.1 220 19:38 18.09.2019
1713 Thunderstorm 26 1011 100 5000 3.6 240 19:19 18.09.2019
1714 Thunderstorm 25 1011 100 5000 3.6 240 18:55 18.09.2019
1715 Thunderstorm 26 1011 88 8000 5.7 70 18:36 18.09.2019
1716 Thunderstorm 26 1011 88 8000 5.7 70 18:36 18.09.2019
1717 Thunderstorm 26 1011 88 8000 5.7 70 18:18 18.09.2019
1718 Clouds 26 1011 88 10000 2.6 240 17:54 18.09.2019
1719 Rain 26 1010 94 10000 1.28 36.906 17:36 18.09.2019
1720 Rain 25 1010 94 10000 1.28 36.906 17:18 18.09.2019
1721 Thunderstorm 26 1009 88 8000 4.1 190 16:43 18.09.2019
1722 Thunderstorm 27 1009 88 8000 4.1 190 16:22 18.09.2019
1723 Thunderstorm 27 1009 78 8000 8.2 140 15:59 18.09.2019
1724 Thunderstorm 27 1009 78 8000 8.2 140 15:59 18.09.2019
1725 Thunderstorm 27 1009 78 8000 8.2 140 15:59 18.09.2019
1726 Thunderstorm 27 1009 78 8000 8.2 140 15:59 18.09.2019
1727 Thunderstorm 29 1008 79 10000 2.6 130 15:40 18.09.2019
1728 Thunderstorm 29 1008 79 10000 2.6 130 15:20 18.09.2019
1729 Thunderstorm 30 1008 79 10000 2.1 210 14:58 18.09.2019
1730 Clouds 31 1007 84 10000 1.5 160 14:40 18.09.2019
1731 Clouds 31 1007 84 10000 1.5 160 14:22 18.09.2019
1732 Clouds 30 1007 89 10000 1.46 51.935 13:58 18.09.2019
1733 Clouds 30 1007 74 10000 1.5 190 13:38 18.09.2019
1734 Clouds 31 1006 74 10000 0.41 308.336 13:18 18.09.2019
1735 Clouds 31 1006 70 10000 3.6 260 12:45 18.09.2019
1736 Clouds 31 1006 70 10000 3.6 260 12:27 18.09.2019
1737 Rain 31 1006 79 7000 9.3 90 11:41 18.09.2019
1738 Rain 32 1006 79 7000 9.3 90 11:20 18.09.2019
1739 Clouds 33 1006 59 10000 2.1 320 10:58 18.09.2019
1740 Clouds 33 1006 59 10000 3.1 40 10:40 18.09.2019
1741 Clouds 34 1006 59 10000 3.1 40 10:20 18.09.2019
1742 Clouds 34 1006 59 10000 3.1 40 10:20 18.09.2019
1743 Clouds 34 1006 56 10000 1.5 0 09:57 18.09.2019
1744 Clouds 34 1007 59 10000 2.6 50 09:37 18.09.2019
1745 Clouds 34 1007 59 10000 2.6 50 09:37 18.09.2019
1746 Clouds 34 1007 59 10000 2.6 50 09:19 18.09.2019
1747 Clouds 34 1008 63 10000 2.1 60 08:41 18.09.2019
1748 Clouds 34 1008 63 10000 2.1 60 08:41 18.09.2019
1749 Clouds 34 1008 63 10000 2.1 60 08:23 18.09.2019
1750 Clouds 33 1009 62 10000 3.1 330 07:45 18.09.2019
1751 Clouds 33 1009 62 10000 3.1 330 07:26 18.09.2019
1752 Clouds 32 1010 66 10000 2.6 350 06:55 18.09.2019
1753 Clouds 32 1010 62 10000 3.1 340 06:31 18.09.2019
1754 Clouds 30 1011 70 10000 1.5 350 05:40 18.09.2019
1755 Clouds 30 1010 74 10000 2.67 349.952 04:20 18.09.2019
1756 Clouds 27 1009 94 10000 1.91 333.462 02:41 18.09.2019
1757 Clouds 25 1009 94 10000 1 50 01:50 18.09.2019
1758 Clouds 25 1009 100 10000 2.15 306.502 00:58 18.09.2019
1759 Clouds 25 1008 100 10000 2.1 20 00:34 18.09.2019
1760 Clouds 26 1008 94 10000 1.5 360 23:59 17.09.2019
1761 Clouds 25 1008 100 10000 1 30 23:40 17.09.2019
1762 Clouds 25 1008 100 10000 1 30 23:21 17.09.2019
1763 Clouds 25 1008 100 10000 1.99 279.116 22:42 17.09.2019
1764 Clouds 25 1008 100 10000 1.99 279.116 22:42 17.09.2019
1765 Clouds 25 1008 100 10000 1.99 279.116 22:23 17.09.2019
1766 -273 0 0 0 0 0 21:54 17.09.2019
1767 Clouds 25 1008 100 10000 1.99 279.116 21:36 17.09.2019
1768 Clouds 25 1008 100 10000 1.56 277.818 21:18 17.09.2019
1769 Clouds 26 1008 94 10000 1.5 120 20:57 17.09.2019
1770 Clouds 26 1009 88 10000 2.1 120 20:39 17.09.2019
1771 Clouds 25 1009 88 10000 2.1 120 20:20 17.09.2019
1772 Rain 26 1009 83 10000 1.73 245.616 19:57 17.09.2019
1773 Rain 26 1009 83 10000 2.1 290 19:38 17.09.2019
1774 Rain 26 1009 83 9000 3.1 260 19:18 17.09.2019
1775 Rain 26 1010 88 9000 4.6 230 18:43 17.09.2019
1776 Rain 26 1010 88 9000 4.6 230 18:22 17.09.2019
1777 Rain 25 1009 94 8000 2.6 170 17:56 17.09.2019
1778 Rain 26 1009 94 8000 2.6 170 17:38 17.09.2019
1779 Rain 26 1009 94 8000 2.6 170 17:19 17.09.2019
1780 Rain 25 1010 100 8000 3.6 180 16:54 17.09.2019
1781 Rain 25 1009 100 8000 4.6 180 16:36 17.09.2019
1782 Rain 26 1009 100 8000 4.6 180 16:18 17.09.2019
1783 Thunderstorm 29 1008 83 8000 3.6 110 15:38 17.09.2019
1784 Thunderstorm 29 1008 83 8000 3.6 110 15:19 17.09.2019
1785 Thunderstorm 29 1007 83 10000 2.1 200 14:56 17.09.2019
1786 Thunderstorm 29 1007 83 10000 2.1 200 14:56 17.09.2019
1787 Rain 29 1007 83 8000 5.1 220 14:37 17.09.2019
1788 Rain 29 1007 83 8000 5.1 220 14:19 17.09.2019
1789 Rain 29 1007 83 8000 5.1 220 14:19 17.09.2019
1790 Thunderstorm 30 1005 70 10000 3.1 90 13:43 17.09.2019
1791 Thunderstorm 31 1005 70 10000 3.1 90 13:23 17.09.2019
1792 Clouds 32 1005 63 10000 3.1 130 12:56 17.09.2019
1793 Clouds 33 1005 52 10000 3.6 90 12:37 17.09.2019
1794 Clouds 33 1005 56 10000 3.1 90 12:18 17.09.2019
1795 Clouds 33 1005 47 10000 4.1 120 11:42 17.09.2019
1796 Clouds 34 1005 47 10000 4.1 120 11:24 17.09.2019
1797 -273 0 0 0 0 0 10:55 17.09.2019
1798 Clouds 34 1005 50 10000 3.6 110 10:37 17.09.2019
1799 -273 0 0 0 0 0 10:18 17.09.2019
1800 Clouds 35 1006 56 10000 5.1 70 09:41 17.09.2019
1801 Clouds 34 1006 56 10000 5.1 70 09:21 17.09.2019
1802 Clouds 34 1006 56 10000 3.1 70 08:50 17.09.2019
1803 Clouds 35 1007 56 10000 2.6 80 08:32 17.09.2019
1804 Clouds 33 1007 66 10000 3.1 360 07:59 17.09.2019
1805 Clouds 33 1008 62 10000 3.1 10 07:39 17.09.2019
1806 Clouds 33 1009 59 10000 1.5 210 07:19 17.09.2019
1807 Clouds 32 1009 66 10000 1 300 06:45 17.09.2019
1808 Clouds 31 1009 74 10000 1.5 270 06:20 17.09.2019
1809 Clouds 30 1009 74 10000 2.6 320 05:47 17.09.2019
1810 Clouds 30 1009 83 10000 2.6 310 04:29 17.09.2019
1811 Clouds 30 1009 83 10000 2.6 310 04:29 17.09.2019
1812 Clouds 28 1008 88 8000 1.47 306.722 02:57 17.09.2019
1813 Clouds 28 1008 94 8000 1.5 310 02:38 17.09.2019
1814 Clouds 27 1008 88 10000 1.48 281.485 01:24 17.09.2019
1815 Clouds 26 1007 88 10000 1.48 281.485 00:33 17.09.2019
1816 Clouds 27 1007 88 10000 1.5 200 23:39 16.09.2019
1817 Clouds 26 1007 94 10000 1.5 180 23:19 16.09.2019
1818 Clouds 27 1007 94 10000 1.5 180 22:56 16.09.2019
1819 Clouds 27 1007 100 10000 1 0 22:37 16.09.2019
1820 Clouds 27 1007 100 10000 1 0 22:19 16.09.2019
1821 Clouds 27 1007 100 10000 1.5 80 21:40 16.09.2019
1822 Clouds 27 1007 100 10000 1.5 80 21:22 16.09.2019
1823 Clouds 27 1007 100 10000 1.5 60 20:59 16.09.2019
1824 Clouds 27 1007 100 10000 2.1 50 20:40 16.09.2019
1825 Clouds 27 1007 100 10000 2.1 50 20:20 16.09.2019
1826 Clouds 28 1008 88 10000 2.6 60 19:57 16.09.2019
1827 Clouds 28 1008 88 10000 3.1 60 19:38 16.09.2019
1828 Clouds 28 1008 88 10000 3.1 60 19:18 16.09.2019
1829 Clouds 28 1008 88 10000 2.6 70 18:45 16.09.2019
1830 Clouds 28 1008 88 10000 2.6 70 18:27 16.09.2019
1831 Clouds 28 1008 83 10000 2.1 130 17:56 16.09.2019
1832 Clouds 28 1008 83 10000 2.1 130 17:56 16.09.2019
1833 Clouds 28 1007 83 10000 1.5 130 17:37 16.09.2019
1834 Clouds 29 1007 83 10000 1.5 130 17:19 16.09.2019
1835 Clouds 28 1007 83 10000 2.1 170 16:43 16.09.2019
1836 Clouds 28 1007 83 10000 2.1 170 16:21 16.09.2019
1837 Clouds 28 1007 79 10000 1 0 15:57 16.09.2019
1838 Clouds 27 1006 79 10000 1 180 15:39 16.09.2019
1839 Clouds 28 1006 79 10000 1 180 15:20 16.09.2019
1840 Clouds 28 1006 79 10000 1 180 15:20 16.09.2019
1841 Clouds 28 1006 79 10000 1.98 122.624 14:58 16.09.2019
1842 Clouds 29 1005 83 10000 1 0 14:39 16.09.2019
1843 Clouds 29 1005 83 10000 1 0 14:20 16.09.2019
1844 Clouds 28 1005 79 10000 1.5 10 13:43 16.09.2019
1845 Clouds 28 1005 79 10000 1.5 10 13:22 16.09.2019
1846 Clouds 29 1005 79 10000 2.6 330 12:57 16.09.2019
1847 Clouds 29 1004 83 10000 3.1 330 12:38 16.09.2019
1848 Rain 29 1004 79 10000 3.1 230 12:19 16.09.2019
1849 Clouds 29 1004 83 10000 4.1 240 11:45 16.09.2019
1850 Clouds 30 1004 83 10000 4.1 240 11:23 16.09.2019
1851 Clouds 29 1005 83 10000 4.6 210 10:56 16.09.2019
1852 Rain 28 1005 88 7000 5.7 190 10:37 16.09.2019
1853 Rain 29 1005 88 7000 5.7 190 10:18 16.09.2019
1854 Rain 28 1005 63 9000 1.5 70 09:41 16.09.2019
1855 Rain 30 1005 63 9000 1.5 70 09:21 16.09.2019
1856 Thunderstorm 31 1005 56 9000 1 0 08:53 16.09.2019
1857 Thunderstorm 32 1006 63 10000 3.1 330 08:34 16.09.2019
1858 Clouds 33 1007 63 10000 2.6 350 07:59 16.09.2019
1859 Clouds 34 1007 62 10000 1.5 100 07:40 16.09.2019
1860 Clouds 34 1008 66 10000 0.5 0 07:20 16.09.2019
1861 Clouds 33 1008 70 10000 3.1 270 06:49 16.09.2019
1862 Clouds 33 1008 70 10000 3.1 270 06:31 16.09.2019
1863 Clouds 30 1009 66 10000 1.5 260 05:57 16.09.2019
1864 Clouds 31 1009 70 10000 2.05 326.619 05:39 16.09.2019
1865 Clouds 31 1009 74 10000 0.5 0 04:57 16.09.2019
1866 Clouds 30 1008 83 10000 1 0 03:35 16.09.2019
1867 Clouds 25 1007 94 10000 2.36 304.108 00:57 16.09.2019
1868 Clouds 25 1007 94 10000 2.36 304.108 00:57 16.09.2019
1869 Clouds 25 1007 94 10000 2.36 304.108 00:36 16.09.2019
1870 Clouds 26 1007 94 10000 2.1 260 00:18 16.09.2019
1871 Clouds 26 1006 94 10000 2.42 275.569 23:38 15.09.2019
1872 Clouds 26 1006 94 10000 2.42 275.569 23:20 15.09.2019
1873 Clouds 25 1007 94 10000 2.42 275.569 22:39 15.09.2019
1874 Clouds 25 1007 94 10000 2.42 275.569 22:20 15.09.2019
1875 Clouds 25 1007 94 10000 2.6 320 21:56 15.09.2019
1876 Clouds 25 1007 94 10000 2.1 10 21:38 15.09.2019
1877 Clouds 25 1007 94 10000 2.1 10 21:19 15.09.2019
1878 Clouds 25 1008 88 10000 3.6 240 20:45 15.09.2019
1879 Clouds 25 1008 88 10000 3.6 240 20:26 15.09.2019
1880 Thunderstorm 25 1008 88 8000 5.1 280 19:56 15.09.2019
1881 Thunderstorm 26 1009 100 2000 5.7 330 19:38 15.09.2019
1882 Thunderstorm 27 1008 88 5000 3.1 20 19:19 15.09.2019
1883 Thunderstorm 28 1008 83 10000 3.6 340 18:40 15.09.2019
1884 Thunderstorm 28 1008 83 10000 3.6 340 18:22 15.09.2019
1885 Rain 29 1008 79 10000 2.6 160 17:43 15.09.2019
1886 Rain 29 1008 79 10000 2.6 160 17:22 15.09.2019
1887 Clouds 30 1008 79 10000 3.6 160 16:58 15.09.2019
1888 Clouds 30 1008 79 10000 2.6 170 16:40 15.09.2019
1889 Clouds 29 1008 79 10000 2.6 170 16:22 15.09.2019
1890 Clouds 29 1007 83 10000 3.6 180 15:56 15.09.2019
1891 Clouds 29 1006 83 10000 4.1 190 15:37 15.09.2019
1892 Clouds 29 1006 83 10000 4.1 190 15:18 15.09.2019
1893 Clouds 30 1005 79 9000 4.6 180 14:43 15.09.2019
1894 Clouds 30 1005 79 9000 4.6 180 14:24 15.09.2019
1895 Clouds 30 1005 79 8000 4.1 180 13:55 15.09.2019
1896 Clouds 30 1005 74 9000 4.6 190 13:37 15.09.2019
1897 Clouds 30 1004 70 9000 2.6 170 13:19 15.09.2019
1898 Clouds 31 1004 52 9000 3.6 120 12:42 15.09.2019
1899 Clouds 32 1004 56 10000 3.1 110 12:23 15.09.2019
1900 Clouds 31 1004 56 10000 3.1 110 11:56 15.09.2019
1901 Clouds 32 1004 52 10000 4.1 120 11:38 15.09.2019
1902 Clouds 33 1004 52 10000 4.1 120 11:19 15.09.2019
1903 Clouds 33 1004 56 10000 4.1 110 10:42 15.09.2019
1904 Clouds 33 1004 56 10000 4.1 110 10:22 15.09.2019
1905 Clouds 33 1004 56 10000 4.6 80 09:57 15.09.2019
1906 Clouds 33 1005 56 10000 4.6 80 09:37 15.09.2019
1907 Clouds 33 1005 56 10000 4.6 80 09:18 15.09.2019
1908 Clouds 33 1006 59 10000 4.1 80 08:41 15.09.2019
1909 Clouds 32 1006 59 10000 4.1 80 08:20 15.09.2019
1910 Clouds 34 1007 59 10000 4.1 120 07:47 15.09.2019
1911 Clouds 33 1008 66 10000 2.1 0 06:59 15.09.2019
1912 Clouds 32 1008 66 10000 1.5 70 06:31 15.09.2019
1913 Clouds 28 1009 83 8000 1.36 330.313 03:24 15.09.2019
1914 Mist 26 1008 100 6000 1.36 330.313 02:23 15.09.2019
1915 Mist 26 1008 100 7000 1.36 330.313 01:37 15.09.2019
1916 Clouds 25 1007 100 10000 1.98 317.044 00:58 15.09.2019
1917 Clouds 25 1007 100 10000 1.98 317.044 00:37 15.09.2019
1918 Clouds 25 1007 100 10000 2.54 268.149 00:19 15.09.2019
1919 Clouds 25 1007 100 10000 2.54 268.149 23:56 14.09.2019
1920 Clouds 26 1007 100 10000 2.54 268.149 23:38 14.09.2019
1921 Clouds 26 1007 100 10000 2.54 268.149 23:19 14.09.2019
1922 Clouds 26 1007 100 10000 2.54 268.149 22:57 14.09.2019
1923 Clouds 26 1007 100 10000 2.54 268.149 22:38 14.09.2019
1924 Clouds 26 1007 100 10000 2.54 268.149 22:18 14.09.2019
1925 Clouds 27 1007 94 10000 1 30 21:40 14.09.2019
1926 Clouds 27 1007 94 10000 1 30 21:21 14.09.2019
1927 Clouds 27 1008 94 10000 2.1 80 20:59 14.09.2019
1928 Clouds 27 1008 94 10000 1.5 30 20:40 14.09.2019
1929 Clouds 27 1008 94 10000 1.5 30 20:21 14.09.2019
1930 Clouds 27 1008 94 10000 2.59 273.835 19:49 14.09.2019
1931 Rain 27 1009 100 10000 2.59 273.835 19:23 14.09.2019
1932 Clouds 27 1009 100 10000 2.59 273.835 18:58 14.09.2019
1933 Clouds 27 1009 94 10000 2.59 273.835 18:39 14.09.2019
1934 Rain 27 1009 94 10000 1.5 210 18:20 14.09.2019
1935 Rain 27 1009 94 10000 1.7 259.22 17:45 14.09.2019
1936 Rain 27 1009 94 10000 1.7 259.22 17:45 14.09.2019
1937 Rain 27 1009 94 10000 1.7 259.22 17:24 14.09.2019
1938 Rain 26 1009 94 10000 2.1 110 16:56 14.09.2019
1939 Rain 26 1009 94 10000 2.1 90 16:38 14.09.2019
1940 Rain 27 1009 94 10000 2.1 90 16:18 14.09.2019
1941 Rain 26 1007 100 10000 3.1 220 15:42 14.09.2019
1942 Rain 26 1007 100 10000 3.1 220 15:23 14.09.2019
1943 Rain 27 1007 94 10000 3.6 210 14:57 14.09.2019
1944 Rain 27 1007 94 10000 3.6 210 14:39 14.09.2019
1945 Rain 27 1007 94 10000 3.6 210 14:18 14.09.2019
1946 Rain 27 1007 94 10000 3.6 210 14:18 14.09.2019
1947 Rain 27 1006 94 9000 3.6 230 13:44 14.09.2019
1948 Rain 27 1006 94 9000 3.6 230 13:20 14.09.2019
1949 Thunderstorm 28 1005 100 7000 4.6 20 12:45 14.09.2019
1950 Thunderstorm 29 1005 100 7000 4.6 20 12:23 14.09.2019
1951 Rain 30 1005 70 9000 2.6 330 11:41 14.09.2019
1952 Rain 31 1005 70 9000 2.6 330 11:20 14.09.2019
1953 Clouds 32 1005 62 10000 1.5 0 10:40 14.09.2019
1954 Clouds 31 1005 62 10000 1.5 0 10:22 14.09.2019
1955 Clouds 31 1005 62 10000 0.5 0 09:58 14.09.2019
1956 Clouds 31 1006 62 10000 3.1 320 09:40 14.09.2019
1957 Clouds 31 1006 62 10000 3.1 320 09:20 14.09.2019
1958 Clouds 30 1006 62 10000 2.1 320 08:56 14.09.2019
1959 Clouds 30 1007 62 10000 2.6 20 08:37 14.09.2019
1960 Clouds 31 1007 62 10000 2.1 350 08:18 14.09.2019
1961 Clouds 31 1008 62 10000 3.1 360 07:42 14.09.2019
1962 Clouds 31 1009 62 10000 0.01 174.289 07:20 14.09.2019
1963 Clouds 30 1009 70 10000 2.6 290 06:32 14.09.2019
1964 Clouds 29 1009 74 10000 2.1 290 05:43 14.09.2019
1965 Clouds 28 1009 78 10000 3.1 270 03:59 14.09.2019
1966 Rain 27 1008 88 10000 3.6 270 02:57 14.09.2019
1967 Rain 27 1008 88 10000 2.6 280 02:30 14.09.2019
1968 Rain 26 1008 88 10000 2.6 280 01:44 14.09.2019
1969 Rain 26 1007 88 8000 3.6 290 01:19 14.09.2019
1970 Rain 26 1007 83 8000 3.6 280 00:40 14.09.2019
1971 Rain 26 1007 88 8000 3.1 250 00:21 14.09.2019
1972 Rain 27 1007 83 8000 3.1 270 23:54 13.09.2019
1973 Rain 27 1007 83 8000 3.1 270 23:36 13.09.2019
1974 Rain 27 1007 83 8000 3.1 270 23:18 13.09.2019
1975 Rain 27 1007 78 10000 4.1 270 22:39 13.09.2019
1976 Rain 28 1007 74 10000 4.1 270 22:21 13.09.2019
1977 Rain 28 1007 74 10000 4.1 270 21:56 13.09.2019
1978 Clouds 28 1007 74 10000 4.1 270 21:38 13.09.2019
1979 Clouds 28 1007 74 10000 4.1 270 21:19 13.09.2019
1980 Clouds 28 1007 74 10000 4.6 260 20:55 13.09.2019
1981 Clouds 28 1008 74 10000 4.6 270 20:36 13.09.2019
1982 Clouds 28 1008 74 10000 4.6 270 20:18 13.09.2019
1983 Clouds 28 1008 70 10000 5.7 260 19:43 13.09.2019
1984 Clouds 28 1009 70 10000 5.1 260 19:21 13.09.2019
1985 Clouds 28 1009 70 10000 5.1 260 18:58 13.09.2019
1986 Clouds 28 1009 74 10000 5.1 260 18:37 13.09.2019
1987 Clouds 28 1009 74 10000 5.1 260 18:37 13.09.2019
1988 Clouds 28 1009 70 10000 4.6 260 18:19 13.09.2019
1989 Rain 28 1009 70 10000 4.1 260 17:43 13.09.2019
1990 Rain 27 1009 70 10000 4.1 260 17:20 13.09.2019
1991 Thunderstorm 27 1009 66 10000 5.1 250 16:55 13.09.2019
1992 Thunderstorm 27 1009 66 10000 5.1 250 16:55 13.09.2019
1993 Thunderstorm 28 1009 66 10000 3.6 230 16:37 13.09.2019
1994 Thunderstorm 28 1009 66 10000 3.6 230 16:18 13.09.2019
1995 Rain 29 1007 59 10000 5.7 260 15:40 13.09.2019
1996 Rain 30 1007 59 10000 5.7 260 15:21 13.09.2019
1997 Rain 30 1007 59 10000 5.7 260 15:21 13.09.2019
1998 Thunderstorm 30 1006 62 10000 2.1 230 14:44 13.09.2019
1999 Thunderstorm 30 1006 62 10000 2.1 230 14:44 13.09.2019
2000 Thunderstorm 30 1006 62 10000 2.1 230 14:23 13.09.2019
2001 Clouds 30 1006 70 10000 3.1 200 13:58 13.09.2019
2002 Clouds 30 1006 70 10000 3.6 210 13:39 13.09.2019
2003 Clouds 30 1006 70 10000 3.6 210 13:21 13.09.2019
2004 Rain 31 1005 66 10000 7.2 210 12:44 13.09.2019
2005 Rain 32 1005 66 10000 7.2 210 12:24 13.09.2019
2006 Clouds 33 1005 52 10000 4.6 290 11:56 13.09.2019
2007 Clouds 34 1005 52 10000 4.6 330 11:20 13.09.2019
2008 Clouds 34 1006 52 10000 3.1 310 10:41 13.09.2019
2009 Clouds 34 1006 52 10000 3.1 310 10:21 13.09.2019
2010 Clouds 34 1006 56 10000 3.6 290 09:54 13.09.2019
2011 Clouds 33 1007 52 10000 3.1 270 09:36 13.09.2019
2012 Clouds 34 1007 52 10000 3.1 270 09:18 13.09.2019
2013 Clouds 34 1008 59 10000 4.6 320 08:41 13.09.2019
2014 Clouds 33 1009 59 10000 4.6 310 08:21 13.09.2019
2015 Clouds 34 1009 59 10000 4.6 310 07:56 13.09.2019
2016 Clouds 34 1010 59 10000 4.1 300 07:38 13.09.2019
2017 Clouds 33 1011 62 10000 5.1 300 06:49 13.09.2019
2018 Clouds 31 1011 62 10000 6.2 300 05:50 13.09.2019
2019 Clouds 31 1011 62 10000 6.2 300 05:26 13.09.2019
2020 Clouds 29 1011 70 10000 5.1 270 03:42 13.09.2019
2021 Clouds 29 1011 69 10000 5.7 260 02:50 13.09.2019
2022 Clouds 28 1010 69 10000 4.1 250 02:18 13.09.2019
2023 Clouds 27 1009 74 10000 4.1 270 01:35 13.09.2019
2024 Clouds 27 1009 74 10000 4.1 260 00:59 13.09.2019
2025 Clouds 27 1009 74 10000 4.1 260 00:33 13.09.2019
2026 Clouds 28 1009 69 10000 5.1 260 23:42 12.09.2019
2027 Clouds 28 1009 69 10000 5.1 260 23:22 12.09.2019
2028 Clouds 28 1009 69 10000 4.1 260 22:44 12.09.2019
2029 Clouds 28 1009 69 10000 4.1 260 22:25 12.09.2019
2030 Clouds 28 1010 69 10000 4.6 260 21:58 12.09.2019
2031 Clouds 28 1010 69 10000 5.1 250 21:39 12.09.2019
2032 Clouds 28 1010 69 10000 5.1 250 21:39 12.09.2019
2033 Clouds 28 1010 69 10000 5.1 250 21:20 12.09.2019
2034 Clouds 28 1010 69 10000 5.1 250 21:20 12.09.2019
2035 Clouds 28 1011 66 10000 4.1 250 20:58 12.09.2019
2036 Clouds 28 1011 66 10000 4.6 260 20:40 12.09.2019
2037 Clouds 28 1011 66 10000 4.6 260 20:20 12.09.2019
2038 Clouds 28 1011 66 10000 4.6 250 19:56 12.09.2019
2039 Clouds 28 1011 66 10000 5.1 250 19:36 12.09.2019
2040 Clouds 29 1012 70 10000 4.6 250 19:18 12.09.2019
2041 Clouds 29 1012 70 10000 4.1 260 18:38 12.09.2019
2042 Clouds 29 1012 66 10000 4.1 260 18:20 12.09.2019
2043 Clouds 29 1012 66 10000 4.1 260 18:20 12.09.2019
2044 Clouds 29 1012 66 10000 4.1 260 17:57 12.09.2019
2045 Clouds 28 1012 66 10000 4.1 260 17:38 12.09.2019
2046 Clouds 30 1012 66 10000 4.1 260 17:19 12.09.2019
2047 Clouds 29 1011 58 10000 4.1 260 16:42 12.09.2019
2048 Clouds 30 1011 58 10000 4.1 260 16:22 12.09.2019
2049 Clouds 30 1010 58 10000 4.6 270 15:55 12.09.2019
2050 Clouds 30 1010 58 10000 4.6 270 15:55 12.09.2019
2051 Clouds 30 1010 58 10000 4.6 270 15:55 12.09.2019
2052 Clouds 31 1010 55 10000 4.6 260 15:36 12.09.2019
2053 Clouds 32 1010 55 10000 4.6 260 15:18 12.09.2019
2054 Clouds 31 1009 55 10000 3.1 300 14:41 12.09.2019
2055 Clouds 31 1009 55 10000 3.1 300 14:21 12.09.2019
2056 Clouds 32 1009 52 10000 4.6 310 13:40 12.09.2019
2057 Clouds 32 1009 52 10000 4.6 310 13:22 12.09.2019
2058 Clouds 33 1008 52 10000 4.1 300 12:49 12.09.2019
2059 Clouds 34 1008 52 10000 4.1 310 12:20 12.09.2019
2060 Clouds 34 1008 52 10000 4.1 310 12:20 12.09.2019
2061 Clouds 34 1008 52 10000 4.1 310 11:59 12.09.2019
2062 Clouds 34 1009 52 10000 5.1 310 11:40 12.09.2019
2063 Clouds 33 1009 52 10000 5.1 310 11:21 12.09.2019
2064 Clouds 35 1009 49 10000 6.7 290 10:56 12.09.2019
2065 Clouds 34 1010 52 10000 4.6 320 10:37 12.09.2019
2066 Clouds 34 1010 52 10000 4.6 320 10:37 12.09.2019
2067 Clouds 35 1010 49 10000 5.7 290 10:18 12.09.2019
2068 Clouds 35 1010 49 10000 5.7 290 09:43 12.09.2019
2069 Clouds 35 1010 49 10000 5.7 290 09:20 12.09.2019
2070 Clouds 34 1011 52 10000 4.1 330 08:45 12.09.2019
2071 Clouds 34 1011 52 10000 4.1 330 08:45 12.09.2019
2072 Clouds 34 1011 52 10000 4.1 330 08:25 12.09.2019
2073 Clouds 34 1012 49 10000 5.1 290 07:56 12.09.2019
2074 Clouds 33 1012 55 10000 5.1 310 07:36 12.09.2019
2075 Clouds 33 1013 55 10000 4.1 310 07:18 12.09.2019
2076 Clouds 32 1013 62 10000 4.6 310 06:46 12.09.2019
2077 Clouds 31 1014 62 10000 4.6 290 06:19 12.09.2019
2078 Clouds 30 1014 62 10000 2.6 300 05:43 12.09.2019
2079 Clouds 30 1014 62 10000 2.6 300 05:19 12.09.2019
2080 Clouds 28 1014 78 10000 2.66 269.806 03:58 12.09.2019
2081 Clouds 26 1012 88 10000 1.82 261.763 01:44 12.09.2019
2082 Clouds 26 1012 88 10000 1.82 261.763 01:26 12.09.2019
2083 Clouds 25 1012 94 10000 1.82 261.763 00:50 12.09.2019
2084 Clouds 25 1012 94 10000 1.82 261.763 00:31 12.09.2019
2085 Clouds 25 1012 94 10000 2.16 262.684 23:45 11.09.2019
2086 Clouds 25 1012 94 10000 2.16 262.684 23:25 11.09.2019
2087 Clouds 25 1012 94 10000 2.16 262.684 22:58 11.09.2019
2088 Clouds 25 1012 88 10000 2.16 262.684 22:38 11.09.2019
2089 Clouds 26 1012 88 10000 2.16 262.684 22:20 11.09.2019
2090 Clouds 25 1013 94 10000 1.5 70 21:59 11.09.2019
2091 Clouds 26 1013 94 10000 2.1 90 21:41 11.09.2019
2092 Clouds 26 1013 94 10000 2.1 90 21:22 11.09.2019
2093 Clouds 26 1014 83 10000 2.1 60 20:56 11.09.2019
2094 Clouds 26 1014 83 10000 2.1 60 20:37 11.09.2019
2095 Clouds 26 1014 83 10000 2.1 60 20:18 11.09.2019
2096 Clouds 26 1014 83 10000 2.1 70 19:55 11.09.2019
2097 Clouds 26 1014 83 10000 2.44 248.268 19:37 11.09.2019
2098 Clouds 26 1014 83 10000 2.44 248.268 19:37 11.09.2019
2099 Clouds 26 1014 88 10000 1 130 19:18 11.09.2019
2100 Clouds 26 1014 83 10000 2.1 100 18:42 11.09.2019
2101 Clouds 26 1014 83 10000 2.1 100 18:23 11.09.2019
2102 Clouds 26 1014 88 10000 1 0 17:58 11.09.2019
2103 Clouds 26 1014 83 10000 2 239.401 17:40 11.09.2019
2104 Clouds 25 1014 83 10000 2 239.401 17:21 11.09.2019
2105 Rain 26 1014 88 10000 2.6 180 16:54 11.09.2019
2106 Rain 26 1013 83 10000 4.6 240 16:36 11.09.2019
2107 Rain 25 1013 83 10000 4.6 240 16:18 11.09.2019
2108 Rain 26 1012 83 9000 4.6 260 15:45 11.09.2019
2109 Rain 27 1012 83 9000 4.6 260 15:22 11.09.2019
2110 Thunderstorm 29 1011 66 10000 6.7 280 14:57 11.09.2019
2111 Clouds 31 1010 59 10000 3.1 330 14:38 11.09.2019
2112 Clouds 32 1010 59 10000 3.1 330 14:19 11.09.2019
2113 Clouds 32 1010 59 10000 2.6 330 13:54 11.09.2019
2114 Clouds 32 1010 59 10000 2.6 330 13:54 11.09.2019
2115 Clouds 32 1010 59 10000 3.1 340 13:36 11.09.2019
2116 Clouds 33 1010 55 10000 1.5 290 13:18 11.09.2019
2117 Clouds 33 1010 52 10000 1.5 0 12:40 11.09.2019
2118 Clouds 33 1010 52 10000 1.5 0 12:20 11.09.2019
2119 Clouds 34 1010 52 10000 3.6 240 11:41 11.09.2019
2120 Clouds 34 1010 52 10000 3.6 240 11:22 11.09.2019
2121 Clouds 34 1010 52 10000 3.6 0 10:59 11.09.2019
2122 Clouds 34 1010 52 10000 4.1 270 10:40 11.09.2019
2123 Clouds 34 1010 52 10000 4.1 270 10:21 11.09.2019
2124 Clouds 33 1011 59 10000 4.1 240 09:40 11.09.2019
2125 Clouds 32 1011 59 10000 4.1 240 09:20 11.09.2019
2126 Clouds 33 1011 59 10000 4.1 250 08:59 11.09.2019
2127 Clouds 33 1012 59 10000 3.1 280 08:39 11.09.2019
2128 Clouds 33 1013 59 10000 4.6 300 08:20 11.09.2019
2129 Clouds 33 1013 58 10000 3.1 290 07:41 11.09.2019
2130 Clouds 32 1013 58 10000 3.1 290 07:22 11.09.2019
2131 Clouds 32 1014 62 10000 3.1 200 06:50 11.09.2019
2132 Clouds 31 1014 62 10000 3.1 200 06:32 11.09.2019
2133 Clouds 31 1014 70 10000 2.1 300 05:42 11.09.2019
2134 Clouds 30 1014 70 10000 2.1 300 05:23 11.09.2019
2135 Clouds 29 1014 79 10000 1.94 216.852 04:39 11.09.2019
2136 Clouds 28 1013 88 10000 1.5 110 03:32 11.09.2019
2137 Clouds 27 1013 100 10000 1.5 110 02:42 11.09.2019
2138 Clouds 26 1012 94 10000 1.49 211.957 01:53 11.09.2019
2139 Clouds 26 1011 88 10000 1.85 200.422 00:50 11.09.2019
2140 Clouds 26 1011 88 10000 2.3 186.095 00:21 11.09.2019
2141 Clouds 26 1011 88 10000 2.3 186.095 00:21 11.09.2019
2142 Clouds 27 1011 78 10000 2.3 186.095 23:41 10.09.2019
2143 Clouds 26 1011 78 10000 2.3 186.095 23:23 10.09.2019
2144 Clouds 27 1011 78 10000 1.5 280 22:59 10.09.2019
2145 Clouds 27 1011 83 10000 1.5 280 22:41 10.09.2019
2146 Clouds 27 1011 83 10000 1.5 280 22:19 10.09.2019
2147 Clouds 27 1011 83 10000 2.1 250 21:55 10.09.2019
2148 Clouds 27 1011 83 10000 1 250 21:37 10.09.2019
2149 Clouds 27 1011 83 10000 1 250 21:37 10.09.2019
2150 Clouds 27 1011 83 10000 1 250 21:37 10.09.2019
2151 Clouds 27 1011 83 10000 1 250 21:37 10.09.2019
2152 Clouds 27 1011 83 10000 1 250 21:18 10.09.2019
2153 Rain 27 1011 83 10000 1 250 20:57 10.09.2019
2154 Clouds 27 1012 83 10000 1.5 220 20:38 10.09.2019
2155 Clouds 27 1012 83 10000 1.5 220 20:19 10.09.2019
2156 Clouds 27 1012 83 10000 1.5 220 20:19 10.09.2019
2157 Thunderstorm 27 1012 88 10000 2.6 220 19:56 10.09.2019
2158 Thunderstorm 27 1012 88 10000 1.5 210 19:37 10.09.2019
2159 Drizzle 27 1012 83 10000 2.6 230 19:19 10.09.2019
2160 Drizzle 27 1012 94 10000 1.69 230.295 18:46 10.09.2019
2161 Drizzle 27 1012 94 10000 1.69 230.295 18:46 10.09.2019
2162 Drizzle 27 1012 94 10000 1.63 241.609 18:23 10.09.2019
2163 Clouds 27 1012 100 10000 1.63 241.609 17:59 10.09.2019
2164 Clouds 27 1012 100 10000 1.63 241.609 17:41 10.09.2019
2165 Clouds 27 1012 100 10000 1.63 241.609 17:21 10.09.2019
2166 Clouds 27 1011 94 10000 1.63 241.609 16:57 10.09.2019
2167 Rain 27 1011 94 8000 1.63 241.609 16:38 10.09.2019
2168 Rain 27 1011 94 8000 1.63 241.609 16:20 10.09.2019
2169 Rain 27 1010 94 8000 1.63 241.609 15:44 10.09.2019
2170 Rain 27 1010 94 8000 2.52 252.422 15:23 10.09.2019
2171 Rain 28 1010 94 8000 2.52 252.422 14:59 10.09.2019
2172 Rain 28 1010 94 8000 2.52 252.422 14:59 10.09.2019
2173 Rain 27 1009 94 8000 1.5 100 14:40 10.09.2019
2174 Rain 27 1009 94 8000 1.5 100 14:22 10.09.2019
2175 Rain 27 1009 94 7000 3.6 170 13:48 10.09.2019
2176 Rain 27 1009 94 6000 6.7 220 13:24 10.09.2019
2177 Rain 28 1009 94 7000 5.7 250 12:56 10.09.2019
2178 Rain 29 1008 70 7000 6.2 210 12:37 10.09.2019
2179 Clouds 31 1007 70 10000 6.2 190 12:19 10.09.2019
2180 Clouds 31 1007 70 10000 6.2 190 12:19 10.09.2019
2181 Clouds 32 1007 62 10000 5.1 210 11:42 10.09.2019
2182 Clouds 32 1007 62 10000 5.1 210 11:23 10.09.2019
2183 Clouds 33 1007 63 10000 6.2 210 10:59 10.09.2019
2184 Clouds 32 1007 66 10000 6.2 190 10:38 10.09.2019
2185 Clouds 32 1007 59 10000 5.7 190 10:18 10.09.2019
2186 Clouds 32 1008 59 10000 4.1 220 09:46 10.09.2019
2187 Clouds 33 1008 59 10000 3.1 200 09:20 10.09.2019
2188 Clouds 33 1008 59 10000 3.1 200 08:57 10.09.2019
2189 Clouds 33 1009 63 10000 4.1 200 08:38 10.09.2019
2190 Clouds 33 1009 63 10000 3.6 200 08:20 10.09.2019
2191 Clouds 32 1010 62 10000 1.5 170 07:44 10.09.2019
2192 Clouds 32 1010 62 10000 2.1 210 07:25 10.09.2019
2193 Clouds 32 1010 62 10000 2.1 170 06:46 10.09.2019
2194 Clouds 32 1010 62 10000 2.1 170 06:28 10.09.2019
2195 Clouds 30 1011 74 10000 2.6 260 04:38 10.09.2019
2196 Clouds 27 1010 78 10000 2.1 200 02:44 10.09.2019
2197 Clouds 27 1009 78 10000 3.1 220 02:22 10.09.2019
2198 Clouds 27 1009 78 10000 2.6 250 01:52 10.09.2019
2199 Clouds 27 1009 78 10000 2.6 250 01:52 10.09.2019
2200 Clouds 27 1009 78 10000 2.6 250 01:52 10.09.2019
2201 Clouds 27 1009 78 10000 2.6 250 01:52 10.09.2019
2202 Clouds 27 1009 78 10000 2.6 250 01:23 10.09.2019
2203 Clouds 27 1008 78 10000 2.6 260 00:43 10.09.2019
2204 Clouds 27 1008 78 10000 2.6 250 00:23 10.09.2019
2205 Clouds 27 1008 78 10000 3.6 250 23:41 09.09.2019
2206 Clouds 27 1008 74 10000 4.1 240 23:19 09.09.2019
2207 Clouds 27 1008 74 10000 4.1 240 22:55 09.09.2019
2208 Clouds 27 1008 69 10000 3.6 250 22:37 09.09.2019
2209 Clouds 27 1008 69 10000 4.6 250 22:19 09.09.2019
2210 Clouds 27 1008 69 10000 4.6 250 21:55 09.09.2019
2211 Clouds 27 1008 69 10000 3.6 250 21:37 09.09.2019
2212 Clouds 28 1008 74 10000 3.6 250 21:19 09.09.2019
2213 Clouds 28 1008 74 10000 3.6 250 20:55 09.09.2019
2214 Clouds 28 1009 74 10000 3.6 260 20:36 09.09.2019
2215 Clouds 28 1009 74 10000 4.6 270 20:18 09.09.2019
2216 Clouds 28 1009 74 10000 4.6 270 19:56 09.09.2019
2217 Clouds 28 1009 74 10000 3.6 280 19:37 09.09.2019
2218 Clouds 28 1009 79 10000 4.1 250 19:19 09.09.2019
2219 Clouds 28 1009 79 10000 3.6 260 18:55 09.09.2019
2220 Clouds 28 1009 79 10000 3.6 260 18:37 09.09.2019
2221 Clouds 28 1009 79 10000 3.1 250 18:18 09.09.2019
2222 Clouds 28 1009 79 10000 3.1 250 18:18 09.09.2019
2223 Clouds 28 1009 83 10000 3.1 230 17:56 09.09.2019
2224 Clouds 28 1009 83 10000 3.1 230 17:37 09.09.2019
2225 Clouds 28 1009 83 10000 3.1 220 17:19 09.09.2019
2226 Clouds 28 1008 83 10000 4.1 210 16:40 09.09.2019
2227 Clouds 28 1008 83 10000 4.6 200 16:21 09.09.2019
2228 Clouds 28 1008 83 10000 4.6 200 15:56 09.09.2019
2229 Clouds 29 1008 83 10000 5.1 200 15:38 09.09.2019
2230 Clouds 29 1007 83 10000 4.1 210 15:19 09.09.2019
2231 Clouds 29 1007 83 10000 4.1 210 14:57 09.09.2019
2232 Clouds 29 1006 79 10000 5.7 200 14:38 09.09.2019
2233 Clouds 29 1006 74 10000 6.2 200 14:20 09.09.2019
2234 Clouds 30 1006 70 10000 5.7 200 13:45 09.09.2019
2235 Clouds 30 1006 70 10000 6.2 210 13:22 09.09.2019
2236 Clouds 30 1006 70 10000 6.2 210 12:59 09.09.2019
2237 Clouds 29 1006 66 10000 6.7 220 12:41 09.09.2019
2238 Clouds 30 1006 66 10000 6.7 220 12:21 09.09.2019
2239 Clouds 30 1006 66 10000 6.7 220 11:55 09.09.2019
2240 Clouds 30 1006 66 10000 6.7 220 11:55 09.09.2019
2241 Rain 31 1006 62 10000 6.2 240 11:36 09.09.2019
2242 Rain 31 1006 59 10000 7.2 240 11:18 09.09.2019
2243 Clouds 33 1006 59 10000 5.7 270 10:41 09.09.2019
2244 Clouds 33 1006 55 10000 6.2 260 10:21 09.09.2019
2245 Clouds 33 1006 55 10000 6.2 260 09:57 09.09.2019
2246 Clouds 33 1007 55 10000 5.1 260 09:38 09.09.2019
2247 Clouds 33 1007 55 10000 5.1 250 09:20 09.09.2019
2248 Clouds 33 1008 59 10000 5.7 230 08:39 09.09.2019
2249 Clouds 33 1008 55 10000 5.7 250 08:20 09.09.2019
2250 Clouds 33 1009 55 10000 6.7 280 07:48 09.09.2019
2251 Clouds 32 1009 59 10000 5.1 250 07:23 09.09.2019
2252 Clouds 32 1009 59 10000 5.1 250 06:59 09.09.2019
2253 Clouds 32 1009 59 10000 5.1 240 06:40 09.09.2019
2254 Clouds 32 1010 66 10000 2.1 220 05:34 09.09.2019
2255 Clouds 28 1009 74 10000 3.1 230 02:59 09.09.2019
2256 Clouds 27 1009 78 10000 4.1 240 02:39 09.09.2019
2257 Clouds 26 1008 78 10000 3.6 250 00:50 09.09.2019
2258 Clouds 26 1007 78 10000 3.6 240 00:22 09.09.2019
2259 Clouds 26 1008 78 10000 3.6 230 23:46 08.09.2019
2260 Clouds 27 1008 78 10000 3.6 230 23:24 08.09.2019
2261 Clouds 27 1008 78 10000 3.6 240 22:57 08.09.2019
2262 Clouds 27 1008 78 10000 3.6 240 22:38 08.09.2019
2263 Clouds 27 1008 74 10000 3.6 250 22:20 08.09.2019
2264 Clouds 27 1009 74 10000 4.1 250 21:42 08.09.2019
2265 Clouds 27 1009 74 10000 4.1 250 21:23 08.09.2019
2266 Clouds 27 1009 74 10000 4.1 260 20:59 08.09.2019
2267 Clouds 27 1009 74 10000 4.1 260 20:59 08.09.2019
2268 Clouds 27 1009 74 10000 4.6 260 20:40 08.09.2019
2269 Clouds 27 1009 69 10000 6.2 250 20:22 08.09.2019
2270 Clouds 27 1009 69 10000 6.2 250 19:59 08.09.2019
2271 Clouds 27 1009 74 10000 6.2 250 19:38 08.09.2019
2272 Clouds 28 1009 74 10000 5.7 250 19:20 08.09.2019
2273 Clouds 28 1009 74 10000 5.7 250 18:57 08.09.2019
2274 Clouds 28 1010 74 10000 6.2 250 18:38 08.09.2019
2275 Clouds 28 1010 74 10000 5.1 260 18:18 08.09.2019
2276 Clouds 28 1010 74 10000 5.1 260 17:56 08.09.2019
2277 Clouds 28 1009 74 10000 5.7 260 17:36 08.09.2019
2278 Clouds 28 1009 74 10000 5.7 260 17:18 08.09.2019
2279 Clouds 28 1009 74 10000 5.1 250 16:43 08.09.2019
2280 Clouds 28 1008 74 10000 5.7 240 16:22 08.09.2019
2281 Clouds 28 1008 74 10000 5.7 240 15:58 08.09.2019
2282 Clouds 28 1008 83 10000 5.1 230 15:40 08.09.2019
2283 Clouds 28 1008 83 10000 5.7 230 15:21 08.09.2019
2284 Clouds 28 1008 83 10000 5.7 230 14:56 08.09.2019
2285 Clouds 28 1007 78 10000 6.2 230 14:37 08.09.2019
2286 Rain 28 1007 78 10000 7.2 220 14:19 08.09.2019
2287 -273 0 0 0 0 0 13:55 08.09.2019
2288 Rain 27 1007 78 10000 7.7 230 13:36 08.09.2019
2289 Rain 27 1007 74 10000 6.7 260 13:18 08.09.2019
2290 Rain 29 1007 62 10000 7.7 260 12:41 08.09.2019
2291 Clouds 31 1006 59 10000 5.7 260 12:23 08.09.2019
2292 Clouds 32 1006 59 10000 5.7 260 11:58 08.09.2019
2293 Clouds 32 1006 59 10000 5.7 260 11:58 08.09.2019
2294 Rain 32 1006 63 10000 5.1 270 11:38 08.09.2019
2295 Rain 32 1006 63 10000 5.1 270 11:38 08.09.2019
2296 Rain 32 1006 63 10000 5.1 270 11:38 08.09.2019
2297 Rain 32 1007 63 10000 5.7 270 11:20 08.09.2019
2298 Rain 32 1007 63 10000 5.7 270 10:56 08.09.2019
2299 Rain 32 1007 63 10000 5.7 290 10:38 08.09.2019
2300 Rain 32 1007 62 10000 5.7 270 10:19 08.09.2019
2301 Rain 32 1008 62 10000 5.7 280 09:38 08.09.2019
2302 Rain 32 1008 59 10000 5.1 260 09:20 08.09.2019
2303 Rain 32 1008 59 10000 5.1 260 08:56 08.09.2019
2304 Clouds 32 1009 62 10000 6.7 260 08:37 08.09.2019
2305 Clouds 32 1009 62 10000 6.2 250 08:18 08.09.2019
2306 Clouds 32 1009 66 10000 5.1 260 07:38 08.09.2019
2307 Clouds 32 1009 66 10000 5.1 260 07:38 08.09.2019
2308 Clouds 31 1010 66 10000 5.7 230 07:20 08.09.2019
2309 Clouds 31 1011 66 10000 5.1 240 06:45 08.09.2019
2310 Clouds 30 1011 70 10000 5.7 230 05:57 08.09.2019
2311 Clouds 30 1011 70 10000 4.1 250 05:35 08.09.2019
2312 Clouds 29 1011 74 10000 3.1 220 03:51 08.09.2019
2313 Clouds 28 1011 74 10000 2.6 230 02:54 08.09.2019
2314 Clouds 27 1010 78 10000 1.5 280 02:25 08.09.2019
2315 Clouds 27 1010 78 10000 3.1 260 01:35 08.09.2019
2316 Clouds 27 1010 78 10000 2.6 290 00:57 08.09.2019
2317 Clouds 27 1009 78 10000 2.6 260 00:37 08.09.2019
2318 Clouds 27 1009 78 10000 2.1 250 00:19 08.09.2019
2319 Clouds 27 1009 78 10000 3.1 260 23:38 07.09.2019
2320 Clouds 27 1009 78 10000 3.6 240 23:19 07.09.2019
2321 Clouds 27 1009 78 10000 3.6 240 22:57 07.09.2019
2322 Clouds 27 1009 78 10000 3.1 250 22:37 07.09.2019
2323 Clouds 27 1009 78 10000 3.1 250 22:37 07.09.2019
2324 Clouds 27 1009 78 10000 3.6 240 22:18 07.09.2019
2325 Clouds 27 1009 78 10000 3.1 220 21:41 07.09.2019
2326 Clouds 27 1009 78 10000 3.1 220 21:23 07.09.2019
2327 Clouds 28 1010 74 10000 3.1 250 20:42 07.09.2019
2328 Clouds 28 1010 74 10000 3.1 250 20:22 07.09.2019
2329 Clouds 28 1010 74 10000 4.1 250 19:58 07.09.2019
2330 Clouds 28 1010 74 10000 3.6 260 19:39 07.09.2019
2331 Clouds 28 1010 74 10000 4.1 250 19:21 07.09.2019
2332 Clouds 28 1010 74 10000 4.1 250 18:59 07.09.2019
2333 Clouds 28 1011 70 10000 4.1 250 18:40 07.09.2019
2334 Clouds 29 1011 70 10000 4.6 260 18:22 07.09.2019
2335 Clouds 29 1011 70 10000 4.6 260 17:59 07.09.2019
2336 Clouds 29 1010 70 10000 3.6 260 17:40 07.09.2019
2337 Clouds 29 1010 70 10000 3.6 250 17:19 07.09.2019
2338 Clouds 29 1010 70 10000 3.6 250 17:19 07.09.2019
2339 Clouds 29 1010 70 10000 3.6 250 16:59 07.09.2019
2340 Clouds 29 1010 66 10000 4.1 260 16:40 07.09.2019
2341 Clouds 29 1009 66 10000 4.1 270 16:19 07.09.2019
2342 Clouds 29 1009 66 10000 3.6 260 15:47 07.09.2019
2343 Clouds 30 1009 66 10000 3.6 260 15:26 07.09.2019
2344 Clouds 30 1008 62 10000 5.1 250 14:57 07.09.2019
2345 Clouds 31 1007 62 10000 4.6 250 14:37 07.09.2019
2346 Clouds 31 1007 62 10000 4.6 260 14:19 07.09.2019
2347 Clouds 30 1007 62 10000 4.6 260 13:57 07.09.2019
2348 Clouds 31 1007 62 10000 5.7 250 13:39 07.09.2019
2349 Clouds 31 1006 62 10000 6.7 250 13:20 07.09.2019
2350 Clouds 32 1006 59 10000 6.7 250 12:44 07.09.2019
2351 Clouds 32 1006 62 10000 6.2 260 12:25 07.09.2019
2352 Clouds 33 1006 59 10000 6.7 260 11:42 07.09.2019
2353 Clouds 33 1006 59 10000 6.7 260 11:23 07.09.2019
2354 Clouds 33 1006 59 10000 6.2 260 10:59 07.09.2019
2355 Clouds 33 1007 62 10000 5.1 250 10:38 07.09.2019
2356 Clouds 33 1007 62 10000 5.1 250 10:38 07.09.2019
2357 Clouds 32 1007 59 10000 5.7 250 10:19 07.09.2019
2358 Clouds 32 1007 59 10000 6.2 260 09:43 07.09.2019
2359 Clouds 32 1007 59 10000 6.2 260 09:25 07.09.2019
2360 Clouds 32 1008 62 10000 4.6 240 08:57 07.09.2019
2361 Clouds 32 1009 62 10000 5.7 250 08:37 07.09.2019
2362 Clouds 32 1009 62 10000 6.2 250 08:19 07.09.2019
2363 Clouds 31 1010 62 10000 6.2 240 07:45 07.09.2019
2364 Clouds 31 1010 66 10000 3.6 260 07:24 07.09.2019
2365 Clouds 31 1010 62 10000 4.6 240 06:45 07.09.2019
2366 Clouds 31 1010 62 10000 3.6 250 06:19 07.09.2019
2367 Clouds 30 1010 66 10000 2.6 210 04:38 07.09.2019
2368 Clouds 29 1010 74 10000 2.1 200 03:49 07.09.2019
2369 Clouds 28 1009 83 10000 2.04 210.517 02:43 07.09.2019
2370 Clouds 27 1009 83 10000 2.04 210.517 01:44 07.09.2019
2371 Clouds 27 1009 83 10000 2.13 219.768 00:56 07.09.2019
2372 Clouds 27 1008 83 10000 2.13 219.768 00:37 07.09.2019
2373 Clouds 27 1008 83 10000 1.83 239.304 00:18 07.09.2019
2374 Clouds 27 1008 83 10000 1.83 239.304 23:38 06.09.2019
2375 Clouds 27 1008 83 10000 1.83 239.304 23:20 06.09.2019
2376 Clouds 27 1008 83 10000 1.83 239.304 22:57 06.09.2019
2377 Clouds 27 1008 74 10000 2.1 250 22:37 06.09.2019
2378 Clouds 27 1008 78 10000 2.6 240 22:18 06.09.2019
2379 Clouds 27 1008 78 10000 2.6 240 21:56 06.09.2019
2380 Clouds 27 1008 78 10000 2.6 240 21:37 06.09.2019
2381 Clouds 27 1008 78 10000 2.1 270 21:19 06.09.2019
2382 Clouds 27 1008 78 10000 1.5 230 20:42 06.09.2019
2383 Clouds 27 1008 78 10000 1.5 230 20:24 06.09.2019
2384 Clouds 28 1008 74 10000 3.6 250 19:59 06.09.2019
2385 Clouds 28 1008 74 10000 3.6 250 19:59 06.09.2019
2386 Clouds 28 1009 74 10000 3.6 250 19:41 06.09.2019
2387 Clouds 28 1009 74 10000 3.6 250 19:41 06.09.2019
2388 Clouds 28 1009 74 10000 3.6 250 19:21 06.09.2019
2389 Clouds 28 1009 74 10000 3.6 250 18:56 06.09.2019
2390 Clouds 29 1009 74 10000 3.6 250 18:37 06.09.2019
2391 Clouds 29 1009 74 10000 3.1 260 18:19 06.09.2019
2392 Clouds 29 1009 70 10000 4.1 260 17:40 06.09.2019
2393 Clouds 29 1009 74 10000 4.1 260 17:20 06.09.2019
2394 Clouds 29 1009 74 10000 4.1 260 16:56 06.09.2019
2395 Clouds 29 1008 74 10000 4.1 250 16:38 06.09.2019
2396 Clouds 29 1008 79 10000 3.1 230 16:18 06.09.2019
2397 Clouds 29 1008 83 10000 3.1 200 15:41 06.09.2019
2398 Rain 29 1007 88 9000 1 0 15:22 06.09.2019
2399 Clouds 29 1008 83 10000 3.1 200 15:22 06.09.2019
2400 Rain 29 1007 94 9000 2.1 70 14:47 06.09.2019
2401 Rain 29 1006 83 9000 3.1 210 14:19 06.09.2019
2402 Rain 29 1006 88 9000 4.1 200 13:44 06.09.2019
2403 Rain 29 1006 88 9000 4.1 200 13:23 06.09.2019
2404 Rain 29 1005 94 7000 4.1 200 12:58 06.09.2019
2405 Rain 30 1005 62 10000 6.2 230 12:37 06.09.2019
2406 Rain 30 1005 62 10000 6.2 230 12:37 06.09.2019
2407 Clouds 30 1005 62 10000 4.1 260 12:18 06.09.2019
2408 Clouds 32 1005 59 10000 5.1 250 11:41 06.09.2019
2409 Clouds 32 1005 59 10000 5.1 250 11:23 06.09.2019
2410 Clouds 32 1005 62 10000 3.1 240 10:57 06.09.2019
2411 Clouds 32 1006 62 10000 5.7 240 10:39 06.09.2019
2412 Clouds 32 1006 62 10000 4.6 250 10:18 06.09.2019
2413 Clouds 32 1006 59 10000 4.1 290 09:40 06.09.2019
2414 Clouds 32 1006 59 10000 4.6 280 09:20 06.09.2019
2415 Clouds 31 1006 59 10000 4.6 280 08:56 06.09.2019
2416 Clouds 32 1007 59 10000 6.2 270 08:37 06.09.2019
2417 Clouds 32 1008 62 10000 5.1 290 08:19 06.09.2019
2418 Clouds 31 1008 66 10000 5.7 250 07:44 06.09.2019
2419 Clouds 32 1008 66 10000 5.7 250 07:25 06.09.2019
2420 Clouds 32 1008 66 10000 5.7 250 07:25 06.09.2019
2421 Clouds 31 1009 70 10000 4.6 230 06:53 06.09.2019
2422 Clouds 30 1009 79 10000 3.1 200 05:58 06.09.2019
2423 Clouds 30 1009 79 10000 3.1 200 05:58 06.09.2019
2424 Clouds 29 1009 83 10000 2.6 190 05:19 06.09.2019
2425 Rain 29 1010 88 10000 3.1 200 04:38 06.09.2019
2426 Rain 27 1009 83 10000 3.1 250 03:39 06.09.2019
2427 Clouds 26 1008 88 10000 1.5 170 01:49 06.09.2019
2428 Clouds 27 1007 88 10000 1.5 210 00:24 06.09.2019
2429 Clouds 27 1007 88 10000 1.59 232.625 23:44 05.09.2019
2430 Clouds 27 1007 88 10000 1.59 232.625 23:24 05.09.2019
2431 Clouds 27 1007 83 10000 2.1 280 22:47 05.09.2019
2432 Clouds 27 1007 83 10000 2.1 280 22:28 05.09.2019
2433 Clouds 27 1007 83 10000 1.5 310 21:58 05.09.2019
2434 Clouds 27 1007 83 10000 1.5 310 21:40 05.09.2019
2435 Rain 27 1008 78 10000 2.1 300 21:21 05.09.2019
2436 Rain 27 1008 78 10000 2.1 300 20:58 05.09.2019
2437 Clouds 27 1008 83 10000 2.6 260 20:40 05.09.2019
2438 Clouds 27 1008 78 10000 3.1 250 20:22 05.09.2019
2439 Clouds 27 1008 78 10000 3.1 250 20:00 05.09.2019
2440 Clouds 27 1009 83 10000 3.1 240 19:41 05.09.2019
2441 Clouds 27 1009 83 10000 3.1 250 19:22 05.09.2019
2442 Clouds 27 1009 83 10000 1.5 210 18:56 05.09.2019
2443 Clouds 27 1009 83 10000 1.5 210 18:38 05.09.2019
2444 Clouds 27 1009 83 10000 1.5 210 18:18 05.09.2019
2445 Clouds 27 1009 83 10000 2.1 210 17:41 05.09.2019
2446 Clouds 27 1009 83 10000 2.1 210 17:22 05.09.2019
2447 Clouds 27 1009 83 10000 3.1 240 16:58 05.09.2019
2448 Rain 27 1009 83 10000 2.1 270 16:40 05.09.2019
2449 Rain 27 1008 83 10000 4.1 230 16:19 05.09.2019
2450 Rain 26 1008 88 10000 2.6 200 15:41 05.09.2019
2451 Rain 26 1008 94 9000 3.1 200 15:20 05.09.2019
2452 Rain 27 1008 94 9000 3.1 200 14:59 05.09.2019
2453 Rain 27 1008 94 9000 3.1 210 14:40 05.09.2019
2454 Rain 27 1007 88 9000 3.6 240 14:20 05.09.2019
2455 Rain 26 1007 88 9000 5.1 230 13:43 05.09.2019
2456 Thunderstorm 25 1006 88 10000 7.2 230 13:23 05.09.2019
2457 Thunderstorm 26 1006 88 10000 7.2 230 12:54 05.09.2019
2458 Rain 26 1006 88 9000 3.6 250 12:36 05.09.2019
2459 Rain 26 1006 88 9000 3.6 250 12:36 05.09.2019
2460 Rain 26 1006 88 9000 3.6 250 12:36 05.09.2019
2461 Rain 28 1006 88 9000 4.1 240 12:18 05.09.2019
2462 Rain 27 1006 88 8000 5.1 260 11:43 05.09.2019
2463 Rain 28 1006 78 8000 7.7 290 11:20 05.09.2019
2464 Rain 30 1005 62 9000 5.1 290 10:42 05.09.2019
2465 Rain 31 1005 62 9000 5.1 290 10:23 05.09.2019
2466 Rain 31 1005 62 9000 5.1 290 10:23 05.09.2019
2467 Rain 32 1005 59 10000 6.2 280 09:58 05.09.2019
2468 Clouds 32 1006 55 10000 7.2 270 09:40 05.09.2019
2469 Clouds 32 1006 59 10000 5.1 270 09:19 05.09.2019
2470 Clouds 32 1007 59 10000 6.2 270 08:46 05.09.2019
2471 Clouds 32 1007 59 10000 6.2 270 08:27 05.09.2019
2472 Clouds 32 1008 62 10000 5.1 260 07:48 05.09.2019
2473 Clouds 32 1008 62 10000 5.1 260 07:29 05.09.2019
2474 Clouds 32 1008 62 10000 4.1 250 06:58 05.09.2019
2475 Clouds 31 1009 66 10000 3.6 260 06:32 05.09.2019
2476 Clouds 29 1009 74 10000 3.6 240 05:51 05.09.2019
2477 Clouds 29 1009 74 10000 3.6 240 05:32 05.09.2019
2478 Clouds 29 1009 70 10000 3.1 260 04:55 05.09.2019
2479 Clouds 29 1009 70 10000 3.6 250 04:29 05.09.2019
2480 Clouds 28 1008 74 10000 4.1 230 03:40 05.09.2019
2481 Rain 27 1008 78 10000 3.1 240 02:53 05.09.2019
2482 Rain 27 1008 78 10000 3.1 240 02:27 05.09.2019
2483 Clouds 27 1007 78 10000 3.1 240 01:37 05.09.2019
2484 Clouds 27 1007 78 10000 3.6 240 00:46 05.09.2019
2485 Clouds 27 1007 78 10000 3.1 240 00:21 05.09.2019
2486 Clouds 27 1007 78 10000 3.1 240 23:56 04.09.2019
2487 Clouds 27 1007 78 10000 3.1 240 23:37 04.09.2019
2488 Clouds 27 1007 78 10000 4.1 240 23:18 04.09.2019
2489 Clouds 27 1006 78 10000 3.1 240 22:42 04.09.2019
2490 Clouds 27 1007 74 10000 3.6 250 22:19 04.09.2019
2491 Clouds 27 1007 78 10000 4.6 240 21:40 04.09.2019
2492 Clouds 27 1007 78 10000 3.6 240 21:20 04.09.2019
2493 Clouds 27 1007 78 10000 3.6 240 21:20 04.09.2019
2494 Clouds 27 1007 78 10000 3.6 240 20:57 04.09.2019
2495 Clouds 28 1008 78 10000 3.1 240 20:39 04.09.2019
2496 Clouds 27 1008 78 10000 3.6 240 20:19 04.09.2019
2497 Clouds 27 1008 78 10000 3.6 240 19:57 04.09.2019
2498 Clouds 28 1008 78 10000 3.1 240 19:38 04.09.2019
2499 Clouds 28 1009 83 10000 2.6 260 19:19 04.09.2019
2500 Clouds 28 1009 83 10000 3.1 240 18:39 04.09.2019
2501 Clouds 28 1009 83 10000 3.1 240 18:39 04.09.2019
2502 Clouds 28 1009 83 10000 2.6 250 18:20 04.09.2019
2503 Clouds 28 1008 83 10000 3.1 240 17:54 04.09.2019
2504 Clouds 28 1008 83 10000 3.1 240 17:36 04.09.2019
2505 Clouds 28 1008 83 10000 3.1 260 17:18 04.09.2019
2506 Clouds 28 1007 83 10000 3.1 240 16:46 04.09.2019
2507 Clouds 28 1007 83 10000 3.1 240 16:46 04.09.2019
2508 Clouds 28 1007 83 10000 3.1 240 16:27 04.09.2019
2509 Clouds 28 1007 83 10000 3.6 240 15:56 04.09.2019
2510 Clouds 28 1007 83 10000 3.1 220 15:38 04.09.2019
2511 Clouds 28 1006 83 10000 3.1 220 15:20 04.09.2019
2512 Clouds 28 1006 83 10000 3.1 220 15:20 04.09.2019
2513 Clouds 28 1006 83 10000 3.1 220 14:55 04.09.2019
2514 Clouds 28 1006 83 10000 3.1 220 14:55 04.09.2019
2515 Clouds 28 1006 83 10000 2.6 210 14:37 04.09.2019
2516 Clouds 28 1006 83 10000 3.6 210 14:18 04.09.2019
2517 Clouds 29 1005 79 10000 4.1 210 13:40 04.09.2019
2518 Clouds 29 1005 79 10000 4.1 200 13:22 04.09.2019
2519 Clouds 29 1005 79 10000 4.1 200 13:22 04.09.2019
2520 Clouds 29 1005 79 10000 4.1 200 12:58 04.09.2019
2521 Clouds 29 1005 79 10000 4.1 230 12:38 04.09.2019
2522 Clouds 29 1005 74 10000 3.6 240 12:19 04.09.2019
2523 Clouds 29 1005 74 10000 4.6 260 11:55 04.09.2019
2524 Clouds 29 1005 74 10000 4.6 260 11:36 04.09.2019
2525 Clouds 29 1005 74 10000 3.6 280 11:18 04.09.2019
2526 Clouds 29 1005 74 10000 4.6 260 10:42 04.09.2019
2527 Clouds 29 1005 70 10000 4.1 260 10:23 04.09.2019
2528 Clouds 29 1006 70 10000 5.1 260 09:47 04.09.2019
2529 Clouds 29 1006 70 10000 5.1 260 09:27 04.09.2019
2530 Clouds 29 1006 66 10000 5.7 240 08:59 04.09.2019
2531 Clouds 30 1006 66 10000 5.7 230 08:40 04.09.2019
2532 Clouds 29 1007 70 10000 5.7 230 08:21 04.09.2019
2533 Clouds 30 1007 70 10000 5.7 230 07:48 04.09.2019
2534 Clouds 30 1007 70 10000 5.7 230 07:29 04.09.2019
2535 Clouds 29 1008 74 10000 4.6 240 06:40 04.09.2019
2536 Clouds 28 1008 78 10000 4.6 250 05:19 04.09.2019
2537 Clouds 28 1008 78 10000 4.1 250 04:51 04.09.2019
2538 Rain 27 1008 83 10000 3.6 210 03:52 04.09.2019
2539 Clouds 26 1006 88 10000 3.1 230 01:27 04.09.2019
2540 Clouds 26 1006 88 10000 3.6 240 00:54 04.09.2019
2541 Clouds 26 1006 88 10000 3.6 240 00:32 04.09.2019
2542 Clouds 26 1006 88 10000 2.1 220 23:54 03.09.2019
2543 Clouds 26 1006 88 10000 2.1 220 23:28 03.09.2019
2544 Clouds 26 1006 88 10000 4.1 240 22:59 03.09.2019
2545 Clouds 26 1005 88 10000 5.7 240 22:40 03.09.2019
2546 Clouds 26 1005 88 10000 4.6 250 22:21 03.09.2019
2547 Clouds 26 1005 88 10000 4.6 250 21:56 03.09.2019
2548 Clouds 26 1006 88 10000 5.7 240 21:37 03.09.2019
2549 Clouds 26 1006 88 10000 5.7 240 21:37 03.09.2019
2550 Clouds 26 1006 88 10000 5.1 240 21:18 03.09.2019
2551 Rain 26 1007 88 10000 4.6 240 20:42 03.09.2019
2552 Rain 26 1007 88 10000 4.6 240 20:42 03.09.2019
2553 Clouds 26 1007 88 10000 4.1 250 20:24 03.09.2019
2554 Clouds 26 1007 88 10000 4.1 250 20:24 03.09.2019
2555 Clouds 26 1008 88 10000 3.6 250 19:56 03.09.2019
2556 Clouds 26 1008 88 10000 3.6 250 19:56 03.09.2019
2557 Clouds 26 1008 88 10000 3.6 250 19:38 03.09.2019
2558 Clouds 26 1008 88 10000 3.6 250 19:19 03.09.2019
2559 Rain 26 1008 94 10000 3.1 270 18:45 03.09.2019
2560 Rain 26 1008 94 10000 3.6 250 18:27 03.09.2019
2561 Rain 26 1009 94 10000 3.6 260 17:59 03.09.2019
2562 Rain 26 1009 94 10000 3.6 260 17:40 03.09.2019
2563 Rain 26 1008 94 10000 3.6 300 17:19 03.09.2019
2564 Rain 26 1008 94 10000 3.6 300 16:58 03.09.2019
2565 Rain 26 1008 94 10000 4.6 290 16:38 03.09.2019
2566 Rain 27 1008 78 10000 5.7 270 16:19 03.09.2019
2567 Clouds 28 1007 78 10000 4.6 260 15:40 03.09.2019
2568 Rain 28 1007 74 10000 4.1 250 15:21 03.09.2019
2569 Rain 28 1007 74 10000 4.1 250 14:58 03.09.2019
2570 Rain 28 1006 78 10000 3.6 260 14:40 03.09.2019
2571 Rain 28 1006 70 10000 4.6 270 14:20 03.09.2019
2572 Rain 28 1006 70 10000 4.6 270 13:56 03.09.2019
2573 Clouds 29 1005 70 10000 4.6 270 13:37 03.09.2019
2574 Clouds 29 1005 66 10000 5.7 280 13:19 03.09.2019
2575 Clouds 29 1005 62 10000 6.7 280 12:49 03.09.2019
2576 Clouds 29 1005 62 10000 6.7 280 12:30 03.09.2019
2577 Clouds 29 1005 66 10000 6.2 260 11:59 03.09.2019
2578 Clouds 29 1005 66 10000 5.7 270 11:39 03.09.2019
2579 Clouds 28 1005 66 10000 5.1 280 11:19 03.09.2019
2580 Clouds 28 1005 66 10000 5.1 280 10:55 03.09.2019
2581 Rain 28 1005 70 10000 4.6 260 10:36 03.09.2019
2582 Rain 28 1005 74 10000 7.2 260 10:18 03.09.2019
2583 Rain 29 1005 74 10000 5.1 300 09:42 03.09.2019
2584 Rain 29 1005 74 10000 5.1 300 09:24 03.09.2019
2585 Rain 30 1006 70 10000 6.7 270 08:41 03.09.2019
2586 Rain 31 1006 70 10000 6.7 270 08:23 03.09.2019
2587 Rain 30 1007 74 10000 5.7 280 07:58 03.09.2019
2588 Clouds 31 1007 70 10000 6.2 260 07:37 03.09.2019
2589 Clouds 30 1007 70 10000 5.1 260 07:19 03.09.2019
2590 Clouds 30 1007 74 10000 5.7 250 06:43 03.09.2019
2591 Clouds 27 1008 88 10000 4.1 220 04:41 03.09.2019
2592 Clouds 26 1008 94 10000 2.6 200 03:33 03.09.2019
2593 Rain 26 1007 94 8000 1 180 02:40 03.09.2019
2594 Rain 25 1007 100 8000 1 190 02:22 03.09.2019
2595 Rain 25 1006 100 8000 2.6 210 01:46 03.09.2019
2596 Clouds 25 1006 94 8000 2.6 210 01:25 03.09.2019
2597 Clouds 25 1006 94 8000 2.6 210 00:37 03.09.2019
2598 Rain 25 1006 100 8000 2.6 210 23:59 02.09.2019
2599 Clouds 25 1007 100 8000 2.1 210 23:38 02.09.2019
2600 Rain 26 1007 100 8000 2.6 200 23:19 02.09.2019
2601 Rain 25 1007 100 8000 2.6 200 22:56 02.09.2019
2602 Rain 25 1007 100 8000 2.6 200 22:56 02.09.2019
2603 Rain 25 1007 100 8000 2.1 210 22:37 02.09.2019
2604 Rain 25 1007 100 8000 2.6 200 22:18 02.09.2019
2605 Rain 25 1007 100 8000 2.6 200 22:18 02.09.2019
2606 Rain 25 1007 100 8000 2.6 200 21:56 02.09.2019
2607 Rain 25 1007 94 8000 3.1 240 21:37 02.09.2019
2608 Rain 25 1008 94 8000 3.1 240 21:19 02.09.2019
2609 Rain 25 1008 94 8000 3.6 240 20:42 02.09.2019
2610 Rain 25 1008 94 8000 4.1 230 20:23 02.09.2019
2611 Rain 25 1008 94 8000 4.1 230 19:59 02.09.2019
2612 Rain 25 1009 94 8000 3.1 250 19:41 02.09.2019
2613 Rain 25 1009 94 8000 2.6 260 19:22 02.09.2019
2614 Rain 26 1009 88 8000 2.6 290 18:57 02.09.2019
2615 Rain 26 1009 88 8000 2.6 290 18:37 02.09.2019
2616 Rain 26 1009 88 8000 2.6 290 18:37 02.09.2019
2617 Rain 27 1009 83 10000 2.6 250 18:18 02.09.2019
2618 Rain 27 1009 78 10000 3.6 240 17:54 02.09.2019
2619 Rain 28 1009 78 10000 3.6 240 17:36 02.09.2019
2620 Rain 27 1008 74 10000 4.1 230 17:18 02.09.2019
2621 Rain 28 1008 78 10000 4.1 240 16:39 02.09.2019
2622 Rain 29 1007 78 10000 4.1 240 16:20 02.09.2019
2623 Rain 29 1007 74 10000 4.6 230 15:49 02.09.2019
2624 Rain 29 1007 74 10000 4.6 230 15:29 02.09.2019
2625 Clouds 29 1007 74 10000 5.1 240 14:58 02.09.2019
2626 Clouds 29 1006 70 10000 4.6 240 14:40 02.09.2019
2627 Clouds 29 1006 66 10000 4.6 240 14:22 02.09.2019
2628 Clouds 30 1006 66 10000 4.6 240 13:56 02.09.2019
2629 Clouds 30 1006 66 10000 5.1 260 13:38 02.09.2019
2630 Clouds 30 1006 66 10000 6.7 260 13:20 02.09.2019
2631 Clouds 30 1005 66 10000 7.2 260 12:45 02.09.2019
2632 Clouds 30 1005 66 10000 7.2 260 12:25 02.09.2019
2633 Clouds 31 1005 62 10000 8.2 260 11:59 02.09.2019
2634 Clouds 31 1005 62 10000 8.7 270 11:39 02.09.2019
2635 Clouds 31 1006 62 10000 8.2 270 11:21 02.09.2019
2636 Clouds 31 1006 62 10000 8.2 270 10:57 02.09.2019
2637 Clouds 31 1006 55 10000 7.2 270 10:38 02.09.2019
2638 Clouds 31 1006 62 10000 8.2 270 10:19 02.09.2019
2639 Clouds 31 1006 58 10000 9.3 270 09:46 02.09.2019
2640 Clouds 31 1006 58 10000 9.3 270 09:22 02.09.2019
2641 Clouds 31 1006 62 10000 8.2 270 08:58 02.09.2019
2642 Clouds 31 1007 62 10000 8.2 270 08:38 02.09.2019
2643 Clouds 31 1007 62 10000 7.7 270 08:18 02.09.2019
2644 Clouds 31 1008 66 10000 6.7 270 07:40 02.09.2019
2645 Clouds 30 1009 66 10000 6.7 270 07:21 02.09.2019
2646 Clouds 30 1008 66 10000 5.7 290 06:45 02.09.2019
2647 Clouds 30 1009 66 10000 5.7 270 06:25 02.09.2019
2648 Clouds 29 1009 70 10000 4.6 270 05:48 02.09.2019
2649 Clouds 29 1009 70 10000 3.6 240 05:18 02.09.2019
2650 Clouds 28 1009 74 10000 4.1 260 04:18 02.09.2019
2651 Clouds 27 1007 78 10000 2.1 250 01:45 02.09.2019
2652 Clouds 27 1007 83 10000 1.03 215.274 00:48 02.09.2019
2653 Clouds 26 1007 83 10000 1.03 215.274 00:30 02.09.2019
2654 Clouds 26 1007 78 10000 2.1 250 23:44 01.09.2019
2655 Clouds 27 1007 78 10000 2.1 270 23:22 01.09.2019
2656 Clouds 27 1007 78 10000 2.1 270 22:58 01.09.2019
2657 Clouds 27 1007 78 10000 1.5 280 22:39 01.09.2019
2658 Clouds 27 1007 78 10000 1.5 280 22:39 01.09.2019
2659 Rain 27 1007 78 10000 2.6 280 22:19 01.09.2019
2660 Rain 27 1007 78 10000 2.6 280 21:57 01.09.2019
2661 Rain 26 1007 83 10000 2.6 270 21:37 01.09.2019
2662 Rain 27 1007 78 10000 3.1 250 21:19 01.09.2019
2663 -273 0 0 0 0 0 20:56 01.09.2019
2664 Clouds 27 1008 83 10000 2.6 240 20:36 01.09.2019
2665 Clouds 27 1008 83 10000 2.6 230 20:18 01.09.2019
2666 -273 0 0 0 0 0 19:55 01.09.2019
2667 Clouds 27 1008 78 10000 2.6 250 19:55 01.09.2019
2668 Clouds 27 1008 78 10000 2.6 250 19:37 01.09.2019
2669 Clouds 27 1008 78 10000 2.6 250 19:18 01.09.2019
2670 Rain 28 1009 74 10000 3.1 250 18:41 01.09.2019
2671 Rain 28 1009 78 10000 3.1 260 18:23 01.09.2019
2672 Rain 28 1009 78 10000 3.1 260 18:23 01.09.2019
2673 Rain 28 1009 78 10000 3.6 250 17:55 01.09.2019
2674 Rain 28 1009 78 10000 3.6 250 17:36 01.09.2019
2675 Clouds 28 1008 78 10000 3.6 250 17:18 01.09.2019
2676 Clouds 28 1008 83 10000 3.6 250 16:39 01.09.2019
2677 Clouds 28 1008 83 10000 3.6 250 16:39 01.09.2019
2678 Clouds 28 1008 83 10000 4.1 240 16:18 01.09.2019
2679 Clouds 28 1007 88 10000 2.6 210 15:46 01.09.2019
2680 Clouds 28 1007 88 10000 2.6 210 15:26 01.09.2019
2681 Rain 28 1007 94 10000 2.1 190 14:56 01.09.2019
2682 Rain 28 1006 94 10000 2.1 190 14:37 01.09.2019
2683 Rain 28 1006 94 10000 3.1 200 14:19 01.09.2019
2684 Rain 28 1006 94 10000 3.1 210 13:42 01.09.2019
2685 Thunderstorm 28 1006 100 10000 3.1 200 13:23 01.09.2019
2686 Thunderstorm 27 1006 100 10000 3.1 200 12:55 01.09.2019
2687 -273 0 0 0 0 0 12:55 01.09.2019
2688 Thunderstorm 28 1005 88 10000 4.6 210 12:36 01.09.2019
2689 Rain 29 1005 94 10000 3.6 170 12:18 01.09.2019
2690 Thunderstorm 29 1005 94 8000 6.2 280 11:39 01.09.2019
2691 Rain 31 1005 62 10000 3.6 210 11:19 01.09.2019
2692 Clouds 31 1005 63 10000 4.1 210 10:46 01.09.2019
2693 Clouds 31 1005 63 10000 4.1 210 10:46 01.09.2019
2694 Clouds 33 1005 63 10000 4.1 210 10:24 01.09.2019
2695 Clouds 32 1005 66 10000 4.6 230 09:59 01.09.2019
2696 Clouds 32 1006 66 10000 4.1 200 09:41 01.09.2019
2697 Clouds 32 1006 66 10000 4.1 200 09:22 01.09.2019
2698 Clouds 32 1007 62 10000 3.6 240 08:43 01.09.2019
2699 Clouds 32 1007 70 10000 4.6 240 08:22 01.09.2019
2700 Rain 32 1008 70 10000 5.7 210 07:46 01.09.2019
2701 Clouds 31 1008 66 10000 4.6 200 07:22 01.09.2019
2702 Rain 31 1009 70 10000 3.1 190 06:39 01.09.2019
2703 Clouds 31 1009 70 10000 4.1 210 05:59 01.09.2019
2704 Clouds 31 1009 70 10000 4.1 210 05:59 01.09.2019
2705 Clouds 30 1009 74 10000 4.1 190 05:27 01.09.2019
2706 Clouds 29 1008 83 10000 4.1 190 04:19 01.09.2019
2707 Clouds 28 1008 83 10000 5.1 190 03:37 01.09.2019
2708 Clouds 27 1008 94 10000 2.6 190 02:40 01.09.2019
2709 Rain 27 1007 88 10000 3.6 180 02:22 01.09.2019
2710 Rain 26 1007 88 10000 2.6 200 01:30 01.09.2019
2711 Rain 26 1007 83 10000 3.1 190 00:59 01.09.2019
2712 Rain 26 1007 88 10000 2.1 180 00:40 01.09.2019
2713 Clouds 27 1006 88 10000 2.1 190 00:20 01.09.2019
2714 Clouds 27 1006 88 10000 2.6 170 23:43 31.08.2019
2715 Clouds 27 1007 88 10000 2.6 170 23:21 31.08.2019
2716 Clouds 27 1007 88 10000 2.6 170 22:55 31.08.2019
2717 Clouds 27 1007 94 10000 1 150 22:37 31.08.2019
2718 Clouds 27 1007 94 10000 2.1 140 22:19 31.08.2019
2719 Clouds 27 1007 94 10000 2.1 150 21:44 31.08.2019
2720 Clouds 27 1007 94 10000 2.1 150 21:23 31.08.2019
2721 Clouds 27 1007 88 10000 1.5 150 20:59 31.08.2019
2722 Clouds 27 1006 94 10000 1 140 20:41 31.08.2019
2723 Clouds 27 1007 94 10000 1.5 130 20:23 31.08.2019
2724 Clouds 27 1007 94 10000 2.1 130 19:43 31.08.2019
2725 Clouds 27 1007 94 10000 2.1 120 19:22 31.08.2019
2726 Clouds 27 1007 94 10000 2.62 218.636 18:56 31.08.2019
2727 Clouds 27 1007 94 10000 2.62 218.636 18:37 31.08.2019
2728 Clouds 27 1007 94 10000 2.62 218.636 18:37 31.08.2019
2729 Clouds 28 1007 94 10000 2.1 160 18:19 31.08.2019
2730 Rain 27 1007 88 9000 3.1 190 17:55 31.08.2019
2731 Rain 28 1007 88 9000 3.1 190 17:36 31.08.2019
2732 Rain 27 1006 88 9000 3.6 190 17:18 31.08.2019
2733 Rain 27 1006 88 9000 3.6 190 16:54 31.08.2019
2734 Rain 27 1006 83 9000 4.1 190 16:36 31.08.2019
2735 Rain 28 1005 83 10000 4.6 190 16:18 31.08.2019
2736 Clouds 28 1004 83 10000 4.1 190 15:41 31.08.2019
2737 Clouds 29 1004 83 10000 4.6 180 15:18 31.08.2019
2738 Clouds 29 1004 83 10000 4.6 190 14:42 31.08.2019
2739 Clouds 29 1004 83 10000 4.6 190 14:24 31.08.2019
2740 Clouds 29 1003 79 10000 3.1 170 13:59 31.08.2019
2741 Clouds 29 1003 79 10000 3.6 180 13:38 31.08.2019
2742 Clouds 29 1003 79 10000 3.6 210 13:19 31.08.2019
2743 Clouds 29 1003 79 10000 3.6 210 12:54 31.08.2019
2744 Clouds 29 1003 79 10000 3.6 210 12:36 31.08.2019
2745 Clouds 30 1003 79 10000 3.1 200 12:18 31.08.2019
2746 Clouds 30 1003 79 10000 4.1 210 11:42 31.08.2019
2747 Clouds 29 1003 79 10000 4.1 210 11:24 31.08.2019
2748 Clouds 29 1003 70 10000 3.6 240 10:55 31.08.2019
2749 Clouds 30 1003 66 10000 5.1 250 10:36 31.08.2019
2750 Clouds 30 1003 70 10000 5.7 240 10:18 31.08.2019
2751 Clouds 30 1004 70 10000 6.7 230 09:40 31.08.2019
2752 Clouds 30 1004 74 10000 5.7 240 09:22 31.08.2019
2753 Clouds 30 1004 74 10000 5.7 240 08:57 31.08.2019
2754 Rain 30 1004 74 10000 6.2 220 08:38 31.08.2019
2755 Rain 30 1005 74 9000 7.2 210 08:20 31.08.2019
2756 Rain 29 1005 74 8000 6.7 250 07:38 31.08.2019
2757 Clouds 30 1006 62 10000 6.7 230 07:18 31.08.2019
2758 Clouds 32 1005 70 10000 5.1 200 06:27 31.08.2019
2759 Clouds 31 1005 74 10000 4.1 200 05:54 31.08.2019
2760 Clouds 31 1005 74 10000 4.1 200 05:28 31.08.2019
2761 Clouds 29 1005 74 10000 4.1 200 04:29 31.08.2019
2762 Clouds 28 1004 83 10000 3.1 200 03:42 31.08.2019
2763 Clouds 27 1003 88 10000 1.5 180 02:22 31.08.2019
2764 Clouds 27 1002 88 10000 1 160 01:47 31.08.2019
2765 Clouds 27 1002 88 10000 1 160 01:29 31.08.2019
2766 Clouds 27 1002 88 10000 5.23 184.229 00:46 31.08.2019
2767 Clouds 27 1002 88 10000 5.23 184.229 00:27 31.08.2019
2768 Clouds 27 1002 88 10000 5.23 184.229 00:27 31.08.2019
2769 Clouds 27 1002 88 10000 1.5 240 23:50 30.08.2019
2770 Clouds 27 1002 83 10000 4.6 240 23:19 30.08.2019
2771 Clouds 27 1002 83 10000 4.6 240 22:58 30.08.2019
2772 Rain 27 1002 74 10000 4.6 250 22:38 30.08.2019
2773 Rain 27 1002 74 10000 4.1 240 22:20 30.08.2019
2774 Clouds 28 1002 78 10000 3.6 250 21:57 30.08.2019
2775 Clouds 28 1002 78 10000 3.6 250 21:36 30.08.2019
2776 Clouds 27 1002 78 10000 3.6 250 21:18 30.08.2019
2777 Clouds 27 1002 78 10000 3.6 250 21:18 30.08.2019
2778 Clouds 28 1003 78 10000 3.6 250 20:56 30.08.2019
2779 Clouds 28 1003 78 10000 3.6 250 20:37 30.08.2019
2780 Clouds 28 1003 78 10000 3.1 240 20:18 30.08.2019
2781 Clouds 28 1003 78 10000 3.1 210 19:41 30.08.2019
2782 Clouds 28 1003 78 10000 3.1 210 19:22 30.08.2019
2783 Clouds 28 1003 83 10000 3.6 210 18:59 30.08.2019
2784 Clouds 28 1003 83 10000 3.6 210 18:41 30.08.2019
2785 Clouds 28 1003 83 10000 3.6 210 18:23 30.08.2019
2786 Rain 28 1003 88 10000 3.18 208.748 17:56 30.08.2019
2787 Rain 28 1003 88 10000 3.18 208.748 17:38 30.08.2019
2788 Rain 28 1003 88 8000 3.18 208.748 17:19 30.08.2019
2789 Rain 28 1003 94 8000 3.18 208.748 16:48 30.08.2019
2790 Rain 27 1003 94 8000 3.18 208.748 16:29 30.08.2019
2791 Rain 28 1002 88 8000 3.18 208.748 15:58 30.08.2019
2792 Rain 28 1002 83 10000 2.1 200 15:38 30.08.2019
2793 Clouds 28 1001 83 10000 2.6 200 15:19 30.08.2019
2794 Clouds 28 1001 83 10000 3.1 190 14:43 30.08.2019
2795 -273 0 0 0 0 0 14:25 30.08.2019
2796 Clouds 28 1001 83 10000 3.1 200 13:56 30.08.2019
2797 Clouds 28 1001 83 10000 3.1 200 13:56 30.08.2019
2798 Clouds 28 1001 83 10000 3.1 200 13:56 30.08.2019
2799 Clouds 28 1000 83 10000 3.1 180 13:36 30.08.2019
2800 Clouds 28 1000 83 10000 3.1 200 13:18 30.08.2019
2801 Clouds 28 1000 83 10000 3.6 200 12:42 30.08.2019
2802 Rain 28 1000 83 10000 4.6 230 12:22 30.08.2019
2803 Rain 28 1000 83 8000 4.6 220 11:43 30.08.2019
2804 Rain 28 1001 83 8000 6.2 240 11:25 30.08.2019
2805 Rain 28 1001 83 8000 6.2 240 10:59 30.08.2019
2806 Rain 28 1001 83 8000 4.6 240 10:37 30.08.2019
2807 Rain 28 1001 83 8000 4.6 230 10:18 30.08.2019
2808 Rain 28 1001 83 8000 4.6 230 09:42 30.08.2019
2809 Rain 28 1001 83 8000 4.6 230 09:20 30.08.2019
2810 Rain 28 1001 83 8000 4.6 230 08:58 30.08.2019
2811 Rain 28 1002 83 8000 4.6 240 08:39 30.08.2019
2812 Rain 28 1002 83 8000 4.1 230 08:21 30.08.2019
2813 Rain 28 1003 83 8000 3.6 240 07:43 30.08.2019
2814 Rain 28 1003 78 8000 3.1 230 07:23 30.08.2019
2815 Rain 27 1003 88 8000 3.6 210 06:47 30.08.2019
2816 Rain 27 1003 88 8000 3.6 210 06:29 30.08.2019
2817 Rain 27 1003 83 10000 3.6 220 05:54 30.08.2019
2818 Rain 27 1003 83 10000 3.6 220 05:54 30.08.2019
2819 Clouds 27 1003 78 8000 5.7 240 04:20 30.08.2019
2820 Clouds 27 1003 78 8000 5.7 240 04:20 30.08.2019
2821 Clouds 27 1002 74 10000 5.1 230 03:38 30.08.2019
2822 Clouds 27 1002 74 10000 5.1 230 03:38 30.08.2019
2823 Clouds 27 1002 78 10000 4.6 230 03:18 30.08.2019
2824 Clouds 27 1002 83 10000 4.6 230 02:29 30.08.2019
2825 Rain 27 1002 83 9000 3.6 250 01:30 30.08.2019
2826 Rain 27 1002 78 10000 4.6 240 00:45 30.08.2019
2827 Clouds 27 1002 78 10000 4.1 250 00:18 30.08.2019
2828 Clouds 27 1002 78 10000 4.6 240 23:41 29.08.2019
2829 Clouds 27 1002 78 10000 4.6 240 23:21 29.08.2019
2830 Clouds 27 1002 78 10000 4.1 250 22:44 29.08.2019
2831 Clouds 27 1002 78 10000 4.1 250 22:26 29.08.2019
2832 Clouds 28 1002 74 10000 4.1 250 21:57 29.08.2019
2833 Clouds 28 1003 74 10000 4.6 260 21:39 29.08.2019
2834 Clouds 28 1003 74 10000 3.6 250 21:21 29.08.2019
2835 Clouds 28 1003 74 10000 3.6 250 21:21 29.08.2019
2836 Clouds 28 1003 74 10000 3.6 250 20:54 29.08.2019
2837 Clouds 28 1003 74 10000 4.1 250 20:36 29.08.2019
2838 Clouds 28 1003 74 10000 4.1 250 20:18 29.08.2019
2839 Clouds 28 1004 74 10000 4.6 250 19:46 29.08.2019
2840 Clouds 29 1004 74 10000 4.6 250 19:25 29.08.2019
2841 Clouds 29 1005 74 10000 3.6 250 18:45 29.08.2019
2842 Clouds 29 1005 74 10000 3.6 250 18:21 29.08.2019
2843 Clouds 29 1005 70 10000 3.6 250 17:58 29.08.2019
2844 Clouds 29 1005 70 10000 4.1 250 17:39 29.08.2019
2845 Clouds 29 1005 74 10000 4.6 240 17:20 29.08.2019
2846 Clouds 29 1005 74 10000 4.6 240 16:59 29.08.2019
2847 Clouds 29 1004 74 10000 4.1 250 16:40 29.08.2019
2848 Clouds 29 1004 74 10000 4.1 250 16:22 29.08.2019
2849 Clouds 29 1004 74 10000 4.1 250 16:22 29.08.2019
2850 Clouds 28 1003 70 10000 5.7 240 15:40 29.08.2019
2851 Rain 29 1003 70 10000 5.7 250 15:21 29.08.2019
2852 Rain 29 1003 70 10000 5.7 250 14:57 29.08.2019
2853 Clouds 30 1003 70 10000 6.2 240 14:37 29.08.2019
2854 Rain 30 1002 59 10000 4.6 260 14:19 29.08.2019
2855 Rain 29 1002 59 10000 4.6 260 13:55 29.08.2019
2856 Clouds 29 1002 59 10000 4.6 260 13:37 29.08.2019
2857 Clouds 29 1002 59 10000 5.1 260 13:18 29.08.2019
2858 Clouds 29 1002 59 10000 5.1 260 12:55 29.08.2019
2859 Clouds 29 1002 62 10000 4.1 260 12:36 29.08.2019
2860 Clouds 32 1002 62 10000 5.7 260 12:18 29.08.2019
2861 Clouds 32 1002 59 10000 5.7 280 11:41 29.08.2019
2862 Rain 32 1002 59 10000 4.6 290 11:20 29.08.2019
2863 Rain 32 1002 59 10000 4.6 290 10:57 29.08.2019
2864 Clouds 32 1003 62 10000 4.6 310 10:38 29.08.2019
2865 Clouds 33 1003 62 10000 4.1 320 10:19 29.08.2019
2866 Clouds 32 1004 59 10000 5.1 310 09:41 29.08.2019
2867 Clouds 32 1004 62 10000 5.1 290 09:19 29.08.2019
2868 Clouds 32 1005 66 10000 5.7 310 08:45 29.08.2019
2869 Clouds 32 1005 66 10000 5.7 310 08:25 29.08.2019
2870 Clouds 32 1005 62 10000 5.1 310 07:54 29.08.2019
2871 Clouds 32 1006 62 10000 5.7 290 07:34 29.08.2019
2872 Clouds 31 1006 66 10000 4.6 290 06:59 29.08.2019
2873 Clouds 31 1006 70 10000 5.1 280 06:38 29.08.2019
2874 Clouds 30 1006 74 10000 5.7 280 05:52 29.08.2019
2875 Clouds 30 1006 74 10000 5.7 280 05:29 29.08.2019
2876 Clouds 29 1007 78 10000 4.6 260 04:48 29.08.2019
2877 Clouds 29 1007 78 10000 4.6 260 04:28 29.08.2019
2878 Clouds 27 1006 78 10000 3.6 270 01:55 29.08.2019
2879 Clouds 27 1005 78 10000 4.1 260 01:35 29.08.2019
2880 Clouds 27 1005 78 10000 4.1 250 00:47 29.08.2019
2881 Clouds 27 1005 78 10000 4.1 250 00:24 29.08.2019
2882 Clouds 27 1005 78 10000 4.1 250 23:59 28.08.2019
2883 Clouds 27 1005 78 10000 3.1 250 23:39 28.08.2019
2884 Clouds 27 1005 78 10000 3.1 260 23:21 28.08.2019
2885 Clouds 27 1005 78 10000 3.1 260 22:56 28.08.2019
2886 Clouds 27 1006 83 10000 3.1 260 22:38 28.08.2019
2887 Clouds 27 1006 83 10000 3.6 270 22:18 28.08.2019
2888 Clouds 27 1006 83 10000 3.1 260 21:41 28.08.2019
2889 Clouds 27 1006 83 10000 3.1 260 21:23 28.08.2019
2890 Clouds 27 1006 83 10000 4.1 260 20:57 28.08.2019
2891 Clouds 27 1006 83 10000 3.6 250 20:38 28.08.2019
2892 Clouds 27 1006 83 10000 4.6 260 20:20 28.08.2019
2893 Rain 27 1007 88 10000 5.7 260 19:42 28.08.2019
2894 Thunderstorm 27 1007 94 10000 4.6 260 19:22 28.08.2019
2895 Rain 27 1008 78 10000 4.6 260 18:58 28.08.2019
2896 Rain 28 1008 78 10000 4.6 260 18:37 28.08.2019
2897 Clouds 28 1008 78 10000 6.2 240 18:19 28.08.2019
2898 Clouds 28 1008 78 10000 6.7 250 17:38 28.08.2019
2899 Clouds 28 1008 83 10000 7.2 230 17:19 28.08.2019
2900 Clouds 28 1007 78 10000 5.7 230 16:45 28.08.2019
2901 Clouds 28 1007 78 10000 5.7 230 16:23 28.08.2019
2902 Clouds 28 1006 78 10000 6.2 220 16:23 28.08.2019
2903 Clouds 29 1006 78 10000 6.2 220 15:59 28.08.2019
2904 Clouds 29 1006 78 10000 4.1 210 15:38 28.08.2019
2905 Clouds 29 1005 78 10000 4.6 210 15:20 28.08.2019
2906 Clouds 29 1005 78 10000 4.6 210 14:57 28.08.2019
2907 Clouds 29 1005 78 10000 5.1 210 14:38 28.08.2019
2908 Clouds 29 1004 74 10000 6.2 210 14:20 28.08.2019
2909 Clouds 30 1004 74 10000 6.2 210 13:58 28.08.2019
2910 Clouds 30 1004 66 10000 7.2 210 13:38 28.08.2019
2911 Clouds 31 1004 62 10000 6.2 180 13:19 28.08.2019
2912 Clouds 32 1003 52 10000 4.6 250 12:42 28.08.2019
2913 Clouds 33 1003 52 10000 3.6 260 12:23 28.08.2019
2914 Clouds 33 1003 52 10000 3.6 260 11:56 28.08.2019
2915 Clouds 33 1003 52 10000 3.6 260 11:56 28.08.2019
2916 Clouds 33 1003 52 10000 3.1 320 11:37 28.08.2019
2917 Clouds 33 1004 55 10000 4.6 250 11:18 28.08.2019
2918 Clouds 33 1004 55 10000 5.1 270 10:41 28.08.2019
2919 Clouds 34 1005 52 10000 5.1 300 10:22 28.08.2019
2920 Clouds 34 1005 52 10000 5.1 300 09:59 28.08.2019
2921 Clouds 34 1005 55 10000 4.6 280 09:41 28.08.2019
2922 Clouds 33 1006 55 10000 5.1 280 09:19 28.08.2019
2923 Clouds 33 1006 59 10000 4.6 240 08:39 28.08.2019
2924 Clouds 33 1007 55 10000 5.7 260 08:20 28.08.2019
2925 Clouds 33 1007 59 10000 5.1 250 07:45 28.08.2019
2926 Clouds 33 1007 59 10000 5.1 250 07:25 28.08.2019
2927 Clouds 33 1007 59 10000 4.6 250 06:56 28.08.2019
2928 Clouds 33 1008 59 10000 4.6 260 06:37 28.08.2019
2929 Clouds 31 1008 62 10000 4.6 260 05:44 28.08.2019
2930 Clouds 29 1008 74 10000 2.1 250 03:32 28.08.2019
2931 Clouds 27 1007 78 10000 2.6 210 01:37 28.08.2019
2932 Clouds 27 1007 83 10000 2.6 210 01:18 28.08.2019
2933 Clouds 27 1007 74 10000 3.1 230 00:41 28.08.2019
2934 Clouds 27 1007 78 10000 2.6 210 23:59 27.08.2019
2935 Clouds 27 1006 74 10000 3.1 230 23:40 27.08.2019
2936 Clouds 27 1006 74 10000 3.1 230 23:40 27.08.2019
2937 Clouds 27 1006 69 10000 3.6 240 23:21 27.08.2019
2938 Clouds 27 1006 69 10000 3.6 240 22:54 27.08.2019
2939 Clouds 27 1007 74 10000 3.6 230 22:36 27.08.2019
2940 Clouds 27 1007 69 10000 4.1 230 22:18 27.08.2019
2941 Clouds 27 1007 69 10000 4.1 230 21:54 27.08.2019
2942 Clouds 27 1007 74 10000 4.1 240 21:36 27.08.2019
2943 Clouds 27 1007 69 10000 3.6 230 21:18 27.08.2019
2944 Clouds 28 1007 69 10000 4.1 230 20:41 27.08.2019
2945 Clouds 28 1008 69 10000 5.1 230 20:21 27.08.2019
2946 Clouds 28 1008 69 10000 5.1 230 19:57 27.08.2019
2947 Clouds 28 1008 69 10000 4.6 240 19:39 27.08.2019
2948 Clouds 29 1008 69 10000 3.6 240 19:20 27.08.2019
2949 Clouds 29 1008 66 10000 4.1 240 18:42 27.08.2019
2950 Clouds 29 1008 66 10000 5.1 250 18:19 27.08.2019
2951 Clouds 29 1007 66 10000 5.1 250 17:56 27.08.2019
2952 Clouds 29 1007 66 10000 5.1 250 17:38 27.08.2019
2953 Clouds 29 1007 66 10000 5.1 250 17:19 27.08.2019
2954 Clouds 29 1006 66 10000 4.6 260 16:47 27.08.2019
2955 Clouds 29 1006 66 10000 4.6 260 16:28 27.08.2019
2956 Clouds 29 1006 66 10000 4.6 270 15:57 27.08.2019
2957 Clouds 30 1005 62 10000 4.1 280 15:39 27.08.2019
2958 Clouds 30 1005 66 10000 4.6 270 15:20 27.08.2019
2959 Clouds 30 1005 66 10000 5.1 250 14:43 27.08.2019
2960 Clouds 30 1005 66 10000 5.1 250 14:24 27.08.2019
2961 Clouds 30 1004 62 10000 5.1 240 13:59 27.08.2019
2962 Clouds 31 1004 62 10000 5.1 260 13:41 27.08.2019
2963 Clouds 31 1004 58 10000 5.7 270 13:20 27.08.2019
2964 Rain 30 1004 62 10000 6.7 280 12:42 27.08.2019
2965 Rain 29 1004 59 10000 6.7 280 12:20 27.08.2019
2966 Clouds 30 1004 59 10000 7.7 270 11:57 27.08.2019
2967 Clouds 30 1004 59 10000 7.7 270 11:37 27.08.2019
2968 Clouds 31 1004 59 10000 7.7 260 11:18 27.08.2019
2969 Clouds 31 1004 59 10000 7.7 260 11:18 27.08.2019
2970 Clouds 31 1004 59 10000 6.7 270 10:41 27.08.2019
2971 Rain 31 1005 62 10000 6.2 270 10:19 27.08.2019
2972 Rain 31 1005 62 10000 6.2 270 10:19 27.08.2019
2973 Rain 30 1005 62 10000 6.2 270 09:55 27.08.2019
2974 Clouds 30 1006 62 10000 5.1 290 09:37 27.08.2019
2975 Rain 29 1006 62 10000 6.2 280 09:18 27.08.2019
2976 Clouds 29 1007 62 10000 6.2 250 08:44 27.08.2019
2977 Clouds 29 1007 62 10000 6.7 260 08:24 27.08.2019
2978 Clouds 30 1008 62 10000 6.2 270 07:43 27.08.2019
2979 Clouds 30 1008 66 10000 4.6 240 07:20 27.08.2019
2980 Clouds 30 1008 66 10000 4.6 240 06:59 27.08.2019
2981 Clouds 29 1008 70 10000 2.6 250 06:40 27.08.2019
2982 Clouds 29 1008 70 10000 3.1 260 06:19 27.08.2019
2983 Rain 29 1008 70 10000 4.6 250 05:24 27.08.2019
2984 Clouds 28 1008 78 10000 2.1 210 03:43 27.08.2019
2985 Clouds 27 1007 83 10000 2.1 200 02:28 27.08.2019
2986 Clouds 26 1007 88 10000 2.1 210 01:45 27.08.2019
2987 Clouds 26 1006 83 10000 3.6 230 01:24 27.08.2019
2988 Clouds 26 1006 83 10000 3.6 240 00:48 27.08.2019
2989 Clouds 26 1006 83 10000 3.6 240 00:26 27.08.2019
2990 Clouds 26 1006 83 10000 3.1 220 23:40 26.08.2019
2991 Clouds 26 1006 88 10000 3.6 230 23:21 26.08.2019
2992 Clouds 26 1006 88 10000 3.6 230 22:57 26.08.2019
2993 Clouds 26 1006 83 10000 3.1 250 22:36 26.08.2019
2994 Clouds 26 1006 83 10000 3.1 250 22:18 26.08.2019
2995 Clouds 26 1007 88 10000 4.1 250 21:39 26.08.2019
2996 Clouds 26 1007 88 10000 4.1 250 21:20 26.08.2019
2997 Clouds 26 1007 88 10000 5.1 230 20:57 26.08.2019
2998 Clouds 26 1007 88 10000 4.6 230 20:39 26.08.2019
2999 Clouds 26 1007 88 10000 4.6 230 20:19 26.08.2019
3000 Clouds 26 1007 88 10000 3.1 230 19:54 26.08.2019
3001 Clouds 25 1007 88 10000 3.6 230 19:36 26.08.2019
3002 Clouds 26 1008 88 10000 2.6 250 19:18 26.08.2019
3003 Clouds 25 1008 88 10000 2.6 220 18:39 26.08.2019
3004 Clouds 26 1008 88 10000 2.6 220 18:20 26.08.2019
3005 Clouds 26 1008 83 10000 3.6 260 17:56 26.08.2019
3006 Clouds 26 1008 83 10000 3.1 250 17:37 26.08.2019
3007 Clouds 26 1008 83 10000 3.1 250 17:18 26.08.2019
3008 Clouds 26 1008 88 10000 3.1 270 16:55 26.08.2019
3009 Clouds 26 1007 88 10000 4.1 260 16:37 26.08.2019
3010 Clouds 26 1007 88 10000 4.1 260 16:18 26.08.2019
3011 Rain 27 1007 88 10000 4.1 260 15:41 26.08.2019
3012 Rain 27 1007 88 10000 4.1 260 15:21 26.08.2019
3013 Rain 27 1006 88 9000 4.1 240 14:46 26.08.2019
3014 Rain 27 1006 88 9000 4.1 240 14:23 26.08.2019
3015 Rain 26 1006 94 8000 5.1 230 13:59 26.08.2019
3016 Rain 26 1006 100 5000 4.6 210 13:38 26.08.2019
3017 Rain 26 1006 100 5000 4.6 210 13:19 26.08.2019
3018 Rain 26 1006 83 3000 4.6 190 12:43 26.08.2019
3019 Rain 26 1006 83 3000 4.6 190 12:43 26.08.2019
3020 Rain 28 1006 83 3000 4.6 190 12:24 26.08.2019
3021 Rain 29 1005 79 10000 3.6 180 11:56 26.08.2019
3022 Rain 30 1005 74 10000 5.7 200 11:36 26.08.2019
3023 Rain 30 1005 70 10000 5.1 230 11:18 26.08.2019
3024 Rain 30 1005 66 10000 6.2 270 10:42 26.08.2019
3025 Clouds 31 1006 62 10000 6.7 260 10:21 26.08.2019
3026 Clouds 31 1006 62 10000 6.7 260 09:57 26.08.2019
3027 Clouds 31 1006 62 10000 6.7 260 09:57 26.08.2019
3028 Clouds 31 1006 62 10000 6.7 250 09:37 26.08.2019
3029 Clouds 31 1006 62 10000 6.7 250 09:19 26.08.2019
3030 Clouds 31 1006 62 10000 6.7 270 08:42 26.08.2019
3031 Clouds 31 1006 62 10000 6.7 270 08:22 26.08.2019
3032 Clouds 31 1007 62 10000 6.2 230 07:59 26.08.2019
3033 Clouds 31 1008 66 10000 5.7 260 07:40 26.08.2019
3034 Clouds 31 1008 66 10000 5.7 260 07:21 26.08.2019
3035 Clouds 30 1008 74 10000 5.7 230 06:41 26.08.2019
3036 Clouds 29 1008 74 10000 5.7 230 06:21 26.08.2019
3037 Clouds 29 1009 74 10000 6.2 230 05:48 26.08.2019
3038 Clouds 28 1009 78 10000 5.7 240 04:25 26.08.2019
3039 Rain 26 1009 88 10000 5.1 230 02:53 26.08.2019
3040 Rain 26 1008 94 9000 2.6 210 01:27 26.08.2019
3041 Rain 25 1008 88 8000 4.1 230 00:48 26.08.2019
3042 Rain 25 1008 88 8000 4.1 230 00:28 26.08.2019
3043 Rain 25 1008 88 8000 5.1 230 23:59 25.08.2019
3044 Rain 26 1008 94 8000 3.6 210 23:40 25.08.2019
3045 Rain 26 1008 94 8000 3.6 210 23:18 25.08.2019
3046 Rain 26 1008 94 8000 2.6 200 22:55 25.08.2019
3047 Rain 25 1008 100 9000 2.6 210 22:36 25.08.2019
3048 Rain 25 1008 100 9000 2.6 210 22:18 25.08.2019
3049 Rain 25 1008 100 9000 2.6 210 22:18 25.08.2019
3050 Rain 26 1008 94 9000 2.1 200 21:54 25.08.2019
3051 Rain 25 1008 100 9000 2.1 180 21:36 25.08.2019
3052 Rain 26 1008 100 9000 2.1 180 21:18 25.08.2019
3053 Rain 26 1008 100 9000 3.1 210 20:39 25.08.2019
3054 Rain 26 1008 100 9000 3.1 210 20:19 25.08.2019
3055 Rain 26 1009 88 9000 4.1 230 19:55 25.08.2019
3056 Rain 26 1009 88 9000 4.1 230 19:37 25.08.2019
3057 Rain 26 1009 88 9000 4.1 230 19:18 25.08.2019
3058 -273 0 0 0 0 0 18:55 25.08.2019
3059 Rain 27 1009 78 10000 4.1 230 18:55 25.08.2019
3060 Rain 27 1009 78 10000 4.1 230 18:37 25.08.2019
3061 Rain 27 1009 74 10000 5.1 230 18:18 25.08.2019
3062 Rain 27 1008 78 10000 4.1 220 17:40 25.08.2019
3063 Rain 27 1008 78 10000 4.1 220 17:21 25.08.2019
3064 Rain 28 1008 79 10000 3.1 250 16:43 25.08.2019
3065 Rain 28 1008 79 10000 3.1 250 16:23 25.08.2019
3066 Rain 28 1007 83 10000 3.1 200 15:58 25.08.2019
3067 Rain 27 1006 88 10000 1.5 180 15:39 25.08.2019
3068 Rain 27 1006 88 10000 1.5 180 15:21 25.08.2019
3069 Rain 28 1006 88 9000 2.1 300 14:41 25.08.2019
3070 Rain 28 1006 88 9000 2.1 300 14:23 25.08.2019
3071 Rain 28 1005 94 3000 7.7 290 13:46 25.08.2019
3072 Rain 28 1005 94 3000 7.7 290 13:22 25.08.2019
3073 Clouds 30 1004 70 10000 4.1 200 12:57 25.08.2019
3074 Clouds 31 1004 66 10000 6.2 210 12:39 25.08.2019
3075 Clouds 32 1004 66 10000 6.2 210 12:20 25.08.2019
3076 Clouds 32 1003 66 10000 4.6 200 11:57 25.08.2019
3077 Clouds 32 1004 66 10000 4.1 200 11:37 25.08.2019
3078 Clouds 32 1004 66 10000 4.1 200 11:18 25.08.2019
3079 Clouds 32 1005 66 10000 7.2 210 10:41 25.08.2019
3080 Clouds 32 1005 66 10000 7.2 210 10:21 25.08.2019
3081 Clouds 32 1005 66 10000 7.2 210 10:21 25.08.2019
3082 Clouds 33 1005 59 10000 5.1 240 09:59 25.08.2019
3083 Clouds 33 1005 59 10000 5.7 250 09:41 25.08.2019
3084 Clouds 32 1005 59 10000 5.7 250 09:22 25.08.2019
3085 Clouds 33 1006 59 10000 5.7 250 08:44 25.08.2019
3086 Clouds 33 1006 59 10000 5.7 250 08:22 25.08.2019
3087 Clouds 33 1007 59 10000 5.1 260 07:46 25.08.2019
3088 Clouds 33 1007 59 10000 5.1 260 07:23 25.08.2019
3089 Clouds 31 1008 66 10000 4.1 270 06:31 25.08.2019
3090 Clouds 30 1009 66 10000 3.1 200 04:58 25.08.2019
3091 Clouds 29 1008 79 10000 2.6 200 03:43 25.08.2019
3092 Clouds 28 1007 83 10000 2.6 220 02:41 25.08.2019
3093 Clouds 27 1007 83 10000 2.1 240 01:42 25.08.2019
3094 Clouds 27 1007 83 10000 2.1 230 00:41 25.08.2019
3095 Clouds 27 1007 83 10000 2.1 230 00:21 25.08.2019
3096 Clouds 27 1006 78 10000 2.6 250 23:53 24.08.2019
3097 Clouds 27 1006 83 10000 2.6 250 23:23 24.08.2019
3098 Clouds 27 1006 83 10000 2.6 250 22:57 24.08.2019
3099 Clouds 27 1006 83 10000 2.6 240 22:39 24.08.2019
3100 Clouds 27 1006 83 10000 2.6 240 22:19 24.08.2019
3101 Clouds 27 1007 83 10000 3.1 230 21:56 24.08.2019
3102 Clouds 27 1007 83 10000 3.1 250 21:38 24.08.2019
3103 Clouds 27 1007 83 10000 3.1 250 21:19 24.08.2019
3104 Rain 27 1007 83 10000 2.6 260 20:55 24.08.2019
3105 Clouds 28 1008 78 10000 3.1 260 20:37 24.08.2019
3106 Clouds 28 1008 78 10000 3.1 260 20:18 24.08.2019
3107 Clouds 28 1008 78 10000 3.1 260 20:18 24.08.2019
3108 Clouds 28 1008 83 10000 3.1 240 19:55 24.08.2019
3109 Clouds 28 1008 83 10000 3.6 260 19:37 24.08.2019
3110 Clouds 28 1008 83 10000 3.6 260 19:37 24.08.2019
3111 Clouds 28 1008 83 10000 3.1 250 19:18 24.08.2019
3112 Clouds 28 1008 83 10000 4.1 250 18:41 24.08.2019
3113 Clouds 28 1008 83 10000 4.1 250 18:21 24.08.2019
3114 Clouds 28 1008 88 10000 2.6 210 17:45 24.08.2019
3115 Clouds 27 1008 88 10000 2.6 210 17:25 24.08.2019
3116 Clouds 28 1008 88 10000 3.1 200 16:51 24.08.2019
3117 Clouds 28 1008 88 10000 3.1 200 16:51 24.08.2019
3118 Clouds 28 1007 88 10000 3.1 200 16:21 24.08.2019
3119 Clouds 28 1007 88 10000 3.6 210 15:59 24.08.2019
3120 Clouds 28 1007 88 10000 3.1 210 15:41 24.08.2019
3121 Clouds 28 1007 88 10000 3.1 210 15:41 24.08.2019
3122 Clouds 29 1007 88 10000 3.1 210 15:23 24.08.2019
3123 Rain 28 1006 88 10000 3.1 210 14:44 24.08.2019
3124 Rain 28 1006 88 10000 3.1 210 14:23 24.08.2019
3125 Rain 28 1006 94 10000 1.5 200 13:59 24.08.2019
3126 Rain 28 1006 88 9000 3.6 200 13:40 24.08.2019
3127 Rain 28 1006 88 9000 3.6 200 13:21 24.08.2019
3128 Rain 28 1005 88 7000 6.7 240 12:58 24.08.2019
3129 Rain 29 1005 70 5000 7.7 270 12:39 24.08.2019
3130 Rain 30 1005 70 5000 7.7 270 12:20 24.08.2019
3131 Rain 32 1005 62 10000 4.6 270 11:45 24.08.2019
3132 Rain 32 1005 62 10000 4.6 270 11:22 24.08.2019
3133 Clouds 32 1005 62 10000 4.6 280 10:52 24.08.2019
3134 Clouds 32 1005 62 10000 5.7 280 10:24 24.08.2019
3135 Clouds 33 1006 62 10000 5.1 280 09:45 24.08.2019
3136 Clouds 33 1006 62 10000 5.1 280 09:22 24.08.2019
3137 Clouds 32 1007 62 10000 5.1 290 08:58 24.08.2019
3138 Clouds 32 1007 62 10000 4.6 260 08:40 24.08.2019
3139 Clouds 32 1007 62 10000 4.6 260 08:21 24.08.2019
3140 Clouds 32 1008 62 10000 5.1 270 07:49 24.08.2019
3141 Clouds 32 1008 62 10000 5.1 270 07:27 24.08.2019
3142 Clouds 31 1009 66 10000 5.1 250 06:29 24.08.2019
3143 Clouds 31 1009 66 10000 3.6 250 05:42 24.08.2019
3144 Clouds 30 1009 66 10000 4.1 230 04:51 24.08.2019
3145 Clouds 29 1009 74 10000 2.6 200 03:37 24.08.2019
3146 Clouds 28 1008 74 10000 3.1 230 02:27 24.08.2019
3147 Clouds 27 1008 74 10000 3.1 250 01:31 24.08.2019
3148 Clouds 27 1008 74 10000 3.1 250 00:54 24.08.2019
3149 Clouds 27 1008 74 10000 3.1 250 00:26 24.08.2019
3150 Clouds 27 1008 78 10000 3.6 230 23:59 23.08.2019
3151 Clouds 27 1008 74 10000 3.6 230 23:39 23.08.2019
3152 Clouds 27 1008 74 10000 3.6 230 23:19 23.08.2019
3153 Clouds 28 1008 78 10000 3.6 230 22:42 23.08.2019
3154 Clouds 28 1008 78 10000 3.6 230 22:24 23.08.2019
3155 Clouds 28 1009 74 10000 3.1 250 21:40 23.08.2019
3156 Clouds 28 1009 74 10000 3.1 250 21:21 23.08.2019
3157 Clouds 28 1009 74 10000 3.6 250 20:59 23.08.2019
3158 Clouds 28 1009 78 10000 2.6 220 20:40 23.08.2019
3159 Clouds 28 1009 78 10000 2.6 220 20:21 23.08.2019
3160 Rain 29 1010 74 10000 3.6 260 19:44 23.08.2019
3161 Rain 29 1010 74 10000 3.6 260 19:19 23.08.2019
3162 Clouds 29 1010 70 10000 3.1 260 18:48 23.08.2019
3163 Clouds 29 1010 70 10000 3.1 260 18:30 23.08.2019
3164 Clouds 29 1010 70 10000 3.6 250 17:56 23.08.2019
3165 Clouds 29 1010 74 10000 4.1 240 17:38 23.08.2019
3166 Clouds 29 1010 74 10000 4.1 240 17:20 23.08.2019
3167 Clouds 29 1009 83 10000 2.1 210 16:47 23.08.2019
3168 Clouds 29 1009 83 10000 2.1 210 16:29 23.08.2019
3169 Clouds 29 1009 79 10000 2.6 200 15:56 23.08.2019
3170 Clouds 29 1008 79 10000 3.6 190 15:37 23.08.2019
3171 Clouds 29 1008 79 10000 3.6 190 15:19 23.08.2019
3172 Clouds 30 1008 74 10000 3.6 190 14:41 23.08.2019
3173 Clouds 30 1008 74 10000 3.6 190 14:21 23.08.2019
3174 Clouds 30 1008 74 10000 3.6 190 14:21 23.08.2019
3175 Clouds 30 1007 74 10000 3.1 180 13:57 23.08.2019
3176 Clouds 30 1006 70 10000 3.1 200 13:39 23.08.2019
3177 Clouds 30 1006 70 10000 3.1 200 13:21 23.08.2019
3178 Clouds 31 1006 70 10000 3.6 210 12:57 23.08.2019
3179 Clouds 31 1006 70 10000 3.6 220 12:39 23.08.2019
3180 Clouds 31 1006 70 10000 3.6 220 12:20 23.08.2019
3181 Clouds 31 1006 70 10000 4.1 220 11:56 23.08.2019
3182 Clouds 31 1006 62 10000 3.6 240 11:37 23.08.2019
3183 Clouds 31 1006 62 10000 3.6 240 11:18 23.08.2019
3184 Clouds 31 1007 62 10000 4.6 240 10:43 23.08.2019
3185 Clouds 31 1007 62 10000 4.6 240 10:43 23.08.2019
3186 Clouds 31 1007 62 10000 4.6 240 10:22 23.08.2019
3187 Clouds 31 1007 62 10000 3.6 220 09:57 23.08.2019
3188 Clouds 31 1007 62 10000 1.5 0 09:38 23.08.2019
3189 Clouds 31 1007 62 10000 1.5 0 09:18 23.08.2019
3190 Clouds 31 1008 66 10000 3.6 200 08:41 23.08.2019
3191 Clouds 31 1008 66 10000 3.6 200 08:19 23.08.2019
3192 Rain 31 1009 70 10000 5.7 260 07:43 23.08.2019
3193 Rain 31 1009 70 10000 5.7 260 07:24 23.08.2019
3194 Rain 31 1009 62 10000 5.1 240 06:57 23.08.2019
3195 Clouds 31 1010 66 10000 4.1 230 06:38 23.08.2019
3196 Clouds 31 1010 66 10000 4.1 230 06:20 23.08.2019
3197 Clouds 30 1010 70 10000 3.6 190 05:34 23.08.2019
3198 Clouds 29 1010 83 10000 2.1 140 04:45 23.08.2019
3199 Clouds 28 1009 94 9000 3.15 179.291 02:58 23.08.2019
3200 Clouds 27 1009 100 10000 3.15 179.291 02:23 23.08.2019
3201 Clouds 27 1008 100 10000 3.15 179.291 01:40 23.08.2019
3202 Rain 27 1008 94 10000 2.83 174.446 00:45 23.08.2019
3203 Rain 27 1008 94 10000 2.15 188.905 00:19 23.08.2019
3204 Clouds 27 1008 100 10000 2.15 188.905 23:47 22.08.2019
3205 Clouds 27 1008 100 10000 2.15 188.905 23:25 22.08.2019
3206 Clouds 27 1008 94 10000 0.5 130 22:56 22.08.2019
3207 Clouds 27 1008 94 10000 2.15 188.905 22:38 22.08.2019
3208 Clouds 27 1008 94 10000 2.15 188.905 22:19 22.08.2019
3209 Clouds 26 1008 100 10000 2.15 188.905 21:55 22.08.2019
3210 Clouds 26 1008 100 10000 1.86 160.054 21:37 22.08.2019
3211 Clouds 26 1008 100 10000 1 199.727 21:18 22.08.2019
3212 Clouds 27 1009 100 10000 1 199.727 20:55 22.08.2019
3213 Clouds 27 1009 100 10000 1 199.727 20:37 22.08.2019
3214 Clouds 27 1009 100 10000 1 199.727 20:18 22.08.2019
3215 Rain 27 1009 94 10000 1 199.727 19:40 22.08.2019
3216 Rain 27 1009 94 10000 1 199.727 19:22 22.08.2019
3217 Rain 27 1009 94 10000 1 199.727 18:59 22.08.2019
3218 Rain 27 1009 94 10000 1 199.727 18:59 22.08.2019
3219 Rain 27 1009 94 10000 1 199.727 18:40 22.08.2019
3220 Rain 27 1009 94 10000 1.76 226.013 18:20 22.08.2019
3221 Rain 27 1010 88 10000 1.5 210 17:58 22.08.2019
3222 Rain 27 1010 88 10000 1.5 210 17:58 22.08.2019
3223 Rain 27 1010 88 10000 1.5 210 17:39 22.08.2019
3224 Rain 27 1009 88 9000 1.5 270 17:19 22.08.2019
3225 Rain 26 1009 88 9000 2.6 250 16:56 22.08.2019
3226 Rain 26 1009 88 9000 2.6 250 16:37 22.08.2019
3227 Rain 26 1009 88 9000 2.6 250 16:19 22.08.2019
3228 Rain 26 1008 94 9000 3.1 270 16:19 22.08.2019
3229 Rain 26 1008 94 9000 3.1 270 16:19 22.08.2019
3230 Rain 26 1008 94 9000 3.1 270 16:19 22.08.2019
3231 Rain 27 1008 94 9000 3.1 220 15:42 22.08.2019
3232 Rain 27 1008 94 9000 3.1 220 15:42 22.08.2019
3233 Rain 27 1008 94 9000 3.1 220 15:42 22.08.2019
3234 Rain 27 1008 94 9000 3.1 220 15:42 22.08.2019
3235 Rain 27 1008 94 9000 3.1 220 15:24 22.08.2019
3236 Rain 27 1008 94 9000 2.6 210 14:59 22.08.2019
3237 Rain 27 1007 94 8000 3.6 210 14:41 22.08.2019
3238 Rain 27 1007 94 8000 3.6 210 14:22 22.08.2019
3239 Rain 28 1007 94 5000 7.2 240 13:58 22.08.2019
3240 Rain 28 1007 83 5000 8.7 240 13:40 22.08.2019
3241 Rain 28 1007 83 5000 8.7 240 13:20 22.08.2019
3242 Clouds 31 1006 66 10000 5.7 210 12:56 22.08.2019
3243 Clouds 32 1005 66 10000 5.1 210 12:38 22.08.2019
3244 Clouds 32 1005 66 10000 4.6 200 12:19 22.08.2019
3245 Clouds 33 1006 62 10000 5.1 230 11:42 22.08.2019
3246 Clouds 33 1006 62 10000 5.1 230 11:20 22.08.2019
3247 Clouds 32 1006 62 10000 4.1 230 10:58 22.08.2019
3248 Clouds 33 1006 62 10000 4.6 220 10:40 22.08.2019
3249 Clouds 33 1006 62 10000 4.6 220 10:21 22.08.2019
3250 Clouds 32 1006 62 10000 5.1 210 09:56 22.08.2019
3251 Clouds 32 1007 62 10000 5.7 180 09:38 22.08.2019
3252 Clouds 32 1007 62 10000 5.7 180 09:20 22.08.2019
3253 Clouds 32 1007 62 10000 4.6 220 08:42 22.08.2019
3254 Clouds 32 1008 66 10000 5.7 190 08:22 22.08.2019
3255 Clouds 32 1008 66 10000 5.7 190 07:58 22.08.2019
3256 Clouds 32 1008 66 10000 5.7 190 07:39 22.08.2019
3257 Clouds 32 1008 66 10000 5.1 190 07:19 22.08.2019
3258 Clouds 32 1009 66 10000 5.1 180 06:47 22.08.2019
3259 Clouds 31 1009 70 10000 4.6 210 06:22 22.08.2019
3260 Clouds 31 1009 70 10000 4.6 190 05:30 22.08.2019
3261 Rain 30 1009 70 10000 3.6 200 04:19 22.08.2019
3262 Clouds 27 1008 88 10000 1.5 120 02:37 22.08.2019
3263 Clouds 27 1008 88 10000 1.5 120 01:39 22.08.2019
3264 Clouds 27 1007 88 10000 1 120 00:57 22.08.2019
3265 Clouds 27 1007 88 10000 1.74 168.464 00:39 22.08.2019
3266 Clouds 27 1007 88 10000 1.98 216.121 00:20 22.08.2019
3267 Clouds 27 1007 88 10000 1.98 216.121 23:42 21.08.2019
3268 Clouds 28 1007 88 10000 1.98 216.121 23:24 21.08.2019
3269 Clouds 28 1007 83 10000 1.98 216.121 22:58 21.08.2019
3270 Clouds 27 1007 83 10000 1 0 22:40 21.08.2019
3271 Clouds 27 1007 83 10000 1 0 22:21 21.08.2019
3272 Clouds 27 1007 83 10000 1.5 210 21:56 21.08.2019
3273 Clouds 27 1007 83 10000 1.5 220 21:38 21.08.2019
3274 Clouds 27 1007 83 10000 1.5 220 21:38 21.08.2019
3275 Clouds 27 1007 83 10000 1.5 220 21:19 21.08.2019
3276 Clouds 27 1007 78 10000 2.6 260 20:56 21.08.2019
3277 Clouds 27 1008 83 10000 2.6 250 20:38 21.08.2019
3278 Clouds 27 1008 83 10000 3.1 260 20:20 21.08.2019
3279 Clouds 28 1008 83 10000 3.6 250 19:43 21.08.2019
3280 Clouds 28 1008 83 10000 3.6 250 19:24 21.08.2019
3281 Clouds 28 1008 78 10000 3.6 250 18:58 21.08.2019
3282 Clouds 28 1009 78 10000 4.1 240 18:39 21.08.2019
3283 Clouds 28 1009 78 10000 4.6 230 18:20 21.08.2019
3284 Rain 28 1008 78 10000 3.6 240 17:45 21.08.2019
3285 Rain 28 1008 78 10000 3.6 240 17:23 21.08.2019
3286 Rain 28 1008 83 10000 4.6 230 16:58 21.08.2019
3287 Rain 28 1008 88 10000 2.6 260 16:39 21.08.2019
3288 Rain 28 1008 88 10000 2.6 260 16:20 21.08.2019
3289 Rain 28 1007 88 10000 2.6 270 15:57 21.08.2019
3290 Rain 28 1007 94 10000 2.1 220 15:38 21.08.2019
3291 Rain 28 1007 94 10000 2.1 220 15:19 21.08.2019
3292 Rain 28 1007 94 10000 2.1 220 15:19 21.08.2019
3293 Rain 28 1006 100 9000 1.5 190 15:19 21.08.2019
3294 Rain 27 1006 100 9000 1.5 190 14:55 21.08.2019
3295 Rain 27 1006 100 5000 6.7 260 14:37 21.08.2019
3296 Rain 27 1006 100 5000 6.7 260 14:18 21.08.2019
3297 Clouds 30 1005 66 10000 6.7 200 13:43 21.08.2019
3298 Clouds 30 1005 66 10000 6.7 200 13:20 21.08.2019
3299 Clouds 31 1005 62 10000 5.7 190 12:58 21.08.2019
3300 Clouds 31 1004 55 10000 4.6 200 12:40 21.08.2019
3301 Clouds 31 1004 55 10000 4.6 200 12:40 21.08.2019
3302 Clouds 30 1004 55 10000 4.6 200 12:20 21.08.2019
3303 Clouds 31 1004 55 10000 5.1 210 11:54 21.08.2019
3304 Clouds 32 1004 56 10000 5.1 220 11:36 21.08.2019
3305 Clouds 32 1004 56 10000 5.1 220 11:18 21.08.2019
3306 Clouds 32 1005 59 10000 4.6 220 10:42 21.08.2019
3307 Clouds 32 1005 59 10000 4.6 220 10:22 21.08.2019
3308 Clouds 33 1005 55 10000 5.7 230 09:58 21.08.2019
3309 Clouds 33 1006 55 10000 5.1 210 09:40 21.08.2019
3310 Clouds 33 1006 55 10000 5.1 210 09:21 21.08.2019
3311 Clouds 33 1006 55 10000 5.1 250 08:50 21.08.2019
3312 Clouds 33 1006 55 10000 3.6 0 08:26 21.08.2019
3313 Clouds 33 1007 59 10000 4.6 240 07:56 21.08.2019
3314 Clouds 33 1007 55 10000 4.1 240 07:37 21.08.2019
3315 Clouds 32 1007 55 10000 2.6 230 07:18 21.08.2019
3316 Clouds 32 1007 59 10000 3.6 210 06:44 21.08.2019
3317 Clouds 32 1008 59 10000 3.6 210 06:19 21.08.2019
3318 Clouds 31 1008 62 10000 4.1 200 05:29 21.08.2019
3319 Clouds 30 1008 62 10000 4.1 210 04:58 21.08.2019
3320 Clouds 27 1006 88 10000 2.95 180.602 02:45 21.08.2019
3321 Clouds 26 1006 88 10000 2.95 180.602 01:38 21.08.2019
3322 Clouds 26 1005 88 10000 1.5 200 00:43 21.08.2019
3323 Clouds 26 1005 88 10000 1.5 200 00:22 21.08.2019
3324 Clouds 26 1005 83 10000 2.1 210 23:46 20.08.2019
3325 Clouds 26 1005 83 10000 2.1 210 23:21 20.08.2019
3326 Clouds 26 1005 83 10000 2.6 240 22:59 20.08.2019
3327 Clouds 26 1006 88 10000 2.6 230 22:41 20.08.2019
3328 Clouds 27 1006 88 10000 2.6 230 22:22 20.08.2019
3329 Clouds 27 1006 94 10000 1.5 210 21:59 20.08.2019
3330 Clouds 26 1006 100 10000 2.04 204.082 21:39 20.08.2019
3331 Clouds 26 1006 100 10000 2.89 194.676 21:20 20.08.2019
3332 Clouds 26 1006 100 10000 2.89 194.676 21:20 20.08.2019
3333 Clouds 26 1006 100 10000 2.1 140 20:59 20.08.2019
3334 Clouds 26 1006 100 10000 2.1 140 20:59 20.08.2019
3335 Clouds 26 1006 100 10000 2.89 194.676 20:41 20.08.2019
3336 Clouds 26 1006 100 10000 2.89 194.676 20:23 20.08.2019
3337 Clouds 26 1007 100 10000 2.89 194.676 19:41 20.08.2019
3338 Clouds 26 1007 100 10000 2.89 194.676 19:22 20.08.2019
3339 Clouds 26 1007 100 10000 2.89 194.676 18:59 20.08.2019
3340 Rain 26 1006 97 0 2.89 194.676 18:40 20.08.2019
3341 Rain 26 1006 97 0 2.89 194.676 18:40 20.08.2019
3342 Clouds 26 1007 100 10000 1.5 130 18:19 20.08.2019
3343 Clouds 26 1007 100 10000 1.5 130 17:58 20.08.2019
3344 Clouds 26 1007 100 10000 1.5 130 17:39 20.08.2019
3345 Clouds 26 1007 100 10000 2.1 110 17:20 20.08.2019
3346 Clouds 26 1007 100 10000 2.1 110 17:20 20.08.2019
3347 Clouds 26 1007 100 10000 2.1 110 16:46 20.08.2019
3348 Clouds 26 1007 100 10000 2.1 110 16:26 20.08.2019
3349 Rain 27 1006 94 10000 1.5 120 15:57 20.08.2019
3350 Rain 27 1006 94 10000 1.5 150 15:38 20.08.2019
3351 Rain 27 1006 94 10000 2.6 150 15:18 20.08.2019
3352 Rain 27 1006 94 10000 2.6 170 14:43 20.08.2019
3353 Rain 27 1005 88 10000 2.1 170 14:22 20.08.2019
3354 Rain 27 1005 88 10000 2.1 170 13:57 20.08.2019
3355 Rain 27 1005 88 10000 2.1 170 13:57 20.08.2019
3356 Rain 27 1005 88 10000 2.6 210 13:39 20.08.2019
3357 Rain 27 1005 88 10000 5.1 200 13:20 20.08.2019
3358 Rain 26 1005 88 10000 6.2 210 12:51 20.08.2019
3359 Rain 27 1005 88 10000 6.2 210 12:31 20.08.2019
3360 Rain 28 1005 88 9000 8.2 230 11:59 20.08.2019
3361 Rain 30 1005 88 5000 7.2 260 11:40 20.08.2019
3362 Clouds 31 1004 70 10000 5.7 210 11:20 20.08.2019
3363 Clouds 30 1004 70 10000 5.7 210 10:57 20.08.2019
3364 Clouds 31 1005 70 10000 4.1 200 10:38 20.08.2019
3365 Rain 30 1005 70 10000 4.6 200 10:20 20.08.2019
3366 Rain 30 1006 70 10000 6.2 230 09:44 20.08.2019
3367 Rain 32 1006 70 10000 6.2 230 09:25 20.08.2019
3368 Rain 32 1006 70 10000 6.7 240 08:58 20.08.2019
3369 Clouds 33 1006 62 10000 3.1 0 08:40 20.08.2019
3370 Clouds 33 1007 59 10000 4.6 250 08:21 20.08.2019
3371 Clouds 33 1007 59 10000 4.6 250 07:56 20.08.2019
3372 Clouds 33 1007 55 10000 5.1 220 07:37 20.08.2019
3373 Clouds 33 1007 59 10000 3.6 260 07:18 20.08.2019
3374 Clouds 33 1007 59 10000 3.6 260 07:18 20.08.2019
3375 Clouds 33 1008 59 10000 5.1 240 06:28 20.08.2019
3376 Clouds 32 1008 62 10000 3.6 250 05:51 20.08.2019
3377 Clouds 32 1008 62 10000 3.6 250 05:30 20.08.2019
3378 Clouds 30 1008 70 10000 3.1 240 04:21 20.08.2019
3379 Clouds 28 1007 78 10000 3.1 250 02:46 20.08.2019
3380 Clouds 27 1007 88 10000 2.6 220 01:43 20.08.2019
3381 Clouds 27 1006 88 10000 2.6 210 00:59 20.08.2019
3382 Clouds 27 1006 78 10000 3.1 250 00:40 20.08.2019
3383 Clouds 27 1006 78 10000 2.6 260 00:19 20.08.2019
3384 Clouds 27 1006 78 10000 3.1 250 23:40 19.08.2019
3385 Clouds 28 1006 78 10000 3.6 250 23:18 19.08.2019
3386 Clouds 28 1006 78 10000 3.6 250 22:56 19.08.2019
3387 Clouds 28 1007 78 10000 3.6 250 22:38 19.08.2019
3388 Clouds 28 1007 78 10000 3.6 240 22:18 19.08.2019
3389 Clouds 28 1007 78 10000 3.6 240 21:55 19.08.2019
3390 Thunderstorm 28 1007 83 10000 3.1 250 21:36 19.08.2019
3391 Thunderstorm 27 1008 83 10000 2.6 220 21:18 19.08.2019
3392 Thunderstorm 28 1008 83 10000 3.1 250 20:39 19.08.2019
3393 Clouds 28 1009 88 10000 3.6 250 20:20 19.08.2019
3394 Clouds 28 1009 88 10000 3.6 250 19:58 19.08.2019
3395 Clouds 29 1009 79 1000 4.1 280 19:39 19.08.2019
3396 Clouds 28 1008 79 10000 2.1 250 19:19 19.08.2019
3397 Clouds 28 1009 83 9000 3.1 320 18:46 19.08.2019
3398 Clouds 29 1009 83 9000 3.1 320 18:28 19.08.2019
3399 Clouds 29 1009 74 9000 3.6 280 17:59 19.08.2019
3400 Clouds 29 1009 74 9000 4.1 280 17:41 19.08.2019
3401 Clouds 29 1009 74 9000 4.1 280 17:41 19.08.2019
3402 Rain 29 1009 74 9000 4.1 280 17:21 19.08.2019
3403 Rain 29 1009 74 9000 4.1 280 16:58 19.08.2019
3404 Rain 29 1009 74 9000 4.1 280 16:37 19.08.2019
3405 Rain 29 1008 74 9000 3.1 290 16:19 19.08.2019
3406 Rain 29 1008 79 9000 1.5 310 15:55 19.08.2019
3407 Rain 30 1007 88 9000 2.6 10 15:36 19.08.2019
3408 Rain 30 1007 88 9000 2.6 100 15:18 19.08.2019
3409 Rain 30 1006 83 7000 2.6 140 14:40 19.08.2019
3410 Rain 30 1006 83 7000 2.6 140 14:21 19.08.2019
3411 Rain 31 1006 66 7000 6.7 250 13:57 19.08.2019
3412 Rain 32 1006 59 10000 4.55 272.421 13:38 19.08.2019
3413 Rain 32 1006 59 10000 4.55 272.421 13:38 19.08.2019
3414 Rain 32 1006 59 10000 3.75 252.967 13:19 19.08.2019
3415 Clouds 33 1006 59 10000 3.6 320 12:45 19.08.2019
3416 Clouds 33 1006 59 10000 3.6 320 12:24 19.08.2019
3417 Clouds 33 1006 62 10000 3.6 310 11:59 19.08.2019
3418 Clouds 33 1006 62 10000 4.1 320 11:39 19.08.2019
3419 Clouds 33 1006 62 10000 4.1 320 11:20 19.08.2019
3420 Clouds 33 1006 59 10000 2.1 250 10:55 19.08.2019
3421 Clouds 33 1007 59 10000 3.1 250 10:36 19.08.2019
3422 Clouds 33 1007 59 10000 4.6 320 10:18 19.08.2019
3423 Clouds 33 1007 59 10000 4.6 260 09:41 19.08.2019
3424 Clouds 33 1007 59 10000 4.6 260 09:22 19.08.2019
3425 Clouds 34 1007 59 10000 5.7 290 08:55 19.08.2019
3426 Clouds 34 1008 56 10000 4.6 250 08:37 19.08.2019
3427 Clouds 34 1008 56 10000 4.6 250 08:18 19.08.2019
3428 Clouds 34 1008 56 10000 4.6 250 08:18 19.08.2019
3429 Clouds 34 1008 56 10000 5.1 280 07:42 19.08.2019
3430 Clouds 34 1008 56 10000 5.1 280 07:24 19.08.2019
3431 Clouds 33 1009 52 10000 5.1 290 06:43 19.08.2019
3432 Clouds 33 1009 52 10000 5.1 290 06:24 19.08.2019
3433 Clouds 31 1010 62 10000 3.6 200 04:54 19.08.2019
3434 Clouds 30 1010 62 10000 3.6 240 04:22 19.08.2019
3435 Clouds 29 1010 70 10000 4.1 250 03:20 19.08.2019
3436 Clouds 28 1009 74 10000 3.6 240 01:47 19.08.2019
3437 Clouds 28 1009 74 10000 3.1 260 01:21 19.08.2019
3438 Clouds 27 1008 74 10000 3.6 240 00:42 19.08.2019
3439 Clouds 27 1008 78 10000 3.6 240 00:18 19.08.2019
3440 Clouds 28 1008 83 10000 3.1 240 23:41 18.08.2019
3441 Clouds 28 1008 83 10000 3.1 240 23:20 18.08.2019
3442 Clouds 28 1009 83 10000 3.6 230 22:40 18.08.2019
3443 Clouds 28 1009 83 10000 3.6 230 22:22 18.08.2019
3444 Clouds 28 1009 83 10000 4.1 220 21:58 18.08.2019
3445 Clouds 28 1009 83 10000 4.1 230 21:40 18.08.2019
3446 Clouds 28 1009 83 10000 4.1 230 21:20 18.08.2019
3447 Clouds 28 1010 83 10000 3.1 230 20:58 18.08.2019
3448 Clouds 28 1010 83 10000 3.1 220 20:40 18.08.2019
3449 Clouds 28 1010 83 10000 3.1 220 20:22 18.08.2019
3450 Clouds 28 1010 79 10000 3.1 230 19:42 18.08.2019
3451 Clouds 29 1010 79 10000 3.1 230 19:24 18.08.2019
3452 Clouds 28 1011 88 10000 2.1 200 18:59 18.08.2019
3453 Clouds 28 1011 88 10000 2.1 210 18:39 18.08.2019
3454 Clouds 28 1011 88 10000 2.1 210 18:21 18.08.2019
3455 Clouds 28 1011 83 10000 2.6 200 17:55 18.08.2019
3456 Clouds 28 1011 79 10000 3.1 200 17:37 18.08.2019
3457 Clouds 29 1011 79 10000 3.1 200 17:18 18.08.2019
3458 Clouds 28 1010 79 10000 3.6 190 16:55 18.08.2019
3459 Clouds 29 1010 79 10000 3.1 200 16:36 18.08.2019
3460 Clouds 29 1010 79 10000 3.1 200 16:18 18.08.2019
3461 Clouds 30 1009 79 10000 4.1 210 15:40 18.08.2019
3462 Clouds 30 1009 79 10000 4.1 210 15:20 18.08.2019
3463 Clouds 30 1009 74 10000 3.6 240 14:58 18.08.2019
3464 Rain 31 1009 70 8000 6.2 230 14:38 18.08.2019
3465 Rain 30 1009 70 8000 6.2 230 14:19 18.08.2019
3466 Clouds 31 1008 70 10000 5.1 200 13:56 18.08.2019
3467 Clouds 31 1008 55 10000 3.6 240 13:38 18.08.2019
3468 Clouds 32 1007 56 10000 4.1 240 13:19 18.08.2019
3469 Clouds 32 1007 55 10000 4.6 230 12:44 18.08.2019
3470 Clouds 32 1007 55 10000 4.6 230 12:22 18.08.2019
3471 Clouds 33 1007 52 10000 4.6 240 11:55 18.08.2019
3472 Clouds 33 1007 52 10000 4.1 240 11:37 18.08.2019
3473 Clouds 33 1008 52 10000 4.1 240 11:18 18.08.2019
3474 Clouds 33 1008 52 10000 4.1 240 10:41 18.08.2019
3475 Clouds 33 1008 52 10000 5.1 250 10:21 18.08.2019
3476 Clouds 33 1008 52 10000 5.1 250 09:51 18.08.2019
3477 Clouds 33 1008 52 10000 6.2 260 09:23 18.08.2019
3478 Clouds 33 1009 52 10000 4.6 250 08:55 18.08.2019
3479 Clouds 33 1009 55 10000 4.6 250 08:37 18.08.2019
3480 Clouds 33 1009 55 10000 4.6 250 08:18 18.08.2019
3481 Clouds 32 1010 55 10000 5.1 240 07:44 18.08.2019
3482 Clouds 33 1010 55 10000 5.1 240 07:25 18.08.2019
3483 Clouds 32 1011 62 10000 4.6 230 05:48 18.08.2019
3484 Clouds 32 1012 62 10000 3.1 220 04:53 18.08.2019
3485 Clouds 29 1011 74 10000 2.6 180 03:41 18.08.2019
3486 Clouds 27 1010 78 10000 1.94 184.916 02:46 18.08.2019
3487 Clouds 28 1010 78 10000 1.94 184.916 02:23 18.08.2019
3488 Clouds 27 1010 83 10000 1 190 01:31 18.08.2019
3489 Clouds 27 1010 83 10000 1.78 182.613 00:59 18.08.2019
3490 Clouds 27 1009 78 10000 1.5 180 00:38 18.08.2019
3491 Clouds 26 1009 78 10000 2.1 210 00:18 18.08.2019
3492 Clouds 27 1009 78 10000 2.1 210 23:56 17.08.2019
3493 Clouds 27 1009 78 10000 3.1 220 23:37 17.08.2019
3494 Clouds 27 1009 78 10000 3.1 220 23:18 17.08.2019
3495 Clouds 27 1009 78 10000 3.1 220 23:18 17.08.2019
3496 Clouds 26 1009 78 10000 3.1 210 22:42 17.08.2019
3497 Clouds 27 1009 78 10000 3.1 210 22:23 17.08.2019
3498 Clouds 28 1009 69 10000 3.1 230 21:59 17.08.2019
3499 Clouds 28 1009 74 10000 2.6 240 21:40 17.08.2019
3500 Clouds 28 1009 74 10000 2.6 240 21:21 17.08.2019
3501 Clouds 28 1010 74 10000 4.1 240 20:40 17.08.2019
3502 Clouds 28 1010 74 10000 4.1 240 20:21 17.08.2019
3503 Clouds 28 1010 74 10000 4.1 250 19:58 17.08.2019
3504 Clouds 29 1010 74 10000 4.6 230 19:39 17.08.2019
3505 Clouds 29 1010 74 10000 4.6 230 19:20 17.08.2019
3506 Clouds 29 1010 74 10000 4.6 230 19:20 17.08.2019
3507 Clouds 28 1010 79 10000 3.6 310 18:41 17.08.2019
3508 Rain 29 1010 74 10000 4.1 240 18:19 17.08.2019
3509 Rain 29 1010 74 10000 4.1 240 17:58 17.08.2019
3510 Clouds 29 1010 79 10000 2.1 190 17:40 17.08.2019
3511 Clouds 29 1010 79 10000 2.1 190 17:21 17.08.2019
3512 Clouds 28 1009 79 10000 3.6 200 16:45 17.08.2019
3513 Clouds 28 1009 79 10000 3.6 200 16:26 17.08.2019
3514 Clouds 29 1008 79 10000 4.1 220 15:59 17.08.2019
3515 Clouds 29 1008 79 10000 3.1 200 15:40 17.08.2019
3516 Clouds 29 1008 79 10000 3.1 200 15:21 17.08.2019
3517 Clouds 30 1007 79 10000 4.6 190 14:43 17.08.2019
3518 Clouds 30 1007 79 10000 4.6 190 14:23 17.08.2019
3519 Clouds 30 1007 74 10000 4.6 190 13:49 17.08.2019
3520 Clouds 30 1007 74 10000 5.7 190 13:23 17.08.2019
3521 Clouds 30 1007 74 10000 6.2 190 12:59 17.08.2019
3522 Clouds 31 1006 66 10000 5.1 190 12:41 17.08.2019
3523 Clouds 31 1006 66 10000 5.1 190 12:19 17.08.2019
3524 Clouds 31 1006 70 10000 6.2 190 11:56 17.08.2019
3525 Clouds 31 1006 66 10000 6.2 190 11:36 17.08.2019
3526 Clouds 31 1006 66 10000 6.2 190 11:18 17.08.2019
3527 Clouds 32 1006 63 10000 6.2 210 10:39 17.08.2019
3528 Clouds 32 1006 63 10000 6.2 210 10:19 17.08.2019
3529 Clouds 32 1006 63 10000 6.2 210 09:49 17.08.2019
3530 Clouds 32 1007 63 10000 5.7 210 09:30 17.08.2019
3531 Clouds 32 1007 63 10000 6.2 220 08:54 17.08.2019
3532 Clouds 32 1008 66 10000 6.2 200 08:25 17.08.2019
3533 Clouds 31 1008 70 10000 6.7 190 07:52 17.08.2019
3534 Clouds 31 1008 70 10000 5.1 190 07:22 17.08.2019
3535 Clouds 32 1008 66 10000 4.6 180 06:54 17.08.2019
3536 Clouds 31 1009 66 10000 5.1 250 05:35 17.08.2019
3537 Clouds 30 1009 70 10000 3.1 200 04:29 17.08.2019
3538 Clouds 29 1008 78 10000 2.1 200 03:33 17.08.2019
3539 Clouds 27 1007 83 10000 3.1 250 01:47 17.08.2019
3540 Clouds 27 1007 83 10000 3.1 250 01:28 17.08.2019
3541 Clouds 27 1007 88 10000 2.6 240 00:55 17.08.2019
3542 Clouds 27 1007 88 10000 3.6 230 00:31 17.08.2019
3543 Clouds 27 1007 83 10000 3.1 230 23:50 16.08.2019
3544 Clouds 27 1007 83 10000 3.1 260 23:27 16.08.2019
3545 Clouds 28 1007 83 10000 3.1 260 22:56 16.08.2019
3546 Clouds 28 1007 83 10000 3.1 240 22:38 16.08.2019
3547 Clouds 28 1007 83 10000 3.1 240 22:19 16.08.2019
3548 Clouds 28 1006 88 10000 3.1 240 21:40 16.08.2019
3549 Clouds 28 1007 88 10000 4.6 230 21:20 16.08.2019
3550 Clouds 28 1007 88 10000 4.6 230 20:56 16.08.2019
3551 Rain 28 1007 88 10000 3.6 220 20:37 16.08.2019
3552 Rain 28 1007 88 10000 3.6 220 20:18 16.08.2019
3553 Thunderstorm 28 1007 94 9000 3.6 200 19:42 16.08.2019
3554 Thunderstorm 27 1007 94 9000 3.6 200 19:22 16.08.2019
3555 Thunderstorm 27 1007 100 3000 8.7 260 18:44 16.08.2019
3556 Thunderstorm 28 1007 100 3000 8.7 260 18:26 16.08.2019
3557 Thunderstorm 29 1007 84 8000 5.1 210 17:57 16.08.2019
3558 Clouds 29 1007 79 10000 4.6 190 17:39 16.08.2019
3559 Clouds 29 1007 79 10000 4.6 190 17:20 16.08.2019
3560 Clouds 29 1007 79 10000 4.6 190 17:20 16.08.2019
3561 Clouds 30 1006 79 10000 5.7 190 16:42 16.08.2019
3562 Clouds 29 1006 79 10000 5.7 190 16:21 16.08.2019
3563 Clouds 29 1006 79 10000 4.6 190 15:59 16.08.2019
3564 Clouds 29 1006 83 10000 4.1 190 15:40 16.08.2019
3565 Clouds 30 1006 83 10000 4.1 190 15:21 16.08.2019
3566 Clouds 29 1005 79 10000 3.1 170 14:57 16.08.2019
3567 Clouds 29 1005 83 10000 3.6 220 14:38 16.08.2019
3568 Clouds 29 1005 83 10000 3.6 200 14:19 16.08.2019
3569 Clouds 28 1003 83 10000 3.1 200 13:41 16.08.2019
3570 Clouds 29 1003 83 10000 3.1 200 13:23 16.08.2019
3571 Rain 29 1004 70 8000 6.7 250 12:56 16.08.2019
3572 Rain 30 1003 66 10000 6.7 190 12:37 16.08.2019
3573 Clouds 33 1003 59 10000 6.2 200 12:19 16.08.2019
3574 Clouds 32 1003 59 10000 4.6 220 11:42 16.08.2019
3575 Clouds 32 1003 59 10000 4.6 220 11:41 16.08.2019
3576 Clouds 34 1003 59 10000 4.6 220 11:23 16.08.2019
3577 Clouds 34 1004 53 10000 4.6 240 10:43 16.08.2019
3578 Clouds 34 1004 53 10000 4.6 240 10:22 16.08.2019
3579 Clouds 34 1004 53 10000 4.1 260 09:56 16.08.2019
3580 Clouds 35 1005 53 10000 5.1 220 09:37 16.08.2019
3581 Clouds 34 1005 53 10000 7.7 250 09:18 16.08.2019
3582 Clouds 34 1006 53 10000 5.7 250 08:40 16.08.2019
3583 Clouds 34 1006 53 10000 5.7 250 08:21 16.08.2019
3584 Clouds 34 1006 56 10000 5.7 260 07:52 16.08.2019
3585 Clouds 34 1006 56 10000 5.7 250 07:30 16.08.2019
3586 Clouds 34 1007 52 10000 5.1 270 06:57 16.08.2019
3587 Clouds 33 1007 52 10000 6.2 260 06:21 16.08.2019
3588 Clouds 32 1007 59 10000 4.1 240 05:40 16.08.2019
3589 Clouds 31 1007 62 10000 4.1 250 04:27 16.08.2019
3590 Clouds 28 1006 78 10000 2.6 200 02:28 16.08.2019
3591 Clouds 28 1006 78 10000 3.6 240 01:30 16.08.2019
3592 Clouds 27 1006 74 10000 3.6 240 00:57 16.08.2019
3593 Clouds 27 1006 78 10000 4.1 230 00:39 16.08.2019
3594 Clouds 28 1006 78 10000 4.1 230 00:20 16.08.2019
3595 Clouds 28 1006 70 10000 5.1 240 23:42 15.08.2019
3596 Clouds 28 1006 70 10000 5.1 240 23:21 15.08.2019
3597 Clouds 28 1006 74 10000 4.1 230 22:57 15.08.2019
3598 Clouds 28 1006 74 10000 4.1 240 22:39 15.08.2019
3599 Clouds 28 1006 74 10000 4.1 240 22:20 15.08.2019
3600 Clouds 28 1006 79 10000 4.1 230 21:40 15.08.2019
3601 Clouds 28 1006 79 10000 4.1 230 21:20 15.08.2019
3602 Clouds 28 1006 79 10000 4.1 240 20:59 15.08.2019
3603 Clouds 29 1007 79 10000 4.1 250 20:41 15.08.2019
3604 Clouds 29 1007 79 10000 4.1 250 20:21 15.08.2019
3605 Clouds 28 1007 79 10000 3.6 240 19:56 15.08.2019
3606 Clouds 29 1007 79 10000 3.6 240 19:38 15.08.2019
3607 Clouds 29 1007 79 10000 3.6 240 19:19 15.08.2019
3608 Clouds 28 1007 83 10000 2.6 210 18:46 15.08.2019
3609 Clouds 29 1007 83 10000 2.6 210 18:22 15.08.2019
3610 Clouds 29 1007 83 10000 3.6 200 17:56 15.08.2019
3611 Clouds 29 1007 79 10000 4.1 200 17:37 15.08.2019
3612 Clouds 28 1007 79 10000 4.1 200 17:19 15.08.2019
3613 Clouds 30 1007 79 10000 4.6 210 16:48 15.08.2019
3614 Clouds 30 1007 79 10000 4.6 210 16:27 15.08.2019
3615 Clouds 30 1006 79 10000 5.7 210 15:57 15.08.2019
3616 Clouds 29 1005 74 10000 5.1 210 15:38 15.08.2019
3617 Clouds 30 1005 74 10000 5.1 210 15:19 15.08.2019
3618 Clouds 30 1005 70 10000 5.1 210 14:42 15.08.2019
3619 Clouds 31 1005 70 10000 5.1 210 14:23 15.08.2019
3620 Clouds 30 1004 70 10000 5.1 210 13:57 15.08.2019
3621 Clouds 31 1004 66 10000 5.1 200 13:39 15.08.2019
3622 Clouds 31 1004 66 10000 5.1 200 13:20 15.08.2019
3623 Clouds 31 1004 63 10000 5.7 210 12:57 15.08.2019
3624 Clouds 31 1004 56 10000 5.1 240 12:38 15.08.2019
3625 Clouds 32 1004 50 10000 4.1 270 12:18 15.08.2019
3626 Clouds 32 1004 50 10000 4.1 270 11:57 15.08.2019
3627 Clouds 33 1004 50 10000 4.6 260 11:36 15.08.2019
3628 Clouds 34 1004 50 10000 4.6 260 11:18 15.08.2019
3629 Clouds 34 1004 50 10000 4.6 260 11:18 15.08.2019
3630 Clouds 34 1005 52 10000 5.7 250 10:39 15.08.2019
3631 Clouds 34 1005 52 10000 5.7 250 10:39 15.08.2019
3632 Clouds 34 1006 56 10000 6.2 250 10:20 15.08.2019
3633 Clouds 34 1006 52 10000 6.2 240 09:45 15.08.2019
3634 Clouds 34 1006 52 10000 6.2 240 09:24 15.08.2019
3635 Clouds 34 1007 56 10000 5.7 250 08:57 15.08.2019
3636 Clouds 34 1007 53 10000 5.1 280 08:37 15.08.2019
3637 Clouds 34 1007 53 10000 5.1 280 08:19 15.08.2019
3638 Clouds 33 1008 55 10000 5.7 240 07:44 15.08.2019
3639 Clouds 33 1008 55 10000 5.7 240 07:26 15.08.2019
3640 Clouds 33 1008 59 10000 5.7 250 06:54 15.08.2019
3641 Clouds 32 1009 62 10000 7.2 250 06:33 15.08.2019
3642 Clouds 31 1009 62 10000 6.2 250 05:48 15.08.2019
3643 Clouds 31 1009 66 10000 7.7 250 05:28 15.08.2019
3644 Clouds 30 1009 70 10000 5.7 260 04:35 15.08.2019
3645 Clouds 29 1009 74 10000 4.6 260 03:45 15.08.2019
3646 Clouds 28 1008 78 10000 4.1 240 02:45 15.08.2019
3647 Clouds 27 1008 78 10000 3.1 230 01:52 15.08.2019
3648 Clouds 27 1008 78 10000 3.1 250 01:31 15.08.2019
3649 Clouds 27 1007 78 10000 2.6 230 00:41 15.08.2019
3650 Clouds 27 1007 78 10000 2.6 230 00:21 15.08.2019
3651 Clouds 27 1008 78 10000 2.6 220 23:57 14.08.2019
3652 Clouds 28 1008 74 10000 2.6 270 23:38 14.08.2019
3653 Clouds 28 1008 74 10000 2.6 270 23:19 14.08.2019
3654 Clouds 28 1008 78 10000 2.6 250 22:57 14.08.2019
3655 Clouds 28 1008 78 10000 3.1 270 22:38 14.08.2019
3656 Clouds 28 1008 78 10000 3.1 270 22:19 14.08.2019
3657 Clouds 28 1008 78 10000 3.1 270 21:55 14.08.2019
3658 Clouds 28 1009 78 10000 2.6 300 21:37 14.08.2019
3659 Clouds 28 1009 78 10000 2.6 300 21:37 14.08.2019
3660 Clouds 28 1009 78 10000 2.6 300 21:18 14.08.2019
3661 Clouds 28 1009 74 10000 3.1 290 20:41 14.08.2019
3662 Clouds 28 1009 74 10000 3.1 290 20:41 14.08.2019
3663 Clouds 28 1009 74 10000 3.1 290 20:21 14.08.2019
3664 Clouds 28 1010 79 10000 4.1 260 19:56 14.08.2019
3665 Clouds 29 1010 79 10000 3.6 240 19:37 14.08.2019
3666 Clouds 28 1010 79 10000 4.1 240 19:19 14.08.2019
3667 Clouds 29 1010 79 10000 4.1 240 18:56 14.08.2019
3668 Clouds 29 1010 74 10000 4.1 250 18:38 14.08.2019
3669 Clouds 28 1010 83 10000 3.1 230 18:19 14.08.2019
3670 Clouds 29 1010 83 10000 3.1 230 17:56 14.08.2019
3671 Clouds 29 1010 83 10000 3.1 230 17:56 14.08.2019
3672 Clouds 29 1010 79 10000 5.7 220 17:36 14.08.2019
3673 Clouds 29 1010 79 10000 5.7 220 17:18 14.08.2019
3674 Clouds 30 1009 74 10000 4.6 230 16:41 14.08.2019
3675 Clouds 30 1009 74 10000 4.6 230 16:20 14.08.2019
3676 Clouds 30 1008 70 10000 5.1 220 15:44 14.08.2019
3677 Clouds 30 1008 70 10000 5.1 220 15:22 14.08.2019
3678 Clouds 30 1008 62 10000 4.1 240 14:59 14.08.2019
3679 Clouds 30 1007 62 10000 4.1 250 14:39 14.08.2019
3680 Clouds 30 1007 62 10000 4.1 250 14:19 14.08.2019
3681 Clouds 30 1007 62 10000 4.1 250 14:19 14.08.2019
3682 Clouds 31 1007 59 10000 4.6 250 13:55 14.08.2019
3683 Clouds 31 1006 59 10000 4.6 250 13:37 14.08.2019
3684 Clouds 31 1006 59 10000 4.6 250 13:18 14.08.2019
3685 Clouds 32 1006 59 10000 3.6 240 12:55 14.08.2019
3686 Clouds 33 1005 59 10000 4.1 270 12:36 14.08.2019
3687 Clouds 33 1006 56 10000 5.7 280 12:18 14.08.2019
3688 Clouds 32 1006 59 10000 4.6 270 11:43 14.08.2019
3689 Clouds 33 1006 59 10000 4.6 270 11:22 14.08.2019
3690 Clouds 33 1007 56 10000 5.1 260 10:46 14.08.2019
3691 Clouds 33 1007 56 10000 5.1 260 10:25 14.08.2019
3692 Clouds 33 1007 56 10000 5.1 260 10:25 14.08.2019
3693 Clouds 33 1007 56 10000 4.1 250 09:59 14.08.2019
3694 Clouds 33 1008 56 10000 4.6 240 09:41 14.08.2019
3695 Clouds 33 1008 56 10000 4.6 240 09:41 14.08.2019
3696 Clouds 33 1008 56 10000 4.6 240 09:20 14.08.2019
3697 Clouds 31 1009 62 10000 3.6 270 08:42 14.08.2019
3698 Clouds 32 1009 62 10000 3.6 270 08:24 14.08.2019
3699 Clouds 31 1010 66 10000 4.1 250 07:55 14.08.2019
3700 Clouds 31 1010 66 10000 4.6 240 07:35 14.08.2019
3701 Clouds 31 1010 66 10000 4.6 240 06:50 14.08.2019
3702 Rain 30 1010 66 10000 3.6 240 06:23 14.08.2019
3703 Clouds 30 1010 70 10000 3.6 230 05:28 14.08.2019
3704 Rain 28 1009 83 10000 2.6 230 03:40 14.08.2019
3705 Clouds 28 1009 83 10000 3.6 240 02:37 14.08.2019
3706 Clouds 27 1009 88 10000 3.1 220 01:57 14.08.2019
3707 Rain 27 1009 88 10000 1.5 250 01:23 14.08.2019
3708 Clouds 27 1008 88 10000 2.6 240 00:23 14.08.2019
3709 Clouds 27 1008 88 10000 2.6 240 23:40 13.08.2019
3710 Clouds 27 1008 88 10000 2.6 240 23:19 13.08.2019
3711 Clouds 27 1008 94 10000 2.6 200 22:43 13.08.2019
3712 Clouds 27 1008 94 10000 2.6 200 22:24 13.08.2019
3713 Clouds 27 1009 94 10000 2.1 190 21:59 13.08.2019
3714 Rain 27 1009 94 10000 2.1 200 21:39 13.08.2019
3715 Rain 27 1009 94 10000 2.1 200 21:20 13.08.2019
3716 Rain 27 1010 94 10000 2.6 210 20:58 13.08.2019
3717 Rain 28 1010 88 10000 3.1 230 20:40 13.08.2019
3718 Rain 27 1010 88 10000 3.1 230 20:19 13.08.2019
3719 Rain 27 1010 83 10000 3.6 230 19:55 13.08.2019
3720 Rain 28 1011 88 10000 2.6 240 19:37 13.08.2019
3721 Rain 28 1011 88 10000 2.6 240 19:18 13.08.2019
3722 Rain 28 1011 79 10000 3.1 250 18:41 13.08.2019
3723 Rain 28 1011 79 10000 3.1 250 18:21 13.08.2019
3724 Clouds 28 1011 83 10000 2.1 246.64 17:43 13.08.2019
3725 Clouds 28 1011 83 10000 2.1 246.64 17:23 13.08.2019
3726 Clouds 29 1010 79 10000 3.6 210 16:58 13.08.2019
3727 Clouds 28 1009 83 10000 3.1 210 16:40 13.08.2019
3728 Clouds 28 1009 83 10000 3.1 210 16:21 13.08.2019
3729 Clouds 29 1009 79 10000 4.1 210 15:59 13.08.2019
3730 Clouds 29 1008 83 10000 5.1 200 15:38 13.08.2019
3731 Clouds 29 1008 74 10000 4.6 200 15:19 13.08.2019
3732 Clouds 29 1008 74 10000 4.1 190 14:43 13.08.2019
3733 Clouds 29 1008 74 10000 4.1 190 14:20 13.08.2019
3734 Clouds 29 1007 74 10000 4.1 190 13:58 13.08.2019
3735 Clouds 29 1007 74 10000 4.1 190 13:58 13.08.2019
3736 Clouds 30 1007 70 10000 5.1 190 13:39 13.08.2019
3737 Clouds 30 1007 70 10000 4.6 170 13:18 13.08.2019
3738 Clouds 30 1007 70 10000 4.6 170 12:56 13.08.2019
3739 Clouds 30 1007 70 10000 4.1 170 12:38 13.08.2019
3740 Clouds 31 1007 70 10000 4.1 180 12:18 13.08.2019
3741 Clouds 31 1007 70 10000 4.6 170 11:42 13.08.2019
3742 Clouds 31 1007 70 10000 4.6 170 11:22 13.08.2019
3743 Clouds 31 1007 66 10000 5.1 180 10:57 13.08.2019
3744 Clouds 31 1007 66 10000 3.6 170 10:38 13.08.2019
3745 Clouds 32 1007 66 10000 3.6 170 10:19 13.08.2019
3746 Clouds 32 1008 66 10000 3.1 180 09:45 13.08.2019
3747 Clouds 31 1008 66 10000 3.1 180 09:24 13.08.2019
3748 Clouds 31 1008 66 10000 3.1 180 09:24 13.08.2019
3749 Clouds 32 1008 66 10000 3.1 210 08:57 13.08.2019
3750 Clouds 32 1009 66 10000 4.1 210 08:39 13.08.2019
3751 Clouds 32 1009 66 10000 4.1 210 08:19 13.08.2019
3752 Rain 32 1009 79 10000 2.6 180 07:40 13.08.2019
3753 Rain 32 1009 79 10000 2.6 180 07:20 13.08.2019
3754 Rain 31 1010 62 10000 3.6 210 06:43 13.08.2019
3755 Clouds 32 1010 66 10000 2.6 200 05:46 13.08.2019
3756 Clouds 29 1009 79 10000 1.5 170 03:46 13.08.2019
3757 Clouds 28 1008 83 10000 1.5 160 02:22 13.08.2019
3758 Clouds 28 1008 78 10000 1.5 140 01:26 13.08.2019
3759 Clouds 27 1007 83 10000 1.64 195.427 00:47 13.08.2019
3760 Clouds 28 1007 78 10000 1 200 00:19 13.08.2019
3761 Clouds 28 1007 78 10000 2.6 200 23:43 12.08.2019
3762 Clouds 28 1007 78 10000 2.6 200 23:20 12.08.2019
3763 Clouds 28 1007 78 10000 1.5 190 22:40 12.08.2019
3764 Clouds 28 1007 78 10000 1.5 190 22:20 12.08.2019
3765 Clouds 28 1007 78 10000 1.89 211.79 21:57 12.08.2019
3766 Clouds 28 1007 78 10000 1.5 200 21:38 12.08.2019
3767 Clouds 28 1007 78 10000 1.5 200 21:19 12.08.2019
3768 Clouds 28 1008 78 10000 2.6 200 20:58 12.08.2019
3769 Clouds 28 1008 78 10000 2.6 200 20:58 12.08.2019
3770 Clouds 28 1008 78 10000 3.1 210 20:39 12.08.2019
3771 Clouds 28 1008 78 10000 3.1 210 20:20 12.08.2019
3772 Clouds 29 1008 74 10000 4.6 220 19:56 12.08.2019
3773 Clouds 29 1008 74 10000 3.6 220 19:37 12.08.2019
3774 Clouds 29 1008 74 10000 3.6 220 19:19 12.08.2019
3775 Clouds 28 1009 79 10000 3.1 230 18:56 12.08.2019
3776 Clouds 28 1009 79 10000 4.1 220 18:37 12.08.2019
3777 Clouds 29 1008 79 10000 3.1 220 18:19 12.08.2019
3778 Clouds 29 1008 79 10000 3.1 210 17:47 12.08.2019
3779 Clouds 29 1008 79 10000 3.1 210 17:28 12.08.2019
3780 Clouds 29 1008 79 10000 3.1 210 16:57 12.08.2019
3781 Clouds 29 1008 83 10000 3.1 200 16:39 12.08.2019
3782 Clouds 29 1008 83 10000 3.1 200 16:39 12.08.2019
3783 Clouds 29 1008 83 10000 3.1 200 16:20 12.08.2019
3784 Clouds 28 1007 79 10000 3.1 180 15:59 12.08.2019
3785 -273 0 0 0 0 0 15:41 12.08.2019
3786 Clouds 29 1007 79 10000 3.1 190 15:21 12.08.2019
3787 Clouds 29 1007 79 10000 3.1 190 15:21 12.08.2019
3788 Clouds 29 1006 79 10000 4.6 190 14:57 12.08.2019
3789 Clouds 29 1006 79 10000 5.1 190 14:39 12.08.2019
3790 Clouds 29 1006 79 10000 5.1 190 14:20 12.08.2019
3791 Clouds 30 1005 70 10000 7.2 190 13:43 12.08.2019
3792 Clouds 30 1005 70 10000 7.2 190 13:24 12.08.2019
3793 Clouds 31 1005 62 10000 6.2 200 12:58 12.08.2019
3794 Clouds 31 1005 62 10000 6.2 200 12:58 12.08.2019
3795 Clouds 31 1005 66 10000 6.2 190 12:39 12.08.2019
3796 Clouds 32 1005 62 10000 5.7 200 12:18 12.08.2019
3797 Clouds 32 1005 66 10000 5.1 170 11:42 12.08.2019
3798 Clouds 32 1005 66 10000 5.1 170 11:23 12.08.2019
3799 Clouds 33 1005 63 10000 5.7 200 10:43 12.08.2019
3800 Clouds 33 1005 63 10000 5.7 200 10:23 12.08.2019
3801 Clouds 32 1006 59 10000 6.7 200 09:57 12.08.2019
3802 Clouds 32 1006 56 10000 6.2 200 09:38 12.08.2019
3803 Clouds 33 1006 59 10000 6.2 190 09:20 12.08.2019
3804 Clouds 33 1006 59 10000 6.2 190 08:58 12.08.2019
3805 Clouds 34 1007 56 10000 5.7 200 08:39 12.08.2019
3806 Clouds 33 1007 56 10000 5.7 200 08:20 12.08.2019
3807 Clouds 33 1007 56 10000 5.7 200 08:20 12.08.2019
3808 Clouds 33 1007 56 10000 5.1 180 07:52 12.08.2019
3809 Clouds 32 1007 59 10000 4.1 200 07:28 12.08.2019
3810 Clouds 32 1008 59 10000 3.6 210 06:52 12.08.2019
3811 Clouds 31 1008 70 10000 3.6 180 05:40 12.08.2019
3812 Clouds 28 1006 88 10000 0.93 200.405 02:44 12.08.2019
3813 Clouds 27 1005 88 10000 1.5 150 01:55 12.08.2019
3814 Clouds 27 1005 88 10000 1 130 01:21 12.08.2019
3815 Clouds 27 1005 88 10000 0.93 200.405 00:58 12.08.2019
3816 Clouds 27 1005 88 10000 1.5 200 00:39 12.08.2019
3817 Clouds 27 1005 88 10000 1.5 200 00:20 12.08.2019
3818 Clouds 27 1005 88 10000 2.1 210 23:55 11.08.2019
3819 Rain 27 1005 88 10000 2.6 210 23:37 11.08.2019
3820 Rain 27 1005 88 10000 3.1 210 23:18 11.08.2019
3821 Rain 27 1005 88 10000 3.1 210 23:18 11.08.2019
3822 Rain 27 1005 88 10000 3.1 210 22:40 11.08.2019
3823 Rain 27 1005 88 10000 3.1 210 22:19 11.08.2019
3824 Rain 27 1005 88 10000 3.6 210 21:59 11.08.2019
3825 Rain 27 1005 88 9000 3.6 220 21:40 11.08.2019
3826 Rain 27 1005 88 9000 3.6 220 21:21 11.08.2019
3827 Clouds 28 1005 83 10000 3.1 210 20:56 11.08.2019
3828 Clouds 28 1005 83 10000 3.1 200 20:38 11.08.2019
3829 Clouds 28 1005 83 10000 3.1 210 20:19 11.08.2019
3830 Clouds 28 1006 83 10000 1.5 210 19:42 11.08.2019
3831 Clouds 28 1006 83 10000 1.5 210 19:19 11.08.2019
3832 Clouds 28 1006 83 10000 3.1 190 18:41 11.08.2019
3833 Clouds 28 1006 83 10000 3.1 190 18:22 11.08.2019
3834 Clouds 28 1006 83 10000 3.6 200 17:58 11.08.2019
3835 Clouds 28 1006 83 10000 3.6 200 17:58 11.08.2019
3836 Clouds 28 1006 83 10000 3.1 200 17:40 11.08.2019
3837 Clouds 28 1006 83 10000 3.1 200 17:20 11.08.2019
3838 Clouds 28 1006 83 10000 3.6 210 16:56 11.08.2019
3839 Clouds 28 1006 83 10000 3.6 210 16:38 11.08.2019
3840 Clouds 28 1005 83 10000 3.6 210 16:18 11.08.2019
3841 Clouds 28 1005 78 10000 4.1 200 15:43 11.08.2019
3842 Clouds 28 1005 78 10000 4.1 200 15:24 11.08.2019
3843 Clouds 28 1004 74 10000 6.2 210 14:58 11.08.2019
3844 Clouds 28 1004 74 10000 6.2 210 14:39 11.08.2019
3845 Clouds 28 1004 74 10000 6.2 210 14:19 11.08.2019
3846 Clouds 29 1003 74 10000 6.7 190 13:44 11.08.2019
3847 Clouds 29 1003 74 10000 6.7 190 13:25 11.08.2019
3848 Clouds 29 1002 70 10000 6.2 180 12:49 11.08.2019
3849 Rain 29 1002 74 10000 7.2 190 12:25 11.08.2019
3850 Clouds 31 1002 70 10000 7.7 190 11:57 11.08.2019
3851 Clouds 30 1002 66 10000 7.2 190 11:38 11.08.2019
3852 Clouds 30 1002 66 10000 7.2 190 11:20 11.08.2019
3853 Clouds 32 1002 66 10000 6.2 190 10:55 11.08.2019
3854 Clouds 31 1002 66 10000 6.2 200 10:36 11.08.2019
3855 Clouds 31 1002 66 10000 6.2 200 10:18 11.08.2019
3856 Clouds 31 1002 66 10000 6.2 200 10:18 11.08.2019
3857 Clouds 31 1002 59 10000 5.7 210 09:40 11.08.2019
3858 Clouds 32 1002 59 10000 5.7 210 09:22 11.08.2019
3859 Clouds 32 1003 63 10000 5.7 210 08:48 11.08.2019
3860 Clouds 32 1004 59 10000 6.7 200 08:28 11.08.2019
3861 Clouds 32 1004 66 10000 5.7 190 07:56 11.08.2019
3862 Clouds 32 1004 63 10000 5.1 200 07:26 11.08.2019
3863 Clouds 32 1005 66 10000 5.1 200 06:45 11.08.2019
3864 Clouds 31 1005 70 10000 4.1 190 05:58 11.08.2019
3865 Clouds 29 1005 79 10000 3.6 200 03:56 11.08.2019
3866 Clouds 28 1004 83 10000 2.6 180 02:49 11.08.2019
3867 Clouds 28 1003 83 10000 1.5 160 01:43 11.08.2019
3868 Clouds 28 1003 83 10000 1.5 160 01:20 11.08.2019
3869 Clouds 27 1003 88 10000 1 150 00:48 11.08.2019
3870 Clouds 27 1003 88 10000 1 150 00:28 11.08.2019
3871 Clouds 27 1003 88 10000 2.1 200 23:47 10.08.2019
3872 Clouds 27 1003 88 10000 2.1 200 23:28 10.08.2019
3873 Clouds 28 1003 83 10000 2.1 170 22:44 10.08.2019
3874 Clouds 28 1003 83 10000 2.1 170 22:44 10.08.2019
3875 Clouds 28 1003 83 10000 2.1 170 22:26 10.08.2019
3876 Clouds 27 1003 78 10000 3.1 200 21:58 10.08.2019
3877 Clouds 27 1003 83 10000 3.1 180 21:39 10.08.2019
3878 Clouds 27 1003 83 10000 3.1 180 21:20 10.08.2019
3879 Clouds 27 1003 78 10000 4.1 200 20:56 10.08.2019
3880 Rain 27 1003 78 10000 4.1 210 20:37 10.08.2019
3881 Rain 27 1003 78 10000 4.1 210 20:18 10.08.2019
3882 Clouds 28 1004 78 10000 4.1 210 19:40 10.08.2019
3883 Clouds 28 1004 78 10000 4.1 210 19:21 10.08.2019
3884 Clouds 28 1004 78 10000 4.1 210 18:42 10.08.2019
3885 Clouds 28 1004 78 10000 4.1 210 18:23 10.08.2019
3886 Clouds 28 1004 74 10000 4.6 210 17:55 10.08.2019
3887 Clouds 28 1004 78 10000 5.1 210 17:36 10.08.2019
3888 Clouds 28 1004 78 10000 5.1 210 17:18 10.08.2019
3889 Clouds 28 1003 83 10000 5.1 210 16:42 10.08.2019
3890 Clouds 28 1003 83 10000 5.1 210 16:20 10.08.2019
3891 Rain 29 1002 79 10000 4.6 190 15:43 10.08.2019
3892 Rain 29 1002 79 10000 4.6 190 15:21 10.08.2019
3893 Clouds 29 1001 74 10000 6.2 210 14:43 10.08.2019
3894 Clouds 29 1001 74 10000 6.2 210 14:19 10.08.2019
3895 Clouds 29 1000 74 10000 5.1 200 13:40 10.08.2019
3896 Rain 29 1000 74 10000 5.1 200 13:19 10.08.2019
3897 Clouds 29 1000 83 10000 4.1 200 12:44 10.08.2019
3898 Clouds 30 1000 83 10000 4.1 200 12:23 10.08.2019
3899 Rain 30 1000 79 10000 5.1 210 11:58 10.08.2019
3900 Rain 30 1000 79 10000 7.2 230 11:39 10.08.2019
3901 Rain 29 1000 79 10000 7.2 230 11:21 10.08.2019
3902 Rain 29 1001 88 10000 6.7 240 10:39 10.08.2019
3903 Rain 29 1001 88 10000 6.7 240 10:20 10.08.2019
3904 Thunderstorm 29 1001 79 5000 7.7 260 10:00 10.08.2019
3905 Rain 30 1001 63 10000 8.2 210 09:39 10.08.2019
3906 Rain 32 1001 63 10000 8.2 210 09:21 10.08.2019
3907 Clouds 33 1001 63 10000 5.1 210 08:39 10.08.2019
3908 Clouds 33 1001 63 10000 5.1 210 08:39 10.08.2019
3909 Clouds 31 1001 63 10000 5.1 210 08:20 10.08.2019
3910 Clouds 32 1002 62 10000 4.6 200 07:53 10.08.2019
3911 Clouds 32 1002 62 10000 5.7 190 07:27 10.08.2019
3912 Clouds 31 1003 66 10000 5.1 200 06:48 10.08.2019
3913 Clouds 31 1003 66 10000 5.1 200 06:21 10.08.2019
3914 Clouds 30 1003 70 10000 4.1 190 05:24 10.08.2019
3915 Clouds 30 1003 74 10000 4.6 190 04:26 10.08.2019
3916 Clouds 28 1002 74 10000 3.6 200 02:54 10.08.2019
3917 Clouds 28 1002 78 10000 2.6 190 02:23 10.08.2019
3918 Clouds 27 1002 83 10000 1 140 01:41 10.08.2019
3919 Clouds 27 1002 83 10000 1 140 01:21 10.08.2019
3920 Clouds 27 1002 78 10000 2.1 160 00:46 10.08.2019
3921 Clouds 27 1002 78 10000 2.1 160 00:22 10.08.2019
3922 Clouds 27 1001 74 10000 4.1 230 23:44 09.08.2019
3923 Clouds 27 1001 74 10000 4.1 230 23:24 09.08.2019
3924 Clouds 27 1001 78 10000 2.6 230 22:57 09.08.2019
3925 Clouds 27 1001 78 10000 3.6 210 22:38 09.08.2019
3926 Clouds 27 1001 78 10000 3.6 210 22:20 09.08.2019
3927 Clouds 27 1002 78 10000 3.1 200 21:43 09.08.2019
3928 Clouds 27 1002 78 10000 3.1 200 21:24 09.08.2019
3929 Clouds 27 1002 78 10000 3.1 200 21:24 09.08.2019
3930 Clouds 27 1003 78 10000 2.6 210 20:59 09.08.2019
3931 Clouds 27 1003 78 10000 3.1 250 20:40 09.08.2019
3932 Clouds 28 1003 78 10000 3.1 250 20:21 09.08.2019
3933 Clouds 28 1003 74 10000 2.6 260 19:56 09.08.2019
3934 Clouds 28 1004 74 10000 2.6 270 19:38 09.08.2019
3935 Clouds 28 1004 74 10000 2.6 270 19:18 09.08.2019
3936 Clouds 28 1004 74 10000 1.5 300 18:41 09.08.2019
3937 Clouds 28 1004 74 10000 1.5 300 18:22 09.08.2019
3938 Clouds 28 1004 74 10000 2.6 320 17:57 09.08.2019
3939 Clouds 28 1004 74 10000 3.1 300 17:39 09.08.2019
3940 Clouds 28 1004 74 10000 3.1 300 17:20 09.08.2019
3941 Clouds 29 1003 70 10000 4.6 280 16:41 09.08.2019
3942 Clouds 29 1003 70 10000 4.6 280 16:23 09.08.2019
3943 Clouds 29 1003 70 10000 5.1 260 15:57 09.08.2019
3944 Clouds 29 1002 74 10000 5.1 240 15:39 09.08.2019
3945 Clouds 29 1002 74 10000 5.1 240 15:20 09.08.2019
3946 Clouds 29 1002 74 10000 5.1 240 15:20 09.08.2019
3947 -273 0 0 0 0 0 14:55 09.08.2019
3948 Clouds 29 1002 83 10000 4.1 210 14:55 09.08.2019
3949 Clouds 29 1001 83 10000 4.6 210 14:36 09.08.2019
3950 Clouds 29 1001 74 10000 4.1 200 14:18 09.08.2019
3951 Clouds 29 1000 79 10000 5.1 200 13:42 09.08.2019
3952 Clouds 30 1000 79 10000 5.1 200 13:20 09.08.2019
3953 Clouds 31 1000 59 10000 6.2 250 12:46 09.08.2019
3954 Clouds 31 1000 59 10000 6.2 250 12:24 09.08.2019
3955 Clouds 30 1000 66 10000 6.2 240 11:59 09.08.2019
3956 Clouds 31 1000 63 10000 5.7 250 11:37 09.08.2019
3957 Clouds 31 1000 63 10000 5.7 250 11:37 09.08.2019
3958 Clouds 31 1000 63 10000 5.7 250 11:18 09.08.2019
3959 Rain 29 1001 63 10000 7.2 250 10:40 09.08.2019
3960 Rain 29 1001 63 10000 7.2 250 10:21 09.08.2019
3961 Rain 29 1002 66 10000 6.2 260 09:46 09.08.2019
3962 Rain 30 1002 66 10000 6.2 260 09:20 09.08.2019
3963 Rain 29 1003 70 10000 6.2 250 08:58 09.08.2019
3964 Rain 29 1003 74 10000 6.7 250 08:39 09.08.2019
3965 Rain 29 1003 74 10000 6.7 250 08:19 09.08.2019
3966 Rain 28 1004 79 9000 6.2 260 07:44 09.08.2019
3967 Rain 28 1004 79 9000 6.2 260 07:23 09.08.2019
3968 Rain 29 1005 79 9000 5.1 270 06:56 09.08.2019
3969 Rain 29 1005 79 9000 5.1 270 06:56 09.08.2019
3970 Rain 29 1005 79 9000 5.1 270 06:56 09.08.2019
3971 Rain 29 1005 83 9000 5.1 250 06:30 09.08.2019
3972 Rain 29 1005 79 8000 5.1 260 05:57 09.08.2019
3973 Rain 28 1005 83 9000 4.6 250 04:21 09.08.2019
3974 Rain 26 1004 88 9000 2.6 200 01:58 09.08.2019
3975 Clouds 26 1004 83 10000 4.46 251.719 00:48 09.08.2019
3976 Clouds 26 1004 83 10000 4.46 251.719 00:26 09.08.2019
3977 Clouds 26 1004 88 10000 1.5 210 23:59 08.08.2019
3978 Clouds 26 1004 88 10000 2.6 220 23:38 08.08.2019
3979 Clouds 26 1004 88 10000 2.6 220 23:19 08.08.2019
3980 Clouds 26 1004 83 10000 3.1 230 22:58 08.08.2019
3981 Rain 26 1004 83 10000 3.6 230 22:37 08.08.2019
3982 Rain 26 1004 83 10000 3.6 230 22:37 08.08.2019
3983 Rain 26 1004 83 10000 3.6 230 22:18 08.08.2019
3984 Clouds 26 1004 83 10000 3.1 230 21:57 08.08.2019
3985 Clouds 26 1005 83 10000 4.1 230 21:39 08.08.2019
3986 Clouds 26 1005 83 10000 4.1 230 21:20 08.08.2019
3987 Clouds 26 1005 88 10000 3.1 240 20:42 08.08.2019
3988 Clouds 26 1005 88 10000 3.1 240 20:22 08.08.2019
3989 Rain 27 1005 88 10000 4.1 230 19:59 08.08.2019
3990 Rain 27 1006 88 9000 4.6 230 19:41 08.08.2019
3991 Rain 27 1006 88 9000 4.6 230 19:20 08.08.2019
3992 Clouds 27 1006 78 10000 3.1 260 18:43 08.08.2019
3993 Clouds 28 1006 78 10000 3.1 260 18:22 08.08.2019
3994 Clouds 28 1006 78 10000 3.6 240 17:55 08.08.2019
3995 Clouds 28 1006 78 10000 3.6 240 17:37 08.08.2019
3996 Clouds 28 1006 78 10000 4.1 240 17:18 08.08.2019
3997 Clouds 28 1005 78 10000 4.1 250 16:42 08.08.2019
3998 Clouds 28 1005 78 10000 4.1 250 16:24 08.08.2019
3999 Clouds 28 1005 78 10000 4.6 240 15:58 08.08.2019
4000 Clouds 28 1005 78 10000 4.6 240 15:58 08.08.2019
4001 Clouds 29 1004 74 10000 5.1 260 15:39 08.08.2019
4002 Clouds 29 1004 74 10000 5.1 260 15:20 08.08.2019
4003 Clouds 29 1004 74 10000 5.7 250 14:41 08.08.2019
4004 Clouds 29 1004 74 10000 5.7 250 14:23 08.08.2019
4005 Clouds 29 1003 74 10000 5.1 250 13:57 08.08.2019
4006 Clouds 30 1003 70 10000 5.7 260 13:38 08.08.2019
4007 Clouds 30 1003 70 10000 6.7 260 13:18 08.08.2019
4008 Clouds 29 1003 66 10000 7.7 260 12:39 08.08.2019
4009 Clouds 30 1003 66 10000 7.2 250 12:19 08.08.2019
4010 Clouds 30 1003 62 10000 6.7 270 11:48 08.08.2019
4011 Clouds 31 1003 62 10000 6.7 270 11:27 08.08.2019
4012 Clouds 31 1003 62 10000 6.7 270 11:27 08.08.2019
4013 Clouds 31 1004 66 10000 7.2 290 10:59 08.08.2019
4014 Clouds 31 1004 66 10000 7.2 290 10:59 08.08.2019
4015 Clouds 30 1004 62 10000 7.2 280 10:40 08.08.2019
4016 Clouds 32 1004 62 10000 7.2 280 10:20 08.08.2019
4017 Clouds 32 1004 62 10000 7.7 270 09:44 08.08.2019
4018 Clouds 32 1004 62 10000 7.7 270 09:25 08.08.2019
4019 Clouds 32 1005 62 10000 7.2 280 08:56 08.08.2019
4020 Clouds 32 1005 66 10000 6.7 260 08:36 08.08.2019
4021 Clouds 32 1006 66 10000 7.2 260 08:18 08.08.2019
4022 Clouds 31 1006 70 10000 6.7 250 07:39 08.08.2019
4023 Clouds 31 1007 70 10000 8.2 260 07:19 08.08.2019
4024 Clouds 30 1007 70 10000 6.2 270 06:46 08.08.2019
4025 Clouds 30 1007 70 10000 6.7 270 06:19 08.08.2019
4026 Clouds 30 1007 70 10000 6.7 270 05:51 08.08.2019
4027 Clouds 29 1006 79 10000 4.6 270 04:43 08.08.2019
4028 Clouds 29 1006 83 10000 4.6 250 03:51 08.08.2019
4029 Rain 26 1004 94 10000 2.6 240 01:59 08.08.2019
4030 Rain 26 1004 94 10000 2.6 250 01:33 08.08.2019
4031 Rain 26 1005 94 9000 2.1 270 00:25 08.08.2019
4032 Rain 26 1005 94 9000 3.1 250 23:46 07.08.2019
4033 Rain 26 1005 94 9000 3.1 250 23:19 07.08.2019
4034 Rain 26 1005 94 7000 4.1 230 22:55 07.08.2019
4035 Rain 26 1005 88 9000 3.6 240 22:36 07.08.2019
4036 Rain 26 1005 88 9000 3.6 240 22:18 07.08.2019
4037 Rain 26 1005 88 9000 3.6 240 22:18 07.08.2019
4038 Rain 26 1005 94 9000 3.6 240 21:54 07.08.2019
4039 Rain 26 1006 83 9000 4.1 240 21:36 07.08.2019
4040 Rain 27 1006 83 9000 4.1 240 21:18 07.08.2019
4041 Rain 27 1007 83 9000 3.6 250 20:41 07.08.2019
4042 Rain 27 1007 83 9000 3.6 250 20:41 07.08.2019
4043 Rain 27 1007 83 9000 3.6 250 20:23 07.08.2019
4044 Rain 27 1007 83 9000 3.1 250 19:56 07.08.2019
4045 Rain 27 1007 83 9000 3.6 250 19:38 07.08.2019
4046 Rain 28 1007 83 9000 3.6 250 19:19 07.08.2019
4047 Clouds 28 1007 74 10000 3.1 270 18:41 07.08.2019
4048 Clouds 28 1007 74 10000 4.1 270 18:20 07.08.2019
4049 Clouds 28 1007 74 10000 4.1 270 17:57 07.08.2019
4050 Clouds 29 1007 70 10000 4.1 270 17:38 07.08.2019
4051 Clouds 29 1007 70 10000 4.1 270 17:20 07.08.2019
4052 Clouds 29 1007 70 10000 3.6 270 16:57 07.08.2019
4053 Clouds 29 1007 70 10000 3.6 270 16:57 07.08.2019
4054 Clouds 29 1007 70 10000 3.6 270 16:57 07.08.2019
4055 Clouds 29 1006 74 10000 4.1 270 16:39 07.08.2019
4056 Clouds 29 1006 70 10000 4.6 260 16:19 07.08.2019
4057 Clouds 29 1006 70 10000 4.6 260 15:55 07.08.2019
4058 Clouds 30 1005 66 10000 5.7 270 15:37 07.08.2019
4059 Clouds 30 1005 66 10000 5.7 270 15:37 07.08.2019
4060 Clouds 30 1005 70 10000 4.1 250 15:18 07.08.2019
4061 Clouds 30 1004 66 10000 4.6 260 14:45 07.08.2019
4062 Clouds 30 1004 66 10000 4.6 260 14:24 07.08.2019
4063 Clouds 30 1004 66 10000 4.1 270 13:41 07.08.2019
4064 Clouds 30 1004 66 10000 4.1 270 13:19 07.08.2019
4065 Clouds 30 1004 66 10000 4.1 270 13:19 07.08.2019
4066 Rain 30 1004 66 10000 5.1 260 12:58 07.08.2019
4067 Clouds 31 1004 62 10000 6.7 260 12:39 07.08.2019
4068 Clouds 31 1004 62 10000 6.7 260 12:20 07.08.2019
4069 Rain 30 1004 66 10000 5.1 270 11:58 07.08.2019
4070 Clouds 31 1004 59 10000 6.7 270 11:40 07.08.2019
4071 Clouds 31 1004 59 10000 6.7 270 11:19 07.08.2019
4072 Rain 31 1005 70 10000 4.1 250 10:41 07.08.2019
4073 Rain 31 1005 70 10000 4.1 250 10:20 07.08.2019
4074 Rain 31 1005 66 10000 5.7 260 09:59 07.08.2019
4075 Rain 31 1006 66 10000 6.2 270 09:41 07.08.2019
4076 Rain 31 1006 66 10000 6.2 270 09:21 07.08.2019
4077 Clouds 31 1006 62 10000 5.1 280 08:45 07.08.2019
4078 Clouds 32 1006 62 10000 5.1 280 08:25 07.08.2019
4079 Clouds 32 1006 62 10000 5.7 260 07:51 07.08.2019
4080 Clouds 31 1007 62 10000 4.1 280 07:32 07.08.2019
4081 Clouds 31 1007 66 10000 3.1 280 06:50 07.08.2019
4082 Clouds 31 1008 70 10000 3.1 260 06:26 07.08.2019
4083 Clouds 29 1008 70 10000 3.1 220 05:43 07.08.2019
4084 Clouds 29 1008 78 10000 4.1 230 04:41 07.08.2019
4085 Clouds 27 1008 83 10000 3.6 230 03:18 07.08.2019
4086 Rain 27 1007 94 10000 2.6 210 02:39 07.08.2019
4087 Rain 26 1007 88 10000 3.1 240 01:52 07.08.2019
4088 Clouds 26 1007 88 10000 3.6 230 01:22 07.08.2019
4089 Clouds 26 1007 94 10000 2.6 240 00:24 07.08.2019
4090 Clouds 26 1007 94 10000 3.1 230 23:59 06.08.2019
4091 Rain 26 1007 94 10000 3.1 220 23:38 06.08.2019
4092 Rain 26 1007 94 10000 3.1 220 23:20 06.08.2019
4093 Rain 26 1008 94 10000 2.6 210 22:40 06.08.2019
4094 Rain 26 1008 94 10000 2.6 210 22:22 06.08.2019
4095 Rain 26 1008 94 8000 3.6 200 21:57 06.08.2019
4096 Rain 26 1008 100 8000 2.1 210 21:38 06.08.2019
4097 Rain 26 1008 100 8000 2.1 210 21:19 06.08.2019
4098 Rain 26 1008 100 8000 2.1 210 21:19 06.08.2019
4099 Rain 26 1008 94 8000 4.1 240 20:46 06.08.2019
4100 Rain 26 1008 94 8000 4.1 240 20:28 06.08.2019
4101 Rain 26 1008 88 8000 3.1 240 19:57 06.08.2019
4102 Rain 25 1008 94 6000 3.6 300 19:38 06.08.2019
4103 Rain 26 1008 94 6000 3.6 300 19:19 06.08.2019
4104 Clouds 28 1008 88 10000 2.6 180 18:41 06.08.2019
4105 Clouds 28 1008 88 10000 2.6 180 18:23 06.08.2019
4106 Clouds 28 1009 88 10000 2.1 180 17:57 06.08.2019
4107 Clouds 28 1008 83 10000 2.1 180 17:37 06.08.2019
4108 Clouds 29 1008 83 10000 2.1 180 17:19 06.08.2019
4109 Clouds 28 1008 83 10000 2.6 180 16:47 06.08.2019
4110 Clouds 27 1008 83 10000 2.6 180 16:25 06.08.2019
4111 Clouds 28 1007 83 10000 3.1 210 15:59 06.08.2019
4112 Clouds 29 1006 79 10000 4.1 230 15:40 06.08.2019
4113 Clouds 29 1006 79 10000 4.1 230 15:21 06.08.2019
4114 Clouds 29 1006 94 10000 1.5 140 14:59 06.08.2019
4115 Clouds 29 1006 83 10000 2.43 233.768 14:37 06.08.2019
4116 Clouds 29 1006 83 10000 2.43 233.768 14:19 06.08.2019
4117 Rain 28 1005 83 7000 3.1 230 13:45 06.08.2019
4118 Rain 28 1005 83 7000 3.1 230 13:26 06.08.2019
4119 Rain 29 1005 74 7000 5.1 210 12:59 06.08.2019
4120 Rain 30 1005 66 10000 2.6 280 12:40 06.08.2019
4121 Rain 30 1005 66 10000 2.6 280 12:21 06.08.2019
4122 Clouds 31 1005 66 10000 3.6 280 11:45 06.08.2019
4123 -273 0 0 0 0 0 11:20 06.08.2019
4124 Clouds 31 1005 66 10000 4.6 260 10:59 06.08.2019
4125 Clouds 31 1005 66 10000 3.1 250 10:39 06.08.2019
4126 Clouds 31 1005 66 10000 3.1 250 10:39 06.08.2019
4127 Clouds 31 1005 66 10000 3.1 250 10:21 06.08.2019
4128 Clouds 33 1006 62 10000 5.1 280 09:41 06.08.2019
4129 Clouds 32 1006 62 10000 5.1 280 09:21 06.08.2019
4130 Clouds 33 1006 62 10000 5.1 280 08:51 06.08.2019
4131 Clouds 33 1006 62 10000 4.6 280 08:28 06.08.2019
4132 Clouds 32 1006 62 10000 4.6 290 07:59 06.08.2019
4133 Clouds 32 1007 62 10000 4.6 290 07:29 06.08.2019
4134 Clouds 31 1007 70 10000 3.6 270 06:44 06.08.2019
4135 Clouds 30 1007 70 10000 3.6 270 06:22 06.08.2019
4136 Clouds 29 1007 74 10000 4.6 260 05:23 06.08.2019
4137 Rain 27 1007 88 10000 2.6 240 02:48 06.08.2019
4138 Clouds 27 1007 94 10000 2.1 250 01:25 06.08.2019
4139 Clouds 26 1006 94 10000 1.5 240 00:51 06.08.2019
4140 Rain 26 1006 88 10000 2.1 250 23:59 05.08.2019
4141 Rain 26 1006 88 9000 3.6 230 23:20 05.08.2019
4142 Rain 27 1006 83 8000 5.1 230 22:42 05.08.2019
4143 Rain 27 1006 83 8000 5.1 230 22:23 05.08.2019
4144 Clouds 28 1006 88 10000 3.28 184.357 21:58 05.08.2019
4145 Clouds 27 1006 88 10000 1 170 21:40 05.08.2019
4146 Clouds 27 1006 88 10000 1 170 21:19 05.08.2019
4147 Clouds 27 1006 94 10000 2.09 218.878 20:57 05.08.2019
4148 Clouds 27 1006 94 10000 1 140 20:38 05.08.2019
4149 Clouds 27 1006 94 10000 1 140 20:20 05.08.2019
4150 Clouds 27 1007 94 10000 1 140 19:43 05.08.2019
4151 Clouds 27 1007 94 10000 1 140 19:25 05.08.2019
4152 Rain 27 1007 94 10000 1 130 18:58 05.08.2019
4153 Clouds 27 1007 94 10000 1.5 140 18:40 05.08.2019
4154 Rain 27 1007 94 10000 1.5 150 18:19 05.08.2019
4155 Rain 27 1006 94 10000 2.1 170 17:46 05.08.2019
4156 Rain 27 1006 94 10000 2.1 170 17:27 05.08.2019
4157 Rain 27 1005 88 10000 2.1 150 16:47 05.08.2019
4158 Rain 26 1005 88 10000 2.1 150 16:26 05.08.2019
4159 Clouds 27 1005 94 10000 2.1 150 15:56 05.08.2019
4160 Clouds 26 1005 94 10000 2.6 170 15:38 05.08.2019
4161 Clouds 26 1005 94 10000 2.1 160 15:19 05.08.2019
4162 Clouds 26 1005 94 10000 3.1 170 14:39 05.08.2019
4163 Clouds 26 1005 94 10000 3.1 170 14:19 05.08.2019
4164 Rain 26 1004 100 9000 5.1 180 13:44 05.08.2019
4165 Rain 26 1004 100 9000 5.1 180 13:22 05.08.2019
4166 -273 0 0 0 0 0 13:22 05.08.2019
4167 Rain 27 1004 83 3000 5.7 210 12:48 05.08.2019
4168 Clouds 30 1004 70 10000 5.1 200 12:20 05.08.2019
4169 Clouds 31 1004 70 10000 5.7 190 11:47 05.08.2019
4170 Clouds 31 1004 70 10000 5.7 190 11:28 05.08.2019
4171 Rain 31 1004 66 10000 5.1 200 10:59 05.08.2019
4172 Clouds 31 1004 59 10000 2.6 210 10:41 05.08.2019
4173 Clouds 31 1004 59 10000 2.6 210 10:21 05.08.2019
4174 Clouds 32 1004 59 10000 2.6 200 09:43 05.08.2019
4175 Clouds 32 1004 59 10000 2.6 200 09:24 05.08.2019
4176 Clouds 31 1005 62 10000 2.6 230 08:50 05.08.2019
4177 Clouds 32 1005 62 10000 3.1 220 08:28 05.08.2019
4178 Clouds 31 1005 59 10000 3.1 240 07:55 05.08.2019
4179 Clouds 31 1006 66 10000 3.1 190 07:32 05.08.2019
4180 Clouds 31 1006 66 10000 3.6 220 06:59 05.08.2019
4181 Clouds 31 1006 66 10000 5.1 220 06:29 05.08.2019
4182 Clouds 30 1006 70 10000 4.6 220 05:46 05.08.2019
4183 Clouds 30 1006 70 10000 4.6 220 05:18 05.08.2019
4184 Clouds 28 1005 83 10000 5.1 210 03:58 05.08.2019
4185 Clouds 27 1005 88 10000 2.1 180 03:20 05.08.2019
4186 Clouds 26 1005 94 10000 1.5 200 02:26 05.08.2019
4187 Rain 25 1004 88 10000 3.1 210 01:32 05.08.2019
4188 Rain 25 1004 88 8000 3.6 230 00:41 05.08.2019
4189 Rain 25 1004 88 8000 3.6 230 00:21 05.08.2019
4190 Rain 26 1004 83 8000 3.1 260 23:55 04.08.2019
4191 Rain 26 1004 88 8000 5.1 250 23:36 04.08.2019
4192 Rain 27 1004 88 8000 5.1 250 23:18 04.08.2019
4193 Rain 27 1004 88 6000 2.6 250 22:54 04.08.2019
4194 Rain 27 1004 88 10000 2.6 180 22:36 04.08.2019
4195 Rain 27 1004 88 10000 2.6 180 22:18 04.08.2019
4196 Clouds 27 1004 83 10000 2.1 210 21:41 04.08.2019
4197 Clouds 27 1004 83 10000 2.1 210 21:20 04.08.2019
4198 Clouds 27 1005 83 10000 2.1 190 20:43 04.08.2019
4199 Clouds 27 1005 83 10000 2.1 190 20:19 04.08.2019
4200 Clouds 27 1005 83 10000 1.5 170 19:56 04.08.2019
4201 Clouds 27 1005 83 10000 2.1 190 19:37 04.08.2019
4202 Clouds 27 1005 83 10000 3.1 200 19:19 04.08.2019
4203 Clouds 27 1006 83 10000 3.1 210 18:42 04.08.2019
4204 Clouds 27 1006 83 10000 3.1 210 18:42 04.08.2019
4205 Clouds 27 1006 83 10000 3.1 210 18:20 04.08.2019
4206 Clouds 27 1005 83 10000 3.1 210 17:44 04.08.2019
4207 Clouds 27 1005 83 10000 3.1 210 17:24 04.08.2019
4208 Clouds 27 1004 83 10000 3.1 210 16:55 04.08.2019
4209 Clouds 27 1004 78 10000 3.6 230 16:36 04.08.2019
4210 Rain 27 1004 78 10000 5.1 240 16:18 04.08.2019
4211 Rain 28 1004 78 10000 5.7 230 15:39 04.08.2019
4212 Rain 28 1004 78 10000 5.7 230 15:20 04.08.2019
4213 Rain 29 1004 70 8000 5.1 210 14:44 04.08.2019
4214 Rain 29 1004 70 8000 5.1 210 14:26 04.08.2019
4215 Rain 30 1003 66 10000 5.1 220 13:47 04.08.2019
4216 Rain 30 1003 66 10000 5.1 220 13:27 04.08.2019
4217 Rain 30 1003 66 10000 5.1 220 13:27 04.08.2019
4218 Clouds 30 1003 66 10000 6.2 240 12:57 04.08.2019
4219 Clouds 30 1003 62 10000 6.2 250 12:39 04.08.2019
4220 Clouds 31 1003 62 10000 6.2 250 12:21 04.08.2019
4221 Clouds 31 1003 62 10000 6.7 250 11:49 04.08.2019
4222 Clouds 31 1003 62 10000 6.7 250 11:23 04.08.2019
4223 Clouds 31 1003 62 10000 5.1 250 10:51 04.08.2019
4224 Clouds 31 1003 62 10000 5.7 260 10:23 04.08.2019
4225 Clouds 31 1004 66 10000 6.2 250 09:47 04.08.2019
4226 Clouds 31 1004 66 10000 6.2 250 09:27 04.08.2019
4227 Clouds 30 1005 66 10000 5.1 260 08:59 04.08.2019
4228 Clouds 30 1005 66 10000 5.7 250 08:38 04.08.2019
4229 Clouds 30 1005 66 10000 5.7 260 07:56 04.08.2019
4230 Clouds 30 1005 66 10000 4.1 270 07:37 04.08.2019
4231 Clouds 29 1005 70 10000 5.1 270 06:43 04.08.2019
4232 Clouds 29 1005 70 10000 5.1 270 06:19 04.08.2019
4233 Clouds 27 1005 78 10000 5.7 260 03:38 04.08.2019
4234 Rain 26 1005 83 10000 5.1 250 01:55 04.08.2019
4235 Rain 26 1005 88 9000 4.6 230 01:32 04.08.2019
4236 Rain 26 1006 88 9000 4.1 260 00:43 04.08.2019
4237 Rain 26 1006 88 9000 4.1 260 00:24 04.08.2019
4238 Rain 26 1006 88 9000 4.6 260 23:56 03.08.2019
4239 Clouds 27 1006 83 10000 5.1 240 23:37 03.08.2019
4240 Clouds 27 1006 83 10000 5.1 240 23:18 03.08.2019
4241 Clouds 27 1005 74 10000 4.1 220 22:40 03.08.2019
4242 Clouds 28 1005 74 10000 4.1 220 22:19 03.08.2019
4243 Clouds 28 1005 74 10000 5.1 220 21:39 03.08.2019
4244 Clouds 28 1005 74 10000 5.1 220 21:21 03.08.2019
4245 Clouds 28 1007 69 10000 4.1 210 20:45 03.08.2019
4246 Clouds 28 1007 69 10000 4.1 210 20:24 03.08.2019
4247 Clouds 28 1007 69 10000 5.1 210 19:55 03.08.2019
4248 Clouds 28 1007 65 10000 4.1 220 19:36 03.08.2019
4249 Clouds 28 1007 65 10000 4.1 220 19:18 03.08.2019
4250 Clouds 29 1007 62 10000 4.1 230 18:40 03.08.2019
4251 Clouds 29 1007 62 10000 4.1 230 18:21 03.08.2019
4252 Clouds 29 1006 66 10000 4.6 230 17:42 03.08.2019
4253 Clouds 29 1006 66 10000 4.6 230 17:19 03.08.2019
4254 Clouds 29 1006 66 10000 4.6 250 16:38 03.08.2019
4255 Clouds 29 1006 66 10000 4.6 250 16:20 03.08.2019
4256 Clouds 29 1005 62 10000 6.2 270 15:46 03.08.2019
4257 Clouds 30 1005 62 10000 6.2 270 15:26 03.08.2019
4258 Clouds 30 1005 62 10000 7.2 280 14:48 03.08.2019
4259 Clouds 30 1005 62 10000 7.2 280 14:24 03.08.2019
4260 Clouds 30 1005 62 10000 5.1 260 13:57 03.08.2019
4261 Clouds 30 1004 62 10000 4.6 290 13:37 03.08.2019
4262 Clouds 30 1004 62 10000 4.6 290 13:37 03.08.2019
4263 Clouds 30 1004 62 10000 4.6 290 13:19 03.08.2019
4264 Clouds 31 1004 62 10000 5.1 250 12:42 03.08.2019
4265 Clouds 31 1004 62 10000 5.1 250 12:23 03.08.2019
4266 Clouds 31 1004 62 10000 5.1 260 11:55 03.08.2019
4267 Clouds 31 1004 62 10000 6.7 260 11:35 03.08.2019
4268 Clouds 32 1005 58 10000 9.8 270 10:47 03.08.2019
4269 Clouds 32 1005 58 10000 9.8 270 10:24 03.08.2019
4270 Clouds 32 1005 58 10000 9.8 270 10:24 03.08.2019
4271 Clouds 32 1005 55 10000 7.7 270 09:45 03.08.2019
4272 Clouds 31 1005 55 10000 7.7 270 09:24 03.08.2019
4273 Clouds 31 1005 55 10000 8.2 280 08:56 03.08.2019
4274 Clouds 32 1006 59 10000 9.3 260 08:24 03.08.2019
4275 Clouds 32 1007 62 10000 9.3 260 07:38 03.08.2019
4276 Clouds 31 1008 66 10000 8.7 270 06:47 03.08.2019
4277 Clouds 30 1008 62 10000 7.2 260 05:47 03.08.2019
4278 Clouds 28 1007 74 10000 5.7 240 02:43 03.08.2019
4279 Clouds 27 1006 78 10000 5.7 240 01:54 03.08.2019
4280 Clouds 27 1006 74 10000 5.7 240 00:56 03.08.2019
4281 Clouds 28 1006 69 10000 5.7 240 00:29 03.08.2019
4282 Clouds 28 1007 74 10000 5.7 240 23:41 02.08.2019
4283 Clouds 28 1007 74 10000 5.7 240 23:20 02.08.2019
4284 Clouds 28 1007 74 10000 5.7 240 22:57 02.08.2019
4285 Clouds 28 1007 74 10000 5.7 240 22:57 02.08.2019
4286 Clouds 28 1007 74 10000 4.6 230 22:39 02.08.2019
4287 Clouds 28 1007 74 10000 4.6 230 22:20 02.08.2019
4288 Clouds 28 1007 74 10000 3.6 240 21:55 02.08.2019
4289 Clouds 28 1007 74 10000 4.1 240 21:36 02.08.2019
4290 Clouds 28 1007 66 10000 4.6 240 21:18 02.08.2019
4291 Clouds 28 1007 66 10000 4.6 240 20:41 02.08.2019
4292 Clouds 29 1007 66 10000 4.6 240 20:21 02.08.2019
4293 Clouds 29 1007 66 10000 4.6 240 19:49 02.08.2019
4294 Clouds 29 1008 66 10000 4.6 240 19:28 02.08.2019
4295 Clouds 29 1008 66 10000 4.1 240 18:45 02.08.2019
4296 Clouds 29 1008 66 10000 4.1 240 18:27 02.08.2019
4297 Clouds 29 1008 66 10000 4.6 240 17:48 02.08.2019
4298 Clouds 30 1007 62 10000 4.6 240 17:26 02.08.2019
4299 Clouds 30 1007 62 10000 5.1 240 16:59 02.08.2019
4300 Clouds 30 1007 62 10000 4.6 230 16:39 02.08.2019
4301 Clouds 30 1007 62 10000 4.6 230 16:19 02.08.2019
4302 Clouds 30 1007 62 10000 4.1 250 15:44 02.08.2019
4303 Clouds 30 1007 62 10000 4.1 250 15:20 02.08.2019
4304 Clouds 31 1006 55 10000 5.7 260 14:47 02.08.2019
4305 Clouds 31 1006 55 10000 5.7 260 14:19 02.08.2019
4306 Clouds 31 1006 55 10000 6.2 270 13:50 02.08.2019
4307 Clouds 31 1006 58 10000 6.2 260 13:29 02.08.2019
4308 Clouds 31 1005 52 10000 8.2 250 12:47 02.08.2019
4309 Clouds 31 1005 52 10000 8.2 250 12:24 02.08.2019
4310 Clouds 32 1005 52 10000 7.2 250 11:58 02.08.2019
4311 Clouds 32 1005 49 10000 8.7 270 11:39 02.08.2019
4312 Clouds 32 1005 49 10000 8.7 270 11:21 02.08.2019
4313 Clouds 32 1005 49 10000 7.7 270 10:43 02.08.2019
4314 Clouds 32 1005 49 10000 7.7 270 10:23 02.08.2019
4315 Clouds 32 1005 52 10000 7.2 270 09:52 02.08.2019
4316 Clouds 31 1005 55 10000 7.2 280 09:29 02.08.2019
4317 Clouds 31 1006 52 10000 9.3 270 08:53 02.08.2019
4318 Clouds 32 1006 55 10000 9.8 290 08:25 02.08.2019
4319 Clouds 32 1006 55 10000 8.2 290 07:52 02.08.2019
4320 Clouds 31 1007 58 10000 10.3 280 07:34 02.08.2019
4321 Clouds 31 1007 58 10000 8.2 280 06:58 02.08.2019
4322 Clouds 31 1007 66 10000 8.2 270 06:27 02.08.2019
4323 Clouds 29 1008 74 10000 7.7 260 05:38 02.08.2019
4324 Clouds 28 1008 69 10000 4.6 230 03:31 02.08.2019
4325 Clouds 27 1007 74 10000 3.6 220 02:37 02.08.2019
4326 Clouds 26 1006 78 10000 3.1 220 00:54 02.08.2019
4327 Clouds 26 1006 83 10000 2.6 230 00:20 02.08.2019
4328 Clouds 26 1006 78 10000 3.1 260 23:43 01.08.2019
4329 Clouds 26 1006 78 10000 3.1 260 23:19 01.08.2019
4330 Rain 26 1006 74 10000 3.1 260 22:41 01.08.2019
4331 Rain 26 1006 74 10000 3.1 260 22:21 01.08.2019
4332 Clouds 26 1007 69 10000 3.6 260 21:54 01.08.2019
4333 Clouds 26 1007 74 10000 4.1 280 21:36 01.08.2019
4334 Clouds 27 1007 74 10000 4.1 280 21:18 01.08.2019
4335 Clouds 27 1008 74 10000 4.1 270 20:41 01.08.2019
4336 Clouds 27 1008 74 10000 4.1 270 20:22 01.08.2019
4337 Clouds 27 1008 65 10000 2.6 300 19:44 01.08.2019
4338 Clouds 28 1008 65 10000 2.6 300 19:22 01.08.2019
4339 Rain 28 1009 65 10000 3.1 260 18:46 01.08.2019
4340 Rain 28 1009 65 10000 3.1 260 18:25 01.08.2019
4341 Rain 28 1008 65 10000 3.1 250 17:57 01.08.2019
4342 Rain 28 1009 65 10000 2.6 260 17:39 01.08.2019
4343 Clouds 28 1008 65 10000 4.1 260 17:20 01.08.2019
4344 Clouds 28 1008 65 10000 3.6 270 16:44 01.08.2019
4345 Clouds 28 1008 65 10000 3.6 270 16:21 01.08.2019
4346 Clouds 28 1007 62 10000 4.1 270 15:45 01.08.2019
4347 Clouds 28 1007 62 10000 4.1 270 15:20 01.08.2019
4348 Clouds 29 1006 58 10000 7.7 270 14:44 01.08.2019
4349 Clouds 29 1006 58 10000 7.7 270 14:22 01.08.2019
4350 Clouds 29 1005 58 10000 7.2 270 13:59 01.08.2019
4351 Clouds 29 1005 55 10000 7.7 270 13:40 01.08.2019
4352 Clouds 29 1005 55 10000 7.7 270 13:21 01.08.2019
4353 Clouds 29 1005 55 10000 8.2 280 12:49 01.08.2019
4354 Rain 31 1005 55 10000 9.3 290 12:28 01.08.2019
4355 Clouds 30 1005 58 10000 6.2 260 11:58 01.08.2019
4356 Clouds 31 1005 55 10000 7.2 260 11:40 01.08.2019
4357 Clouds 31 1005 55 10000 7.2 260 11:22 01.08.2019
4358 Clouds 30 1005 62 10000 7.7 250 10:41 01.08.2019
4359 Clouds 30 1005 62 10000 7.7 250 10:23 01.08.2019
4360 Rain 30 1006 62 10000 7.2 260 09:50 01.08.2019
4361 Rain 30 1006 62 10000 7.2 260 09:50 01.08.2019
4362 Rain 28 1006 74 9000 7.2 250 09:24 01.08.2019
4363 Rain 29 1006 70 10000 6.7 230 08:57 01.08.2019
4364 Clouds 30 1007 70 9000 7.7 240 08:39 01.08.2019
4365 Clouds 30 1007 66 9000 5.7 230 08:18 01.08.2019
4366 Clouds 30 1008 66 9000 6.7 240 07:42 01.08.2019
4367 Rain 30 1008 66 10000 6.2 250 07:18 01.08.2019
4368 Rain 30 1008 74 10000 5.1 240 06:39 01.08.2019
4369 Clouds 30 1008 66 10000 6.2 240 05:32 01.08.2019
4370 Clouds 30 1008 66 10000 6.2 240 05:32 01.08.2019
4371 Clouds 28 1007 74 10000 3.1 200 02:36 01.08.2019
4372 Clouds 27 1006 69 10000 3.6 230 01:33 01.08.2019
4373 Clouds 27 1006 74 10000 2.6 220 00:27 01.08.2019
4374 Clouds 27 1006 74 10000 2.6 220 23:59 31.07.2019
4375 Clouds 27 1007 74 10000 2.6 220 23:40 31.07.2019
4376 Clouds 27 1007 74 10000 2.6 220 23:19 31.07.2019
4377 Clouds 27 1006 74 10000 3.6 230 22:44 31.07.2019
4378 Clouds 27 1006 74 10000 3.6 230 22:25 31.07.2019
4379 Clouds 27 1007 74 10000 4.1 230 21:41 31.07.2019
4380 Clouds 27 1007 74 10000 4.1 230 21:23 31.07.2019
4381 Clouds 27 1007 69 10000 3.6 230 20:49 31.07.2019
4382 Clouds 27 1007 69 10000 4.1 230 20:24 31.07.2019
4383 Clouds 28 1008 69 10000 5.1 230 19:55 31.07.2019
4384 Clouds 28 1008 74 10000 4.6 250 19:37 31.07.2019
4385 Clouds 27 1008 74 10000 4.1 250 19:19 31.07.2019
4386 Clouds 28 1008 74 10000 4.6 250 18:39 31.07.2019
4387 Clouds 27 1008 74 10000 4.6 250 18:18 31.07.2019
4388 Clouds 27 1007 74 10000 4.1 250 17:45 31.07.2019
4389 Clouds 28 1007 74 10000 4.1 250 17:20 31.07.2019
4390 Clouds 28 1007 78 10000 4.6 250 16:54 31.07.2019
4391 Clouds 27 1007 74 10000 4.6 260 16:27 31.07.2019
4392 Clouds 28 1007 74 10000 6.2 260 15:58 31.07.2019
4393 Rain 28 1006 78 10000 6.7 270 15:38 31.07.2019
4394 Rain 28 1006 78 10000 6.7 270 15:38 31.07.2019
4395 Rain 28 1006 78 10000 6.7 270 15:20 31.07.2019
4396 Rain 28 1006 78 8000 5.7 260 14:42 31.07.2019
4397 Rain 28 1005 88 8000 7.7 230 14:19 31.07.2019
4398 Rain 28 1005 88 8000 7.7 230 13:55 31.07.2019
4399 Rain 29 1005 78 9000 12.9 270 13:36 31.07.2019
4400 Rain 30 1004 52 10000 5.7 260 13:18 31.07.2019
4401 Rain 30 1004 52 10000 5.7 260 13:18 31.07.2019
4402 Clouds 30 1003 49 10000 6.2 270 12:40 31.07.2019
4403 Clouds 32 1003 49 10000 6.2 270 12:21 31.07.2019
4404 Clouds 34 1004 49 10000 7.7 260 11:39 31.07.2019
4405 Clouds 32 1004 49 10000 7.7 260 11:20 31.07.2019
4406 Clouds 33 1004 46 10000 8.2 260 10:46 31.07.2019
4407 Clouds 33 1004 46 10000 8.2 260 10:21 31.07.2019
4408 Clouds 34 1005 46 10000 7.7 270 09:59 31.07.2019
4409 Clouds 33 1005 52 10000 6.7 270 09:41 31.07.2019
4410 Clouds 33 1005 52 10000 6.7 270 09:23 31.07.2019
4411 Clouds 32 1006 52 10000 6.7 270 08:42 31.07.2019
4412 Clouds 34 1006 52 10000 6.7 270 08:22 31.07.2019
4413 Clouds 33 1006 55 10000 7.2 280 07:40 31.07.2019
4414 Clouds 32 1006 55 10000 7.2 280 07:22 31.07.2019
4415 Clouds 30 1008 66 10000 7.2 270 04:56 31.07.2019
4416 Clouds 29 1007 66 10000 6.2 260 03:33 31.07.2019
4417 Clouds 28 1006 69 10000 4.6 250 00:30 31.07.2019
4418 Clouds 28 1006 65 10000 5.7 250 23:42 30.07.2019
4419 Clouds 28 1006 65 10000 5.7 250 23:20 30.07.2019
4420 Clouds 28 1006 62 10000 6.7 250 22:46 30.07.2019
4421 Clouds 28 1006 62 10000 6.7 250 22:25 30.07.2019
4422 Clouds 29 1006 62 10000 5.7 260 21:57 30.07.2019
4423 Clouds 29 1006 58 10000 6.2 260 21:36 30.07.2019
4424 Clouds 29 1006 58 10000 6.2 260 21:18 30.07.2019
4425 Clouds 29 1007 66 10000 6.2 250 20:43 30.07.2019
4426 Clouds 29 1007 66 10000 6.2 250 20:24 30.07.2019
4427 Clouds 29 1008 58 10000 7.7 260 19:59 30.07.2019
4428 Clouds 30 1008 62 10000 6.2 250 19:39 30.07.2019
4429 Clouds 30 1008 62 10000 6.2 250 18:58 30.07.2019
4430 Clouds 30 1008 62 10000 6.7 260 18:39 30.07.2019
4431 Clouds 30 1008 62 10000 7.2 260 18:19 30.07.2019
4432 Clouds 31 1008 58 10000 6.2 250 17:42 30.07.2019
4433 Clouds 31 1008 58 10000 6.7 260 17:19 30.07.2019
4434 Clouds 31 1008 58 10000 6.7 260 16:52 30.07.2019
4435 Clouds 31 1007 58 10000 5.1 260 16:21 30.07.2019
4436 Clouds 31 1007 58 10000 6.2 260 15:58 30.07.2019
4437 Clouds 31 1006 52 10000 7.2 260 15:38 30.07.2019
4438 Clouds 31 1006 52 10000 7.2 260 15:19 30.07.2019
4439 Clouds 32 1005 55 10000 5.7 260 14:42 30.07.2019
4440 Clouds 32 1005 55 10000 5.7 260 14:21 30.07.2019
4441 Clouds 32 1005 55 10000 5.7 260 14:21 30.07.2019
4442 Clouds 32 1004 52 10000 6.7 260 13:47 30.07.2019
4443 Clouds 32 1004 52 10000 6.7 260 13:29 30.07.2019
4444 Clouds 32 1004 52 10000 7.2 270 12:59 30.07.2019
4445 Clouds 32 1004 52 10000 7.2 270 12:59 30.07.2019
4446 Clouds 32 1004 52 10000 6.2 260 12:40 30.07.2019
4447 Clouds 33 1004 52 10000 6.2 260 12:22 30.07.2019
4448 Clouds 34 1004 52 10000 7.2 260 11:42 30.07.2019
4449 Clouds 34 1004 52 10000 7.2 260 11:20 30.07.2019
4450 Clouds 35 1005 52 10000 7.2 270 10:49 30.07.2019
4451 Clouds 35 1005 52 10000 7.2 280 10:29 30.07.2019
4452 Clouds 35 1005 49 10000 7.2 310 09:55 30.07.2019
4453 Clouds 35 1006 49 10000 7.2 290 09:37 30.07.2019
4454 Clouds 35 1006 49 10000 7.2 290 09:18 30.07.2019
4455 Clouds 34 1006 52 10000 7.7 290 08:32 30.07.2019
4456 Clouds 34 1007 55 10000 7.7 270 07:50 30.07.2019
4457 Clouds 33 1008 52 10000 7.2 290 07:31 30.07.2019
4458 Clouds 33 1008 55 10000 7.2 270 06:48 30.07.2019
4459 Clouds 33 1008 55 10000 7.2 270 06:28 30.07.2019
4460 Clouds 32 1009 59 10000 7.7 270 05:34 30.07.2019
4461 Clouds 29 1009 66 10000 5.1 270 03:28 30.07.2019
4462 Clouds 27 1008 69 10000 5.7 250 01:21 30.07.2019
4463 Clouds 27 1007 69 10000 5.7 250 00:22 30.07.2019
4464 Clouds 27 1008 69 10000 6.7 250 23:47 29.07.2019
4465 Clouds 27 1008 69 10000 6.7 250 23:27 29.07.2019
4466 Clouds 27 1008 69 10000 6.2 260 22:58 29.07.2019
4467 Clouds 27 1008 74 10000 5.7 240 22:39 29.07.2019
4468 Clouds 27 1008 74 10000 5.7 240 22:20 29.07.2019
4469 Clouds 27 1008 74 10000 5.7 240 21:59 29.07.2019
4470 Clouds 28 1008 74 10000 4.6 250 21:40 29.07.2019
4471 Clouds 28 1008 74 10000 4.6 250 21:21 29.07.2019
4472 Clouds 28 1008 69 10000 4.6 240 20:49 29.07.2019
4473 Clouds 28 1008 69 10000 4.1 250 20:26 29.07.2019
4474 Clouds 28 1008 69 10000 5.1 250 19:59 29.07.2019
4475 Clouds 28 1009 62 10000 3.6 250 19:41 29.07.2019
4476 Clouds 28 1009 62 10000 3.6 250 19:20 29.07.2019
4477 Clouds 29 1009 66 10000 4.6 280 18:43 29.07.2019
4478 Clouds 29 1009 66 10000 4.6 280 18:22 29.07.2019
4479 Clouds 29 1009 66 10000 4.6 280 18:22 29.07.2019
4480 Clouds 29 1009 66 10000 4.6 270 17:52 29.07.2019
4481 Clouds 29 1009 66 10000 4.6 290 17:34 29.07.2019
4482 Clouds 30 1009 62 10000 4.6 280 16:59 29.07.2019
4483 Clouds 30 1008 62 10000 4.1 280 16:40 29.07.2019
4484 Clouds 30 1008 62 10000 4.1 280 16:22 29.07.2019
4485 Clouds 30 1008 62 10000 4.1 260 15:51 29.07.2019
4486 Clouds 30 1007 62 10000 5.1 270 15:32 29.07.2019
4487 Clouds 31 1007 55 10000 5.7 260 14:56 29.07.2019
4488 Clouds 31 1006 55 10000 7.7 260 14:37 29.07.2019
4489 Clouds 31 1006 55 10000 8.7 260 14:18 29.07.2019
4490 Clouds 31 1006 52 10000 9.3 270 13:41 29.07.2019
4491 Clouds 31 1006 52 10000 9.3 270 13:23 29.07.2019
4492 Clouds 32 1005 49 10000 9.3 260 12:42 29.07.2019
4493 Clouds 32 1005 49 10000 9.3 260 12:23 29.07.2019
4494 Thunderstorm 32 1006 52 10000 7.2 270 11:43 29.07.2019
4495 Thunderstorm 33 1006 52 10000 7.2 270 11:22 29.07.2019
4496 Rain 33 1006 50 10000 8.7 260 10:45 29.07.2019
4497 Rain 34 1006 50 10000 8.7 260 10:24 29.07.2019
4498 Rain 35 1006 50 10000 8.7 280 09:48 29.07.2019
4499 Clouds 35 1007 52 10000 7.7 260 09:28 29.07.2019
4500 Clouds 34 1008 55 10000 7.2 280 08:57 29.07.2019
4501 Clouds 34 1008 59 10000 6.7 260 08:31 29.07.2019
4502 Clouds 34 1009 59 10000 6.7 260 07:58 29.07.2019
4503 Clouds 34 1009 59 10000 7.2 270 07:36 29.07.2019
4504 Clouds 34 1010 55 10000 5.7 250 06:45 29.07.2019
4505 Clouds 32 1010 59 10000 5.7 240 05:43 29.07.2019
4506 Clouds 32 1010 62 10000 4.6 260 04:49 29.07.2019
4507 Clouds 28 1008 69 10000 4.6 260 01:57 29.07.2019
4508 Clouds 28 1008 69 10000 5.1 250 01:39 29.07.2019
4509 Clouds 28 1008 69 10000 4.6 240 01:18 29.07.2019
4510 Clouds 28 1008 69 10000 4.6 240 00:38 29.07.2019
4511 Clouds 28 1007 69 10000 4.6 240 00:18 29.07.2019
4512 Clouds 28 1007 69 10000 4.6 240 23:38 28.07.2019
4513 Clouds 29 1008 66 10000 4.6 250 22:58 28.07.2019
4514 Clouds 29 1008 66 10000 5.1 250 22:37 28.07.2019
4515 Clouds 29 1008 66 10000 5.1 250 22:18 28.07.2019
4516 Clouds 29 1008 66 10000 5.1 250 21:42 28.07.2019
4517 Clouds 29 1008 66 10000 5.1 250 21:18 28.07.2019
4518 Clouds 30 1008 62 10000 4.6 240 20:43 28.07.2019
4519 Clouds 30 1008 62 10000 4.6 240 20:25 28.07.2019
4520 Clouds 30 1009 66 10000 4.6 240 19:42 28.07.2019
4521 Clouds 30 1009 66 10000 4.6 240 19:21 28.07.2019
4522 Clouds 30 1009 66 10000 5.7 230 18:47 28.07.2019
4523 Clouds 30 1009 66 10000 5.7 230 18:29 28.07.2019
4524 Clouds 30 1009 74 10000 5.1 210 17:58 28.07.2019
4525 Clouds 30 1009 74 10000 5.1 210 17:58 28.07.2019
4526 Clouds 30 1009 74 10000 5.1 210 17:39 28.07.2019
4527 Clouds 30 1009 74 10000 5.1 210 17:19 28.07.2019
4528 Clouds 30 1008 74 10000 5.1 210 16:46 28.07.2019
4529 Clouds 30 1008 74 10000 5.1 210 16:25 28.07.2019
4530 Clouds 30 1007 66 10000 6.2 220 15:49 28.07.2019
4531 Clouds 32 1006 70 10000 5.1 220 15:27 28.07.2019
4532 Clouds 32 1006 59 10000 6.2 240 14:56 28.07.2019
4533 Clouds 32 1005 59 10000 4.6 240 14:37 28.07.2019
4534 Clouds 33 1005 52 10000 2.1 250 14:18 28.07.2019
4535 Clouds 34 1004 47 10000 1.5 290 13:40 28.07.2019
4536 Clouds 34 1004 47 10000 1.5 290 13:21 28.07.2019
4537 Clouds 34 1004 47 10000 3.1 290 12:46 28.07.2019
4538 Clouds 34 1004 47 10000 3.1 290 12:28 28.07.2019
4539 Clouds 35 1004 47 10000 4.6 300 11:51 28.07.2019
4540 Clouds 35 1004 50 10000 4.6 290 11:31 28.07.2019
4541 Clouds 35 1005 49 10000 3.1 240 10:59 28.07.2019
4542 Clouds 35 1005 53 10000 2.1 0 10:38 28.07.2019
4543 Clouds 35 1005 53 10000 2.1 0 10:19 28.07.2019
4544 Clouds 35 1006 47 10000 5.1 320 09:40 28.07.2019
4545 Clouds 35 1006 47 10000 5.1 320 09:22 28.07.2019
4546 Clouds 34 1007 56 10000 2.6 200 08:42 28.07.2019
4547 Clouds 34 1007 56 10000 2.6 200 08:22 28.07.2019
4548 Clouds 34 1008 59 10000 2.6 0 07:44 28.07.2019
4549 Clouds 34 1008 59 10000 2.6 0 07:25 28.07.2019
4550 Clouds 32 1009 59 10000 3.1 210 06:36 28.07.2019
4551 Clouds 31 1009 62 10000 2.6 210 05:21 28.07.2019
4552 Clouds 28 1009 70 10000 2.6 280 02:39 28.07.2019
4553 Clouds 28 1008 74 10000 3.6 270 01:43 28.07.2019
4554 Drizzle 28 1008 70 10000 3.1 260 00:56 28.07.2019
4555 Clouds 28 1008 70 10000 2.6 280 00:37 28.07.2019
4556 Clouds 28 1008 70 10000 3.1 260 23:53 27.07.2019
4557 Thunderstorm 29 1007 74 10000 3.1 280 23:28 27.07.2019
4558 Thunderstorm 29 1008 74 10000 3.6 250 22:47 27.07.2019
4559 Thunderstorm 29 1008 74 10000 3.6 250 22:28 27.07.2019
4560 Rain 29 1008 74 10000 3.6 240 21:59 27.07.2019
4561 Clouds 29 1008 74 10000 3.6 240 21:37 27.07.2019
4562 Clouds 29 1008 74 10000 3.6 240 21:18 27.07.2019
4563 Clouds 29 1008 79 10000 3.1 210 20:44 27.07.2019
4564 Clouds 29 1008 79 10000 3.1 210 20:19 27.07.2019
4565 Clouds 29 1009 74 10000 4.1 210 19:41 27.07.2019
4566 Clouds 29 1009 74 10000 4.1 210 19:22 27.07.2019
4567 Clouds 29 1009 70 10000 4.1 220 18:48 27.07.2019
4568 Clouds 29 1009 70 10000 4.1 220 18:30 27.07.2019
4569 Clouds 29 1009 70 10000 3.6 220 17:52 27.07.2019
4570 Clouds 29 1008 74 10000 4.6 220 17:32 27.07.2019
4571 Clouds 29 1008 74 10000 3.6 210 16:56 27.07.2019
4572 Clouds 30 1008 70 10000 3.6 200 16:37 27.07.2019
4573 Clouds 30 1008 70 10000 3.6 200 16:18 27.07.2019
4574 Clouds 30 1007 62 10000 3.1 200 15:43 27.07.2019
4575 Clouds 31 1007 62 10000 3.1 200 15:19 27.07.2019
4576 Clouds 31 1006 49 10000 3.1 240 14:45 27.07.2019
4577 Clouds 31 1006 49 10000 3.1 240 14:26 27.07.2019
4578 Clouds 31 1005 49 10000 2.6 260 13:50 27.07.2019
4579 Clouds 32 1005 46 10000 2.1 250 13:24 27.07.2019
4580 Clouds 32 1005 49 10000 3.1 220 12:51 27.07.2019
4581 Clouds 32 1005 49 10000 3.1 250 12:32 27.07.2019
4582 Clouds 33 1005 46 10000 5.1 250 11:57 27.07.2019
4583 Clouds 33 1006 46 10000 5.1 260 11:38 27.07.2019
4584 Clouds 33 1006 46 10000 5.1 260 11:20 27.07.2019
4585 Clouds 35 1007 46 10000 5.7 290 10:41 27.07.2019
4586 Clouds 35 1007 46 10000 5.7 290 10:21 27.07.2019
4587 Clouds 35 1008 49 10000 4.6 250 09:41 27.07.2019
4588 Clouds 33 1008 49 10000 4.6 250 09:23 27.07.2019
4589 Clouds 33 1008 49 10000 4.6 250 08:49 27.07.2019
4590 Clouds 33 1009 52 10000 4.1 260 08:29 27.07.2019
4591 Clouds 33 1009 55 10000 3.6 260 07:55 27.07.2019
4592 Clouds 32 1009 55 10000 4.1 250 07:33 27.07.2019
4593 Clouds 32 1010 58 10000 3.1 250 06:56 27.07.2019
4594 Clouds 31 1010 62 10000 3.6 320 06:31 27.07.2019
4595 Clouds 31 1010 58 10000 4.1 310 05:52 27.07.2019
4596 Clouds 31 1010 62 10000 3.1 270 05:24 27.07.2019
4597 Drizzle 29 1010 69 10000 3.6 260 04:33 27.07.2019
4598 Clouds 28 1009 69 10000 2.6 290 03:28 27.07.2019
4599 Clouds 28 1009 65 10000 3.1 280 02:40 27.07.2019
4600 Clouds 28 1009 65 10000 3.6 290 01:48 27.07.2019
4601 Clouds 28 1009 69 10000 5.7 280 01:21 27.07.2019
4602 Clouds 28 1009 74 10000 4.1 290 00:32 27.07.2019
4603 Clouds 29 1008 70 10000 3.1 280 23:54 26.07.2019
4604 Clouds 29 1008 70 10000 3.6 270 23:33 26.07.2019
4605 Clouds 29 1008 70 10000 3.6 270 23:33 26.07.2019
4606 Clouds 29 1009 70 10000 3.1 260 22:57 26.07.2019
4607 Clouds 28 1009 74 10000 3.1 240 22:38 26.07.2019
4608 Clouds 28 1009 74 10000 3.1 240 22:20 26.07.2019
4609 Clouds 28 1009 74 10000 3.1 240 21:49 26.07.2019
4610 Rain 29 1009 74 10000 3.1 240 21:20 26.07.2019
4611 Clouds 29 1010 79 10000 4.1 240 20:43 26.07.2019
4612 Clouds 29 1010 79 10000 4.1 240 20:24 26.07.2019
4613 Clouds 29 1010 79 10000 3.1 220 19:44 26.07.2019
4614 Clouds 29 1010 79 10000 3.1 220 19:25 26.07.2019
4615 Clouds 29 1010 79 10000 3.6 230 18:58 26.07.2019
4616 Clouds 29 1010 74 10000 2.6 220 18:37 26.07.2019
4617 Clouds 29 1010 74 10000 2.1 200 18:19 26.07.2019
4618 Clouds 29 1009 74 10000 3.1 200 17:46 26.07.2019
4619 Clouds 29 1009 74 10000 2.6 190 17:19 26.07.2019
4620 Clouds 29 1009 74 10000 2.6 190 16:57 26.07.2019
4621 Clouds 29 1008 70 10000 3.6 180 16:38 26.07.2019
4622 Clouds 29 1008 70 10000 3.6 180 16:19 26.07.2019
4623 Clouds 30 1008 66 10000 3.6 180 15:55 26.07.2019
4624 Clouds 30 1007 70 10000 3.1 160 15:36 26.07.2019
4625 Clouds 30 1007 70 10000 3.1 160 15:18 26.07.2019
4626 Clouds 31 1007 55 10000 1.58 210.222 14:42 26.07.2019
4627 Clouds 31 1007 55 10000 1.58 210.222 14:22 26.07.2019
4628 Clouds 32 1006 52 10000 1.5 330 13:40 26.07.2019
4629 Clouds 32 1006 52 10000 1.5 330 13:22 26.07.2019
4630 Clouds 32 1006 55 10000 2.1 260 12:48 26.07.2019
4631 Clouds 32 1006 52 10000 5.1 290 12:20 26.07.2019
4632 Clouds 33 1007 59 10000 1 190 11:40 26.07.2019
4633 Clouds 32 1007 59 10000 1 190 11:21 26.07.2019
4634 Clouds 33 1007 59 10000 2.6 250 10:57 26.07.2019
4635 Clouds 33 1007 59 10000 1.5 190 10:38 26.07.2019
4636 Clouds 33 1008 62 10000 2.6 220 09:56 26.07.2019
4637 Clouds 32 1008 62 10000 4.1 250 09:37 26.07.2019
4638 Clouds 31 1008 59 10000 4.6 240 08:57 26.07.2019
4639 Clouds 31 1008 59 10000 4.6 240 08:57 26.07.2019
4640 Clouds 31 1009 62 10000 3.1 260 08:39 26.07.2019
4641 Clouds 32 1009 62 10000 3.1 260 08:20 26.07.2019
4642 Clouds 31 1010 66 10000 2.6 230 07:33 26.07.2019
4643 Clouds 31 1011 70 10000 2.1 260 06:56 26.07.2019
4644 Clouds 29 1011 70 10000 3.6 280 05:23 26.07.2019
4645 Clouds 28 1011 74 10000 3.1 280 04:29 26.07.2019
4646 Clouds 28 1011 78 10000 3.6 300 03:44 26.07.2019
4647 Clouds 27 1010 94 10000 1 120 01:45 26.07.2019
4648 Clouds 26 1009 94 10000 2.23 223.13 00:49 26.07.2019
4649 Clouds 26 1009 94 10000 1.95 196.522 00:23 26.07.2019
4650 Clouds 26 1009 94 10000 1.95 196.522 23:26 25.07.2019
4651 Clouds 27 1009 94 10000 1.95 196.522 22:59 25.07.2019
4652 Clouds 27 1009 94 10000 1.95 196.522 22:59 25.07.2019
4653 Clouds 27 1009 94 10000 1 130 22:40 25.07.2019
4654 Clouds 27 1009 94 10000 1 130 22:21 25.07.2019
4655 Clouds 27 1009 88 10000 2.1 100 21:46 25.07.2019
4656 Clouds 27 1009 88 10000 2.1 100 21:22 25.07.2019
4657 Clouds 27 1009 88 10000 2.1 100 20:49 25.07.2019
4658 Clouds 27 1010 88 10000 1.5 110 20:30 25.07.2019
4659 Clouds 27 1010 83 10000 2.52 239.789 19:54 25.07.2019
4660 Clouds 27 1010 83 10000 2.1 190 19:36 25.07.2019
4661 Rain 27 1010 83 10000 1.5 190 19:18 25.07.2019
4662 Rain 27 1011 74 10000 2.52 239.789 18:39 25.07.2019
4663 Rain 27 1011 74 10000 2.54 207.434 18:21 25.07.2019
4664 Rain 27 1011 83 10000 1.5 220 17:45 25.07.2019
4665 Rain 27 1011 83 10000 1.5 220 17:25 25.07.2019
4666 Clouds 27 1010 74 10000 3.1 240 16:47 25.07.2019
4667 Clouds 27 1010 74 10000 3.1 240 16:29 25.07.2019
4668 Rain 27 1010 78 10000 3.1 210 15:58 25.07.2019
4669 Clouds 27 1010 83 10000 3.6 240 15:38 25.07.2019
4670 Clouds 27 1010 83 10000 3.6 240 15:18 25.07.2019
4671 Rain 26 1009 88 10000 3.1 200 14:41 25.07.2019
4672 Rain 26 1009 88 10000 3.1 200 14:22 25.07.2019
4673 Rain 26 1009 88 7000 8.7 210 13:44 25.07.2019
4674 Rain 26 1009 88 7000 8.7 210 13:25 25.07.2019
4675 Rain 26 1009 83 7000 11.8 230 12:55 25.07.2019
4676 Clouds 29 1008 66 10000 6.2 190 12:28 25.07.2019
4677 Rain 30 1008 59 10000 5.7 220 11:43 25.07.2019
4678 Rain 30 1008 59 10000 5.7 220 11:23 25.07.2019
4679 Clouds 30 1008 55 10000 4.1 270 10:46 25.07.2019
4680 Clouds 30 1008 55 10000 4.1 270 10:46 25.07.2019
4681 Clouds 30 1008 55 10000 4.1 270 10:26 25.07.2019
4682 Clouds 31 1009 55 10000 5.7 270 09:59 25.07.2019
4683 Clouds 31 1009 55 10000 4.6 240 09:40 25.07.2019
4684 Clouds 33 1009 55 10000 4.6 240 08:55 25.07.2019
4685 Clouds 33 1009 55 10000 4.6 240 08:55 25.07.2019
4686 Clouds 33 1009 55 10000 4.1 240 08:37 25.07.2019
4687 Clouds 32 1010 59 10000 4.6 230 07:51 25.07.2019
4688 Clouds 32 1010 59 10000 4.6 240 07:27 25.07.2019
4689 Clouds 32 1011 59 10000 4.1 220 06:41 25.07.2019
4690 Clouds 31 1011 66 10000 1.5 190 05:37 25.07.2019
4691 Clouds 31 1011 66 10000 1.5 250 04:56 25.07.2019
4692 Clouds 29 1011 70 10000 3.1 260 04:19 25.07.2019
4693 Clouds 27 1010 78 10000 3.1 270 01:31 25.07.2019
4694 Clouds 27 1009 78 10000 2.1 240 00:42 25.07.2019
4695 Clouds 27 1009 83 10000 3.1 250 00:19 25.07.2019
4696 Clouds 27 1009 83 10000 2.6 260 23:44 24.07.2019
4697 Clouds 27 1009 83 10000 2.6 260 23:25 24.07.2019
4698 Clouds 27 1009 88 10000 2.1 210 22:47 24.07.2019
4699 Clouds 27 1009 88 10000 2.1 210 22:23 24.07.2019
4700 Clouds 28 1009 78 10000 2.6 220 21:56 24.07.2019
4701 Rain 28 1009 78 10000 3.6 220 21:38 24.07.2019
4702 Rain 28 1009 78 10000 3.6 220 21:20 24.07.2019
4703 Rain 28 1009 78 10000 3.6 220 21:20 24.07.2019
4704 Rain 27 1010 88 10000 3.1 220 20:48 24.07.2019
4705 Rain 28 1010 78 10000 3.6 230 20:29 24.07.2019
4706 Rain 28 1010 78 10000 4.6 230 19:59 24.07.2019
4707 Rain 28 1010 78 10000 4.6 230 19:59 24.07.2019
4708 Rain 28 1010 78 10000 3.1 220 19:40 24.07.2019
4709 Rain 28 1010 78 10000 3.1 220 19:20 24.07.2019
4710 Rain 28 1010 83 10000 2.6 230 18:44 24.07.2019
4711 Rain 28 1010 83 10000 2.6 230 18:24 24.07.2019
4712 Rain 28 1009 78 10000 1.5 170 17:48 24.07.2019
4713 Rain 28 1009 78 10000 1.5 170 17:24 24.07.2019
4714 Clouds 28 1009 78 10000 2.1 140 16:59 24.07.2019
4715 Clouds 28 1009 74 10000 2.1 130 16:39 24.07.2019
4716 Clouds 29 1009 74 10000 1.62 240.808 16:20 24.07.2019
4717 Rain 28 1009 74 10000 1.62 240.808 15:38 24.07.2019
4718 Clouds 28 1008 70 10000 2.1 140 15:19 24.07.2019
4719 Clouds 28 1008 70 10000 2.1 190 14:46 24.07.2019
4720 Clouds 29 1008 70 10000 2.1 190 14:21 24.07.2019
4721 Clouds 28 1007 74 10000 3.6 190 13:40 24.07.2019
4722 Clouds 29 1007 74 10000 3.6 190 13:22 24.07.2019
4723 Clouds 29 1007 74 10000 5.1 200 12:53 24.07.2019
4724 Clouds 29 1006 74 10000 6.7 210 12:35 24.07.2019
4725 Thunderstorm 30 1006 59 10000 7.7 260 11:55 24.07.2019
4726 Rain 30 1006 62 10000 6.7 250 11:37 24.07.2019
4727 Rain 30 1006 62 10000 6.7 250 11:18 24.07.2019
4728 Rain 32 1006 59 10000 4.6 280 10:41 24.07.2019
4729 Rain 31 1006 59 10000 4.6 280 10:23 24.07.2019
4730 Clouds 32 1007 62 10000 6.7 310 09:44 24.07.2019
4731 Clouds 32 1007 62 10000 6.7 310 09:22 24.07.2019
4732 Clouds 33 1008 55 10000 5.1 290 08:44 24.07.2019
4733 Clouds 33 1008 55 10000 5.1 290 08:22 24.07.2019
4734 Clouds 33 1008 62 10000 3.6 270 07:46 24.07.2019
4735 Clouds 33 1009 62 10000 4.1 280 07:20 24.07.2019
4736 Clouds 33 1009 59 10000 3.1 220 06:28 24.07.2019
4737 Clouds 33 1009 66 10000 3.6 240 05:22 24.07.2019
4738 Clouds 28 1008 78 10000 2.6 220 01:49 24.07.2019
4739 Clouds 28 1007 88 10000 2.1 210 00:58 24.07.2019
4740 Clouds 28 1007 88 10000 3.1 200 00:39 24.07.2019
4741 Clouds 28 1007 83 10000 2.6 240 23:54 23.07.2019
4742 Clouds 28 1007 83 10000 2.1 240 23:27 23.07.2019
4743 Clouds 28 1007 83 10000 2.6 240 22:59 23.07.2019
4744 Clouds 28 1007 79 10000 2.6 250 22:38 23.07.2019
4745 Clouds 28 1007 79 10000 2.6 250 22:19 23.07.2019
4746 Clouds 28 1007 83 10000 2.1 250 21:45 23.07.2019
4747 Clouds 28 1007 83 10000 2.1 250 21:26 23.07.2019
4748 Clouds 28 1008 79 10000 2.6 270 20:49 23.07.2019
4749 Clouds 28 1008 83 10000 2.6 290 20:29 23.07.2019
4750 Clouds 28 1009 83 10000 2.1 280 19:44 23.07.2019
4751 Clouds 28 1009 83 10000 2.1 280 19:24 23.07.2019
4752 Clouds 28 1009 88 10000 2.6 260 18:57 23.07.2019
4753 Clouds 27 1009 88 10000 1.5 250 18:39 23.07.2019
4754 Clouds 28 1008 88 10000 1.5 230 18:19 23.07.2019
4755 Clouds 28 1008 83 10000 2.1 270 17:42 23.07.2019
4756 Clouds 28 1008 83 10000 2.1 270 17:42 23.07.2019
4757 Clouds 28 1008 83 10000 2.1 270 17:21 23.07.2019
4758 Rain 26 1007 100 10000 2.1 210 16:44 23.07.2019
4759 Rain 26 1007 100 10000 2.1 210 16:26 23.07.2019
4760 Rain 25 1006 94 10000 3.1 200 15:51 23.07.2019
4761 Rain 26 1006 94 10000 3.1 200 15:32 23.07.2019
4762 Rain 27 1006 94 10000 1.5 170 14:55 23.07.2019
4763 Rain 27 1006 94 9000 3.1 160 14:36 23.07.2019
4764 Rain 27 1006 94 9000 3.1 160 14:18 23.07.2019
4765 Rain 28 1006 100 1500 3.6 210 13:42 23.07.2019
4766 Rain 26 1006 100 1500 3.6 210 13:23 23.07.2019
4767 Rain 28 1006 78 5000 6.7 270 12:59 23.07.2019
4768 Rain 29 1005 83 7000 4.6 150 12:41 23.07.2019
4769 Rain 32 1005 83 7000 4.6 150 12:21 23.07.2019
4770 Clouds 34 1004 53 10000 4.1 250 11:41 23.07.2019
4771 Clouds 35 1005 56 10000 2.6 230 11:21 23.07.2019
4772 Clouds 35 1005 56 10000 2.6 230 10:49 23.07.2019
4773 Clouds 34 1005 59 10000 3.1 240 10:22 23.07.2019
4774 Clouds 34 1005 53 10000 4.6 250 09:43 23.07.2019
4775 Clouds 35 1005 53 10000 4.6 250 09:22 23.07.2019
4776 Clouds 35 1006 53 10000 5.7 250 08:44 23.07.2019
4777 Clouds 35 1006 53 10000 5.7 250 08:21 23.07.2019
4778 Clouds 35 1006 50 10000 5.1 210 07:59 23.07.2019
4779 Clouds 34 1007 56 10000 5.1 210 07:37 23.07.2019
4780 Clouds 34 1007 56 10000 4.6 230 06:52 23.07.2019
4781 Clouds 34 1008 56 10000 4.1 220 06:34 23.07.2019
4782 Clouds 31 1008 62 10000 4.6 230 04:27 23.07.2019
4783 Clouds 29 1008 70 10000 3.6 250 01:40 23.07.2019
4784 Clouds 29 1007 70 10000 3.6 240 00:41 23.07.2019
4785 Clouds 29 1007 70 10000 3.6 240 00:19 23.07.2019
4786 Clouds 29 1007 70 10000 3.1 250 23:39 22.07.2019
4787 Clouds 29 1007 70 10000 3.1 250 23:19 22.07.2019
4788 Clouds 29 1007 83 10000 3.6 220 22:45 22.07.2019
4789 Clouds 29 1007 83 10000 3.6 220 22:23 22.07.2019
4790 Clouds 29 1007 83 10000 3.6 210 21:44 22.07.2019
4791 Clouds 29 1007 83 10000 3.6 210 21:24 22.07.2019
4792 Clouds 29 1008 83 10000 3.1 210 21:00 22.07.2019
4793 Clouds 29 1008 83 10000 3.6 200 20:41 22.07.2019
4794 Clouds 29 1008 83 10000 3.6 200 20:21 22.07.2019
4795 Clouds 30 1008 83 10000 3.1 200 19:42 22.07.2019
4796 Clouds 29 1008 83 10000 3.1 200 19:22 22.07.2019
4797 Clouds 30 1008 79 10000 4.1 200 18:48 22.07.2019
4798 Clouds 30 1008 79 10000 4.1 200 18:28 22.07.2019
4799 Clouds 30 1008 79 10000 3.6 190 17:59 22.07.2019
4800 Clouds 30 1008 79 10000 3.6 190 17:38 22.07.2019
4801 Clouds 30 1008 79 10000 3.6 190 17:20 22.07.2019
4802 Clouds 30 1007 79 10000 4.6 190 16:40 22.07.2019
4803 Clouds 30 1007 70 10000 3.6 200 16:21 22.07.2019
4804 Clouds 30 1007 70 10000 3.6 200 16:21 22.07.2019
4805 Clouds 30 1006 70 10000 4.6 190 15:44 22.07.2019
4806 Clouds 30 1006 70 10000 4.6 190 15:21 22.07.2019
4807 Clouds 30 1005 66 10000 3.1 160 14:45 22.07.2019
4808 Clouds 30 1005 66 10000 3.1 160 14:26 22.07.2019
4809 Clouds 31 1005 66 10000 4.1 190 13:52 22.07.2019
4810 Clouds 32 1005 63 10000 4.6 200 13:33 22.07.2019
4811 Clouds 33 1005 63 10000 5.1 200 12:56 22.07.2019
4812 Clouds 33 1005 59 10000 3.6 220 12:36 22.07.2019
4813 Clouds 34 1005 50 10000 3.6 280 11:57 22.07.2019
4814 Clouds 34 1005 50 10000 4.1 280 11:39 22.07.2019
4815 Clouds 35 1005 50 10000 4.1 280 11:20 22.07.2019
4816 Rain 35 1006 50 10000 4.1 250 10:38 22.07.2019
4817 Rain 35 1006 50 10000 4.1 250 10:20 22.07.2019
4818 Clouds 36 1006 53 10000 4.6 250 09:40 22.07.2019
4819 Clouds 35 1006 53 10000 4.6 250 09:21 22.07.2019
4820 Clouds 35 1008 56 10000 5.7 230 08:40 22.07.2019
4821 Clouds 35 1008 56 10000 5.7 230 08:22 22.07.2019
4822 Clouds 35 1008 56 10000 5.1 250 07:53 22.07.2019
4823 Clouds 35 1008 56 10000 3.1 240 07:31 22.07.2019
4824 Clouds 33 1009 59 10000 1.5 340 05:51 22.07.2019
4825 Clouds 30 1009 74 10000 1.5 70 03:46 22.07.2019
4826 Clouds 28 1008 74 10000 1 0 01:44 22.07.2019
4827 Clouds 28 1008 78 10000 2.1 200 00:50 22.07.2019
4828 Clouds 28 1008 78 10000 2.1 200 00:50 22.07.2019
4829 Clouds 28 1008 74 10000 1.5 190 00:22 22.07.2019
4830 Clouds 28 1008 74 10000 2.1 200 23:50 21.07.2019
4831 Clouds 28 1008 74 10000 2.1 200 22:59 21.07.2019
4832 Clouds 28 1008 78 10000 2.6 210 22:41 21.07.2019
4833 Clouds 28 1008 78 10000 2.6 210 22:21 21.07.2019
4834 Clouds 29 1008 69 10000 3.1 240 21:49 21.07.2019
4835 Clouds 29 1008 70 10000 3.6 240 21:26 21.07.2019
4836 Clouds 29 1008 70 10000 3.6 240 20:59 21.07.2019
4837 Clouds 29 1008 66 10000 3.1 240 20:41 21.07.2019
4838 Clouds 29 1008 66 10000 3.1 240 20:22 21.07.2019
4839 Clouds 29 1008 70 10000 3.6 230 19:52 21.07.2019
4840 Clouds 29 1008 66 10000 3.6 220 19:29 21.07.2019
4841 Clouds 29 1009 66 10000 4.6 230 18:54 21.07.2019
4842 Clouds 29 1009 66 10000 4.6 230 18:35 21.07.2019
4843 Clouds 29 1009 70 10000 4.6 240 17:58 21.07.2019
4844 Clouds 29 1008 66 10000 4.6 220 17:40 21.07.2019
4845 Clouds 29 1008 66 10000 4.6 220 17:19 21.07.2019
4846 Clouds 28 1008 74 10000 3.6 210 16:41 21.07.2019
4847 Clouds 29 1008 74 10000 3.6 210 16:22 21.07.2019
4848 Clouds 29 1007 74 10000 3.6 210 15:42 21.07.2019
4849 Clouds 28 1007 74 10000 3.6 210 15:21 21.07.2019
4850 Clouds 28 1007 74 10000 4.1 210 14:53 21.07.2019
4851 Rain 28 1006 83 9000 5.7 210 14:25 21.07.2019
4852 Rain 28 1006 74 9000 10.3 220 13:53 21.07.2019
4853 Clouds 30 1006 66 10000 5.7 190 13:34 21.07.2019
4854 Clouds 32 1005 63 10000 4.1 210 12:58 21.07.2019
4855 Clouds 33 1005 59 10000 3.6 220 12:39 21.07.2019
4856 Clouds 33 1005 59 10000 3.6 220 12:20 21.07.2019
4857 Clouds 34 1005 56 10000 4.6 250 11:45 21.07.2019
4858 Clouds 34 1005 56 10000 4.6 250 11:26 21.07.2019
4859 Clouds 34 1006 56 10000 4.6 220 10:43 21.07.2019
4860 Clouds 34 1006 56 10000 4.6 220 10:24 21.07.2019
4861 Clouds 34 1006 59 10000 4.1 190 09:54 21.07.2019
4862 Clouds 34 1007 59 10000 5.7 210 09:34 21.07.2019
4863 Clouds 34 1007 63 10000 4.1 0 08:49 21.07.2019
4864 Clouds 34 1007 63 10000 4.1 0 08:29 21.07.2019
4865 Clouds 34 1008 56 10000 3.1 190 07:53 21.07.2019
4866 Clouds 34 1008 63 10000 4.1 220 07:18 21.07.2019
4867 Clouds 32 1008 66 10000 4.1 210 05:56 21.07.2019
4868 Clouds 31 1009 74 10000 3.6 190 03:50 21.07.2019
4869 Clouds 29 1008 83 10000 1 130 01:51 21.07.2019
4870 Clouds 29 1007 83 10000 2.6 210 00:44 21.07.2019
4871 Clouds 29 1007 83 10000 2.6 210 00:20 21.07.2019
4872 Clouds 29 1006 83 10000 3.6 210 23:44 20.07.2019
4873 Clouds 29 1006 83 10000 3.6 210 23:23 20.07.2019
4874 Clouds 29 1006 88 10000 1.5 190 22:50 20.07.2019
4875 Rain 29 1006 83 10000 2.6 180 22:23 20.07.2019
4876 Rain 29 1006 83 10000 3.6 190 21:59 20.07.2019
4877 Rain 29 1007 83 10000 3.6 190 21:39 20.07.2019
4878 Rain 29 1007 83 10000 3.6 190 21:21 20.07.2019
4879 Clouds 29 1007 89 10000 3.1 180 20:42 20.07.2019
4880 Clouds 30 1007 89 10000 3.1 180 20:21 20.07.2019
4881 Clouds 30 1007 83 10000 2.6 170 19:46 20.07.2019
4882 Clouds 30 1007 83 10000 2.6 170 19:23 20.07.2019
4883 Clouds 30 1007 83 10000 3.1 170 18:44 20.07.2019
4884 Clouds 30 1007 83 10000 3.1 170 18:22 20.07.2019
4885 Clouds 30 1007 83 10000 3.6 170 17:55 20.07.2019
4886 Clouds 30 1007 89 10000 2.6 170 17:26 20.07.2019
4887 Clouds 30 1006 79 10000 3.6 170 16:45 20.07.2019
4888 Clouds 30 1006 79 10000 3.6 170 16:27 20.07.2019
4889 Clouds 30 1006 83 10000 3.6 180 15:58 20.07.2019
4890 Clouds 30 1006 83 10000 3.6 180 15:58 20.07.2019
4891 Clouds 30 1005 83 10000 3.6 180 15:40 20.07.2019
4892 Clouds 30 1005 83 10000 3.6 180 15:20 20.07.2019
4893 Clouds 30 1005 83 10000 4.1 190 14:48 20.07.2019
4894 Clouds 30 1005 79 10000 5.7 190 14:29 20.07.2019
4895 Clouds 30 1005 79 10000 5.1 200 13:54 20.07.2019
4896 Clouds 30 1005 79 10000 4.6 180 13:36 20.07.2019
4897 Clouds 31 1004 74 10000 6.2 180 13:18 20.07.2019
4898 Clouds 31 1004 74 10000 6.2 170 12:38 20.07.2019
4899 Clouds 31 1004 74 10000 3.1 210 12:18 20.07.2019
4900 Clouds 32 1004 79 10000 3.6 230 11:40 20.07.2019
4901 Clouds 33 1004 79 10000 3.6 230 11:19 20.07.2019
4902 Clouds 34 1004 55 10000 6.2 190 10:37 20.07.2019
4903 Rain 33 1005 88 5000 7.2 210 10:19 20.07.2019
4904 Rain 34 1005 75 9000 4.6 130 09:45 20.07.2019
4905 Rain 34 1005 75 9000 4.6 130 09:24 20.07.2019
4906 Clouds 34 1006 63 10000 2.6 310 08:47 20.07.2019
4907 Clouds 34 1006 63 10000 2.6 310 08:20 20.07.2019
4908 Clouds 34 1007 66 10000 1 0 07:26 20.07.2019
4909 Clouds 34 1007 70 10000 0.5 0 06:43 20.07.2019
4910 Clouds 32 1007 79 10000 1.5 0 04:58 20.07.2019
4911 Clouds 32 1007 79 10000 1 0 04:30 20.07.2019
4912 Clouds 27 1006 94 10000 2.61 233.332 01:22 20.07.2019
4913 Clouds 27 1006 94 10000 2.61 233.332 00:49 20.07.2019
4914 Clouds 27 1006 100 10000 2.61 233.332 00:26 20.07.2019
4915 Clouds 27 1005 94 10000 1 120 23:49 19.07.2019
4916 Clouds 27 1005 94 10000 1.79 184.431 23:27 19.07.2019
4917 Clouds 27 1005 94 10000 1.5 100 22:52 19.07.2019
4918 Clouds 27 1005 94 10000 1 0 22:26 19.07.2019
4919 Clouds 27 1006 94 10000 1.79 184.431 21:59 19.07.2019
4920 Clouds 27 1006 94 10000 1 0 21:39 19.07.2019
4921 Clouds 28 1006 94 10000 1 0 21:21 19.07.2019
4922 Clouds 27 1006 94 10000 2.1 210 20:42 19.07.2019
4923 Clouds 27 1006 94 10000 2.1 210 20:23 19.07.2019
4924 Rain 27 1007 94 9000 1.5 0 19:39 19.07.2019
4925 Rain 27 1007 94 9000 2.1 200 18:55 19.07.2019
4926 Rain 27 1008 100 8000 3.1 170 18:36 19.07.2019
4927 Thunderstorm 28 1008 100 6000 3.6 190 18:18 19.07.2019
4928 Rain 29 1007 88 8000 5.7 300 17:41 19.07.2019
4929 Rain 29 1007 88 8000 5.7 300 17:23 19.07.2019
4930 Clouds 29 1006 70 10000 5.1 300 16:47 19.07.2019
4931 Clouds 30 1006 70 10000 5.1 300 16:24 19.07.2019
4932 Clouds 31 1005 74 10000 6.2 190 15:47 19.07.2019
4933 Clouds 31 1005 74 10000 6.2 190 15:29 19.07.2019
4934 Clouds 31 1004 70 10000 7.2 190 14:55 19.07.2019
4935 Clouds 31 1003 70 10000 7.2 200 14:37 19.07.2019
4936 Clouds 31 1003 66 10000 6.7 190 14:19 19.07.2019
4937 Clouds 32 1003 66 10000 6.2 170 13:42 19.07.2019
4938 Clouds 32 1003 66 10000 6.2 170 13:22 19.07.2019
4939 Clouds 33 1002 59 10000 5.1 150 12:48 19.07.2019
4940 Clouds 33 1002 59 10000 5.1 150 12:28 19.07.2019
4941 Clouds 34 1002 50 10000 2.1 100 11:47 19.07.2019
4942 Clouds 34 1002 50 10000 2.1 100 11:19 19.07.2019
4943 Clouds 35 1002 53 10000 2.1 0 10:57 19.07.2019
4944 Clouds 35 1002 53 10000 2.1 0 10:57 19.07.2019
4945 Clouds 33 1003 56 10000 3.1 330 10:38 19.07.2019
4946 Clouds 35 1003 56 10000 2.6 0 10:18 19.07.2019
4947 Clouds 35 1004 56 10000 3.6 240 09:43 19.07.2019
4948 Clouds 35 1004 56 10000 3.6 240 09:22 19.07.2019
4949 Clouds 34 1005 56 10000 5.7 270 08:50 19.07.2019
4950 Clouds 35 1005 56 10000 4.6 260 08:28 19.07.2019
4951 Clouds 35 1006 59 10000 4.6 260 07:33 19.07.2019
4952 Clouds 34 1006 59 10000 5.1 260 06:33 19.07.2019
4953 Clouds 30 1005 74 10000 4.1 240 02:58 19.07.2019
4954 Clouds 28 1005 78 10000 3.1 240 01:42 19.07.2019
4955 Clouds 28 1004 78 10000 2.6 240 00:47 19.07.2019
4956 Clouds 28 1004 78 10000 4.1 240 23:59 18.07.2019
4957 Clouds 28 1004 78 10000 2.6 250 23:40 18.07.2019
4958 Clouds 28 1004 78 10000 2.6 250 23:22 18.07.2019
4959 Clouds 28 1004 70 10000 3.6 240 22:42 18.07.2019
4960 Clouds 28 1004 70 10000 3.6 240 22:20 18.07.2019
4961 Clouds 28 1004 70 10000 4.1 240 21:52 18.07.2019
4962 Clouds 28 1004 70 10000 3.6 240 21:34 18.07.2019
4963 Clouds 29 1005 70 10000 4.1 250 20:57 18.07.2019
4964 Clouds 29 1005 70 10000 4.6 230 20:38 18.07.2019
4965 Rain 29 1005 70 10000 4.6 230 20:18 18.07.2019
4966 Thunderstorm 29 1005 70 10000 4.1 220 19:46 18.07.2019
4967 Thunderstorm 29 1005 70 10000 4.1 220 19:21 18.07.2019
4968 Rain 29 1005 74 10000 4.1 210 18:49 18.07.2019
4969 Clouds 30 1005 74 10000 3.6 210 18:21 18.07.2019
4970 Clouds 30 1005 79 10000 4.1 180 17:45 18.07.2019
4971 Clouds 30 1005 79 10000 4.1 180 17:45 18.07.2019
4972 Clouds 30 1005 79 10000 4.1 180 17:45 18.07.2019
4973 Clouds 30 1005 79 10000 4.1 180 17:26 18.07.2019
4974 Clouds 30 1005 79 10000 5.7 190 16:58 18.07.2019
4975 Clouds 30 1005 79 10000 4.6 190 16:40 18.07.2019
4976 Clouds 31 1004 79 10000 4.6 190 16:21 18.07.2019
4977 Clouds 31 1004 79 10000 4.6 190 15:55 18.07.2019
4978 Clouds 31 1004 74 10000 4.1 190 15:35 18.07.2019
4979 Clouds 31 1004 70 10000 4.6 190 14:55 18.07.2019
4980 Clouds 31 1003 70 10000 5.1 190 14:37 18.07.2019
4981 Clouds 32 1002 63 10000 5.7 220 13:54 18.07.2019
4982 Clouds 32 1002 63 10000 5.7 220 13:36 18.07.2019
4983 Clouds 32 1002 63 10000 5.7 230 13:18 18.07.2019
4984 Clouds 33 1001 63 10000 4.6 210 12:42 18.07.2019
4985 Clouds 35 1001 59 10000 4.6 230 12:18 18.07.2019
4986 Clouds 35 1002 59 10000 3.1 210 11:49 18.07.2019
4987 Clouds 35 1002 59 10000 3.1 210 11:27 18.07.2019
4988 Clouds 35 1002 59 10000 3.6 220 10:52 18.07.2019
4989 Clouds 35 1003 56 10000 3.6 240 09:52 18.07.2019
4990 Clouds 35 1003 56 10000 3.6 240 09:27 18.07.2019
4991 Clouds 35 1003 56 10000 4.1 220 08:55 18.07.2019
4992 Clouds 34 1004 55 10000 3.6 230 08:25 18.07.2019
4993 Clouds 34 1004 55 10000 3.6 230 07:59 18.07.2019
4994 Clouds 34 1004 55 10000 3.6 230 07:37 18.07.2019
4995 Clouds 33 1005 59 10000 3.1 220 06:58 18.07.2019
4996 Clouds 33 1005 59 10000 3.1 220 06:33 18.07.2019
4997 Clouds 31 1005 66 10000 2.6 240 03:56 18.07.2019
4998 Clouds 30 1004 70 10000 2.68 233.815 02:51 18.07.2019
4999 Clouds 28 1004 74 10000 3.1 250 01:36 18.07.2019
5000 Clouds 28 1003 74 10000 3.1 240 00:24 18.07.2019
5001 Clouds 28 1003 74 10000 3.1 240 23:45 17.07.2019
5002 Clouds 28 1003 74 10000 3.6 250 23:18 17.07.2019
5003 Clouds 29 1004 70 10000 4.6 240 22:42 17.07.2019
5004 Clouds 29 1004 70 10000 4.1 240 22:23 17.07.2019
5005 Clouds 29 1004 70 10000 4.1 240 22:23 17.07.2019
5006 Clouds 29 1004 70 10000 4.1 240 21:58 17.07.2019
5007 Clouds 29 1004 70 10000 3.1 240 21:38 17.07.2019
5008 Clouds 29 1005 70 10000 3.6 240 21:20 17.07.2019
5009 Clouds 30 1005 70 10000 3.6 240 20:56 17.07.2019
5010 Clouds 30 1005 66 10000 3.6 260 20:38 17.07.2019
5011 Clouds 30 1005 70 10000 3.6 250 20:19 17.07.2019
5012 Clouds 30 1005 70 10000 3.6 250 19:42 17.07.2019
5013 Clouds 30 1005 74 10000 3.6 260 19:20 17.07.2019
5014 Clouds 30 1005 74 10000 3.1 220 18:46 17.07.2019
5015 Clouds 30 1005 74 10000 3.6 190 18:21 17.07.2019
5016 Clouds 30 1005 74 10000 3.6 190 17:59 17.07.2019
5017 Clouds 31 1005 74 10000 3.6 190 17:41 17.07.2019
5018 Clouds 31 1005 74 10000 3.6 190 17:22 17.07.2019
5019 Clouds 30 1004 74 10000 5.7 190 16:41 17.07.2019
5020 Clouds 31 1004 74 10000 5.7 190 16:22 17.07.2019
5021 Clouds 31 1004 74 10000 5.7 190 15:51 17.07.2019
5022 Clouds 31 1003 66 10000 5.1 210 15:31 17.07.2019
5023 Clouds 31 1003 66 10000 4.1 210 14:57 17.07.2019
5024 Clouds 31 1002 66 10000 3.6 210 14:38 17.07.2019
5025 Clouds 31 1002 62 10000 4.6 230 14:20 17.07.2019
5026 Clouds 32 1002 62 10000 5.1 240 13:49 17.07.2019
5027 Clouds 33 1002 62 10000 5.1 240 13:31 17.07.2019
5028 Clouds 32 1002 59 10000 5.1 250 12:55 17.07.2019
5029 Clouds 32 1002 59 10000 4.6 230 12:36 17.07.2019
5030 Clouds 34 1002 63 10000 5.7 240 12:18 17.07.2019
5031 Clouds 34 1002 63 10000 5.1 210 11:40 17.07.2019
5032 Clouds 34 1002 63 10000 5.1 210 11:40 17.07.2019
5033 Clouds 34 1002 63 10000 5.1 220 11:19 17.07.2019
5034 Clouds 34 1002 63 10000 5.1 220 10:43 17.07.2019
5035 Clouds 34 1003 59 10000 5.1 240 10:20 17.07.2019
5036 Clouds 33 1003 59 10000 3.1 0 09:45 17.07.2019
5037 Clouds 33 1003 59 10000 3.1 0 09:27 17.07.2019
5038 Clouds 33 1003 59 10000 3.1 0 09:27 17.07.2019
5039 Clouds 34 1004 56 10000 5.7 250 08:44 17.07.2019
5040 Clouds 34 1004 55 10000 3.6 210 08:23 17.07.2019
5041 Clouds 34 1004 55 10000 3.6 210 07:55 17.07.2019
5042 Clouds 34 1005 55 10000 5.1 260 07:36 17.07.2019
5043 Clouds 34 1005 59 10000 4.6 260 07:18 17.07.2019
5044 Clouds 33 1005 59 10000 4.1 240 06:41 17.07.2019
5045 Clouds 33 1005 59 10000 4.1 240 06:22 17.07.2019
5046 Clouds 32 1005 62 10000 4.6 240 05:38 17.07.2019
5047 Clouds 32 1005 66 10000 5.1 230 04:57 17.07.2019
5048 Clouds 31 1005 66 10000 5.1 240 03:52 17.07.2019
5049 Clouds 30 1005 70 10000 4.1 240 02:43 17.07.2019
5050 Clouds 28 1004 74 10000 3.1 230 01:41 17.07.2019
5051 Clouds 28 1004 74 10000 3.6 240 01:21 17.07.2019
5052 Clouds 28 1004 74 10000 4.1 240 00:38 17.07.2019
5053 Clouds 28 1004 74 10000 4.1 240 00:38 17.07.2019
5054 Clouds 29 1004 74 10000 4.1 230 00:20 17.07.2019
5055 Clouds 29 1004 74 10000 5.1 240 23:44 16.07.2019
5056 Clouds 29 1004 74 10000 5.1 240 23:22 16.07.2019
5057 Clouds 29 1004 70 10000 3.6 240 22:44 16.07.2019
5058 Clouds 29 1004 70 10000 3.6 240 22:25 16.07.2019
5059 Clouds 29 1004 70 10000 4.1 240 21:57 16.07.2019
5060 Clouds 29 1005 70 10000 3.6 260 21:39 16.07.2019
5061 Clouds 29 1005 70 10000 4.1 240 21:19 16.07.2019
5062 Clouds 30 1006 66 10000 3.6 250 20:41 16.07.2019
5063 Clouds 30 1006 66 10000 3.6 250 20:41 16.07.2019
5064 Clouds 30 1006 66 10000 3.6 250 20:23 16.07.2019
5065 Clouds 30 1006 66 10000 3.6 250 20:23 16.07.2019
5066 Clouds 30 1006 66 10000 3.6 250 19:54 16.07.2019
5067 Clouds 30 1006 70 10000 5.1 250 19:30 16.07.2019
5068 Clouds 30 1006 70 10000 5.1 250 19:30 16.07.2019
5069 Clouds 30 1006 74 10000 5.7 230 18:59 16.07.2019
5070 Clouds 30 1006 79 10000 4.1 210 18:41 16.07.2019
5071 Clouds 30 1005 83 10000 3.6 210 18:20 16.07.2019
5072 Clouds 30 1005 79 10000 3.6 200 17:49 16.07.2019
5073 Clouds 30 1005 79 10000 3.6 200 17:49 16.07.2019
5074 Clouds 30 1005 79 10000 3.6 200 17:28 16.07.2019
5075 Clouds 30 1004 74 10000 4.1 190 16:50 16.07.2019
5076 Clouds 30 1004 74 10000 4.1 190 16:27 16.07.2019
5077 Clouds 30 1004 74 10000 4.1 200 15:57 16.07.2019
5078 Clouds 31 1003 70 10000 3.6 200 15:38 16.07.2019
5079 Clouds 31 1003 66 10000 5.7 210 15:19 16.07.2019
5080 Clouds 32 1003 66 10000 5.7 210 14:55 16.07.2019
5081 Clouds 32 1003 66 10000 5.7 210 14:36 16.07.2019
5082 Clouds 32 1002 59 10000 4.1 220 14:18 16.07.2019
5083 Clouds 33 1002 59 10000 4.1 220 13:38 16.07.2019
5084 Clouds 34 1002 56 10000 4.6 270 13:18 16.07.2019
5085 Clouds 35 1002 56 10000 4.6 270 12:43 16.07.2019
5086 Clouds 35 1002 53 10000 5.1 280 12:20 16.07.2019
5087 Clouds 34 1002 56 10000 3.6 260 11:54 16.07.2019
5088 Clouds 34 1002 56 10000 3.6 260 11:36 16.07.2019
5089 Clouds 34 1002 56 10000 3.6 260 11:36 16.07.2019
5090 Clouds 34 1002 56 10000 3.6 270 11:18 16.07.2019
5091 Clouds 34 1003 53 10000 3.6 250 10:43 16.07.2019
5092 Clouds 34 1004 56 10000 4.1 210 10:20 16.07.2019
5093 Clouds 35 1004 52 10000 4.6 260 09:44 16.07.2019
5094 Clouds 34 1005 56 10000 5.1 270 09:21 16.07.2019
5095 Clouds 34 1005 52 10000 6.2 250 08:49 16.07.2019
5096 Clouds 34 1005 52 10000 6.2 250 08:27 16.07.2019
5097 Clouds 34 1005 59 10000 4.6 270 07:57 16.07.2019
5098 Clouds 34 1006 55 10000 3.6 250 07:36 16.07.2019
5099 Clouds 33 1006 55 10000 5.1 260 06:59 16.07.2019
5100 Clouds 33 1006 59 10000 5.1 240 06:37 16.07.2019
5101 Clouds 32 1007 59 10000 4.1 270 05:52 16.07.2019
5102 Clouds 32 1007 59 10000 4.1 270 05:28 16.07.2019
5103 Clouds 31 1007 62 10000 4.6 260 04:45 16.07.2019
5104 Clouds 30 1007 70 10000 3.6 240 03:43 16.07.2019
5105 Clouds 29 1006 74 10000 3.6 240 02:46 16.07.2019
5106 Clouds 29 1006 74 10000 3.6 240 02:28 16.07.2019
5107 Clouds 27 1006 74 10000 4.1 260 01:26 16.07.2019
5108 Clouds 27 1005 74 10000 3.6 250 00:25 16.07.2019
5109 Clouds 27 1005 78 10000 4.1 250 23:59 15.07.2019
5110 Clouds 27 1005 78 10000 3.6 240 23:39 15.07.2019
5111 Clouds 27 1005 74 10000 3.6 250 23:20 15.07.2019
5112 Clouds 27 1006 74 10000 4.1 260 22:44 15.07.2019
5113 Clouds 27 1006 74 10000 3.6 240 22:20 15.07.2019
5114 Clouds 27 1006 74 10000 3.6 240 21:57 15.07.2019
5115 Clouds 27 1006 74 10000 3.6 250 21:39 15.07.2019
5116 Clouds 27 1006 74 10000 4.6 260 21:19 15.07.2019
5117 Clouds 27 1006 74 10000 4.1 250 20:44 15.07.2019
5118 Clouds 27 1006 74 10000 4.1 250 20:24 15.07.2019
5119 Clouds 27 1006 74 10000 4.1 270 19:57 15.07.2019
5120 Clouds 28 1007 74 10000 4.1 260 19:38 15.07.2019
5121 Clouds 29 1007 70 10000 4.1 260 19:18 15.07.2019
5122 Clouds 29 1007 70 10000 4.6 260 18:44 15.07.2019
5123 Clouds 29 1007 74 10000 4.1 260 18:21 15.07.2019
5124 Clouds 29 1007 74 10000 4.1 260 17:56 15.07.2019
5125 Clouds 29 1007 74 10000 4.1 260 17:56 15.07.2019
5126 Rain 28 1007 83 10000 2.6 230 17:38 15.07.2019
5127 Rain 28 1006 88 10000 1 190 17:20 15.07.2019
5128 Rain 28 1006 88 10000 1 190 16:57 15.07.2019
5129 Clouds 28 1006 88 10000 2.14 271.553 16:36 15.07.2019
5130 Clouds 28 1006 88 10000 2.14 271.553 16:36 15.07.2019
5131 Clouds 28 1006 83 10000 2.1 130 16:18 15.07.2019
5132 Clouds 29 1005 83 10000 2.6 130 15:38 15.07.2019
5133 Clouds 29 1005 83 10000 2.6 130 15:38 15.07.2019
5134 Rain 29 1005 88 10000 3.1 180 15:20 15.07.2019
5135 Rain 29 1005 88 10000 3.1 180 14:55 15.07.2019
5136 Rain 28 1005 88 10000 5.1 200 14:37 15.07.2019
5137 Thunderstorm 28 1005 88 10000 8.7 210 14:18 15.07.2019
5138 Rain 31 1004 62 10000 9.8 240 13:43 15.07.2019
5139 Rain 32 1003 56 10000 4.6 280 13:18 15.07.2019
5140 Rain 33 1003 52 10000 5.1 310 12:43 15.07.2019
5141 Rain 33 1003 52 10000 5.1 310 12:23 15.07.2019
5142 Rain 33 1003 52 10000 5.1 260 11:44 15.07.2019
5143 Rain 33 1003 52 10000 5.1 260 11:26 15.07.2019
5144 Clouds 34 1004 52 10000 5.1 270 10:50 15.07.2019
5145 -273 0 0 0 0 0 10:31 15.07.2019
5146 Clouds 35 1004 52 10000 5.1 250 09:58 15.07.2019
5147 Clouds 35 1005 56 10000 5.7 230 09:39 15.07.2019
5148 Clouds 34 1005 56 10000 5.1 230 09:18 15.07.2019
5149 Clouds 34 1005 55 10000 5.7 260 08:42 15.07.2019
5150 Clouds 34 1005 55 10000 5.7 260 08:23 15.07.2019
5151 Clouds 34 1006 55 10000 6.2 290 07:41 15.07.2019
5152 Clouds 34 1007 55 10000 5.1 280 07:20 15.07.2019
5153 Clouds 33 1007 59 10000 7.7 280 06:39 15.07.2019
5154 Clouds 32 1007 59 10000 6.2 270 05:50 15.07.2019
5155 Clouds 32 1007 59 10000 6.2 270 05:30 15.07.2019
5156 Clouds 31 1007 62 10000 5.7 260 04:43 15.07.2019
5157 Clouds 31 1006 66 10000 5.1 250 03:51 15.07.2019
5158 Clear 28 1006 69 10000 4.1 240 02:47 15.07.2019
5159 Clouds 28 1006 69 10000 4.1 250 01:45 15.07.2019
5160 Clouds 28 1006 69 10000 4.1 250 01:26 15.07.2019
5161 Clouds 28 1005 69 10000 4.1 250 00:51 15.07.2019
5162 Clouds 27 1006 69 10000 4.1 260 00:22 15.07.2019
5163 Clouds 28 1006 69 10000 4.1 260 23:55 14.07.2019
5164 Clouds 28 1006 69 10000 4.6 250 23:36 14.07.2019
5165 Clouds 28 1006 69 10000 4.6 250 23:36 14.07.2019
5166 Clouds 28 1006 69 10000 3.6 250 23:18 14.07.2019
5167 Clouds 28 1006 69 10000 3.1 250 22:41 14.07.2019
5168 Clouds 28 1006 69 10000 3.1 250 22:41 14.07.2019
5169 Clouds 28 1006 69 10000 3.1 250 22:22 14.07.2019
5170 Clouds 28 1006 69 10000 3.1 250 22:22 14.07.2019
5171 Clouds 28 1006 74 10000 3.6 250 21:59 14.07.2019
5172 Clouds 28 1007 69 10000 3.6 250 21:41 14.07.2019
5173 Clouds 28 1007 66 10000 4.1 260 21:18 14.07.2019
5174 Clouds 29 1007 66 10000 4.1 260 20:55 14.07.2019
5175 Clouds 29 1007 66 10000 4.1 260 20:36 14.07.2019
5176 Clouds 29 1007 66 10000 4.6 270 20:18 14.07.2019
5177 Clouds 29 1007 66 10000 4.6 260 19:43 14.07.2019
5178 Clouds 29 1007 66 10000 4.6 260 19:24 14.07.2019
5179 Clouds 30 1007 62 10000 5.1 260 18:57 14.07.2019
5180 Clouds 30 1008 62 10000 4.6 260 18:38 14.07.2019
5181 Clouds 30 1008 62 10000 6.2 260 18:18 14.07.2019
5182 Clouds 30 1007 66 10000 5.7 260 17:47 14.07.2019
5183 Clouds 30 1007 66 10000 5.7 250 17:20 14.07.2019
5184 Clouds 30 1007 58 10000 5.1 260 16:46 14.07.2019
5185 Clouds 31 1007 58 10000 5.1 260 16:24 14.07.2019
5186 Clouds 31 1006 58 10000 6.2 260 15:54 14.07.2019
5187 Clouds 32 1006 58 10000 6.2 260 15:29 14.07.2019
5188 Clouds 32 1005 55 10000 6.7 270 14:49 14.07.2019
5189 Clouds 32 1005 55 10000 6.7 270 14:22 14.07.2019
5190 Clouds 33 1004 52 10000 7.2 270 13:49 14.07.2019
5191 Clouds 33 1004 52 10000 7.2 270 13:26 14.07.2019
5192 Clouds 33 1004 49 10000 7.2 270 12:59 14.07.2019
5193 Clouds 33 1004 49 10000 7.7 280 12:40 14.07.2019
5194 Clouds 34 1004 52 10000 7.7 260 12:21 14.07.2019
5195 Clouds 35 1005 52 10000 7.7 300 11:52 14.07.2019
5196 Clouds 34 1005 52 10000 7.7 280 11:24 14.07.2019
5197 Clouds 35 1005 49 10000 9.3 300 10:50 14.07.2019
5198 Clouds 34 1005 49 10000 9.3 300 10:25 14.07.2019
5199 Clouds 34 1005 52 10000 7.7 290 09:55 14.07.2019
5200 Clouds 35 1006 52 10000 10.3 280 09:37 14.07.2019
5201 Clouds 35 1007 52 10000 7.2 300 09:18 14.07.2019
5202 Clouds 34 1007 49 10000 8.2 280 08:41 14.07.2019
5203 Clouds 34 1007 49 10000 8.2 270 07:56 14.07.2019
5204 Clouds 34 1008 55 10000 9.3 280 07:34 14.07.2019
5205 Clouds 32 1008 59 10000 6.7 260 06:23 14.07.2019
5206 Clouds 32 1008 62 10000 6.2 260 05:43 14.07.2019
5207 Clouds 30 1008 66 10000 4.6 270 03:45 14.07.2019
5208 Clouds 30 1008 66 10000 4.6 270 03:27 14.07.2019
5209 Clouds 29 1008 69 10000 4.1 270 02:38 14.07.2019
5210 Clouds 29 1008 69 10000 4.6 260 02:20 14.07.2019
5211 Clouds 28 1008 69 10000 4.1 250 01:30 14.07.2019
5212 Clouds 28 1007 69 10000 4.6 260 00:55 14.07.2019
5213 Clouds 28 1008 69 10000 3.6 260 00:36 14.07.2019
5214 Clouds 28 1008 69 10000 4.6 270 00:18 14.07.2019
5215 Clouds 28 1008 69 10000 5.7 260 23:41 13.07.2019
5216 Clouds 28 1008 69 10000 4.6 260 23:22 13.07.2019
5217 Clouds 28 1008 69 10000 5.1 260 22:43 13.07.2019
5218 Clouds 28 1008 69 10000 5.1 260 22:22 13.07.2019
5219 Clouds 29 1009 66 10000 5.1 260 21:49 13.07.2019
5220 Clouds 29 1009 66 10000 5.1 260 21:22 13.07.2019
5221 Clouds 29 1009 70 10000 4.1 260 20:53 13.07.2019
5222 Clouds 28 1009 70 10000 4.6 260 20:34 13.07.2019
5223 Clouds 29 1009 70 10000 4.6 260 19:54 13.07.2019
5224 Clouds 30 1009 62 10000 5.7 260 19:31 13.07.2019
5225 Clouds 30 1009 62 10000 6.7 270 18:59 13.07.2019
5226 Clouds 30 1010 62 10000 6.2 260 18:39 13.07.2019
5227 Rain 30 1010 58 10000 6.2 260 18:19 13.07.2019
5228 Rain 30 1009 66 10000 5.1 260 17:38 13.07.2019
5229 Clouds 30 1009 70 10000 4.6 230 17:19 13.07.2019
5230 Clouds 30 1008 70 10000 5.7 230 16:44 13.07.2019
5231 Clouds 30 1008 70 10000 5.7 230 16:26 13.07.2019
5232 Clouds 31 1007 66 10000 7.2 230 15:48 13.07.2019
5233 Clouds 32 1007 66 10000 7.2 230 15:24 13.07.2019
5234 Clouds 32 1006 62 10000 5.7 240 14:57 13.07.2019
5235 Clouds 32 1006 66 10000 4.6 210 14:38 13.07.2019
5236 Clouds 32 1006 62 10000 4.6 210 14:19 13.07.2019
5237 Clouds 32 1005 62 10000 4.6 210 13:43 13.07.2019
5238 Clouds 33 1005 63 10000 5.1 210 13:19 13.07.2019
5239 Clouds 34 1005 53 10000 5.1 250 12:41 13.07.2019
5240 Clouds 34 1005 50 10000 5.7 280 12:23 13.07.2019
5241 Clouds 34 1005 50 10000 5.7 280 11:57 13.07.2019
5242 Clouds 34 1006 53 10000 4.6 300 11:20 13.07.2019
5243 Clouds 34 1006 53 10000 4.6 300 10:58 13.07.2019
5244 Clouds 34 1006 50 10000 6.2 290 10:39 13.07.2019
5245 Clouds 34 1006 53 10000 5.1 270 10:20 13.07.2019
5246 Clouds 34 1007 52 10000 4.6 270 09:41 13.07.2019
5247 Clouds 34 1007 52 10000 4.6 270 09:23 13.07.2019
5248 Clouds 35 1008 56 10000 3.6 260 08:47 13.07.2019
5249 Clouds 35 1008 56 10000 3.6 260 08:26 13.07.2019
5250 Clouds 34 1009 59 10000 4.6 250 07:31 13.07.2019
5251 Clouds 34 1009 55 10000 5.1 290 06:55 13.07.2019
5252 Clouds 33 1010 55 10000 6.2 270 06:29 13.07.2019
5253 Clouds 32 1010 66 10000 5.7 280 05:38 13.07.2019
5254 Clouds 32 1011 66 10000 4.6 280 04:36 13.07.2019
5255 Clouds 31 1011 66 10000 5.1 260 04:18 13.07.2019
5256 Clear 30 1010 74 10000 4.6 260 03:40 13.07.2019
5257 Clouds 29 1010 70 10000 5.1 260 02:41 13.07.2019
5258 Clouds 28 1010 78 10000 4.6 250 01:46 13.07.2019
5259 Clouds 28 1009 78 10000 4.6 250 01:20 13.07.2019
5260 Clouds 28 1009 78 10000 4.6 250 00:58 13.07.2019
5261 Clouds 27 1009 78 10000 3.1 260 00:20 13.07.2019
5262 Clouds 27 1009 94 10000 1 210 23:49 12.07.2019
5263 Clouds 27 1009 94 10000 1 210 23:30 12.07.2019
5264 Clouds 27 1009 94 10000 2.1 180 22:56 12.07.2019
5265 Rain 27 1009 88 10000 2.6 170 22:38 12.07.2019
5266 Thunderstorm 27 1009 88 10000 2.6 160 22:18 12.07.2019
5267 Thunderstorm 27 1009 88 10000 3.1 190 21:41 12.07.2019
5268 Thunderstorm 27 1010 88 10000 4.1 220 21:19 12.07.2019
5269 Thunderstorm 28 1010 88 10000 4.1 230 20:43 12.07.2019
5270 Rain 28 1010 94 9000 2.6 160 20:22 12.07.2019
5271 Thunderstorm 28 1010 94 3000 6.7 200 19:42 12.07.2019
5272 Thunderstorm 28 1010 94 3000 6.7 200 19:24 12.07.2019
5273 Rain 30 1010 74 8000 7.7 180 18:49 12.07.2019
5274 Rain 29 1010 74 8000 7.7 180 18:22 12.07.2019
5275 Rain 30 1010 70 8000 6.2 210 17:55 12.07.2019
5276 Clouds 30 1010 70 10000 5.1 210 17:37 12.07.2019
5277 Clouds 30 1009 74 10000 5.1 210 17:19 12.07.2019
5278 Clouds 30 1009 74 10000 5.1 210 16:36 12.07.2019
5279 Clouds 30 1009 66 10000 4.1 190 16:18 12.07.2019
5280 Clouds 31 1008 66 10000 4.6 200 15:38 12.07.2019
5281 Clouds 31 1008 66 10000 3.6 160 15:19 12.07.2019
5282 Clouds 31 1007 62 10000 4.1 170 14:44 12.07.2019
5283 Clouds 33 1007 59 10000 4.6 160 14:21 12.07.2019
5284 Clouds 33 1007 59 10000 5.1 160 13:47 12.07.2019
5285 Clouds 34 1007 59 10000 5.1 160 13:23 12.07.2019
5286 Clouds 34 1007 47 10000 3.1 270 12:43 12.07.2019
5287 Clouds 34 1007 47 10000 3.1 270 12:23 12.07.2019
5288 Clouds 35 1007 47 10000 2.1 280 11:47 12.07.2019
5289 Clouds 35 1007 47 10000 2.1 280 11:24 12.07.2019
5290 Clouds 35 1007 47 10000 2.1 280 11:24 12.07.2019
5291 Clouds 35 1007 53 10000 1.5 0 10:59 12.07.2019
5292 Clouds 36 1007 47 10000 1.5 0 10:41 12.07.2019
5293 Clouds 36 1007 47 10000 1.5 0 10:23 12.07.2019
5294 Clouds 36 1007 53 10000 2.6 0 09:53 12.07.2019
5295 Clouds 35 1008 50 10000 1.5 0 09:27 12.07.2019
5296 Clouds 35 1009 56 10000 3.6 340 08:50 12.07.2019
5297 Clouds 35 1009 56 10000 3.6 340 08:24 12.07.2019
5298 Clouds 34 1010 55 10000 3.1 330 07:51 12.07.2019
5299 Clouds 34 1010 55 10000 3.1 330 07:29 12.07.2019
5300 Clouds 33 1011 59 10000 4.6 300 06:32 12.07.2019
5301 Clouds 33 1011 62 10000 6.2 280 05:52 12.07.2019
5302 Clouds 32 1011 58 10000 5.7 260 04:52 12.07.2019
5303 Clouds 28 1010 69 10000 3.6 250 01:54 12.07.2019
5304 Clouds 27 1010 69 10000 3.6 240 01:34 12.07.2019
5305 Clouds 27 1010 69 10000 3.6 250 00:37 12.07.2019
5306 Clouds 28 1010 69 10000 3.1 250 00:18 12.07.2019
5307 Clouds 28 1010 74 10000 3.6 240 23:42 11.07.2019
5308 Clouds 28 1010 74 10000 3.1 250 23:21 11.07.2019
5309 Clouds 28 1010 70 10000 4.1 230 22:45 11.07.2019
5310 Clouds 28 1010 70 10000 4.1 230 22:24 11.07.2019
5311 Clouds 28 1010 74 10000 4.1 240 21:54 11.07.2019
5312 Clouds 28 1010 79 10000 4.1 250 21:36 11.07.2019
5313 Clouds 28 1010 79 10000 4.1 220 21:18 11.07.2019
5314 Clouds 28 1010 79 10000 4.1 210 20:41 11.07.2019
5315 Clouds 28 1011 79 10000 4.6 210 20:22 11.07.2019
5316 Clouds 28 1011 79 10000 4.6 210 20:22 11.07.2019
5317 Clouds 28 1011 79 10000 4.6 210 19:55 11.07.2019
5318 Clouds 29 1011 79 10000 4.1 210 19:37 11.07.2019
5319 Clouds 29 1011 79 10000 4.1 210 19:19 11.07.2019
5320 Clouds 29 1011 74 10000 3.6 210 18:40 11.07.2019
5321 Clouds 29 1011 70 10000 3.6 190 18:21 11.07.2019
5322 Clouds 29 1011 70 10000 3.6 190 17:47 11.07.2019
5323 Clouds 29 1011 70 10000 3.6 190 17:28 11.07.2019
5324 Clouds 30 1010 70 10000 4.6 200 16:53 11.07.2019
5325 Clouds 30 1010 70 10000 5.1 190 16:25 11.07.2019
5326 Clouds 30 1010 66 10000 5.1 200 15:57 11.07.2019
5327 Clouds 30 1009 62 10000 3.6 190 15:38 11.07.2019
5328 Clouds 30 1009 62 10000 2.6 170 15:19 11.07.2019
5329 Clouds 30 1009 58 10000 3.6 180 14:44 11.07.2019
5330 Clouds 31 1008 55 10000 4.6 180 14:23 11.07.2019
5331 Clouds 31 1008 55 10000 4.1 170 13:47 11.07.2019
5332 Clouds 32 1008 55 10000 4.1 170 13:29 11.07.2019
5333 Clouds 32 1008 55 10000 4.6 180 12:56 11.07.2019
5334 Clouds 33 1008 55 10000 4.1 200 12:37 11.07.2019
5335 Clouds 33 1008 52 10000 3.1 280 12:18 11.07.2019
5336 Clouds 33 1008 52 10000 3.1 280 12:18 11.07.2019
5337 Clouds 34 1008 52 10000 4.1 270 11:41 11.07.2019
5338 Clouds 34 1008 52 10000 3.6 330 11:22 11.07.2019
5339 Clouds 34 1009 52 10000 4.6 260 10:46 11.07.2019
5340 Clouds 34 1009 52 10000 5.1 250 10:19 11.07.2019
5341 Clouds 35 1009 47 10000 5.1 280 09:48 11.07.2019
5342 Clouds 35 1009 47 10000 5.1 280 09:29 11.07.2019
5343 Clouds 35 1009 49 10000 3.6 210 08:53 11.07.2019
5344 Clouds 35 1010 52 10000 4.1 240 08:27 11.07.2019
5345 Clouds 35 1010 52 10000 5.1 300 07:55 11.07.2019
5346 Clouds 35 1011 52 10000 4.6 240 07:36 11.07.2019
5347 Clouds 33 1011 55 10000 3.6 280 06:41 11.07.2019
5348 Clouds 33 1011 55 10000 3.6 250 05:53 11.07.2019
5349 Clouds 33 1012 59 10000 2.6 0 05:30 11.07.2019
5350 Clouds 32 1012 62 10000 2.6 250 04:55 11.07.2019
5351 Clouds 28 1011 74 10000 2.1 260 02:41 11.07.2019
5352 Clouds 27 1010 69 10000 2.6 270 01:41 11.07.2019
5353 Clouds 28 1010 69 10000 3.1 240 00:30 11.07.2019
5354 Clouds 28 1009 74 10000 3.1 240 23:38 10.07.2019
5355 Clouds 28 1009 74 10000 3.1 240 23:20 10.07.2019
5356 Clouds 28 1009 74 10000 3.1 240 22:48 10.07.2019
5357 Clouds 28 1009 74 10000 3.1 240 22:22 10.07.2019
5358 Clouds 29 1009 70 10000 3.6 230 21:48 10.07.2019
5359 Clouds 29 1009 70 10000 3.6 230 21:28 10.07.2019
5360 Clouds 29 1009 70 10000 3.6 230 20:58 10.07.2019
5361 Clouds 29 1010 88 10000 3.6 210 20:39 10.07.2019
5362 Clouds 29 1010 88 10000 3.1 210 20:19 10.07.2019
5363 Clouds 29 1010 88 10000 3.1 210 19:53 10.07.2019
5364 Clouds 29 1010 83 10000 3.1 200 19:22 10.07.2019
5365 Clouds 29 1010 83 10000 3.1 200 18:58 10.07.2019
5366 Clouds 29 1010 79 10000 3.1 200 18:39 10.07.2019
5367 Clouds 29 1010 79 10000 3.1 200 18:21 10.07.2019
5368 Clouds 29 1010 79 10000 4.1 190 17:41 10.07.2019
5369 Clouds 28 1010 79 10000 4.1 190 17:21 10.07.2019
5370 Clouds 29 1009 70 10000 2.6 160 16:38 10.07.2019
5371 Clouds 29 1009 70 10000 2.1 110 16:18 10.07.2019
5372 Clouds 28 1009 74 10000 1.5 190 15:45 10.07.2019
5373 Clouds 29 1008 66 10000 3.6 290 15:21 10.07.2019
5374 Clouds 30 1008 70 10000 5.7 270 14:41 10.07.2019
5375 Clouds 30 1008 70 10000 5.7 270 14:23 10.07.2019
5376 Clouds 31 1007 66 10000 4.6 190 13:52 10.07.2019
5377 Clouds 32 1006 62 10000 4.1 200 13:19 10.07.2019
5378 Clouds 32 1006 62 10000 4.1 200 13:19 10.07.2019
5379 Clouds 32 1006 62 10000 4.1 200 12:58 10.07.2019
5380 Clouds 32 1006 62 10000 4.1 200 12:58 10.07.2019
5381 Clouds 32 1006 62 10000 4.1 200 12:58 10.07.2019
5382 Clouds 33 1006 59 10000 3.1 220 12:38 10.07.2019
5383 Clouds 33 1006 59 10000 3.1 220 12:38 10.07.2019
5384 Clouds 33 1006 56 10000 2.1 200 12:19 10.07.2019
5385 Clouds 33 1006 59 10000 3.6 210 11:46 10.07.2019
5386 Clouds 33 1007 55 10000 4.1 250 11:21 10.07.2019
5387 Clouds 33 1007 55 10000 4.1 250 10:46 10.07.2019
5388 Clouds 33 1007 56 10000 5.1 280 10:21 10.07.2019
5389 Clouds 33 1008 55 10000 6.2 250 09:44 10.07.2019
5390 Clouds 33 1008 55 10000 5.7 240 09:21 10.07.2019
5391 Clouds 33 1008 55 10000 5.7 240 08:52 10.07.2019
5392 Clouds 33 1008 55 10000 5.7 240 08:52 10.07.2019
5393 Clouds 33 1008 55 10000 5.7 260 08:30 10.07.2019
5394 Clouds 33 1008 55 10000 5.7 260 08:30 10.07.2019
5395 Clouds 33 1009 55 10000 6.2 250 07:56 10.07.2019
5396 Clouds 33 1009 55 10000 5.1 260 07:33 10.07.2019
5397 Clouds 33 1009 59 10000 4.6 260 06:57 10.07.2019
5398 Clouds 32 1010 59 10000 3.6 240 05:59 10.07.2019
5399 Clouds 31 1010 74 10000 3.1 200 04:51 10.07.2019
5400 Clouds 31 1010 74 10000 3.1 200 04:26 10.07.2019
5401 Clouds 27 1009 83 10000 2.6 250 00:47 10.07.2019
5402 Clouds 27 1009 83 10000 2.6 250 00:28 10.07.2019
5403 Clouds 26 1008 88 10000 2.1 230 23:41 09.07.2019
5404 Clouds 26 1008 88 10000 2.1 230 23:21 09.07.2019
5405 Clouds 26 1008 88 10000 2.6 220 22:42 09.07.2019
5406 Clouds 26 1008 88 10000 2.6 220 22:22 09.07.2019
5407 Clouds 26 1008 83 10000 2.6 230 21:56 09.07.2019
5408 Clouds 26 1008 88 10000 1 0 21:38 09.07.2019
5409 Clouds 26 1009 83 10000 1.5 210 21:19 09.07.2019
5410 Clouds 26 1009 94 10000 1.5 220 20:43 09.07.2019
5411 Clouds 26 1009 94 10000 1.5 220 20:24 09.07.2019
5412 Clouds 26 1009 94 10000 2.1 180 19:41 09.07.2019
5413 Clouds 26 1009 94 10000 2.6 200 19:21 09.07.2019
5414 Rain 25 1010 94 10000 2.65 250.882 18:45 09.07.2019
5415 Rain 26 1010 94 10000 2.1 190 18:23 09.07.2019
5416 Rain 27 1010 94 10000 2.1 190 17:56 09.07.2019
5417 Rain 27 1010 88 10000 3.1 170 17:37 09.07.2019
5418 Rain 27 1009 88 10000 2.6 180 17:18 09.07.2019
5419 Rain 27 1009 88 10000 2.6 180 17:18 09.07.2019
5420 Rain 27 1009 88 10000 1.5 210 16:46 09.07.2019
5421 Rain 27 1009 88 9000 2.6 240 16:24 09.07.2019
5422 Rain 27 1009 94 8000 3.1 250 15:49 09.07.2019
5423 Rain 27 1009 94 8000 3.1 250 15:29 09.07.2019
5424 Clouds 29 1007 66 10000 5.1 280 14:47 09.07.2019
5425 Clouds 29 1007 66 10000 5.1 280 14:47 09.07.2019
5426 Clouds 29 1007 66 10000 5.1 280 14:25 09.07.2019
5427 Clouds 31 1006 70 10000 4.1 180 13:59 09.07.2019
5428 Clouds 31 1006 66 10000 5.1 190 13:40 09.07.2019
5429 Clouds 32 1006 66 10000 4.6 180 13:21 09.07.2019
5430 Clouds 32 1006 59 10000 3.6 190 12:40 09.07.2019
5431 Clouds 33 1006 59 10000 4.1 210 12:19 09.07.2019
5432 Clouds 33 1006 59 10000 4.1 210 11:57 09.07.2019
5433 Clouds 33 1006 56 10000 3.6 220 11:38 09.07.2019
5434 Clouds 34 1006 56 10000 3.6 250 11:20 09.07.2019
5435 Clouds 33 1007 55 10000 3.6 260 10:49 09.07.2019
5436 Clouds 33 1007 55 10000 3.6 260 10:27 09.07.2019
5437 Thunderstorm 33 1007 55 10000 5.1 260 09:40 09.07.2019
5438 Thunderstorm 33 1007 55 10000 5.1 260 09:21 09.07.2019
5439 Thunderstorm 33 1007 55 10000 5.1 260 09:21 09.07.2019
5440 Clouds 33 1009 59 10000 6.2 280 08:45 09.07.2019
5441 Clouds 33 1009 59 10000 6.2 280 08:22 09.07.2019
5442 Rain 28 1008 83 10000 2.6 190 03:54 05.07.2019
5443 Rain 28 1008 83 10000 2.1 180 03:25 05.07.2019
5444 Rain 28 1008 83 10000 1.5 170 02:59 05.07.2019
5445 Clouds 27 1007 88 10000 1.5 150 02:37 05.07.2019
5446 Clouds 26 1007 88 10000 3.57 177.209 01:37 05.07.2019
5447 Clouds 26 1007 88 10000 1 140 00:57 05.07.2019
5448 Clouds 26 1007 94 10000 3.65 171.797 00:39 05.07.2019
5449 Clouds 26 1007 100 10000 2.65 232.455 23:48 04.07.2019
5450 Clouds 26 1007 94 10000 1 130 23:20 04.07.2019
5451 Clouds 25 1007 100 10000 2.65 232.455 22:44 04.07.2019
5452 Clouds 25 1007 100 10000 2.65 232.455 22:44 04.07.2019
5453 Clouds 25 1007 100 10000 2.65 232.455 22:24 04.07.2019
5454 Clouds 26 1008 94 10000 1 150 21:55 04.07.2019
5455 Clouds 26 1008 94 10000 1.5 140 21:37 04.07.2019
5456 Clouds 26 1008 94 10000 1.5 140 21:37 04.07.2019
5457 Clouds 26 1008 100 10000 1 140 21:19 04.07.2019
5458 Rain 26 1008 94 10000 1.5 140 20:39 04.07.2019
5459 Clouds 26 1008 94 10000 2.1 130 20:21 04.07.2019
5460 Clouds 26 1008 94 10000 2.1 130 19:56 04.07.2019
5461 Clouds 26 1008 94 10000 1.5 120 19:38 04.07.2019
5462 Clouds 26 1008 94 10000 1.5 130 19:19 04.07.2019
5463 Clouds 26 1008 94 10000 1.5 100 18:41 04.07.2019
5464 Clouds 26 1008 94 10000 1 170 18:23 04.07.2019
5465 Clouds 26 1008 88 10000 3.1 200 17:44 04.07.2019
5466 Clouds 26 1009 88 10000 3.1 210 17:19 04.07.2019
5467 Rain 25 1008 94 10000 3.6 210 15:57 04.07.2019
5468 Rain 25 1008 94 10000 3.6 210 15:57 04.07.2019
5469 Rain 25 1008 88 10000 4.6 210 15:39 04.07.2019
5470 Rain 25 1008 88 10000 4.6 220 15:19 04.07.2019
5471 Rain 25 1007 94 10000 5.7 220 14:44 04.07.2019
5472 Rain 25 1007 94 10000 5.7 220 14:25 04.07.2019
5473 Rain 25 1007 94 9000 7.2 230 13:59 04.07.2019
5474 Rain 25 1007 88 9000 8.7 240 13:41 04.07.2019
5475 Rain 25 1007 88 9000 8.7 240 13:41 04.07.2019
5476 Rain 26 1007 83 10000 8.7 230 13:22 04.07.2019
5477 Rain 29 1006 74 10000 4.6 210 12:40 04.07.2019
5478 Clouds 30 1005 70 10000 4.6 200 12:21 04.07.2019
5479 Clouds 30 1005 70 10000 4.6 200 11:59 04.07.2019
5480 Rain 30 1006 74 10000 4.6 210 11:38 04.07.2019
5481 Rain 30 1006 70 10000 4.6 260 11:19 04.07.2019
5482 Clouds 31 1006 62 10000 5.1 260 10:40 04.07.2019
5483 Clouds 31 1006 62 10000 5.7 250 10:20 04.07.2019
5484 Clouds 31 1006 62 10000 7.7 230 09:41 04.07.2019
5485 Clouds 31 1006 62 10000 5.1 250 09:21 04.07.2019
5486 Clouds 31 1006 62 10000 5.1 250 08:56 04.07.2019
5487 Clouds 31 1006 62 10000 5.1 250 08:56 04.07.2019
5488 Clouds 31 1007 66 10000 4.6 240 08:22 04.07.2019
5489 Clouds 30 1007 70 10000 3.6 200 07:43 04.07.2019
5490 Clouds 30 1008 74 10000 4.1 220 07:22 04.07.2019
5491 Clouds 29 1008 70 10000 5.7 230 06:39 04.07.2019
5492 Clouds 28 1008 74 10000 3.1 240 05:50 04.07.2019
5493 Clouds 28 1008 74 10000 3.1 240 05:31 04.07.2019
5494 Clouds 26 1007 83 8000 2.6 240 02:42 04.07.2019
5495 Clouds 25 1007 88 8000 3.1 270 01:41 04.07.2019
5496 Clouds 25 1007 88 9000 2.1 290 01:19 04.07.2019
5497 Rain 26 1007 94 9000 1.5 280 23:56 03.07.2019
5498 Rain 26 1007 94 8000 1.5 250 23:36 03.07.2019
5499 Rain 26 1007 94 8000 2.6 260 23:18 03.07.2019
5500 Rain 26 1007 100 8000 1.81 197.11 22:39 03.07.2019
5501 Rain 26 1007 100 8000 1.66 188.83 22:21 03.07.2019
5502 Rain 26 1007 100 8000 1.66 188.83 21:58 03.07.2019
5503 Rain 26 1007 100 8000 1.66 188.83 21:38 03.07.2019
5504 Rain 26 1008 100 8000 2.82 197.264 21:20 03.07.2019
5505 Rain 26 1008 100 8000 1 110 20:42 03.07.2019
5506 Rain 26 1008 100 8000 1 110 20:23 03.07.2019
5507 Rain 26 1008 100 8000 1 150 19:50 03.07.2019
5508 Rain 26 1008 100 8000 1 150 19:32 03.07.2019
5509 Rain 26 1008 94 8000 2.82 197.264 18:48 03.07.2019
5510 Rain 26 1008 94 8000 3.11 193.562 18:27 03.07.2019
5511 Rain 26 1008 94 8000 1 210 17:55 03.07.2019
5512 Rain 26 1008 94 8000 1 210 17:55 03.07.2019
5513 Rain 26 1008 94 8000 2.1 210 17:36 03.07.2019
5514 Rain 26 1008 94 9000 2.6 240 17:18 03.07.2019
5515 Rain 26 1008 94 9000 2.6 270 16:43 03.07.2019
5516 Rain 26 1008 94 9000 2.1 290 16:20 03.07.2019
5517 Rain 26 1008 94 9000 1.5 300 15:47 03.07.2019
5518 Rain 26 1008 94 9000 1.5 300 15:29 03.07.2019
5519 Rain 26 1008 94 9000 2.6 250 14:53 03.07.2019
5520 Rain 26 1007 94 8000 3.1 250 14:24 03.07.2019
5521 Rain 28 1007 94 7000 3.6 250 13:57 03.07.2019
5522 Rain 28 1007 94 6000 3.1 210 13:32 03.07.2019
5523 Rain 28 1007 94 6000 0.94 211.772 12:54 03.07.2019
5524 Rain 27 1007 88 10000 2.1 10 12:21 03.07.2019
5525 Rain 27 1007 88 10000 2.1 10 11:58 03.07.2019
5526 Rain 27 1007 88 10000 2.1 30 11:39 03.07.2019
5527 Rain 27 1007 88 10000 1.5 10 11:20 03.07.2019
5528 Rain 28 1007 83 10000 2.1 360 10:41 03.07.2019
5529 Rain 28 1007 83 10000 2.1 360 10:22 03.07.2019
5530 Rain 28 1007 78 10000 3.1 270 09:43 03.07.2019
5531 Rain 28 1007 78 10000 2.6 260 09:21 03.07.2019
5532 Rain 28 1007 78 10000 2.6 260 08:53 03.07.2019
5533 Rain 28 1007 78 10000 2.6 290 08:32 03.07.2019
5534 Rain 28 1008 78 9000 2.1 340 07:57 03.07.2019
5535 Rain 28 1008 83 7000 0.5 0 07:36 03.07.2019
5536 Rain 27 1008 83 8000 2.1 330 06:52 03.07.2019
5537 Rain 27 1008 88 8000 2.6 340 05:53 03.07.2019
5538 Rain 27 1008 83 7000 3.1 330 05:21 03.07.2019
5539 Rain 26 1008 94 6000 3.1 250 03:36 03.07.2019
5540 Rain 26 1007 94 7000 2.1 240 02:38 03.07.2019
5541 Rain 26 1007 100 7000 1.5 320 01:23 03.07.2019
5542 Rain 26 1007 94 7000 2.1 260 00:57 03.07.2019
5543 Rain 26 1006 94 7000 1.5 250 00:36 03.07.2019
5544 Rain 26 1006 94 7000 2.1 280 23:48 02.07.2019
5545 Rain 26 1006 94 7000 2.6 270 23:21 02.07.2019
5546 Rain 26 1007 94 7000 3.1 280 22:59 02.07.2019
5547 Rain 26 1007 94 7000 3.1 280 22:41 02.07.2019
5548 Rain 26 1007 94 7000 4.1 270 22:22 02.07.2019
5549 Rain 26 1007 94 6000 3.6 260 21:56 02.07.2019
5550 Rain 26 1007 94 6000 3.6 260 21:37 02.07.2019
5551 Rain 26 1007 88 7000 4.1 260 21:18 02.07.2019
5552 Rain 26 1007 88 7000 4.1 260 20:41 02.07.2019
5553 Rain 26 1008 88 7000 2.6 280 20:23 02.07.2019
5554 Rain 27 1008 88 7000 2.1 280 19:45 02.07.2019
5555 Rain 27 1008 88 7000 2.6 320 19:25 02.07.2019
5556 Rain 27 1008 88 7000 2.6 320 19:00 02.07.2019
5557 Rain 27 1008 88 7000 2.6 300 18:41 02.07.2019
5558 Rain 27 1008 88 7000 2.6 300 18:41 02.07.2019
5559 Rain 27 1008 88 7000 2.6 300 18:18 02.07.2019
5560 Rain 27 1008 94 7000 2.1 320 17:40 02.07.2019
5561 Rain 28 1008 88 7000 2.6 330 17:20 02.07.2019
5562 Rain 27 1007 83 7000 3.6 320 16:46 02.07.2019
5563 Rain 28 1007 79 7000 4.1 290 16:27 02.07.2019
5564 Rain 28 1006 79 8000 3.6 300 15:42 02.07.2019
5565 Rain 28 1005 74 8000 5.1 280 15:24 02.07.2019
5566 Thunderstorm 28 1005 66 10000 4.6 270 14:49 02.07.2019
5567 Thunderstorm 28 1005 66 10000 4.6 270 14:30 02.07.2019
5568 Thunderstorm 28 1004 62 10000 4.6 280 13:45 02.07.2019
5569 Rain 29 1004 66 10000 4.6 280 13:20 02.07.2019
5570 Clouds 31 1003 70 10000 4.6 310 12:46 02.07.2019
5571 Rain 32 1003 62 8000 4.1 270 12:25 02.07.2019
5572 Clouds 33 1004 56 10000 5.1 270 11:57 02.07.2019
5573 Clouds 33 1004 56 10000 5.1 270 11:39 02.07.2019
5574 Rain 33 1004 56 10000 6.7 270 11:18 02.07.2019
5575 Clouds 33 1004 56 10000 7.2 270 10:44 02.07.2019
5576 Rain 33 1005 56 10000 5.7 260 10:24 02.07.2019
5577 Clouds 32 1005 63 10000 6.7 270 09:44 02.07.2019
5578 Clouds 33 1006 59 10000 5.7 260 09:21 02.07.2019
5579 Clouds 33 1006 59 10000 6.7 270 08:42 02.07.2019
5580 Clouds 33 1007 62 10000 5.1 280 08:20 02.07.2019
5581 Clouds 33 1007 62 10000 5.1 280 07:53 02.07.2019
5582 Clouds 33 1007 62 10000 5.1 260 07:21 02.07.2019
5583 Clouds 33 1007 62 10000 5.1 260 07:21 02.07.2019
5584 Clouds 32 1007 62 10000 5.1 280 06:47 02.07.2019
5585 Clouds 32 1007 62 10000 4.6 260 06:25 02.07.2019
5586 Clouds 30 1008 70 10000 3.1 250 04:39 02.07.2019
5587 Clouds 28 1006 78 10000 3.1 250 01:27 02.07.2019
5588 Clouds 28 1006 78 10000 3.1 250 23:47 01.07.2019
5589 Clouds 28 1006 78 10000 3.1 240 23:20 01.07.2019
5590 Clouds 28 1006 78 10000 3.1 240 22:45 01.07.2019
5591 Clouds 28 1006 78 10000 3.1 240 22:27 01.07.2019
5592 Clouds 28 1006 74 10000 3.1 250 21:47 01.07.2019
5593 Clouds 29 1006 74 10000 3.1 250 21:26 01.07.2019
5594 Clouds 28 1007 74 10000 4.1 240 20:51 01.07.2019
5595 Clouds 28 1007 74 10000 3.6 240 20:22 01.07.2019
5596 Clouds 29 1007 74 10000 3.6 240 19:58 01.07.2019
5597 Clouds 29 1008 74 10000 3.6 240 19:40 01.07.2019
5598 Clouds 28 1008 74 10000 3.6 240 19:21 01.07.2019
5599 Clouds 29 1008 70 10000 4.1 230 18:52 01.07.2019
5600 Clouds 29 1008 70 10000 4.1 230 18:30 01.07.2019
5601 Clouds 29 1008 74 10000 3.6 220 17:57 01.07.2019
5602 Clouds 29 1008 74 10000 3.6 220 17:57 01.07.2019
5603 Clouds 29 1008 79 10000 3.1 220 17:39 01.07.2019
5604 Clouds 29 1008 79 10000 3.1 220 17:19 01.07.2019
5605 Clouds 29 1007 83 10000 2.6 200 16:46 01.07.2019
5606 Clouds 29 1007 83 10000 2.6 200 16:25 01.07.2019
5607 Clouds 29 1006 74 10000 3.1 250 15:47 01.07.2019
5608 Clouds 29 1006 74 10000 3.1 250 15:28 01.07.2019
5609 Clouds 29 1006 74 10000 3.1 240 14:57 01.07.2019
5610 Clouds 29 1005 74 10000 3.1 240 14:37 01.07.2019
5611 Clouds 30 1005 74 10000 3.6 240 14:18 01.07.2019
5612 Clouds 30 1005 74 10000 3.6 240 13:39 01.07.2019
5613 Clouds 30 1005 79 10000 3.1 230 13:20 01.07.2019
5614 Clouds 30 1005 74 10000 3.6 200 12:40 01.07.2019
5615 Clouds 30 1005 74 10000 3.6 200 12:40 01.07.2019
5616 Clouds 30 1005 70 10000 4.1 210 12:22 01.07.2019
5617 Clouds 30 1005 70 10000 4.1 210 11:57 01.07.2019
5618 Rain 29 1005 70 10000 4.1 250 11:38 01.07.2019
5619 Rain 29 1005 79 10000 5.1 250 11:18 01.07.2019
5620 Rain 32 1005 66 10000 4.1 240 10:42 01.07.2019
5621 Clouds 32 1005 66 10000 4.6 230 10:20 01.07.2019
5622 Clouds 31 1006 70 10000 5.7 230 09:42 01.07.2019
5623 Clouds 31 1006 70 10000 5.7 230 09:24 01.07.2019
5624 Clouds 31 1006 62 10000 3.1 270 08:42 01.07.2019
5625 Clouds 31 1007 62 10000 5.1 260 08:21 01.07.2019
5626 Clouds 32 1007 62 10000 5.1 260 07:34 01.07.2019
5627 Clouds 31 1008 62 10000 4.6 240 06:48 01.07.2019
5628 Clouds 29 1008 74 10000 3.6 280 04:38 01.07.2019
5629 Rain 26 1007 88 8000 3.1 300 00:54 01.07.2019
5630 Rain 27 1007 88 6000 5.1 260 00:31 01.07.2019
5631 Clouds 27 1007 100 9000 1.8 231.231 23:58 30.06.2019
5632 Clouds 27 1007 100 9000 1.8 231.231 23:24 30.06.2019
5633 Clouds 27 1007 100 9000 1.8 231.231 22:54 30.06.2019
5634 Clouds 27 1007 100 10000 1.8 231.231 22:23 30.06.2019
5635 Clouds 28 1007 94 10000 1.8 231.231 21:57 30.06.2019
5636 Clouds 28 1007 94 10000 1.8 231.231 21:38 30.06.2019
5637 Clouds 28 1008 94 10000 2.8 218.343 21:18 30.06.2019
5638 Clouds 28 1008 94 10000 2.8 218.343 20:41 30.06.2019
5639 Clouds 28 1009 88 10000 2.91 223.525 20:22 30.06.2019
5640 Clouds 28 1009 88 10000 2.91 223.525 19:48 30.06.2019
5641 Clouds 28 1009 88 10000 2.91 223.525 19:25 30.06.2019
5642 Clouds 27 1009 94 10000 2.91 223.525 18:47 30.06.2019
5643 Clouds 27 1008 94 10000 1 110 18:22 30.06.2019
5644 Clouds 27 1008 94 10000 1.5 110 17:40 30.06.2019
5645 Clouds 27 1008 94 10000 1.5 120 17:19 30.06.2019
5646 Clouds 27 1007 94 10000 2.83 226.188 16:52 30.06.2019
5647 Clouds 26 1007 94 10000 2.83 226.188 16:33 30.06.2019
5648 Clouds 26 1007 88 10000 2.1 200 15:55 30.06.2019
5649 Clouds 26 1007 94 10000 1.5 200 15:36 30.06.2019
5650 Rain 26 1006 94 10000 4.1 190 15:18 30.06.2019
5651 Thunderstorm 28 1006 88 1500 7.7 210 14:43 30.06.2019
5652 Rain 29 1005 74 9000 3.6 290 14:22 30.06.2019
5653 Clouds 30 1004 74 9000 3.1 300 13:42 30.06.2019
5654 Rain 30 1004 70 9000 3.1 290 13:20 30.06.2019
5655 Clouds 31 1004 70 10000 3.6 270 12:45 30.06.2019
5656 Clouds 31 1004 70 10000 3.6 270 12:45 30.06.2019
5657 Clouds 31 1004 70 10000 3.6 270 12:23 30.06.2019
5658 Clouds 31 1004 70 10000 2.1 250 11:47 30.06.2019
5659 Clouds 31 1005 70 10000 1.5 360 11:22 30.06.2019
5660 Clouds 31 1005 70 10000 1.5 360 10:56 30.06.2019
5661 Rain 31 1005 79 10000 3.1 340 10:37 30.06.2019
5662 Rain 31 1006 74 10000 2.6 330 10:18 30.06.2019
5663 Rain 31 1006 74 10000 2.6 340 09:43 30.06.2019
5664 Rain 31 1006 74 10000 2.6 340 09:22 30.06.2019
5665 Rain 31 1007 74 10000 3.1 260 08:47 30.06.2019
5666 Rain 31 1007 74 10000 3.1 260 08:27 30.06.2019
5667 Rain 31 1007 66 10000 3.1 250 07:54 30.06.2019
5668 Clouds 31 1007 66 10000 2.6 240 07:27 30.06.2019
5669 Clouds 31 1007 66 10000 2.6 220 06:40 30.06.2019
5670 Clouds 28 1008 88 10000 3.1 180 04:56 30.06.2019
5671 Rain 26 1007 88 10000 1.5 210 02:50 30.06.2019
5672 Rain 26 1007 88 10000 3.1 200 01:27 30.06.2019
5673 Rain 27 1006 94 10000 2.6 190 00:26 30.06.2019
5674 Clouds 26 1005 88 10000 2.6 170 23:53 29.06.2019
5675 Clouds 27 1005 88 10000 2.6 170 23:24 29.06.2019
5676 Rain 26 1005 94 9000 3.1 200 22:56 29.06.2019
5677 Rain 27 1006 88 9000 3.6 230 22:25 29.06.2019
5678 Rain 27 1006 88 10000 4.6 220 21:57 29.06.2019
5679 Rain 27 1006 88 10000 4.6 220 21:57 29.06.2019
5680 Rain 27 1006 88 10000 3.6 220 21:39 29.06.2019
5681 Rain 27 1007 83 10000 5.1 210 21:20 29.06.2019
5682 Rain 28 1007 79 10000 7.2 210 20:40 29.06.2019
5683 Rain 28 1007 79 10000 7.2 210 20:21 29.06.2019
5684 Clouds 29 1007 79 10000 3.6 200 19:43 29.06.2019
5685 Clouds 29 1007 79 10000 3.6 200 19:23 29.06.2019
5686 Clouds 29 1007 83 10000 3.1 190 18:48 29.06.2019
5687 Clouds 29 1007 83 10000 3.1 190 18:25 29.06.2019
5688 Rain 29 1006 79 10000 3.6 180 17:40 29.06.2019
5689 Rain 30 1006 79 10000 3.6 180 17:22 29.06.2019
5690 Clouds 29 1006 79 10000 3.1 180 16:51 29.06.2019
5691 Clouds 29 1006 79 10000 3.1 180 16:28 29.06.2019
5692 Clouds 29 1005 74 10000 3.6 180 15:37 29.06.2019
5693 Clouds 29 1005 79 10000 4.6 170 15:19 29.06.2019
5694 Clouds 29 1005 70 10000 4.6 180 14:41 29.06.2019
5695 Clouds 29 1005 70 10000 4.6 180 14:23 29.06.2019
5696 Clouds 30 1005 70 10000 4.1 200 13:44 29.06.2019
5697 Clouds 30 1005 70 10000 4.1 200 13:26 29.06.2019
5698 Clouds 30 1005 66 10000 4.1 190 12:45 29.06.2019
5699 Clouds 31 1005 66 10000 4.1 190 12:26 29.06.2019
5700 Clouds 31 1004 62 10000 4.1 190 11:51 29.06.2019
5701 Clouds 32 1004 62 10000 4.1 190 11:30 29.06.2019
5702 Clouds 32 1005 62 10000 5.1 220 10:52 29.06.2019
5703 Clouds 32 1005 59 10000 5.1 210 10:29 29.06.2019
5704 Clouds 32 1005 62 10000 4.1 210 09:58 29.06.2019
5705 Clouds 32 1006 62 10000 4.1 220 09:31 29.06.2019
5706 Clouds 32 1006 62 10000 3.1 200 08:41 29.06.2019
5707 Clouds 31 1007 59 10000 6.7 240 07:46 29.06.2019
5708 Clouds 32 1007 59 10000 4.6 250 07:19 29.06.2019
5709 Clouds 32 1007 59 10000 7.2 240 06:42 29.06.2019
5710 Clouds 32 1006 62 10000 3.6 220 06:20 29.06.2019
5711 Clouds 28 1007 78 9000 4.1 230 02:26 29.06.2019
5712 Clouds 28 1006 94 9000 2.98 209.96 00:57 29.06.2019
5713 Clouds 27 1006 100 9000 1.61 201.531 23:59 28.06.2019
5714 Clouds 27 1005 94 9000 1.61 201.531 23:24 28.06.2019
5715 Rain 27 1005 94 9000 1.61 201.531 22:53 28.06.2019
5716 Rain 28 1006 83 9000 1.61 201.531 22:28 28.06.2019
5717 Clouds 28 1007 78 10000 1 100 21:47 28.06.2019
5718 Clouds 28 1007 83 10000 1.5 200 21:21 28.06.2019
5719 Clouds 28 1007 83 10000 2.6 200 20:46 28.06.2019
5720 Clouds 28 1007 83 10000 2.6 200 20:25 28.06.2019
5721 Rain 28 1008 78 10000 3.6 230 19:53 28.06.2019
5722 Clouds 28 1008 74 10000 4.1 230 19:27 28.06.2019
5723 Clouds 28 1008 88 10000 2.1 220 18:45 28.06.2019
5724 Clouds 28 1008 83 10000 3.1 220 18:22 28.06.2019
5725 Clouds 28 1008 83 10000 3.1 220 17:59 28.06.2019
5726 Clouds 28 1007 78 10000 5.1 230 17:29 28.06.2019
5727 Clouds 27 1006 83 10000 3.1 230 16:49 28.06.2019
5728 Clouds 27 1006 83 10000 2.6 260 16:24 28.06.2019
5729 Clouds 27 1006 83 10000 4.1 240 15:48 28.06.2019
5730 Clouds 27 1006 83 10000 4.1 240 15:23 28.06.2019
5731 Rain 28 1006 88 5000 8.7 260 14:43 28.06.2019
5732 Rain 29 1005 66 9000 7.7 240 14:22 28.06.2019
5733 Rain 29 1005 66 9000 7.7 240 13:56 28.06.2019
5734 Rain 30 1005 70 9000 6.2 240 13:37 28.06.2019
5735 Clouds 31 1004 70 9000 6.2 230 13:19 28.06.2019
5736 Clouds 32 1004 66 10000 6.2 220 12:44 28.06.2019
5737 Rain 32 1004 62 10000 7.2 240 11:54 28.06.2019
5738 Clouds 32 1004 63 10000 4.1 240 11:22 28.06.2019
5739 Rain 32 1004 62 9000 5.1 260 10:45 28.06.2019
5740 Clouds 33 1004 59 10000 5.1 250 10:21 28.06.2019
5741 Clouds 33 1005 59 10000 6.7 240 09:48 28.06.2019
5742 Clouds 33 1005 59 10000 6.7 240 09:29 28.06.2019
5743 Clouds 32 1006 59 10000 6.2 250 08:47 28.06.2019
5744 Clouds 32 1006 59 10000 6.2 250 08:26 28.06.2019
5745 Clouds 32 1007 62 10000 5.1 230 07:46 28.06.2019
5746 Clouds 32 1007 62 10000 5.1 240 06:58 28.06.2019
5747 Clouds 32 1007 62 10000 4.6 240 05:55 28.06.2019
5748 Clouds 27 1006 83 10000 2.1 230 01:22 28.06.2019
5749 Clouds 27 1005 88 10000 1.5 210 00:33 28.06.2019
5750 Clouds 27 1005 83 10000 1.5 200 23:48 27.06.2019
5751 Clouds 27 1005 83 10000 1.5 200 23:25 27.06.2019
5752 Clouds 27 1005 88 10000 1.5 190 22:55 27.06.2019
5753 Clouds 27 1006 88 10000 3.49 224.733 22:36 27.06.2019
5754 Rain 27 1006 88 10000 3.49 224.733 22:18 27.06.2019
5755 Clouds 27 1006 88 10000 0.5 130 21:47 27.06.2019
5756 Clouds 27 1006 88 10000 0.5 130 21:29 27.06.2019
5757 Clouds 27 1007 88 10000 2.1 130 20:55 27.06.2019
5758 Clouds 27 1007 88 10000 1.5 150 20:36 27.06.2019
5759 Clouds 27 1007 83 10000 1.5 160 20:18 27.06.2019
5760 Clouds 27 1007 83 10000 2.1 200 19:41 27.06.2019
5761 Clouds 27 1007 83 10000 2.1 200 19:23 27.06.2019
5762 Clouds 27 1007 83 10000 2.6 200 18:42 27.06.2019
5763 Rain 27 1007 83 10000 2.1 190 18:19 27.06.2019
5764 Rain 26 1007 88 10000 2.6 220 17:43 27.06.2019
5765 Clouds 26 1007 88 10000 2.6 210 17:22 27.06.2019
5766 Clouds 27 1007 83 10000 3.1 240 16:40 27.06.2019
5767 Rain 26 1006 78 10000 3.1 250 16:19 27.06.2019
5768 Rain 27 1006 78 10000 3.1 250 15:51 27.06.2019
5769 Rain 26 1006 78 10000 4.1 240 15:31 27.06.2019
5770 Rain 26 1006 78 10000 4.6 240 14:58 27.06.2019
5771 Rain 26 1006 83 10000 3.6 250 14:36 27.06.2019
5772 Rain 26 1005 83 10000 3.6 250 14:18 27.06.2019
5773 Clouds 26 1005 83 10000 4.6 250 13:42 27.06.2019
5774 Rain 26 1005 88 10000 4.1 260 13:24 27.06.2019
5775 Rain 25 1006 100 7000 5.7 270 12:43 27.06.2019
5776 Rain 25 1006 100 5000 7.2 230 12:23 27.06.2019
5777 Rain 31 1005 62 10000 4.6 260 11:45 27.06.2019
5778 Rain 31 1005 62 10000 4.6 260 11:22 27.06.2019
5779 Rain 32 1005 62 8000 4.6 260 10:56 27.06.2019
5780 Clouds 32 1005 62 10000 4.1 240 10:36 27.06.2019
5781 Clouds 32 1005 62 10000 4.6 250 10:18 27.06.2019
5782 Clouds 32 1005 62 10000 4.6 250 10:18 27.06.2019
5783 Clouds 32 1006 62 10000 5.1 270 09:38 27.06.2019
5784 Clouds 32 1006 55 10000 5.7 260 09:20 27.06.2019
5785 Clouds 32 1007 59 10000 5.1 250 08:46 27.06.2019
5786 Clouds 32 1007 59 10000 5.1 250 08:46 27.06.2019
5787 Clouds 32 1007 59 10000 5.1 250 08:26 27.06.2019
5788 Clouds 33 1007 55 10000 5.7 280 07:40 27.06.2019
5789 Clouds 32 1008 59 10000 6.2 250 06:56 27.06.2019
5790 Clouds 32 1008 59 10000 5.1 250 06:29 27.06.2019
5791 Clouds 30 1007 66 10000 4.6 260 03:50 27.06.2019
5792 Clouds 29 1007 74 10000 3.6 240 02:41 27.06.2019
5793 Clouds 28 1007 74 10000 3.6 230 01:18 27.06.2019
5794 Clouds 28 1006 74 10000 3.6 230 00:47 27.06.2019
5795 Clouds 28 1006 74 10000 3.6 230 00:25 27.06.2019
5796 Clouds 28 1006 74 10000 3.6 230 23:45 26.06.2019
5797 Clouds 28 1006 74 10000 3.6 230 23:22 26.06.2019
5798 Clouds 28 1006 74 10000 3.6 230 23:22 26.06.2019
5799 Clouds 28 1006 74 10000 3.6 240 22:55 26.06.2019
5800 Clouds 28 1006 74 10000 3.1 240 22:37 26.06.2019
5801 Clouds 28 1006 74 10000 4.1 230 22:18 26.06.2019
5802 Clouds 28 1007 78 10000 4.1 230 21:39 26.06.2019
5803 Clouds 28 1007 78 10000 4.1 230 21:39 26.06.2019
5804 Clouds 28 1007 78 10000 3.6 240 21:19 26.06.2019
5805 Clouds 29 1007 74 10000 4.1 240 20:50 26.06.2019
5806 Clouds 29 1007 74 10000 4.1 240 20:30 26.06.2019
5807 Clouds 29 1008 74 10000 5.1 230 19:52 26.06.2019
5808 Clouds 29 1008 74 10000 5.1 230 19:52 26.06.2019
5809 Clouds 29 1008 74 10000 4.6 230 19:32 26.06.2019
5810 Clouds 29 1008 74 10000 5.7 230 18:59 26.06.2019
5811 Clouds 29 1008 83 10000 4.1 210 18:40 26.06.2019
5812 Clouds 28 1008 88 10000 3.1 200 18:21 26.06.2019
5813 Clouds 28 1008 88 10000 3.1 200 17:46 26.06.2019
5814 Clouds 28 1008 88 10000 3.1 200 17:27 26.06.2019
5815 Clouds 28 1008 88 10000 3.1 200 17:27 26.06.2019
5816 Clouds 28 1007 88 10000 3.1 190 16:51 26.06.2019
5817 Clouds 28 1007 88 10000 3.1 190 16:29 26.06.2019
5818 Clouds 28 1006 83 10000 4.1 210 15:53 26.06.2019
5819 Clouds 28 1006 83 10000 4.1 210 15:28 26.06.2019
5820 Rain 28 1007 83 10000 7.2 230 14:43 26.06.2019
5821 Rain 28 1006 74 10000 7.2 190 14:23 26.06.2019
5822 Clouds 29 1005 74 10000 7.2 190 13:46 26.06.2019
5823 Clouds 30 1005 66 10000 7.2 190 13:23 26.06.2019
5824 Clouds 31 1005 66 10000 7.2 190 12:57 26.06.2019
5825 Clouds 31 1005 66 10000 7.2 190 12:57 26.06.2019
5826 Clouds 32 1004 63 10000 5.1 200 12:39 26.06.2019
5827 Clouds 32 1005 63 10000 4.6 210 12:19 26.06.2019
5828 Clouds 33 1005 63 10000 4.6 190 11:25 26.06.2019
5829 Clouds 33 1005 63 10000 3.6 230 10:51 26.06.2019
5830 Clouds 34 1005 63 10000 3.6 230 10:31 26.06.2019
5831 Clouds 33 1006 59 10000 3.1 270 09:59 26.06.2019
5832 Clouds 33 1006 59 10000 2.6 220 09:30 26.06.2019
5833 Clouds 33 1006 59 10000 4.6 240 08:55 26.06.2019
5834 Clouds 34 1007 59 10000 4.6 260 08:22 26.06.2019
5835 Clouds 34 1007 59 10000 4.6 260 07:57 26.06.2019
5836 Clouds 33 1008 59 10000 4.1 250 07:38 26.06.2019
5837 Clouds 32 1009 62 10000 3.6 250 06:33 26.06.2019
5838 Clouds 28 1008 83 10000 2.6 220 01:59 26.06.2019
5839 Clouds 28 1007 83 10000 2.6 240 00:35 26.06.2019
5840 Clouds 28 1008 83 10000 3.1 250 23:52 25.06.2019
5841 Clouds 28 1008 83 10000 3.1 250 23:32 25.06.2019
5842 Clouds 28 1008 83 10000 3.1 240 22:59 25.06.2019
5843 Clouds 28 1008 83 10000 2.6 250 22:41 25.06.2019
5844 Clouds 28 1008 83 10000 2.6 250 22:22 25.06.2019
5845 Clouds 28 1008 83 10000 3.1 220 21:46 25.06.2019
5846 Clouds 28 1008 83 10000 3.1 220 21:24 25.06.2019
5847 Clouds 28 1009 83 10000 2.6 200 20:48 25.06.2019
5848 Clouds 28 1009 83 10000 2.6 200 20:48 25.06.2019
5849 Clouds 28 1009 83 10000 2.6 200 20:48 25.06.2019
5850 Clouds 28 1009 83 10000 2.6 200 20:24 25.06.2019
5851 Clouds 28 1009 83 10000 3.1 210 19:56 25.06.2019
5852 Clouds 28 1009 83 10000 2.6 230 19:56 25.06.2019
5853 Clouds 28 1009 83 10000 2.6 230 19:37 25.06.2019
5854 Clouds 28 1009 83 10000 2.1 210 19:19 25.06.2019
5855 Clouds 28 1010 83 10000 2.93 222.002 18:41 25.06.2019
5856 Clouds 28 1010 83 10000 1.5 160 18:23 25.06.2019
5857 -273 0 0 0 0 0 17:43 25.06.2019
5858 Clouds 27 1009 88 10000 2.1 210 17:22 25.06.2019
5859 Clouds 27 1009 88 10000 2.1 210 17:22 25.06.2019
5860 -273 0 0 0 0 0 17:22 25.06.2019
5861 Clouds 27 1009 88 10000 2.1 210 17:22 25.06.2019
5862 Clouds 28 1009 78 10000 2.6 190 16:43 25.06.2019
5863 Clouds 28 1009 78 10000 2.6 190 16:25 25.06.2019
5864 Clouds 27 1008 83 10000 3.1 220 15:43 25.06.2019
5865 Clouds 27 1008 78 10000 3.6 240 15:25 25.06.2019
5866 Clouds 27 1008 78 10000 3.6 240 14:57 25.06.2019
5867 Rain 28 1008 83 10000 6.2 240 14:37 25.06.2019
5868 Rain 29 1007 70 10000 5.7 230 13:59 25.06.2019
5869 Rain 30 1007 70 10000 7.2 220 13:39 25.06.2019
5870 Rain 32 1006 63 10000 6.7 200 13:19 25.06.2019
5871 Clouds 32 1006 63 10000 5.1 190 12:39 25.06.2019
5872 Clouds 32 1005 63 10000 4.1 190 12:21 25.06.2019
5873 Clouds 33 1006 66 10000 4.6 170 11:44 25.06.2019
5874 Clouds 33 1006 63 10000 4.6 160 11:22 25.06.2019
5875 Clouds 33 1006 66 10000 4.6 170 10:46 25.06.2019
5876 Clouds 33 1006 63 10000 3.6 180 10:24 25.06.2019
5877 Clouds 33 1006 63 10000 3.6 180 09:56 25.06.2019
5878 Clouds 33 1007 63 10000 3.6 210 09:38 25.06.2019
5879 Clouds 33 1007 63 10000 2.1 0 09:19 25.06.2019
5880 Clouds 33 1008 63 10000 3.1 200 08:47 25.06.2019
5881 Clouds 33 1008 63 10000 3.1 200 08:28 25.06.2019
5882 Clouds 34 1008 66 10000 3.1 190 07:40 25.06.2019
5883 Clouds 34 1009 63 10000 2.6 210 06:58 25.06.2019
5884 Clouds 33 1009 75 10000 3.6 230 06:40 25.06.2019
5885 Clouds 27 1009 94 8000 1 70 02:48 25.06.2019
5886 Clouds 27 1009 94 8000 1 70 02:23 25.06.2019
5887 Thunderstorm 26 1007 100 10000 2.34 198.427 00:37 25.06.2019
5888 Clouds 26 1007 100 10000 1.81 208.453 23:59 24.06.2019
5889 Clouds 26 1007 100 10000 1.81 208.453 23:40 24.06.2019
5890 Clouds 26 1007 100 10000 1.81 208.453 23:22 24.06.2019
5891 Clouds 26 1007 100 10000 1.81 208.453 22:42 24.06.2019
5892 Clouds 26 1007 100 10000 1.81 208.453 22:19 24.06.2019
5893 Clouds 26 1007 100 10000 1 190 21:41 24.06.2019
5894 Rain 26 1008 100 9000 2.75 190.407 21:19 24.06.2019
5895 Rain 26 1008 100 9000 2.75 190.407 20:57 24.06.2019
5896 Rain 26 1008 100 9000 1.5 190 20:39 24.06.2019
5897 Rain 26 1008 100 9000 2.1 190 20:20 24.06.2019
5898 Rain 25 1008 100 9000 2.6 190 19:46 24.06.2019
5899 Rain 25 1009 100 9000 1.5 160 19:21 24.06.2019
5900 Thunderstorm 26 1009 100 8000 2.1 200 18:47 24.06.2019
5901 Thunderstorm 26 1009 100 8000 2.1 200 18:27 24.06.2019
5902 Thunderstorm 28 1008 88 5000 2.6 280 17:47 24.06.2019
5903 Thunderstorm 28 1008 88 5000 2.6 280 17:27 24.06.2019
5904 Rain 30 1008 83 10000 5.1 340 16:48 24.06.2019
5905 Rain 29 1008 79 10000 5.7 320 16:21 24.06.2019
5906 Rain 30 1008 79 10000 5.7 320 15:56 24.06.2019
5907 Clouds 30 1007 79 10000 2.6 180 15:38 24.06.2019
5908 Clouds 30 1007 79 10000 2.6 160 15:19 24.06.2019
5909 Clouds 30 1006 79 10000 2.6 170 14:33 24.06.2019
5910 Clouds 31 1005 84 10000 3.1 120 13:49 24.06.2019
5911 Clouds 31 1005 84 10000 3.1 120 13:49 24.06.2019
5912 Clouds 31 1005 74 10000 3.1 150 13:24 24.06.2019
5913 Clouds 31 1005 74 10000 2.6 140 12:44 24.06.2019
5914 Clouds 31 1005 74 10000 3.6 150 12:21 24.06.2019
5915 Clouds 31 1005 79 10000 4.1 130 11:47 24.06.2019
5916 Clouds 31 1005 79 10000 4.1 130 11:28 24.06.2019
5917 Clouds 30 1005 79 10000 2.1 140 10:58 24.06.2019
5918 Rain 30 1005 84 9000 4.6 160 10:39 24.06.2019
5919 Rain 31 1006 84 9000 4.1 120 10:20 24.06.2019
5920 Rain 31 1006 84 9000 3.1 160 09:44 24.06.2019
5921 Rain 31 1006 84 10000 2.6 150 09:19 24.06.2019
5922 Rain 33 1006 66 9000 2.1 230 08:50 24.06.2019
5923 Clouds 33 1007 63 7000 2.6 140 08:20 24.06.2019
5924 Clouds 33 1007 63 10000 2.1 300 07:41 24.06.2019
5925 Clouds 32 1007 63 10000 1.5 0 07:23 24.06.2019
5926 Clouds 32 1008 66 10000 3.1 90 06:24 24.06.2019
5927 Clouds 31 1008 66 10000 2.6 210 05:45 24.06.2019
5928 Clouds 29 1008 74 10000 2.1 220 04:46 24.06.2019
5929 Thunderstorm 28 1008 83 10000 3.1 200 03:49 24.06.2019
5930 Clouds 28 1007 83 9000 3.1 260 02:48 24.06.2019
5931 Clouds 28 1007 100 8000 1.5 140 01:55 24.06.2019
5932 Clouds 28 1006 100 8000 3.1 120 01:33 24.06.2019
5933 Clouds 29 1006 94 8000 3.1 110 00:55 24.06.2019
5934 Clouds 29 1005 94 8000 2.6 100 00:21 24.06.2019
5935 Clouds 29 1005 94 8000 2.6 100 23:56 23.06.2019
5936 Clouds 29 1006 94 9000 3.6 90 23:37 23.06.2019
5937 Clouds 29 1005 94 9000 2.1 100 23:18 23.06.2019
5938 Clouds 29 1005 94 9000 2.1 90 22:41 23.06.2019
5939 Clouds 29 1005 94 9000 2.1 90 22:20 23.06.2019
5940 Clouds 29 1005 94 10000 1.5 80 21:42 23.06.2019
5941 Clouds 29 1006 94 10000 3.6 130 21:22 23.06.2019
5942 Clouds 29 1006 88 10000 2.6 120 20:51 23.06.2019
5943 Clouds 29 1006 88 10000 2.6 120 20:31 23.06.2019
5944 Clouds 29 1007 88 10000 2.1 120 19:55 23.06.2019
5945 Clouds 29 1007 83 10000 2.1 150 19:37 23.06.2019
5946 Clouds 29 1007 83 9000 2.1 150 19:19 23.06.2019
5947 Clouds 29 1007 89 8000 3.1 140 18:43 23.06.2019
5948 Clouds 28 1006 94 8000 2.6 130 18:19 23.06.2019
5949 Rain 29 1006 89 8000 2.6 140 17:41 23.06.2019
5950 Clouds 30 1006 89 8000 2.1 130 17:22 23.06.2019
5951 Clouds 30 1006 89 8000 2.6 130 16:45 23.06.2019
5952 Clouds 30 1006 89 8000 2.6 130 16:25 23.06.2019
5953 Clouds 29 1005 89 8000 3.1 160 15:45 23.06.2019
5954 Clouds 30 1005 89 8000 3.1 140 15:25 23.06.2019
5955 Clouds 30 1005 89 8000 3.1 140 14:59 23.06.2019
5956 Clouds 29 1004 94 8000 2.6 180 14:38 23.06.2019
5957 Rain 29 1003 89 8000 2.6 130 14:20 23.06.2019
5958 Rain 30 1003 89 8000 2.6 170 13:42 23.06.2019
5959 Rain 30 1003 83 8000 2.1 180 13:21 23.06.2019
5960 Rain 30 1003 83 8000 2.1 180 12:56 23.06.2019
5961 Rain 29 1003 88 8000 2.6 180 12:37 23.06.2019
5962 Rain 29 1004 94 8000 2.6 200 12:18 23.06.2019
5963 Rain 28 1004 88 8000 6.2 210 11:45 23.06.2019
5964 Rain 28 1004 88 8000 6.2 210 11:25 23.06.2019
5965 Rain 33 1003 53 10000 2.1 260 10:48 23.06.2019
5966 Thunderstorm 34 1003 53 10000 1 0 10:21 23.06.2019
5967 Thunderstorm 35 1003 53 10000 1 0 09:57 23.06.2019
5968 Clouds 36 1003 53 10000 3.6 0 09:22 23.06.2019
5969 Clouds 36 1004 56 10000 2.6 300 08:46 23.06.2019
5970 Clouds 36 1004 56 10000 2.6 300 08:27 23.06.2019
5971 Clouds 35 1005 59 10000 1.5 0 07:55 23.06.2019
5972 Clouds 35 1005 59 10000 2.6 0 07:25 23.06.2019
5973 Clouds 34 1005 63 10000 3.1 250 06:59 23.06.2019
5974 Clouds 34 1005 63 10000 3.1 250 06:40 23.06.2019
5975 Clouds 34 1005 62 10000 3.6 270 04:53 23.06.2019
5976 Clouds 30 1005 79 10000 2.1 250 02:32 23.06.2019
5977 Clouds 30 1005 74 10000 3.1 260 01:39 23.06.2019
5978 Clouds 30 1004 84 10000 2.1 190 00:47 23.06.2019
5979 Clouds 30 1004 84 10000 2.1 190 00:26 23.06.2019
5980 Clouds 30 1004 84 10000 3.1 190 23:42 22.06.2019
5981 Clouds 30 1004 84 10000 3.1 190 23:24 22.06.2019
5982 Clouds 30 1004 84 10000 4.6 190 22:46 22.06.2019
5983 Clouds 30 1004 84 10000 4.6 190 22:24 22.06.2019
5984 Clouds 31 1005 79 10000 3.6 180 21:41 22.06.2019
5985 Clouds 31 1004 79 10000 4.1 190 21:20 22.06.2019
5986 Clouds 31 1004 79 10000 4.1 190 20:53 22.06.2019
5987 Clouds 31 1005 79 10000 4.1 190 20:27 22.06.2019
5988 Clouds 31 1005 79 10000 5.1 200 19:53 22.06.2019
5989 Clouds 31 1005 79 10000 3.6 190 19:28 22.06.2019
5990 Clouds 31 1005 74 10000 3.6 190 18:59 22.06.2019
5991 Clouds 31 1005 74 10000 4.1 200 18:41 22.06.2019
5992 Clouds 31 1005 74 10000 3.6 180 18:19 22.06.2019
5993 Clouds 31 1005 74 10000 3.6 190 17:38 22.06.2019
5994 Clouds 31 1005 70 10000 4.1 190 17:19 22.06.2019
5995 Clouds 31 1004 70 10000 3.6 190 16:39 22.06.2019
5996 Clouds 31 1004 70 10000 4.1 200 16:21 22.06.2019
5997 Clouds 32 1004 70 10000 4.1 210 15:41 22.06.2019
5998 Clouds 32 1004 70 10000 4.1 210 15:41 22.06.2019
5999 Clouds 32 1004 70 10000 4.1 210 15:23 22.06.2019
6000 Clouds 33 1003 50 10000 2.6 270 14:46 22.06.2019
6001 Clouds 33 1003 50 10000 2.6 270 14:28 22.06.2019
6002 Clouds 33 1003 50 10000 3.6 250 13:44 22.06.2019
6003 Clouds 34 1002 47 10000 4.1 290 13:25 22.06.2019
6004 Clouds 34 1002 47 10000 4.1 290 13:25 22.06.2019
6005 Clouds 35 1002 47 10000 4.6 310 12:54 22.06.2019
6006 Clouds 35 1002 47 10000 4.6 310 12:35 22.06.2019
6007 Clouds 36 1002 47 10000 4.1 280 11:59 22.06.2019
6008 Clouds 37 1002 50 10000 4.1 310 11:34 22.06.2019
6009 Clouds 37 1003 47 10000 3.6 280 10:54 22.06.2019
6010 Clouds 37 1003 50 10000 3.1 300 10:21 22.06.2019
6011 Clouds 37 1003 50 10000 3.1 300 09:55 22.06.2019
6012 Clouds 37 1004 56 10000 3.6 310 09:23 22.06.2019
6013 Clouds 36 1005 53 10000 4.6 260 08:44 22.06.2019
6014 Clouds 36 1005 53 10000 4.6 260 08:25 22.06.2019
6015 Clouds 35 1006 59 10000 4.6 250 07:35 22.06.2019
6016 Clouds 35 1006 59 10000 3.6 280 06:56 22.06.2019
6017 Clouds 33 1007 59 10000 5.1 290 05:30 22.06.2019
6018 Clouds 30 1006 74 10000 5.1 270 02:34 22.06.2019
6019 Clouds 29 1005 74 10000 3.6 280 01:24 22.06.2019
6020 Clouds 29 1006 74 10000 3.6 260 00:46 22.06.2019
6021 Clouds 29 1006 79 10000 4.1 260 00:22 22.06.2019
6022 Clouds 30 1006 74 10000 4.1 270 23:44 21.06.2019
6023 Clouds 30 1006 74 10000 4.1 270 23:22 21.06.2019
6024 Clouds 30 1006 79 10000 3.1 250 22:52 21.06.2019
6025 Clouds 30 1006 84 10000 4.1 240 22:24 21.06.2019
6026 Clouds 30 1006 84 10000 4.6 250 21:55 21.06.2019
6027 Clouds 30 1006 84 10000 2.6 230 21:36 21.06.2019
6028 Clouds 30 1006 84 10000 2.6 230 21:36 21.06.2019
6029 Clouds 30 1006 84 10000 3.6 210 21:18 21.06.2019
6030 Clouds 30 1006 79 10000 4.1 210 20:44 21.06.2019
6031 Clouds 30 1006 79 10000 4.6 220 20:21 21.06.2019
6032 Clouds 30 1007 84 10000 3.1 220 19:35 21.06.2019
6033 Clouds 31 1007 74 10000 3.6 220 18:50 21.06.2019
6034 Clouds 31 1007 74 10000 3.6 220 18:30 21.06.2019
6035 Clouds 31 1006 74 10000 4.6 220 17:47 21.06.2019
6036 Clouds 31 1006 74 10000 4.6 220 17:28 21.06.2019
6037 Clouds 31 1006 70 10000 3.6 180 16:41 21.06.2019
6038 Clouds 31 1006 70 10000 3.6 180 16:22 21.06.2019
6039 Clouds 33 1005 56 10000 2.6 280 15:40 21.06.2019
6040 Clouds 33 1004 56 10000 2.6 270 15:21 21.06.2019
6041 Clouds 33 1004 53 10000 3.1 300 14:49 21.06.2019
6042 Clouds 33 1004 53 10000 3.1 300 14:30 21.06.2019
6043 Clouds 34 1004 53 10000 3.1 290 13:55 21.06.2019
6044 Clouds 34 1004 53 10000 3.1 290 13:33 21.06.2019
6045 Clouds 35 1004 53 10000 3.1 290 12:59 21.06.2019
6046 Clouds 35 1004 53 10000 4.1 290 12:39 21.06.2019
6047 Clouds 35 1004 53 10000 3.1 280 12:18 21.06.2019
6048 Clouds 35 1004 53 10000 3.1 280 12:18 21.06.2019
6049 Clouds 35 1004 53 10000 3.1 280 12:18 21.06.2019
6050 Clouds 36 1004 53 10000 4.1 270 11:46 21.06.2019
6051 Clouds 35 1004 53 10000 4.1 270 11:24 21.06.2019
6052 Clouds 34 1005 56 10000 4.1 260 10:49 21.06.2019
6053 Clouds 34 1005 56 10000 3.6 240 10:21 21.06.2019
6054 Clouds 35 1005 56 10000 3.6 240 09:56 21.06.2019
6055 Clouds 35 1006 56 10000 4.6 320 09:38 21.06.2019
6056 Clouds 36 1006 56 10000 4.6 310 09:19 21.06.2019
6057 Clouds 35 1007 53 10000 4.1 290 08:42 21.06.2019
6058 Clouds 35 1007 56 10000 4.6 310 08:22 21.06.2019
6059 Clouds 35 1007 59 10000 4.1 300 07:46 21.06.2019
6060 Clouds 35 1007 59 10000 4.1 300 07:26 21.06.2019
6061 Clouds 34 1008 59 10000 3.1 270 06:51 21.06.2019
6062 Clouds 34 1008 59 10000 4.6 280 06:19 21.06.2019
6063 Clouds 33 1009 66 10000 3.6 250 04:57 21.06.2019
6064 Clouds 33 1008 66 10000 4.1 260 03:58 21.06.2019
6065 Clouds 32 1008 74 10000 2.6 300 03:32 21.06.2019
6066 Clouds 30 1008 74 10000 3.1 280 02:44 21.06.2019
6067 Clouds 28 1007 78 10000 2.6 270 01:38 21.06.2019
6068 Clouds 28 1007 74 10000 3.1 270 00:52 21.06.2019
6069 Clouds 28 1007 74 10000 3.1 270 00:18 21.06.2019
6070 Clouds 29 1007 79 10000 3.6 260 23:42 20.06.2019
6071 Clouds 29 1007 79 10000 3.6 260 23:42 20.06.2019
6072 Clouds 29 1007 79 10000 3.1 260 23:21 20.06.2019
6073 Clouds 29 1007 79 10000 3.6 250 22:46 20.06.2019
6074 Clouds 29 1007 79 10000 3.6 250 22:26 20.06.2019
6075 Clouds 29 1007 79 10000 3.1 250 21:57 20.06.2019
6076 Clouds 30 1007 74 10000 3.6 240 21:38 20.06.2019
6077 Clouds 29 1007 74 10000 4.1 230 21:19 20.06.2019
6078 Clouds 29 1007 79 10000 3.6 230 20:46 20.06.2019
6079 Clouds 29 1008 79 10000 4.1 220 20:25 20.06.2019
6080 Clouds 30 1008 79 10000 4.1 220 19:55 20.06.2019
6081 Clouds 30 1008 79 10000 2.1 230 19:36 20.06.2019
6082 Clouds 30 1008 79 10000 3.1 210 19:18 20.06.2019
6083 Clouds 30 1008 79 10000 2.6 200 18:42 20.06.2019
6084 Clouds 30 1008 79 10000 2.6 210 18:23 20.06.2019
6085 Clouds 30 1008 79 10000 3.1 210 17:49 20.06.2019
6086 Clouds 30 1008 79 10000 3.1 210 17:31 20.06.2019
6087 Clouds 30 1007 79 10000 3.6 200 16:48 20.06.2019
6088 Clouds 30 1007 79 10000 3.6 210 16:20 20.06.2019
6089 -273 0 0 0 0 0 15:58 20.06.2019
6090 Clouds 31 1006 74 10000 4.1 210 15:40 20.06.2019
6091 Clouds 31 1006 70 10000 4.6 220 15:21 20.06.2019
6092 Clouds 31 1006 66 10000 3.6 220 14:44 20.06.2019
6093 Clouds 31 1006 66 10000 3.6 220 14:22 20.06.2019
6094 Clouds 33 1005 52 10000 5.1 250 13:41 20.06.2019
6095 Clouds 33 1005 56 10000 1.5 300 13:20 20.06.2019
6096 Clouds 33 1005 56 10000 2.6 280 12:47 20.06.2019
6097 Clouds 33 1005 56 10000 2.6 280 12:23 20.06.2019
6098 Clouds 34 1005 56 10000 4.6 290 11:48 20.06.2019
6099 Clouds 34 1005 56 10000 4.6 290 11:29 20.06.2019
6100 Clouds 34 1006 56 10000 3.6 260 10:57 20.06.2019
6101 Clouds 34 1006 56 10000 5.1 260 10:39 20.06.2019
6102 Clouds 33 1006 59 10000 4.1 260 10:20 20.06.2019
6103 Clouds 34 1007 59 10000 3.6 290 09:40 20.06.2019
6104 Clouds 33 1007 63 10000 5.7 240 09:21 20.06.2019
6105 Clouds 33 1007 63 10000 4.1 260 08:46 20.06.2019
6106 Clouds 33 1007 63 10000 4.1 260 08:27 20.06.2019
6107 Clouds 33 1008 59 10000 3.6 280 07:53 20.06.2019
6108 Clouds 33 1008 59 10000 3.1 300 07:28 20.06.2019
6109 Clouds 33 1009 59 10000 4.1 260 06:30 20.06.2019
6110 Clouds 32 1009 66 10000 1.5 0 05:41 20.06.2019
6111 Clouds 31 1009 83 10000 2.1 110 03:32 20.06.2019
6112 Clouds 29 1007 83 10000 1.5 240 00:34 20.06.2019
6113 Clouds 27 1007 83 10000 2.1 220 23:58 19.06.2019
6114 Clouds 27 1007 83 10000 1.5 260 23:39 19.06.2019
6115 Clouds 28 1007 78 10000 2.6 260 23:21 19.06.2019
6116 Clouds 28 1007 78 10000 3.1 250 22:46 19.06.2019
6117 Clouds 28 1007 74 10000 3.1 240 22:18 19.06.2019
6118 Clouds 28 1007 74 10000 3.1 240 21:46 19.06.2019
6119 Clouds 28 1007 74 10000 3.1 240 21:25 19.06.2019
6120 Clouds 28 1008 74 10000 3.1 250 20:56 19.06.2019
6121 Clouds 28 1008 74 10000 2.1 270 20:37 19.06.2019
6122 Clouds 28 1008 70 10000 2.6 250 20:19 19.06.2019
6123 Clouds 29 1008 74 10000 2.1 280 19:40 19.06.2019
6124 Clouds 27 1008 83 10000 1 210 19:20 19.06.2019
6125 Clouds 27 1008 78 10000 2.1 200 18:48 19.06.2019
6126 Rain 27 1008 78 10000 1.5 170 18:21 19.06.2019
6127 Rain 27 1007 78 10000 2.1 150 17:38 19.06.2019
6128 Rain 27 1008 74 10000 2.6 190 16:59 19.06.2019
6129 Rain 27 1008 74 10000 6.2 210 16:39 19.06.2019
6130 Rain 28 1007 79 10000 3.6 190 16:21 19.06.2019
6131 Rain 27 1007 79 10000 3.6 190 15:53 19.06.2019
6132 Rain 28 1007 74 10000 3.1 200 15:27 19.06.2019
6133 Clouds 30 1006 70 10000 3.6 180 14:51 19.06.2019
6134 Clouds 31 1006 70 10000 3.6 180 14:32 19.06.2019
6135 Clouds 31 1005 70 10000 2.6 190 13:59 19.06.2019
6136 Clouds 32 1005 66 10000 2.6 190 13:41 19.06.2019
6137 Clouds 32 1005 66 10000 2.1 210 13:23 19.06.2019
6138 Clouds 32 1005 59 10000 3.1 200 12:44 19.06.2019
6139 Clouds 32 1005 59 10000 3.6 190 12:22 19.06.2019
6140 Clouds 33 1005 59 10000 3.6 190 11:55 19.06.2019
6141 Clouds 33 1005 59 10000 2.6 210 11:37 19.06.2019
6142 Clouds 33 1006 59 10000 4.1 220 11:18 19.06.2019
6143 Clouds 33 1006 63 10000 4.6 210 10:41 19.06.2019
6144 Clouds 33 1006 63 10000 4.6 210 10:23 19.06.2019
6145 Clouds 33 1006 66 10000 4.6 210 09:41 19.06.2019
6146 Rain 33 1007 70 10000 4.1 190 09:20 19.06.2019
6147 Clouds 32 1007 66 10000 4.1 200 08:50 19.06.2019
6148 Clouds 32 1007 66 10000 4.1 200 08:28 19.06.2019
6149 Clouds 33 1008 66 10000 5.1 200 07:47 19.06.2019
6150 Clouds 33 1008 66 10000 5.1 200 07:25 19.06.2019
6151 Clouds 32 1009 66 10000 3.6 200 06:53 19.06.2019
6152 Clouds 31 1009 66 10000 3.6 200 06:29 19.06.2019
6153 Clouds 31 1009 70 10000 4.1 180 05:49 19.06.2019
6154 Clouds 32 1008 79 10000 2.6 160 04:41 19.06.2019
6155 Clouds 31 1008 83 10000 1.5 150 03:33 19.06.2019
6156 Clouds 28 1007 88 10000 2.1 180 02:26 19.06.2019
6157 Clouds 29 1007 83 10000 2.6 190 01:23 19.06.2019
6158 Clouds 28 1006 83 10000 2.1 190 00:43 19.06.2019
6159 Clouds 28 1006 83 10000 2.1 190 00:43 19.06.2019
6160 Clouds 28 1006 79 10000 2.6 190 00:20 19.06.2019
6161 Clouds 28 1006 79 10000 2.6 190 23:52 18.06.2019
6162 Clouds 29 1006 79 10000 3.1 180 23:28 18.06.2019
6163 Clouds 29 1006 79 10000 2.1 170 22:49 18.06.2019
6164 Clouds 29 1006 79 10000 2.1 170 22:25 18.06.2019
6165 Clouds 29 1006 79 10000 2.1 170 22:25 18.06.2019
6166 Clouds 29 1007 79 10000 2.6 180 21:57 18.06.2019
6167 Clouds 29 1007 79 10000 3.1 190 21:39 18.06.2019
6168 Clouds 29 1007 79 10000 4.1 190 21:20 18.06.2019
6169 Clouds 29 1007 79 10000 4.1 190 20:43 18.06.2019
6170 Clouds 29 1007 79 10000 4.1 190 20:25 18.06.2019
6171 Clouds 29 1008 79 10000 2.6 180 19:42 18.06.2019
6172 Clouds 29 1008 79 10000 2.6 180 19:24 18.06.2019
6173 Clouds 29 1008 74 10000 1.5 150 18:59 18.06.2019
6174 Clouds 29 1008 74 10000 2.1 150 18:39 18.06.2019
6175 Clouds 29 1008 74 10000 2.1 170 18:20 18.06.2019
6176 Clouds 30 1008 74 10000 2.6 200 17:39 18.06.2019
6177 Clouds 30 1007 74 10000 2.1 200 17:19 18.06.2019
6178 Clouds 30 1007 74 10000 3.1 210 16:43 18.06.2019
6179 Clouds 30 1007 74 10000 3.1 210 16:24 18.06.2019
6180 Clouds 30 1006 70 10000 4.1 210 15:43 18.06.2019
6181 Clouds 30 1006 70 10000 4.1 210 15:25 18.06.2019
6182 Clouds 30 1006 74 10000 3.1 210 14:59 18.06.2019
6183 Clouds 30 1006 70 10000 4.1 210 14:41 18.06.2019
6184 Clouds 30 1005 74 10000 4.6 200 14:21 18.06.2019
6185 Clouds 31 1005 70 10000 4.6 200 13:52 18.06.2019
6186 Clouds 31 1005 70 10000 4.6 200 13:31 18.06.2019
6187 Clouds 31 1005 66 10000 4.6 180 12:48 18.06.2019
6188 Clouds 31 1005 66 10000 4.6 180 12:30 18.06.2019
6189 Clouds 31 1005 70 10000 4.6 200 11:59 18.06.2019
6190 Clouds 31 1005 66 10000 4.6 190 11:40 18.06.2019
6191 Clouds 31 1005 70 10000 4.6 180 11:20 18.06.2019
6192 Clouds 31 1005 70 10000 4.6 180 10:55 18.06.2019
6193 Clouds 31 1006 66 10000 4.6 180 10:36 18.06.2019
6194 Clouds 31 1006 66 10000 4.1 200 10:18 18.06.2019
6195 Clouds 32 1006 62 10000 4.1 210 09:36 18.06.2019
6196 Clouds 32 1006 62 10000 4.6 220 09:18 18.06.2019
6197 Clouds 32 1007 62 10000 4.1 210 08:42 18.06.2019
6198 Clouds 32 1007 59 10000 4.6 230 08:21 18.06.2019
6199 Clouds 33 1007 59 10000 4.1 230 07:37 18.06.2019
6200 Clouds 33 1007 62 10000 4.1 210 07:18 18.06.2019
6201 Clouds 31 1008 66 10000 4.6 210 05:38 18.06.2019
6202 Clouds 31 1007 74 10000 3.1 200 04:23 18.06.2019
6203 Clouds 29 1006 79 10000 1.5 160 02:51 18.06.2019
6204 Clouds 29 1006 83 10000 1.5 150 01:52 18.06.2019
6205 Clouds 29 1006 83 10000 1.5 150 01:24 18.06.2019
6206 Clouds 29 1006 88 10000 1.5 120 00:41 18.06.2019
6207 Clouds 29 1006 88 10000 1.5 120 00:23 18.06.2019
6208 Clouds 28 1006 88 10000 2.64 217.104 23:40 17.06.2019
6209 Clouds 29 1006 88 10000 2.64 217.104 23:19 17.06.2019
6210 Clouds 28 1006 83 10000 1 140 22:42 17.06.2019
6211 Clouds 28 1006 83 10000 0.5 140 22:22 17.06.2019
6212 Clouds 28 1006 83 10000 0.5 140 21:58 17.06.2019
6213 Clouds 29 1006 83 10000 1.5 140 21:40 17.06.2019
6214 Clouds 29 1006 83 10000 2.1 160 21:20 17.06.2019
6215 Clouds 28 1007 94 10000 3.82 202.996 20:37 17.06.2019
6216 Clouds 28 1008 94 10000 4.62 198.023 20:18 17.06.2019
6217 Clouds 28 1008 94 10000 4.62 198.023 20:18 17.06.2019
6218 Clouds 29 1008 88 10000 4.62 198.023 19:42 17.06.2019
6219 Clouds 28 1008 94 10000 4.62 198.023 19:22 17.06.2019
6220 Clouds 28 1008 94 10000 4.62 198.023 18:57 17.06.2019
6221 Clouds 28 1008 88 10000 4.62 198.023 18:37 17.06.2019
6222 Clouds 30 1008 74 10000 2.1 230 18:18 17.06.2019
6223 Clouds 30 1008 74 10000 2.1 230 17:42 17.06.2019
6224 Clouds 30 1008 74 10000 3.1 250 17:24 17.06.2019
6225 Clouds 29 1007 79 10000 2.1 240 16:47 17.06.2019
6226 Clouds 29 1007 79 10000 2.1 240 16:29 17.06.2019
6227 Clouds 29 1007 94 10000 3.85 191.976 15:57 17.06.2019
6228 Clouds 29 1006 94 10000 3.85 191.976 15:38 17.06.2019
6229 Clouds 30 1006 94 10000 2.35 202.997 15:18 17.06.2019
6230 Clouds 29 1006 94 10000 0.5 0 14:51 17.06.2019
6231 Clouds 29 1006 94 10000 0.5 0 14:31 17.06.2019
6232 Clouds 29 1006 94 10000 2.35 202.997 13:50 17.06.2019
6233 Clouds 29 1006 88 10000 1.5 340 13:24 17.06.2019
6234 Rain 29 1005 94 8000 1.5 200 12:52 17.06.2019
6235 Rain 29 1005 94 8000 1.5 200 12:31 17.06.2019
6236 Rain 30 1006 74 10000 5.1 210 11:49 17.06.2019
6237 Rain 30 1006 74 10000 5.1 210 11:26 17.06.2019
6238 Clouds 31 1006 74 10000 4.6 210 10:59 17.06.2019
6239 Clouds 31 1006 74 10000 3.6 200 10:40 17.06.2019
6240 Clouds 31 1006 74 10000 3.6 210 10:22 17.06.2019
6241 Clouds 31 1007 74 10000 3.6 230 09:53 17.06.2019
6242 Clouds 31 1007 74 10000 3.6 230 09:30 17.06.2019
6243 Clouds 30 1007 79 10000 4.1 230 08:42 17.06.2019
6244 Clouds 30 1007 79 10000 2.6 260 08:23 17.06.2019
6245 Rain 30 1007 83 10000 3.1 270 07:46 17.06.2019
6246 Rain 30 1007 83 10000 3.1 270 07:28 17.06.2019
6247 Rain 32 1008 74 10000 3.1 190 06:44 17.06.2019
6248 Rain 30 1009 79 10000 2.1 210 05:49 17.06.2019
6249 Rain 31 1008 79 10000 0.5 0 04:42 17.06.2019
6250 Clouds 31 1008 83 10000 1 120 03:50 17.06.2019
6251 Clouds 29 1007 88 10000 3.5 182.374 03:20 17.06.2019
6252 Clouds 29 1007 88 10000 3.5 182.374 02:41 17.06.2019
6253 Clouds 28 1006 88 10000 3.5 182.374 01:56 17.06.2019
6254 Clouds 28 1006 94 10000 3.5 182.374 01:34 17.06.2019
6255 Clouds 27 1006 100 10000 3.65 182.154 00:45 17.06.2019
6256 Clouds 27 1006 100 10000 3.12 182.115 00:23 17.06.2019
6257 Clouds 28 1006 100 10000 3.12 182.115 23:43 16.06.2019
6258 Clouds 28 1006 100 10000 3.12 182.115 23:23 16.06.2019
6259 Clouds 29 1006 100 10000 3.12 182.115 22:57 16.06.2019
6260 Clouds 29 1006 100 10000 3.12 182.115 22:39 16.06.2019
6261 Clouds 29 1006 100 10000 3.12 182.115 22:19 16.06.2019
6262 Clouds 29 1006 100 10000 3.12 182.115 22:19 16.06.2019
6263 Clouds 29 1006 100 10000 3.12 182.115 21:55 16.06.2019
6264 Clouds 29 1006 100 10000 1 150 21:37 16.06.2019
6265 Clouds 29 1007 100 10000 1 110 21:19 16.06.2019
6266 Clouds 29 1007 100 10000 1.5 110 20:37 16.06.2019
6267 Clouds 29 1008 100 10000 2.1 120 20:19 16.06.2019
6268 Clouds 29 1008 100 10000 2.1 120 20:19 16.06.2019
6269 Clouds 29 1008 100 10000 2.1 120 19:55 16.06.2019
6270 Clouds 29 1008 100 10000 1.5 130 19:37 16.06.2019
6271 Clouds 29 1008 100 10000 1.5 130 19:37 16.06.2019
6272 Clouds 29 1008 100 10000 1.5 110 19:19 16.06.2019
6273 Clouds 30 1008 94 10000 1.5 120 18:41 16.06.2019
6274 Rain 30 1008 94 9000 3.68 237.489 18:21 16.06.2019
6275 Rain 30 1008 94 9000 3.68 237.489 18:21 16.06.2019
6276 Rain 29 1008 94 9000 3.68 237.489 17:49 16.06.2019
6277 Rain 29 1008 94 9000 1.5 80 17:24 16.06.2019
6278 Rain 30 1008 94 9000 1.5 80 16:57 16.06.2019
6279 Rain 30 1007 94 9000 3.68 237.489 16:39 16.06.2019
6280 Rain 29 1006 88 9000 1.5 150 16:21 16.06.2019
6281 Rain 29 1006 79 9000 2.1 250 15:45 16.06.2019
6282 Rain 30 1006 79 9000 2.1 250 15:26 16.06.2019
6283 Rain 30 1006 79 9000 2.1 250 14:56 16.06.2019
6284 Rain 29 1006 79 9000 2.1 250 14:36 16.06.2019
6285 Clouds 28 1006 79 10000 2.6 260 14:18 16.06.2019
6286 Rain 28 1005 79 10000 2.1 230 13:44 16.06.2019
6287 Rain 27 1005 83 10000 3.1 280 13:24 16.06.2019
6288 Rain 30 1005 88 9000 3.1 230 12:43 16.06.2019
6289 Rain 27 1005 88 8000 6.2 260 12:21 16.06.2019
6290 Rain 26 1005 100 3000 6.2 210 11:54 16.06.2019
6291 Rain 26 1005 100 3000 6.2 210 11:36 16.06.2019
6292 Rain 26 1005 100 3000 6.2 210 11:36 16.06.2019
6293 Rain 31 1005 83 9000 5.7 200 11:18 16.06.2019
6294 Rain 34 1005 79 7000 3.1 250 10:43 16.06.2019
6295 Clouds 34 1005 63 10000 3.6 220 10:19 16.06.2019
6296 Clouds 33 1005 63 10000 4.1 230 09:42 16.06.2019
6297 Clouds 34 1005 63 10000 3.6 210 09:23 16.06.2019
6298 Clouds 34 1006 59 10000 3.6 200 08:46 16.06.2019
6299 Clouds 35 1006 59 10000 4.1 230 08:20 16.06.2019
6300 Clouds 34 1007 59 10000 4.1 230 07:45 16.06.2019
6301 Clouds 34 1007 59 10000 4.1 230 07:26 16.06.2019
6302 Clouds 34 1007 63 10000 3.1 230 06:50 16.06.2019
6303 Clouds 33 1008 66 10000 3.6 230 05:53 16.06.2019
6304 Clouds 32 1008 74 10000 1.5 160 05:20 16.06.2019
6305 Clouds 32 1008 89 10000 1.5 140 04:21 16.06.2019
6306 Clouds 31 1007 88 10000 2.6 130 03:38 16.06.2019
6307 Clouds 29 1007 94 10000 1.5 110 03:18 16.06.2019
6308 Clouds 28 1007 100 10000 2.1 110 01:48 16.06.2019
6309 Clouds 28 1007 100 10000 2.1 110 01:28 16.06.2019
6310 Clouds 28 1006 100 10000 1.91 209.567 00:43 16.06.2019
6311 Clouds 28 1006 100 10000 1.96 219.443 00:23 16.06.2019
6312 Clouds 28 1006 100 10000 1.96 219.443 23:55 15.06.2019
6313 Clouds 28 1006 100 10000 1.96 219.443 23:37 15.06.2019
6314 Clouds 28 1006 94 10000 1 180 23:18 15.06.2019
6315 Clouds 28 1007 88 10000 1 220 22:43 15.06.2019
6316 Clouds 29 1007 88 10000 1 220 22:24 15.06.2019
6317 Rain 29 1007 88 10000 2.1 300 21:43 15.06.2019
6318 Rain 28 1008 88 10000 2.1 270 21:20 15.06.2019
6319 Rain 28 1008 94 10000 3.38 221.977 20:45 15.06.2019
6320 Rain 28 1008 100 10000 1 120 20:22 15.06.2019
6321 Rain 28 1008 94 10000 2.1 140 19:47 15.06.2019
6322 Rain 28 1008 94 10000 2.1 140 19:26 15.06.2019
6323 Rain 29 1008 94 10000 2.1 180 18:44 15.06.2019
6324 Rain 28 1008 94 10000 2.1 180 18:25 15.06.2019
6325 Thunderstorm 29 1008 94 9000 3.1 200 17:45 15.06.2019
6326 Thunderstorm 30 1008 94 9000 3.1 200 17:27 15.06.2019
6327 Thunderstorm 29 1007 100 3000 3.1 260 16:49 15.06.2019
6328 Rain 30 1007 84 5000 9.3 210 16:22 15.06.2019
6329 Rain 30 1007 84 5000 9.3 210 15:56 15.06.2019
6330 Clouds 31 1006 84 10000 3.1 180 15:37 15.06.2019
6331 Clouds 31 1006 74 10000 2.6 180 15:18 15.06.2019
6332 Clouds 31 1005 79 10000 1 210 14:37 15.06.2019
6333 Clouds 31 1005 74 10000 2.1 260 14:18 15.06.2019
6334 Clouds 31 1004 79 10000 3.1 280 13:42 15.06.2019
6335 Clouds 31 1004 84 10000 6.22 257.5 13:20 15.06.2019
6336 Thunderstorm 31 1004 83 9000 6.2 320 12:53 15.06.2019
6337 Thunderstorm 31 1004 83 9000 6.2 320 12:28 15.06.2019
6338 Thunderstorm 34 1004 59 8000 6.2 200 11:59 15.06.2019
6339 Clouds 35 1004 59 10000 4.1 190 11:41 15.06.2019
6340 Clouds 35 1004 56 10000 4.6 220 11:23 15.06.2019
6341 Clouds 35 1005 59 10000 3.1 210 10:41 15.06.2019
6342 Clouds 35 1005 56 10000 3.6 210 10:23 15.06.2019
6343 Clouds 35 1006 63 10000 5.7 210 09:44 15.06.2019
6344 Clouds 35 1006 63 10000 5.7 210 09:25 15.06.2019
6345 Clouds 34 1007 56 10000 4.1 280 08:54 15.06.2019
6346 Clouds 34 1007 56 10000 4.1 280 08:32 15.06.2019
6347 Clouds 34 1008 56 10000 6.7 250 07:50 15.06.2019
6348 Clouds 34 1008 56 10000 6.7 250 07:50 15.06.2019
6349 Clouds 34 1008 59 10000 5.7 240 07:25 15.06.2019
6350 Clouds 34 1008 59 10000 5.1 210 06:41 15.06.2019
6351 Clouds 33 1008 63 10000 3.1 240 06:19 15.06.2019
6352 Clouds 33 1008 63 10000 3.6 260 05:27 15.06.2019
6353 Clouds 33 1008 62 10000 3.6 260 04:44 15.06.2019
6354 Clouds 33 1008 62 10000 3.6 260 04:44 15.06.2019
6355 Clouds 33 1008 62 10000 3.6 260 04:44 15.06.2019
6356 Clouds 33 1008 62 10000 3.6 260 04:44 15.06.2019
6357 Clouds 32 1008 70 10000 4.1 220 03:44 15.06.2019
6358 Clouds 31 1008 74 10000 3.6 230 02:56 15.06.2019
6359 Clouds 30 1008 79 10000 3.6 220 02:22 15.06.2019
6360 Clouds 30 1007 79 10000 3.6 240 01:44 15.06.2019
6361 Clouds 30 1007 79 10000 4.1 230 00:56 15.06.2019
6362 Clouds 30 1006 79 10000 3.6 210 00:37 15.06.2019
6363 Clouds 30 1006 83 10000 3.6 210 23:54 14.06.2019
6364 Clouds 29 1006 79 10000 2.6 200 23:26 14.06.2019
6365 Clouds 29 1006 74 10000 3.6 220 22:45 14.06.2019
6366 Clouds 29 1007 74 10000 3.6 220 22:23 14.06.2019
6367 Clouds 29 1007 74 10000 3.6 220 22:00 14.06.2019
6368 Clouds 29 1007 74 10000 2.6 230 21:40 14.06.2019
6369 Clouds 30 1007 79 10000 3.1 230 21:21 14.06.2019
6370 Clouds 30 1008 84 10000 4.1 240 20:42 14.06.2019
6371 Clouds 30 1008 89 10000 1.5 200 20:18 14.06.2019
6372 Clouds 30 1008 89 10000 1.5 200 19:54 14.06.2019
6373 Clouds 31 1008 84 10000 2.1 180 19:24 14.06.2019
6374 Clouds 31 1008 84 10000 2.1 180 18:59 14.06.2019
6375 Clouds 31 1008 84 10000 2.6 170 18:41 14.06.2019
6376 Clouds 31 1008 84 10000 2.6 170 18:41 14.06.2019
6377 Clouds 31 1008 84 10000 3.6 190 18:22 14.06.2019
6378 Clouds 31 1008 84 10000 3.1 200 17:48 14.06.2019
6379 Clouds 31 1008 84 10000 3.1 200 17:30 14.06.2019
6380 Clouds 31 1008 74 10000 3.6 190 16:58 14.06.2019
6381 Clouds 31 1007 74 10000 3.1 190 16:40 14.06.2019
6382 Clouds 31 1006 74 10000 4.6 210 16:19 14.06.2019
6383 Clouds 31 1006 74 10000 4.1 210 15:41 14.06.2019
6384 Clouds 31 1006 70 10000 5.1 190 15:23 14.06.2019
6385 Clouds 31 1005 70 10000 4.6 230 14:55 14.06.2019
6386 Clouds 31 1005 70 10000 4.6 230 14:35 14.06.2019
6387 Clouds 31 1005 70 10000 4.6 230 14:35 14.06.2019
6388 Clouds 32 1005 66 10000 4.6 210 13:57 14.06.2019
6389 Clouds 32 1004 66 10000 5.1 220 13:38 14.06.2019
6390 Clouds 32 1004 63 10000 5.7 230 13:19 14.06.2019
6391 Clouds 32 1004 63 10000 5.7 230 13:19 14.06.2019
6392 Clouds 33 1004 63 10000 6.2 230 12:42 14.06.2019
6393 Clouds 33 1004 63 10000 6.2 230 12:42 14.06.2019
6394 Clouds 33 1004 63 10000 4.6 200 12:23 14.06.2019
6395 Clouds 34 1004 66 10000 6.2 220 11:47 14.06.2019
6396 Clouds 34 1004 66 10000 6.2 220 11:24 14.06.2019
6397 Clouds 34 1004 59 10000 4.1 220 10:58 14.06.2019
6398 Clouds 34 1005 59 10000 3.6 240 10:39 14.06.2019
6399 Clouds 35 1005 63 10000 3.1 200 10:18 14.06.2019
6400 Clouds 34 1005 59 10000 3.6 240 09:39 14.06.2019
6401 Clouds 35 1006 59 10000 5.1 230 09:20 14.06.2019
6402 Clouds 34 1006 59 10000 4.6 240 08:45 14.06.2019
6403 Clouds 34 1006 59 10000 3.1 250 08:18 14.06.2019
6404 Clouds 34 1007 59 10000 5.1 240 07:48 14.06.2019
6405 Clouds 33 1007 66 10000 5.1 240 07:20 14.06.2019
6406 Clouds 33 1008 63 10000 6.2 240 06:31 14.06.2019
6407 -273 0 0 0 0 0 05:55 14.06.2019
6408 Clouds 32 1009 70 10000 4.6 220 05:00 14.06.2019
6409 Clouds 33 1008 70 10000 4.6 200 04:37 14.06.2019
6410 Clouds 32 1008 74 10000 3.6 180 03:51 14.06.2019
6411 Clouds 31 1008 74 10000 3.6 180 03:25 14.06.2019
6412 Clouds 31 1008 74 10000 3.6 180 03:25 14.06.2019
6413 Clouds 31 1008 74 10000 3.6 180 03:25 14.06.2019
6414 Clouds 30 1007 83 10000 0.5 150 02:47 14.06.2019
6415 Clouds 30 1007 88 10000 2.99 199.713 01:58 14.06.2019
6416 Clouds 29 1007 94 10000 2.99 199.713 00:49 14.06.2019
6417 Clouds 28 1007 88 10000 2.44 191.103 00:22 14.06.2019
6418 Clouds 29 1007 88 10000 2.44 191.103 23:56 13.06.2019
6419 Clouds 29 1007 94 10000 2.44 191.103 23:27 13.06.2019
6420 Clouds 28 1006 100 10000 2.44 191.103 22:59 13.06.2019
6421 Clouds 28 1006 100 10000 2.44 191.103 22:39 13.06.2019
6422 Clouds 28 1006 100 10000 2.44 191.103 22:20 13.06.2019
6423 Clouds 28 1007 100 10000 2.44 191.103 21:39 13.06.2019
6424 Clouds 28 1007 100 10000 2.62 210.507 21:20 13.06.2019
6425 Clouds 29 1007 94 10000 2.62 210.507 20:45 13.06.2019
6426 Clouds 29 1008 94 10000 2.62 210.507 20:22 13.06.2019
6427 Clouds 29 1008 94 10000 2.62 210.507 19:57 13.06.2019
6428 Clouds 29 1008 94 10000 2.62 210.507 19:37 13.06.2019
6429 Clouds 29 1008 94 10000 2.62 210.507 19:19 13.06.2019
6430 Clouds 29 1008 94 10000 2.62 210.507 18:46 13.06.2019
6431 Clouds 30 1008 88 10000 1.5 190 18:28 13.06.2019
6432 Clouds 30 1008 88 10000 1.5 190 17:59 13.06.2019
6433 Clouds 31 1008 88 10000 3.48 219.898 17:41 13.06.2019
6434 Rain 30 1008 88 10000 2.1 150 17:20 13.06.2019
6435 Thunderstorm 30 1007 88 8000 3.1 170 16:46 13.06.2019
6436 Thunderstorm 29 1007 94 8000 4.6 190 16:21 13.06.2019
6437 Thunderstorm 29 1007 94 8000 4.6 190 15:56 13.06.2019
6438 Thunderstorm 29 1007 100 3000 5.1 190 15:38 13.06.2019
6439 Rain 30 1006 79 9000 4.1 290 15:18 13.06.2019
6440 Clouds 31 1006 70 10000 5.1 200 14:44 13.06.2019
6441 Rain 31 1005 70 10000 6.2 190 14:23 13.06.2019
6442 Clouds 31 1005 74 10000 5.1 190 13:44 13.06.2019
6443 Clouds 32 1005 70 10000 5.1 190 13:21 13.06.2019
6444 Clouds 32 1004 70 10000 4.6 200 12:42 13.06.2019
6445 Clouds 32 1004 70 10000 5.7 190 12:22 13.06.2019
6446 Clouds 32 1004 70 10000 5.7 190 11:57 13.06.2019
6447 Clouds 32 1004 70 10000 5.7 190 11:57 13.06.2019
6448 Clouds 33 1004 66 10000 5.1 190 11:38 13.06.2019
6449 Clouds 33 1005 66 10000 4.1 200 11:19 13.06.2019
6450 Clouds 33 1005 59 10000 4.6 220 10:43 13.06.2019
6451 Clouds 34 1005 63 10000 5.1 210 10:24 13.06.2019
6452 Clouds 34 1006 63 10000 6.2 220 09:44 13.06.2019
6453 Clouds 33 1006 63 10000 5.1 220 09:23 13.06.2019
6454 Clouds 33 1007 66 10000 5.1 220 08:48 13.06.2019
6455 Clouds 33 1007 66 10000 5.1 220 08:28 13.06.2019
6456 Clouds 33 1007 59 10000 5.1 210 07:53 13.06.2019
6457 Clouds 33 1007 63 10000 4.6 200 07:25 13.06.2019
6458 Clouds 33 1008 63 10000 5.1 210 06:51 13.06.2019
6459 Clouds 33 1008 59 10000 4.6 200 06:24 13.06.2019
6460 Clouds 33 1008 63 10000 3.6 190 05:55 13.06.2019
6461 Clouds 33 1008 63 10000 3.6 190 05:37 13.06.2019
6462 Clouds 33 1008 63 10000 4.6 200 04:57 13.06.2019
6463 Clouds 30 1007 74 10000 3.1 180 02:26 13.06.2019
6464 Clouds 29 1006 79 10000 2.6 190 00:47 13.06.2019
6465 Clouds 29 1006 83 10000 3.1 170 23:52 12.06.2019
6466 Clouds 29 1006 83 10000 2.1 180 23:23 12.06.2019
6467 Clouds 29 1006 79 10000 2.6 180 22:44 12.06.2019
6468 Clouds 29 1006 79 10000 2.6 180 22:26 12.06.2019
6469 Clouds 29 1006 79 10000 2.1 190 21:56 12.06.2019
6470 Clouds 29 1006 79 10000 2.1 190 21:37 12.06.2019
6471 Clouds 29 1006 74 10000 2.6 170 21:18 12.06.2019
6472 Clouds 29 1006 74 10000 2.6 170 21:18 12.06.2019
6473 Clouds 29 1007 79 10000 2.6 180 20:38 12.06.2019
6474 Clouds 29 1007 74 10000 2.1 140 20:20 12.06.2019
6475 Clouds 29 1007 79 10000 1.5 180 19:42 12.06.2019
6476 Clouds 30 1007 74 10000 2.6 190 19:23 12.06.2019
6477 Rain 29 1008 79 10000 3.1 210 18:56 12.06.2019
6478 Rain 29 1008 79 10000 3.1 210 18:38 12.06.2019
6479 Rain 30 1008 74 10000 3.1 210 18:19 12.06.2019
6480 Clouds 30 1008 74 10000 3.6 210 17:43 12.06.2019
6481 Clouds 30 1008 74 10000 4.1 210 17:20 12.06.2019
6482 Clouds 30 1007 70 10000 3.6 210 16:42 12.06.2019
6483 Clouds 31 1007 66 10000 5.7 230 16:23 12.06.2019
6484 Clouds 30 1006 74 10000 4.1 210 15:53 12.06.2019
6485 Clouds 30 1006 74 10000 4.1 210 15:32 12.06.2019
6486 Clouds 31 1005 74 10000 4.6 190 14:49 12.06.2019
6487 Clouds 31 1005 74 10000 4.6 190 14:27 12.06.2019
6488 Clouds 31 1005 74 10000 4.6 190 13:44 12.06.2019
6489 Clouds 32 1005 70 10000 6.7 190 13:21 12.06.2019
6490 Clouds 32 1005 70 10000 6.7 190 12:59 12.06.2019
6491 Clouds 32 1005 70 10000 6.2 210 12:39 12.06.2019
6492 Clouds 32 1005 70 10000 6.2 210 12:39 12.06.2019
6493 Clouds 33 1005 66 10000 5.7 210 12:19 12.06.2019
6494 Clouds 33 1005 66 10000 5.7 210 12:19 12.06.2019
6495 Clouds 33 1005 66 10000 5.7 210 12:19 12.06.2019
6496 Clouds 33 1005 63 10000 5.1 220 11:47 12.06.2019
6497 Clouds 33 1005 63 10000 5.1 220 11:28 12.06.2019
6498 Clouds 33 1005 63 10000 6.7 200 10:52 12.06.2019
6499 Clouds 33 1005 63 10000 6.7 200 10:31 12.06.2019
6500 Clouds 33 1006 63 10000 5.1 210 09:46 12.06.2019
6501 Clouds 34 1006 63 10000 5.1 210 09:24 12.06.2019
6502 Clouds 34 1006 66 10000 4.6 190 08:58 12.06.2019
6503 Clouds 34 1007 63 10000 5.1 200 08:24 12.06.2019
6504 Clouds 33 1008 63 10000 5.7 200 07:52 12.06.2019
6505 Clouds 34 1008 66 10000 5.1 190 06:55 12.06.2019
6506 Clouds 32 1009 70 10000 5.1 200 05:52 12.06.2019
6507 Clouds 32 1009 70 10000 5.1 200 05:23 12.06.2019
6508 Clouds 28 1007 94 8000 2.1 120 02:18 12.06.2019
6509 Clouds 29 1006 94 10000 2.1 100 00:40 12.06.2019
6510 Clouds 29 1007 94 10000 2.6 110 23:52 11.06.2019
6511 Clouds 29 1007 94 10000 2.6 110 23:33 11.06.2019
6512 Clouds 29 1007 94 10000 2.6 110 22:44 11.06.2019
6513 Clouds 29 1007 94 10000 2.1 100 22:23 11.06.2019
6514 Clouds 29 1007 94 10000 2.1 100 21:58 11.06.2019
6515 Clouds 29 1007 94 10000 2.6 100 21:40 11.06.2019
6516 Clouds 29 1007 94 10000 0.5 0 21:21 11.06.2019
6517 Clouds 29 1008 94 10000 0.5 0 20:49 11.06.2019
6518 Clouds 29 1008 94 10000 0.5 0 20:27 11.06.2019
6519 Clouds 29 1008 88 10000 1.5 150 19:57 11.06.2019
6520 Clouds 29 1008 88 10000 1.5 150 19:39 11.06.2019
6521 Clouds 29 1008 83 10000 2.1 140 19:18 11.06.2019
6522 Clouds 30 1007 88 10000 2.1 140 18:40 11.06.2019
6523 Clouds 28 1008 83 10000 1.5 150 18:18 11.06.2019
6524 Clouds 29 1007 88 10000 2.6 160 17:41 11.06.2019
6525 Clouds 28 1007 88 10000 1.5 150 17:19 11.06.2019
6526 Clouds 28 1007 88 10000 2.1 170 16:42 11.06.2019
6527 Clouds 28 1007 88 10000 2.6 160 16:23 11.06.2019
6528 Clouds 28 1007 88 10000 2.6 160 16:23 11.06.2019
6529 Clouds 28 1007 88 9000 2.1 180 15:43 11.06.2019
6530 Clouds 28 1007 88 9000 2.1 180 15:43 11.06.2019
6531 Clouds 28 1007 88 9000 2.1 180 15:25 11.06.2019
6532 Clouds 28 1006 94 9000 2.1 120 14:54 11.06.2019
6533 Clouds 29 1006 88 9000 1.5 120 14:23 11.06.2019
6534 Clouds 29 1006 88 9000 1.5 120 13:58 11.06.2019
6535 Clouds 29 1006 94 9000 2.1 110 13:37 11.06.2019
6536 Clouds 29 1005 94 9000 1.5 110 13:19 11.06.2019
6537 Rain 29 1005 88 9000 1.5 90 12:41 11.06.2019
6538 Clouds 29 1005 88 9000 1.5 110 12:21 11.06.2019
6539 Clouds 29 1005 88 9000 2.1 100 11:49 11.06.2019
6540 Clouds 29 1005 88 9000 2.1 100 11:30 11.06.2019
6541 Clouds 28 1006 94 9000 2.1 140 10:50 11.06.2019
6542 Clouds 28 1006 94 9000 2.1 140 10:27 11.06.2019
6543 Clouds 27 1006 94 8000 3.1 110 09:51 11.06.2019
6544 Clouds 27 1006 94 8000 3.1 110 09:25 11.06.2019
6545 Rain 25 1007 100 8000 4.1 130 08:49 11.06.2019
6546 Rain 25 1007 100 8000 4.1 130 08:30 11.06.2019
6547 Thunderstorm 25 1008 100 8000 2.1 140 07:57 11.06.2019
6548 Rain 28 1008 94 8000 1.5 50 07:31 11.06.2019
6549 Rain 28 1009 94 1500 8.7 280 06:52 11.06.2019
6550 Rain 31 1008 70 10000 4.1 190 05:20 11.06.2019
6551 Clouds 31 1007 70 10000 4.1 160 03:55 11.06.2019
6552 Clouds 29 1007 83 10000 2.1 120 01:53 11.06.2019
6553 Clouds 28 1006 78 10000 2.92 212.172 00:49 11.06.2019
6554 Clouds 29 1006 78 10000 2.06 198.505 00:23 11.06.2019
6555 Clouds 29 1006 78 10000 1.5 210 23:41 10.06.2019
6556 Clouds 29 1006 78 10000 1.5 190 22:59 10.06.2019
6557 Clouds 28 1006 78 10000 2.58 213.888 22:41 10.06.2019
6558 Clouds 28 1006 78 10000 2.58 213.888 22:23 10.06.2019
6559 Clouds 28 1006 78 10000 1 200 21:41 10.06.2019
6560 Clouds 28 1006 78 10000 1.5 240 21:23 10.06.2019
6561 Clouds 29 1006 78 10000 1.5 240 20:57 10.06.2019
6562 Clouds 29 1007 74 10000 2.6 260 20:38 10.06.2019
6563 Clouds 29 1007 78 10000 2.1 220 20:19 10.06.2019
6564 Clouds 29 1007 74 10000 2.6 250 19:43 10.06.2019
6565 Clouds 29 1007 74 10000 2.6 250 19:22 10.06.2019
6566 Clouds 30 1007 74 10000 2.6 250 18:56 10.06.2019
6567 Clouds 30 1007 70 10000 2.6 260 18:38 10.06.2019
6568 Clouds 30 1007 70 10000 4.1 250 18:19 10.06.2019
6569 Clouds 30 1007 70 10000 4.1 250 17:41 10.06.2019
6570 Clouds 30 1007 70 10000 4.1 250 17:22 10.06.2019
6571 Clouds 31 1006 70 10000 4.1 250 16:46 10.06.2019
6572 Clouds 31 1006 70 10000 4.1 250 16:28 10.06.2019
6573 Clouds 31 1006 79 10000 3.6 210 15:56 10.06.2019
6574 Clouds 31 1006 79 10000 3.6 210 15:37 10.06.2019
6575 Clouds 31 1005 79 10000 4.1 210 15:19 10.06.2019
6576 Clouds 31 1005 79 10000 4.6 210 14:40 10.06.2019
6577 Rain 31 1005 74 8000 4.1 210 14:21 10.06.2019
6578 Clouds 32 1004 66 10000 4.6 220 13:45 10.06.2019
6579 Clouds 32 1004 66 10000 4.6 230 13:23 10.06.2019
6580 Clouds 32 1004 70 10000 4.6 220 12:45 10.06.2019
6581 Clouds 32 1004 70 10000 4.6 220 12:27 10.06.2019
6582 Clouds 32 1004 74 10000 3.6 260 11:49 10.06.2019
6583 Clouds 32 1004 74 10000 3.6 260 11:30 10.06.2019
6584 Clouds 33 1004 74 10000 3.6 260 10:58 10.06.2019
6585 Rain 32 1004 84 8000 5.1 280 10:38 10.06.2019
6586 Clouds 33 1004 70 10000 6.2 210 10:18 10.06.2019
6587 Rain 33 1004 66 9000 5.1 220 09:47 10.06.2019
6588 Rain 33 1004 66 9000 5.1 220 09:28 10.06.2019
6589 Clouds 33 1005 66 10000 5.7 210 08:46 10.06.2019
6590 Clouds 33 1005 66 10000 5.7 210 08:26 10.06.2019
6591 Clouds 34 1006 59 10000 5.7 210 07:26 10.06.2019
6592 Clouds 32 1007 74 10000 3.1 200 04:41 10.06.2019
6593 Clouds 29 1006 94 10000 1.5 110 02:18 10.06.2019
6594 Clouds 28 1006 88 10000 3 195.841 01:28 10.06.2019
6595 Clouds 28 1005 88 10000 1 120 00:59 10.06.2019
6596 Clouds 28 1005 88 10000 2.33 185.718 00:24 10.06.2019
6597 Clouds 28 1005 83 10000 2.33 185.718 23:44 09.06.2019
6598 Clouds 28 1006 88 10000 2.33 185.718 23:21 09.06.2019
6599 Clouds 28 1006 83 10000 2.33 185.718 22:45 09.06.2019
6600 Clouds 28 1006 83 10000 2.33 185.718 22:25 09.06.2019
6601 Clouds 28 1006 83 10000 1 190 21:46 09.06.2019
6602 Clouds 28 1006 83 10000 1 190 21:46 09.06.2019
6603 Clouds 28 1006 83 10000 1 190 21:27 09.06.2019
6604 Clouds 28 1006 83 10000 1 190 21:27 09.06.2019
6605 Clouds 28 1007 74 10000 1 210 20:45 09.06.2019
6606 Clouds 28 1007 78 10000 2.68 186.612 20:24 09.06.2019
6607 Clouds 28 1007 78 10000 2.68 186.612 19:58 09.06.2019
6608 Clouds 28 1007 78 10000 1 180 19:39 09.06.2019
6609 Clouds 29 1008 78 10000 1.5 230 19:18 09.06.2019
6610 Clouds 29 1008 74 10000 2.1 250 18:42 09.06.2019
6611 Clouds 28 1007 83 10000 1 200 18:24 09.06.2019
6612 Clouds 29 1007 83 10000 2.6 210 17:48 09.06.2019
6613 Clouds 29 1007 83 10000 2.6 210 17:28 09.06.2019
6614 Clouds 29 1007 74 10000 3.1 240 16:55 09.06.2019
6615 Clouds 29 1007 74 10000 3.6 240 16:37 09.06.2019
6616 Clouds 30 1006 74 10000 5.1 230 16:19 09.06.2019
6617 Clouds 30 1005 79 10000 4.1 230 15:47 09.06.2019
6618 Clouds 30 1005 79 10000 4.1 230 15:28 09.06.2019
6619 Clouds 29 1005 88 10000 1.5 210 14:46 09.06.2019
6620 Clouds 29 1005 88 10000 1.5 210 14:27 09.06.2019
6621 Clouds 30 1005 88 10000 1.5 220 13:56 09.06.2019
6622 Clouds 29 1004 83 10000 1.5 200 13:36 09.06.2019
6623 Rain 28 1005 100 9000 2.1 210 12:44 09.06.2019
6624 Rain 28 1005 100 9000 2.1 210 12:26 09.06.2019
6625 Thunderstorm 29 1006 94 1500 9.8 260 11:48 09.06.2019
6626 Thunderstorm 29 1006 94 1500 9.8 260 11:29 09.06.2019
6627 Clouds 34 1004 59 10000 4.1 250 10:47 09.06.2019
6628 Clouds 34 1004 59 10000 4.1 250 10:24 09.06.2019
6629 Clouds 34 1006 59 10000 6.2 240 09:42 09.06.2019
6630 Clouds 35 1006 59 10000 6.2 240 09:24 09.06.2019
6631 Clouds 34 1006 59 10000 6.2 260 08:58 09.06.2019
6632 Rain 34 1006 63 10000 5.7 260 08:40 09.06.2019
6633 Clouds 33 1007 63 10000 4.1 250 07:50 09.06.2019
6634 Clouds 33 1008 66 10000 4.1 270 06:30 09.06.2019
6635 Clouds 32 1008 70 10000 4.6 250 05:34 09.06.2019
6636 Clouds 28 1008 94 9000 3.08 213.546 01:58 09.06.2019
6637 Clouds 27 1007 100 9000 3.26 212.289 01:36 09.06.2019
6638 Clouds 27 1007 100 9000 3.26 212.289 01:36 09.06.2019
6639 Clouds 27 1007 94 9000 3.26 212.289 01:18 09.06.2019
6640 Clouds 28 1007 100 10000 2.84 226.34 00:21 09.06.2019
6641 Clouds 27 1007 94 10000 2.84 226.34 23:38 08.06.2019
6642 Clouds 27 1007 94 10000 2.84 226.34 23:20 08.06.2019
6643 Clouds 27 1007 100 10000 2.84 226.34 22:43 08.06.2019
6644 Cloud